<?xml version="1.0" encoding="utf-8"?>
<gpx xmlns:xsi="http://www.w3.org/2001/XMLSchema-instance" xmlns:xsd="http://www.w3.org/2001/XMLSchema" version="1.1" creator="Shapelink.com" xmlns="http://www.topografix.com/GPX/1/1" xmlns:gpxtpx="http://www.garmin.com/xmlschemas/TrackPointExtension/v1">
  <metadata>
    <name>Ciclismo 21.53 km, 2020-01-12</name>
    <desc></desc>
    <author><name>Peter Littke</name></author> 
    <time>2020-01-12T06:03:36Z</time>
  </metadata>
  <trk>
    <name>Ciclismo 21.53 km, 2020-01-12</name>
    <trkseg>
      <trkpt lat="59.173489" lon="18.143403">
        <ele>0</ele>
        <time>2020-01-12T06:03:36Z</time>
      </trkpt>
      <trkpt lat="59.173538" lon="18.143412">
        <ele>54</ele>
        <time>2020-01-12T06:04:08Z</time>
      </trkpt>
      <trkpt lat="59.173563" lon="18.143417">
        <ele>54</ele>
        <time>2020-01-12T06:04:09Z</time>
      </trkpt>
      <trkpt lat="59.173592" lon="18.14343">
        <ele>54</ele>
        <time>2020-01-12T06:04:11Z</time>
      </trkpt>
      <trkpt lat="59.173624" lon="18.143444">
        <ele>54</ele>
        <time>2020-01-12T06:04:12Z</time>
      </trkpt>
      <trkpt lat="59.173654" lon="18.143454">
        <ele>54</ele>
        <time>2020-01-12T06:04:13Z</time>
      </trkpt>
      <trkpt lat="59.173683" lon="18.143462">
        <ele>54</ele>
        <time>2020-01-12T06:04:14Z</time>
      </trkpt>
      <trkpt lat="59.17371" lon="18.143474">
        <ele>55</ele>
        <time>2020-01-12T06:04:15Z</time>
      </trkpt>
      <trkpt lat="59.173737" lon="18.143486">
        <ele>55</ele>
        <time>2020-01-12T06:04:16Z</time>
      </trkpt>
      <trkpt lat="59.173765" lon="18.143494">
        <ele>55</ele>
        <time>2020-01-12T06:04:17Z</time>
      </trkpt>
      <trkpt lat="59.173791" lon="18.143494">
        <ele>55</ele>
        <time>2020-01-12T06:04:18Z</time>
      </trkpt>
      <trkpt lat="59.173817" lon="18.143464">
        <ele>55</ele>
        <time>2020-01-12T06:04:19Z</time>
      </trkpt>
      <trkpt lat="59.173846" lon="18.143394">
        <ele>55</ele>
        <time>2020-01-12T06:04:20Z</time>
      </trkpt>
      <trkpt lat="59.173863" lon="18.143316">
        <ele>54</ele>
        <time>2020-01-12T06:04:21Z</time>
      </trkpt>
      <trkpt lat="59.173875" lon="18.143234">
        <ele>54</ele>
        <time>2020-01-12T06:04:22Z</time>
      </trkpt>
      <trkpt lat="59.17388" lon="18.143152">
        <ele>54</ele>
        <time>2020-01-12T06:04:23Z</time>
      </trkpt>
      <trkpt lat="59.173888" lon="18.143082">
        <ele>53</ele>
        <time>2020-01-12T06:04:24Z</time>
      </trkpt>
      <trkpt lat="59.173901" lon="18.143019">
        <ele>53</ele>
        <time>2020-01-12T06:04:25Z</time>
      </trkpt>
      <trkpt lat="59.173916" lon="18.142961">
        <ele>52</ele>
        <time>2020-01-12T06:04:26Z</time>
      </trkpt>
      <trkpt lat="59.17394" lon="18.142922">
        <ele>52</ele>
        <time>2020-01-12T06:04:27Z</time>
      </trkpt>
      <trkpt lat="59.173976" lon="18.142912">
        <ele>52</ele>
        <time>2020-01-12T06:04:28Z</time>
      </trkpt>
      <trkpt lat="59.174021" lon="18.142922">
        <ele>51</ele>
        <time>2020-01-12T06:04:29Z</time>
      </trkpt>
      <trkpt lat="59.174069" lon="18.142938">
        <ele>51</ele>
        <time>2020-01-12T06:04:30Z</time>
      </trkpt>
      <trkpt lat="59.174122" lon="18.142956">
        <ele>51</ele>
        <time>2020-01-12T06:04:31Z</time>
      </trkpt>
      <trkpt lat="59.174179" lon="18.142974">
        <ele>51</ele>
        <time>2020-01-12T06:04:32Z</time>
      </trkpt>
      <trkpt lat="59.174241" lon="18.142994">
        <ele>50</ele>
        <time>2020-01-12T06:04:33Z</time>
      </trkpt>
      <trkpt lat="59.174306" lon="18.143016">
        <ele>50</ele>
        <time>2020-01-12T06:04:34Z</time>
      </trkpt>
      <trkpt lat="59.174374" lon="18.143042">
        <ele>50</ele>
        <time>2020-01-12T06:04:35Z</time>
      </trkpt>
      <trkpt lat="59.174443" lon="18.143067">
        <ele>49</ele>
        <time>2020-01-12T06:04:36Z</time>
      </trkpt>
      <trkpt lat="59.174511" lon="18.143098">
        <ele>49</ele>
        <time>2020-01-12T06:04:37Z</time>
      </trkpt>
      <trkpt lat="59.174579" lon="18.143132">
        <ele>49</ele>
        <time>2020-01-12T06:04:38Z</time>
      </trkpt>
      <trkpt lat="59.174647" lon="18.143172">
        <ele>48</ele>
        <time>2020-01-12T06:04:39Z</time>
      </trkpt>
      <trkpt lat="59.17471" lon="18.14322">
        <ele>48</ele>
        <time>2020-01-12T06:04:40Z</time>
      </trkpt>
      <trkpt lat="59.174768" lon="18.143272">
        <ele>47</ele>
        <time>2020-01-12T06:04:41Z</time>
      </trkpt>
      <trkpt lat="59.17482" lon="18.143325">
        <ele>47</ele>
        <time>2020-01-12T06:04:42Z</time>
      </trkpt>
      <trkpt lat="59.174863" lon="18.143378">
        <ele>47</ele>
        <time>2020-01-12T06:04:43Z</time>
      </trkpt>
      <trkpt lat="59.174906" lon="18.143416">
        <ele>47</ele>
        <time>2020-01-12T06:04:44Z</time>
      </trkpt>
      <trkpt lat="59.174952" lon="18.14342">
        <ele>47</ele>
        <time>2020-01-12T06:04:45Z</time>
      </trkpt>
      <trkpt lat="59.175001" lon="18.143389">
        <ele>46</ele>
        <time>2020-01-12T06:04:46Z</time>
      </trkpt>
      <trkpt lat="59.17505" lon="18.143337">
        <ele>46</ele>
        <time>2020-01-12T06:04:47Z</time>
      </trkpt>
      <trkpt lat="59.175097" lon="18.14327">
        <ele>46</ele>
        <time>2020-01-12T06:04:48Z</time>
      </trkpt>
      <trkpt lat="59.175142" lon="18.143188">
        <ele>46</ele>
        <time>2020-01-12T06:04:49Z</time>
      </trkpt>
      <trkpt lat="59.175187" lon="18.1431">
        <ele>45</ele>
        <time>2020-01-12T06:04:50Z</time>
      </trkpt>
      <trkpt lat="59.175233" lon="18.143008">
        <ele>45</ele>
        <time>2020-01-12T06:04:51Z</time>
      </trkpt>
      <trkpt lat="59.175282" lon="18.142916">
        <ele>45</ele>
        <time>2020-01-12T06:04:52Z</time>
      </trkpt>
      <trkpt lat="59.175331" lon="18.142822">
        <ele>45</ele>
        <time>2020-01-12T06:04:53Z</time>
      </trkpt>
      <trkpt lat="59.175382" lon="18.142728">
        <ele>45</ele>
        <time>2020-01-12T06:04:54Z</time>
      </trkpt>
      <trkpt lat="59.175433" lon="18.142632">
        <ele>44</ele>
        <time>2020-01-12T06:04:55Z</time>
      </trkpt>
      <trkpt lat="59.175483" lon="18.142534">
        <ele>44</ele>
        <time>2020-01-12T06:04:56Z</time>
      </trkpt>
      <trkpt lat="59.175532" lon="18.142432">
        <ele>44</ele>
        <time>2020-01-12T06:04:57Z</time>
      </trkpt>
      <trkpt lat="59.175584" lon="18.142339">
        <ele>44</ele>
        <time>2020-01-12T06:04:58Z</time>
      </trkpt>
      <trkpt lat="59.17564" lon="18.142258">
        <ele>43</ele>
        <time>2020-01-12T06:04:59Z</time>
      </trkpt>
      <trkpt lat="59.175701" lon="18.142202">
        <ele>43</ele>
        <time>2020-01-12T06:05:00Z</time>
      </trkpt>
      <trkpt lat="59.175766" lon="18.142176">
        <ele>43</ele>
        <time>2020-01-12T06:05:01Z</time>
      </trkpt>
      <trkpt lat="59.17583" lon="18.142149">
        <ele>43</ele>
        <time>2020-01-12T06:05:02Z</time>
      </trkpt>
      <trkpt lat="59.175892" lon="18.142099">
        <ele>43</ele>
        <time>2020-01-12T06:05:03Z</time>
      </trkpt>
      <trkpt lat="59.175946" lon="18.142025">
        <ele>43</ele>
        <time>2020-01-12T06:05:04Z</time>
      </trkpt>
      <trkpt lat="59.175994" lon="18.141932">
        <ele>43</ele>
        <time>2020-01-12T06:05:05Z</time>
      </trkpt>
      <trkpt lat="59.176039" lon="18.141827">
        <ele>42</ele>
        <time>2020-01-12T06:05:06Z</time>
      </trkpt>
      <trkpt lat="59.176088" lon="18.141724">
        <ele>42</ele>
        <time>2020-01-12T06:05:07Z</time>
      </trkpt>
      <trkpt lat="59.176142" lon="18.141631">
        <ele>42</ele>
        <time>2020-01-12T06:05:08Z</time>
      </trkpt>
      <trkpt lat="59.176207" lon="18.141556">
        <ele>42</ele>
        <time>2020-01-12T06:05:09Z</time>
      </trkpt>
      <trkpt lat="59.176278" lon="18.141505">
        <ele>42</ele>
        <time>2020-01-12T06:05:10Z</time>
      </trkpt>
      <trkpt lat="59.176356" lon="18.14148">
        <ele>41</ele>
        <time>2020-01-12T06:05:11Z</time>
      </trkpt>
      <trkpt lat="59.176433" lon="18.141484">
        <ele>41</ele>
        <time>2020-01-12T06:05:12Z</time>
      </trkpt>
      <trkpt lat="59.176512" lon="18.141509">
        <ele>41</ele>
        <time>2020-01-12T06:05:13Z</time>
      </trkpt>
      <trkpt lat="59.176592" lon="18.141547">
        <ele>41</ele>
        <time>2020-01-12T06:05:14Z</time>
      </trkpt>
      <trkpt lat="59.176669" lon="18.141591">
        <ele>41</ele>
        <time>2020-01-12T06:05:15Z</time>
      </trkpt>
      <trkpt lat="59.176748" lon="18.141639">
        <ele>40</ele>
        <time>2020-01-12T06:05:16Z</time>
      </trkpt>
      <trkpt lat="59.176827" lon="18.141692">
        <ele>40</ele>
        <time>2020-01-12T06:05:17Z</time>
      </trkpt>
      <trkpt lat="59.176908" lon="18.141743">
        <ele>40</ele>
        <time>2020-01-12T06:05:18Z</time>
      </trkpt>
      <trkpt lat="59.17699" lon="18.141795">
        <ele>39</ele>
        <time>2020-01-12T06:05:19Z</time>
      </trkpt>
      <trkpt lat="59.17707" lon="18.141846">
        <ele>39</ele>
        <time>2020-01-12T06:05:20Z</time>
      </trkpt>
      <trkpt lat="59.177153" lon="18.141895">
        <ele>39</ele>
        <time>2020-01-12T06:05:21Z</time>
      </trkpt>
      <trkpt lat="59.177235" lon="18.141943">
        <ele>38</ele>
        <time>2020-01-12T06:05:22Z</time>
      </trkpt>
      <trkpt lat="59.177318" lon="18.141993">
        <ele>38</ele>
        <time>2020-01-12T06:05:23Z</time>
      </trkpt>
      <trkpt lat="59.177403" lon="18.142046">
        <ele>38</ele>
        <time>2020-01-12T06:05:24Z</time>
      </trkpt>
      <trkpt lat="59.177488" lon="18.142102">
        <ele>38</ele>
        <time>2020-01-12T06:05:25Z</time>
      </trkpt>
      <trkpt lat="59.177576" lon="18.142161">
        <ele>37</ele>
        <time>2020-01-12T06:05:26Z</time>
      </trkpt>
      <trkpt lat="59.177664" lon="18.142216">
        <ele>37</ele>
        <time>2020-01-12T06:05:27Z</time>
      </trkpt>
      <trkpt lat="59.177753" lon="18.142272">
        <ele>37</ele>
        <time>2020-01-12T06:05:28Z</time>
      </trkpt>
      <trkpt lat="59.177843" lon="18.142328">
        <ele>37</ele>
        <time>2020-01-12T06:05:29Z</time>
      </trkpt>
      <trkpt lat="59.177932" lon="18.142384">
        <ele>37</ele>
        <time>2020-01-12T06:05:30Z</time>
      </trkpt>
      <trkpt lat="59.178022" lon="18.14244">
        <ele>37</ele>
        <time>2020-01-12T06:05:31Z</time>
      </trkpt>
      <trkpt lat="59.17811" lon="18.142497">
        <ele>37</ele>
        <time>2020-01-12T06:05:32Z</time>
      </trkpt>
      <trkpt lat="59.178201" lon="18.142552">
        <ele>36</ele>
        <time>2020-01-12T06:05:33Z</time>
      </trkpt>
      <trkpt lat="59.17829" lon="18.142609">
        <ele>36</ele>
        <time>2020-01-12T06:05:34Z</time>
      </trkpt>
      <trkpt lat="59.178382" lon="18.142668">
        <ele>36</ele>
        <time>2020-01-12T06:05:35Z</time>
      </trkpt>
      <trkpt lat="59.178473" lon="18.142727">
        <ele>36</ele>
        <time>2020-01-12T06:05:36Z</time>
      </trkpt>
      <trkpt lat="59.178565" lon="18.142787">
        <ele>36</ele>
        <time>2020-01-12T06:05:37Z</time>
      </trkpt>
      <trkpt lat="59.178656" lon="18.142849">
        <ele>35</ele>
        <time>2020-01-12T06:05:38Z</time>
      </trkpt>
      <trkpt lat="59.178749" lon="18.142912">
        <ele>35</ele>
        <time>2020-01-12T06:05:39Z</time>
      </trkpt>
      <trkpt lat="59.178843" lon="18.142973">
        <ele>35</ele>
        <time>2020-01-12T06:05:40Z</time>
      </trkpt>
      <trkpt lat="59.178934" lon="18.143038">
        <ele>35</ele>
        <time>2020-01-12T06:05:41Z</time>
      </trkpt>
      <trkpt lat="59.179025" lon="18.143103">
        <ele>35</ele>
        <time>2020-01-12T06:05:42Z</time>
      </trkpt>
      <trkpt lat="59.179116" lon="18.143168">
        <ele>35</ele>
        <time>2020-01-12T06:05:43Z</time>
      </trkpt>
      <trkpt lat="59.179207" lon="18.143233">
        <ele>35</ele>
        <time>2020-01-12T06:05:44Z</time>
      </trkpt>
      <trkpt lat="59.179295" lon="18.143295">
        <ele>35</ele>
        <time>2020-01-12T06:05:45Z</time>
      </trkpt>
      <trkpt lat="59.179381" lon="18.143358">
        <ele>35</ele>
        <time>2020-01-12T06:05:46Z</time>
      </trkpt>
      <trkpt lat="59.179465" lon="18.143422">
        <ele>35</ele>
        <time>2020-01-12T06:05:47Z</time>
      </trkpt>
      <trkpt lat="59.179548" lon="18.143483">
        <ele>35</ele>
        <time>2020-01-12T06:05:48Z</time>
      </trkpt>
      <trkpt lat="59.17963" lon="18.143543">
        <ele>35</ele>
        <time>2020-01-12T06:05:49Z</time>
      </trkpt>
      <trkpt lat="59.179709" lon="18.1436">
        <ele>35</ele>
        <time>2020-01-12T06:05:50Z</time>
      </trkpt>
      <trkpt lat="59.179788" lon="18.143659">
        <ele>35</ele>
        <time>2020-01-12T06:05:51Z</time>
      </trkpt>
      <trkpt lat="59.179866" lon="18.14372">
        <ele>36</ele>
        <time>2020-01-12T06:05:52Z</time>
      </trkpt>
      <trkpt lat="59.179942" lon="18.143779">
        <ele>36</ele>
        <time>2020-01-12T06:05:53Z</time>
      </trkpt>
      <trkpt lat="59.180014" lon="18.143842">
        <ele>36</ele>
        <time>2020-01-12T06:05:54Z</time>
      </trkpt>
      <trkpt lat="59.180083" lon="18.143915">
        <ele>36</ele>
        <time>2020-01-12T06:05:55Z</time>
      </trkpt>
      <trkpt lat="59.18015" lon="18.143991">
        <ele>36</ele>
        <time>2020-01-12T06:05:56Z</time>
      </trkpt>
      <trkpt lat="59.180216" lon="18.144067">
        <ele>36</ele>
        <time>2020-01-12T06:05:57Z</time>
      </trkpt>
      <trkpt lat="59.18028" lon="18.144141">
        <ele>36</ele>
        <time>2020-01-12T06:05:58Z</time>
      </trkpt>
      <trkpt lat="59.180344" lon="18.144213">
        <ele>36</ele>
        <time>2020-01-12T06:05:59Z</time>
      </trkpt>
      <trkpt lat="59.180406" lon="18.144285">
        <ele>36</ele>
        <time>2020-01-12T06:06:00Z</time>
      </trkpt>
      <trkpt lat="59.180468" lon="18.144356">
        <ele>36</ele>
        <time>2020-01-12T06:06:01Z</time>
      </trkpt>
      <trkpt lat="59.180526" lon="18.144426">
        <ele>36</ele>
        <time>2020-01-12T06:06:02Z</time>
      </trkpt>
      <trkpt lat="59.180581" lon="18.144496">
        <ele>36</ele>
        <time>2020-01-12T06:06:03Z</time>
      </trkpt>
      <trkpt lat="59.180635" lon="18.144568">
        <ele>36</ele>
        <time>2020-01-12T06:06:04Z</time>
      </trkpt>
      <trkpt lat="59.180689" lon="18.144641">
        <ele>36</ele>
        <time>2020-01-12T06:06:05Z</time>
      </trkpt>
      <trkpt lat="59.180741" lon="18.144713">
        <ele>36</ele>
        <time>2020-01-12T06:06:06Z</time>
      </trkpt>
      <trkpt lat="59.180795" lon="18.144783">
        <ele>36</ele>
        <time>2020-01-12T06:06:07Z</time>
      </trkpt>
      <trkpt lat="59.18085" lon="18.14485">
        <ele>35</ele>
        <time>2020-01-12T06:06:08Z</time>
      </trkpt>
      <trkpt lat="59.180903" lon="18.14492">
        <ele>35</ele>
        <time>2020-01-12T06:06:09Z</time>
      </trkpt>
      <trkpt lat="59.180954" lon="18.144991">
        <ele>35</ele>
        <time>2020-01-12T06:06:10Z</time>
      </trkpt>
      <trkpt lat="59.181007" lon="18.145056">
        <ele>36</ele>
        <time>2020-01-12T06:06:11Z</time>
      </trkpt>
      <trkpt lat="59.181061" lon="18.145117">
        <ele>36</ele>
        <time>2020-01-12T06:06:12Z</time>
      </trkpt>
      <trkpt lat="59.181116" lon="18.145175">
        <ele>36</ele>
        <time>2020-01-12T06:06:13Z</time>
      </trkpt>
      <trkpt lat="59.181171" lon="18.145236">
        <ele>36</ele>
        <time>2020-01-12T06:06:14Z</time>
      </trkpt>
      <trkpt lat="59.181224" lon="18.145304">
        <ele>36</ele>
        <time>2020-01-12T06:06:15Z</time>
      </trkpt>
      <trkpt lat="59.181275" lon="18.145378">
        <ele>36</ele>
        <time>2020-01-12T06:06:16Z</time>
      </trkpt>
      <trkpt lat="59.181326" lon="18.145448">
        <ele>36</ele>
        <time>2020-01-12T06:06:17Z</time>
      </trkpt>
      <trkpt lat="59.181381" lon="18.145513">
        <ele>36</ele>
        <time>2020-01-12T06:06:18Z</time>
      </trkpt>
      <trkpt lat="59.181438" lon="18.145573">
        <ele>36</ele>
        <time>2020-01-12T06:06:19Z</time>
      </trkpt>
      <trkpt lat="59.181496" lon="18.145632">
        <ele>36</ele>
        <time>2020-01-12T06:06:20Z</time>
      </trkpt>
      <trkpt lat="59.181552" lon="18.145692">
        <ele>36</ele>
        <time>2020-01-12T06:06:21Z</time>
      </trkpt>
      <trkpt lat="59.181607" lon="18.145755">
        <ele>36</ele>
        <time>2020-01-12T06:06:22Z</time>
      </trkpt>
      <trkpt lat="59.181671" lon="18.145828">
        <ele>36</ele>
        <time>2020-01-12T06:06:23Z</time>
      </trkpt>
      <trkpt lat="59.181736" lon="18.145907">
        <ele>36</ele>
        <time>2020-01-12T06:06:24Z</time>
      </trkpt>
      <trkpt lat="59.181802" lon="18.145985">
        <ele>36</ele>
        <time>2020-01-12T06:06:25Z</time>
      </trkpt>
      <trkpt lat="59.181864" lon="18.146056">
        <ele>36</ele>
        <time>2020-01-12T06:06:26Z</time>
      </trkpt>
      <trkpt lat="59.181926" lon="18.146128">
        <ele>36</ele>
        <time>2020-01-12T06:06:27Z</time>
      </trkpt>
      <trkpt lat="59.181992" lon="18.146208">
        <ele>36</ele>
        <time>2020-01-12T06:06:28Z</time>
      </trkpt>
      <trkpt lat="59.18206" lon="18.146288">
        <ele>36</ele>
        <time>2020-01-12T06:06:29Z</time>
      </trkpt>
      <trkpt lat="59.182128" lon="18.146369">
        <ele>36</ele>
        <time>2020-01-12T06:06:30Z</time>
      </trkpt>
      <trkpt lat="59.182196" lon="18.146444">
        <ele>37</ele>
        <time>2020-01-12T06:06:31Z</time>
      </trkpt>
      <trkpt lat="59.182258" lon="18.146514">
        <ele>37</ele>
        <time>2020-01-12T06:06:32Z</time>
      </trkpt>
      <trkpt lat="59.182318" lon="18.146582">
        <ele>37</ele>
        <time>2020-01-12T06:06:33Z</time>
      </trkpt>
      <trkpt lat="59.182385" lon="18.146645">
        <ele>37</ele>
        <time>2020-01-12T06:06:34Z</time>
      </trkpt>
      <trkpt lat="59.182447" lon="18.146705">
        <ele>37</ele>
        <time>2020-01-12T06:06:35Z</time>
      </trkpt>
      <trkpt lat="59.182515" lon="18.146765">
        <ele>36</ele>
        <time>2020-01-12T06:06:36Z</time>
      </trkpt>
      <trkpt lat="59.182594" lon="18.146831">
        <ele>36</ele>
        <time>2020-01-12T06:06:37Z</time>
      </trkpt>
      <trkpt lat="59.182674" lon="18.146891">
        <ele>36</ele>
        <time>2020-01-12T06:06:38Z</time>
      </trkpt>
      <trkpt lat="59.182751" lon="18.146946">
        <ele>36</ele>
        <time>2020-01-12T06:06:39Z</time>
      </trkpt>
      <trkpt lat="59.18283" lon="18.146998">
        <ele>36</ele>
        <time>2020-01-12T06:06:40Z</time>
      </trkpt>
      <trkpt lat="59.182907" lon="18.147046">
        <ele>36</ele>
        <time>2020-01-12T06:06:41Z</time>
      </trkpt>
      <trkpt lat="59.182981" lon="18.147086">
        <ele>36</ele>
        <time>2020-01-12T06:06:42Z</time>
      </trkpt>
      <trkpt lat="59.183055" lon="18.147117">
        <ele>36</ele>
        <time>2020-01-12T06:06:43Z</time>
      </trkpt>
      <trkpt lat="59.183128" lon="18.147144">
        <ele>36</ele>
        <time>2020-01-12T06:06:44Z</time>
      </trkpt>
      <trkpt lat="59.183197" lon="18.147171">
        <ele>36</ele>
        <time>2020-01-12T06:06:45Z</time>
      </trkpt>
      <trkpt lat="59.183263" lon="18.147204">
        <ele>35</ele>
        <time>2020-01-12T06:06:46Z</time>
      </trkpt>
      <trkpt lat="59.183323" lon="18.147242">
        <ele>35</ele>
        <time>2020-01-12T06:06:47Z</time>
      </trkpt>
      <trkpt lat="59.183377" lon="18.147282">
        <ele>35</ele>
        <time>2020-01-12T06:06:48Z</time>
      </trkpt>
      <trkpt lat="59.183431" lon="18.147311">
        <ele>35</ele>
        <time>2020-01-12T06:06:49Z</time>
      </trkpt>
      <trkpt lat="59.183487" lon="18.147322">
        <ele>36</ele>
        <time>2020-01-12T06:06:50Z</time>
      </trkpt>
      <trkpt lat="59.183547" lon="18.147317">
        <ele>35</ele>
        <time>2020-01-12T06:06:51Z</time>
      </trkpt>
      <trkpt lat="59.183606" lon="18.147294">
        <ele>35</ele>
        <time>2020-01-12T06:06:52Z</time>
      </trkpt>
      <trkpt lat="59.183666" lon="18.147269">
        <ele>35</ele>
        <time>2020-01-12T06:06:53Z</time>
      </trkpt>
      <trkpt lat="59.18373" lon="18.147251">
        <ele>35</ele>
        <time>2020-01-12T06:06:54Z</time>
      </trkpt>
      <trkpt lat="59.183798" lon="18.147243">
        <ele>35</ele>
        <time>2020-01-12T06:06:55Z</time>
      </trkpt>
      <trkpt lat="59.183868" lon="18.147234">
        <ele>35</ele>
        <time>2020-01-12T06:06:56Z</time>
      </trkpt>
      <trkpt lat="59.183939" lon="18.147224">
        <ele>35</ele>
        <time>2020-01-12T06:06:57Z</time>
      </trkpt>
      <trkpt lat="59.184012" lon="18.147213">
        <ele>34</ele>
        <time>2020-01-12T06:06:58Z</time>
      </trkpt>
      <trkpt lat="59.184088" lon="18.147203">
        <ele>34</ele>
        <time>2020-01-12T06:06:59Z</time>
      </trkpt>
      <trkpt lat="59.184167" lon="18.147187">
        <ele>34</ele>
        <time>2020-01-12T06:07:00Z</time>
      </trkpt>
      <trkpt lat="59.184248" lon="18.147167">
        <ele>34</ele>
        <time>2020-01-12T06:07:01Z</time>
      </trkpt>
      <trkpt lat="59.184333" lon="18.147146">
        <ele>33</ele>
        <time>2020-01-12T06:07:02Z</time>
      </trkpt>
      <trkpt lat="59.18442" lon="18.147125">
        <ele>33</ele>
        <time>2020-01-12T06:07:03Z</time>
      </trkpt>
      <trkpt lat="59.184509" lon="18.147102">
        <ele>32</ele>
        <time>2020-01-12T06:07:04Z</time>
      </trkpt>
      <trkpt lat="59.184599" lon="18.14708">
        <ele>32</ele>
        <time>2020-01-12T06:07:05Z</time>
      </trkpt>
      <trkpt lat="59.184689" lon="18.147058">
        <ele>32</ele>
        <time>2020-01-12T06:07:06Z</time>
      </trkpt>
      <trkpt lat="59.18478" lon="18.147034">
        <ele>31</ele>
        <time>2020-01-12T06:07:07Z</time>
      </trkpt>
      <trkpt lat="59.184868" lon="18.147003">
        <ele>31</ele>
        <time>2020-01-12T06:07:08Z</time>
      </trkpt>
      <trkpt lat="59.184952" lon="18.146958">
        <ele>31</ele>
        <time>2020-01-12T06:07:09Z</time>
      </trkpt>
      <trkpt lat="59.185029" lon="18.1469">
        <ele>31</ele>
        <time>2020-01-12T06:07:10Z</time>
      </trkpt>
      <trkpt lat="59.185098" lon="18.146838">
        <ele>31</ele>
        <time>2020-01-12T06:07:11Z</time>
      </trkpt>
      <trkpt lat="59.185161" lon="18.146785">
        <ele>30</ele>
        <time>2020-01-12T06:07:12Z</time>
      </trkpt>
      <trkpt lat="59.185221" lon="18.14675">
        <ele>30</ele>
        <time>2020-01-12T06:07:13Z</time>
      </trkpt>
      <trkpt lat="59.185277" lon="18.146738">
        <ele>29</ele>
        <time>2020-01-12T06:07:14Z</time>
      </trkpt>
      <trkpt lat="59.185324" lon="18.146749">
        <ele>29</ele>
        <time>2020-01-12T06:07:15Z</time>
      </trkpt>
      <trkpt lat="59.185364" lon="18.146792">
        <ele>28</ele>
        <time>2020-01-12T06:07:16Z</time>
      </trkpt>
      <trkpt lat="59.185398" lon="18.146862">
        <ele>28</ele>
        <time>2020-01-12T06:07:17Z</time>
      </trkpt>
      <trkpt lat="59.185436" lon="18.14692">
        <ele>28</ele>
        <time>2020-01-12T06:07:18Z</time>
      </trkpt>
      <trkpt lat="59.185484" lon="18.146942">
        <ele>28</ele>
        <time>2020-01-12T06:07:19Z</time>
      </trkpt>
      <trkpt lat="59.185536" lon="18.146939">
        <ele>27</ele>
        <time>2020-01-12T06:07:20Z</time>
      </trkpt>
      <trkpt lat="59.18559" lon="18.146929">
        <ele>27</ele>
        <time>2020-01-12T06:07:21Z</time>
      </trkpt>
      <trkpt lat="59.185649" lon="18.146915">
        <ele>27</ele>
        <time>2020-01-12T06:07:22Z</time>
      </trkpt>
      <trkpt lat="59.18571" lon="18.146903">
        <ele>27</ele>
        <time>2020-01-12T06:07:23Z</time>
      </trkpt>
      <trkpt lat="59.185772" lon="18.14689">
        <ele>26</ele>
        <time>2020-01-12T06:07:24Z</time>
      </trkpt>
      <trkpt lat="59.185833" lon="18.146872">
        <ele>26</ele>
        <time>2020-01-12T06:07:25Z</time>
      </trkpt>
      <trkpt lat="59.185895" lon="18.146858">
        <ele>26</ele>
        <time>2020-01-12T06:07:26Z</time>
      </trkpt>
      <trkpt lat="59.18596" lon="18.146848">
        <ele>26</ele>
        <time>2020-01-12T06:07:27Z</time>
      </trkpt>
      <trkpt lat="59.186025" lon="18.146842">
        <ele>26</ele>
        <time>2020-01-12T06:07:28Z</time>
      </trkpt>
      <trkpt lat="59.186093" lon="18.14684">
        <ele>26</ele>
        <time>2020-01-12T06:07:29Z</time>
      </trkpt>
      <trkpt lat="59.186162" lon="18.146836">
        <ele>26</ele>
        <time>2020-01-12T06:07:30Z</time>
      </trkpt>
      <trkpt lat="59.18623" lon="18.146828">
        <ele>26</ele>
        <time>2020-01-12T06:07:31Z</time>
      </trkpt>
      <trkpt lat="59.186296" lon="18.146819">
        <ele>26</ele>
        <time>2020-01-12T06:07:32Z</time>
      </trkpt>
      <trkpt lat="59.186361" lon="18.146805">
        <ele>25</ele>
        <time>2020-01-12T06:07:33Z</time>
      </trkpt>
      <trkpt lat="59.186421" lon="18.146787">
        <ele>25</ele>
        <time>2020-01-12T06:07:34Z</time>
      </trkpt>
      <trkpt lat="59.186482" lon="18.146772">
        <ele>25</ele>
        <time>2020-01-12T06:07:35Z</time>
      </trkpt>
      <trkpt lat="59.18654" lon="18.146755">
        <ele>25</ele>
        <time>2020-01-12T06:07:36Z</time>
      </trkpt>
      <trkpt lat="59.186597" lon="18.146735">
        <ele>24</ele>
        <time>2020-01-12T06:07:37Z</time>
      </trkpt>
      <trkpt lat="59.186651" lon="18.146717">
        <ele>24</ele>
        <time>2020-01-12T06:07:38Z</time>
      </trkpt>
      <trkpt lat="59.186704" lon="18.146704">
        <ele>24</ele>
        <time>2020-01-12T06:07:39Z</time>
      </trkpt>
      <trkpt lat="59.186756" lon="18.146693">
        <ele>24</ele>
        <time>2020-01-12T06:07:40Z</time>
      </trkpt>
      <trkpt lat="59.186808" lon="18.146681">
        <ele>24</ele>
        <time>2020-01-12T06:07:41Z</time>
      </trkpt>
      <trkpt lat="59.186859" lon="18.14667">
        <ele>24</ele>
        <time>2020-01-12T06:07:42Z</time>
      </trkpt>
      <trkpt lat="59.186909" lon="18.146658">
        <ele>24</ele>
        <time>2020-01-12T06:07:43Z</time>
      </trkpt>
      <trkpt lat="59.186957" lon="18.146645">
        <ele>24</ele>
        <time>2020-01-12T06:07:44Z</time>
      </trkpt>
      <trkpt lat="59.187006" lon="18.146635">
        <ele>24</ele>
        <time>2020-01-12T06:07:45Z</time>
      </trkpt>
      <trkpt lat="59.187053" lon="18.146626">
        <ele>24</ele>
        <time>2020-01-12T06:07:46Z</time>
      </trkpt>
      <trkpt lat="59.187099" lon="18.146614">
        <ele>24</ele>
        <time>2020-01-12T06:07:47Z</time>
      </trkpt>
      <trkpt lat="59.187144" lon="18.146602">
        <ele>24</ele>
        <time>2020-01-12T06:07:48Z</time>
      </trkpt>
      <trkpt lat="59.187185" lon="18.146593">
        <ele>24</ele>
        <time>2020-01-12T06:07:49Z</time>
      </trkpt>
      <trkpt lat="59.187219" lon="18.146588">
        <ele>24</ele>
        <time>2020-01-12T06:07:50Z</time>
      </trkpt>
      <trkpt lat="59.187238" lon="18.146584">
        <ele>24</ele>
        <time>2020-01-12T06:07:51Z</time>
      </trkpt>
      <trkpt lat="59.187237" lon="18.146584">
        <ele>0</ele>
        <time>2020-01-12T06:07:54Z</time>
      </trkpt>
      <trkpt lat="59.187349" lon="18.146554">
        <ele>25</ele>
        <time>2020-01-12T06:08:18Z</time>
      </trkpt>
      <trkpt lat="59.187394" lon="18.146537">
        <ele>25</ele>
        <time>2020-01-12T06:08:19Z</time>
      </trkpt>
      <trkpt lat="59.187444" lon="18.146521">
        <ele>25</ele>
        <time>2020-01-12T06:08:20Z</time>
      </trkpt>
      <trkpt lat="59.187496" lon="18.1465">
        <ele>25</ele>
        <time>2020-01-12T06:08:21Z</time>
      </trkpt>
      <trkpt lat="59.187548" lon="18.146475">
        <ele>25</ele>
        <time>2020-01-12T06:08:22Z</time>
      </trkpt>
      <trkpt lat="59.187603" lon="18.146447">
        <ele>25</ele>
        <time>2020-01-12T06:08:23Z</time>
      </trkpt>
      <trkpt lat="59.187658" lon="18.146415">
        <ele>25</ele>
        <time>2020-01-12T06:08:24Z</time>
      </trkpt>
      <trkpt lat="59.187712" lon="18.146376">
        <ele>25</ele>
        <time>2020-01-12T06:08:25Z</time>
      </trkpt>
      <trkpt lat="59.187767" lon="18.146334">
        <ele>24</ele>
        <time>2020-01-12T06:08:26Z</time>
      </trkpt>
      <trkpt lat="59.187824" lon="18.146294">
        <ele>25</ele>
        <time>2020-01-12T06:08:27Z</time>
      </trkpt>
      <trkpt lat="59.18788" lon="18.146253">
        <ele>24</ele>
        <time>2020-01-12T06:08:28Z</time>
      </trkpt>
      <trkpt lat="59.187937" lon="18.146206">
        <ele>24</ele>
        <time>2020-01-12T06:08:29Z</time>
      </trkpt>
      <trkpt lat="59.187993" lon="18.146158">
        <ele>25</ele>
        <time>2020-01-12T06:08:30Z</time>
      </trkpt>
      <trkpt lat="59.18805" lon="18.146113">
        <ele>25</ele>
        <time>2020-01-12T06:08:31Z</time>
      </trkpt>
      <trkpt lat="59.188108" lon="18.146072">
        <ele>25</ele>
        <time>2020-01-12T06:08:32Z</time>
      </trkpt>
      <trkpt lat="59.188165" lon="18.146035">
        <ele>25</ele>
        <time>2020-01-12T06:08:33Z</time>
      </trkpt>
      <trkpt lat="59.188222" lon="18.145997">
        <ele>25</ele>
        <time>2020-01-12T06:08:34Z</time>
      </trkpt>
      <trkpt lat="59.188281" lon="18.145955">
        <ele>25</ele>
        <time>2020-01-12T06:08:35Z</time>
      </trkpt>
      <trkpt lat="59.188343" lon="18.14591">
        <ele>25</ele>
        <time>2020-01-12T06:08:36Z</time>
      </trkpt>
      <trkpt lat="59.188403" lon="18.145865">
        <ele>25</ele>
        <time>2020-01-12T06:08:37Z</time>
      </trkpt>
      <trkpt lat="59.188463" lon="18.145825">
        <ele>25</ele>
        <time>2020-01-12T06:08:38Z</time>
      </trkpt>
      <trkpt lat="59.188521" lon="18.145784">
        <ele>25</ele>
        <time>2020-01-12T06:08:39Z</time>
      </trkpt>
      <trkpt lat="59.188581" lon="18.145739">
        <ele>25</ele>
        <time>2020-01-12T06:08:40Z</time>
      </trkpt>
      <trkpt lat="59.188636" lon="18.145686">
        <ele>25</ele>
        <time>2020-01-12T06:08:41Z</time>
      </trkpt>
      <trkpt lat="59.188691" lon="18.145626">
        <ele>25</ele>
        <time>2020-01-12T06:08:42Z</time>
      </trkpt>
      <trkpt lat="59.188744" lon="18.145565">
        <ele>25</ele>
        <time>2020-01-12T06:08:43Z</time>
      </trkpt>
      <trkpt lat="59.188797" lon="18.145501">
        <ele>25</ele>
        <time>2020-01-12T06:08:44Z</time>
      </trkpt>
      <trkpt lat="59.188849" lon="18.145435">
        <ele>25</ele>
        <time>2020-01-12T06:08:45Z</time>
      </trkpt>
      <trkpt lat="59.188901" lon="18.145369">
        <ele>25</ele>
        <time>2020-01-12T06:08:46Z</time>
      </trkpt>
      <trkpt lat="59.188952" lon="18.1453">
        <ele>25</ele>
        <time>2020-01-12T06:08:47Z</time>
      </trkpt>
      <trkpt lat="59.189001" lon="18.145226">
        <ele>25</ele>
        <time>2020-01-12T06:08:48Z</time>
      </trkpt>
      <trkpt lat="59.189051" lon="18.145152">
        <ele>25</ele>
        <time>2020-01-12T06:08:49Z</time>
      </trkpt>
      <trkpt lat="59.189101" lon="18.145078">
        <ele>25</ele>
        <time>2020-01-12T06:08:50Z</time>
      </trkpt>
      <trkpt lat="59.18915" lon="18.145002">
        <ele>25</ele>
        <time>2020-01-12T06:08:51Z</time>
      </trkpt>
      <trkpt lat="59.189202" lon="18.144929">
        <ele>25</ele>
        <time>2020-01-12T06:08:52Z</time>
      </trkpt>
      <trkpt lat="59.189257" lon="18.144863">
        <ele>26</ele>
        <time>2020-01-12T06:08:53Z</time>
      </trkpt>
      <trkpt lat="59.189314" lon="18.144802">
        <ele>26</ele>
        <time>2020-01-12T06:08:54Z</time>
      </trkpt>
      <trkpt lat="59.189372" lon="18.144741">
        <ele>26</ele>
        <time>2020-01-12T06:08:55Z</time>
      </trkpt>
      <trkpt lat="59.189433" lon="18.144687">
        <ele>26</ele>
        <time>2020-01-12T06:08:56Z</time>
      </trkpt>
      <trkpt lat="59.189497" lon="18.144637">
        <ele>26</ele>
        <time>2020-01-12T06:08:57Z</time>
      </trkpt>
      <trkpt lat="59.189563" lon="18.144586">
        <ele>26</ele>
        <time>2020-01-12T06:08:58Z</time>
      </trkpt>
      <trkpt lat="59.189631" lon="18.144534">
        <ele>26</ele>
        <time>2020-01-12T06:08:59Z</time>
      </trkpt>
      <trkpt lat="59.189702" lon="18.144485">
        <ele>26</ele>
        <time>2020-01-12T06:09:00Z</time>
      </trkpt>
      <trkpt lat="59.189775" lon="18.144438">
        <ele>26</ele>
        <time>2020-01-12T06:09:01Z</time>
      </trkpt>
      <trkpt lat="59.189849" lon="18.144394">
        <ele>26</ele>
        <time>2020-01-12T06:09:02Z</time>
      </trkpt>
      <trkpt lat="59.189921" lon="18.144353">
        <ele>26</ele>
        <time>2020-01-12T06:09:03Z</time>
      </trkpt>
      <trkpt lat="59.189993" lon="18.144315">
        <ele>26</ele>
        <time>2020-01-12T06:09:04Z</time>
      </trkpt>
      <trkpt lat="59.190058" lon="18.144262">
        <ele>26</ele>
        <time>2020-01-12T06:09:05Z</time>
      </trkpt>
      <trkpt lat="59.190124" lon="18.144215">
        <ele>26</ele>
        <time>2020-01-12T06:09:06Z</time>
      </trkpt>
      <trkpt lat="59.19019" lon="18.144172">
        <ele>26</ele>
        <time>2020-01-12T06:09:07Z</time>
      </trkpt>
      <trkpt lat="59.19026" lon="18.144189">
        <ele>26</ele>
        <time>2020-01-12T06:09:08Z</time>
      </trkpt>
      <trkpt lat="59.190331" lon="18.144204">
        <ele>26</ele>
        <time>2020-01-12T06:09:09Z</time>
      </trkpt>
      <trkpt lat="59.190404" lon="18.144214">
        <ele>25</ele>
        <time>2020-01-12T06:09:10Z</time>
      </trkpt>
      <trkpt lat="59.190485" lon="18.144213">
        <ele>26</ele>
        <time>2020-01-12T06:09:11Z</time>
      </trkpt>
      <trkpt lat="59.190565" lon="18.144189">
        <ele>26</ele>
        <time>2020-01-12T06:09:12Z</time>
      </trkpt>
      <trkpt lat="59.190648" lon="18.144177">
        <ele>27</ele>
        <time>2020-01-12T06:09:13Z</time>
      </trkpt>
      <trkpt lat="59.190723" lon="18.14417">
        <ele>27</ele>
        <time>2020-01-12T06:09:14Z</time>
      </trkpt>
      <trkpt lat="59.190793" lon="18.144166">
        <ele>27</ele>
        <time>2020-01-12T06:09:15Z</time>
      </trkpt>
      <trkpt lat="59.190856" lon="18.144155">
        <ele>28</ele>
        <time>2020-01-12T06:09:16Z</time>
      </trkpt>
      <trkpt lat="59.190916" lon="18.144147">
        <ele>28</ele>
        <time>2020-01-12T06:09:17Z</time>
      </trkpt>
      <trkpt lat="59.190971" lon="18.144136">
        <ele>28</ele>
        <time>2020-01-12T06:09:18Z</time>
      </trkpt>
      <trkpt lat="59.191019" lon="18.144121">
        <ele>28</ele>
        <time>2020-01-12T06:09:19Z</time>
      </trkpt>
      <trkpt lat="59.191066" lon="18.14411">
        <ele>29</ele>
        <time>2020-01-12T06:09:20Z</time>
      </trkpt>
      <trkpt lat="59.19111" lon="18.144098">
        <ele>29</ele>
        <time>2020-01-12T06:09:21Z</time>
      </trkpt>
      <trkpt lat="59.191151" lon="18.144083">
        <ele>29</ele>
        <time>2020-01-12T06:09:22Z</time>
      </trkpt>
      <trkpt lat="59.191191" lon="18.144072">
        <ele>30</ele>
        <time>2020-01-12T06:09:23Z</time>
      </trkpt>
      <trkpt lat="59.19123" lon="18.14406">
        <ele>30</ele>
        <time>2020-01-12T06:09:24Z</time>
      </trkpt>
      <trkpt lat="59.19127" lon="18.144044">
        <ele>30</ele>
        <time>2020-01-12T06:09:25Z</time>
      </trkpt>
      <trkpt lat="59.19131" lon="18.144025">
        <ele>30</ele>
        <time>2020-01-12T06:09:26Z</time>
      </trkpt>
      <trkpt lat="59.191349" lon="18.14401">
        <ele>30</ele>
        <time>2020-01-12T06:09:27Z</time>
      </trkpt>
      <trkpt lat="59.191387" lon="18.143997">
        <ele>31</ele>
        <time>2020-01-12T06:09:28Z</time>
      </trkpt>
      <trkpt lat="59.191424" lon="18.143982">
        <ele>31</ele>
        <time>2020-01-12T06:09:29Z</time>
      </trkpt>
      <trkpt lat="59.191461" lon="18.143968">
        <ele>31</ele>
        <time>2020-01-12T06:09:30Z</time>
      </trkpt>
      <trkpt lat="59.191497" lon="18.143951">
        <ele>31</ele>
        <time>2020-01-12T06:09:31Z</time>
      </trkpt>
      <trkpt lat="59.191534" lon="18.143933">
        <ele>31</ele>
        <time>2020-01-12T06:09:32Z</time>
      </trkpt>
      <trkpt lat="59.191571" lon="18.143913">
        <ele>31</ele>
        <time>2020-01-12T06:09:33Z</time>
      </trkpt>
      <trkpt lat="59.191607" lon="18.143893">
        <ele>31</ele>
        <time>2020-01-12T06:09:34Z</time>
      </trkpt>
      <trkpt lat="59.191643" lon="18.143871">
        <ele>31</ele>
        <time>2020-01-12T06:09:35Z</time>
      </trkpt>
      <trkpt lat="59.191679" lon="18.143851">
        <ele>32</ele>
        <time>2020-01-12T06:09:36Z</time>
      </trkpt>
      <trkpt lat="59.191713" lon="18.143827">
        <ele>32</ele>
        <time>2020-01-12T06:09:37Z</time>
      </trkpt>
      <trkpt lat="59.191745" lon="18.1438">
        <ele>33</ele>
        <time>2020-01-12T06:09:38Z</time>
      </trkpt>
      <trkpt lat="59.191778" lon="18.143772">
        <ele>33</ele>
        <time>2020-01-12T06:09:39Z</time>
      </trkpt>
      <trkpt lat="59.19181" lon="18.143744">
        <ele>33</ele>
        <time>2020-01-12T06:09:40Z</time>
      </trkpt>
      <trkpt lat="59.191843" lon="18.143716">
        <ele>34</ele>
        <time>2020-01-12T06:09:41Z</time>
      </trkpt>
      <trkpt lat="59.191878" lon="18.143692">
        <ele>34</ele>
        <time>2020-01-12T06:09:42Z</time>
      </trkpt>
      <trkpt lat="59.191911" lon="18.143666">
        <ele>34</ele>
        <time>2020-01-12T06:09:43Z</time>
      </trkpt>
      <trkpt lat="59.191946" lon="18.143641">
        <ele>34</ele>
        <time>2020-01-12T06:09:44Z</time>
      </trkpt>
      <trkpt lat="59.191982" lon="18.143615">
        <ele>34</ele>
        <time>2020-01-12T06:09:45Z</time>
      </trkpt>
      <trkpt lat="59.192019" lon="18.143588">
        <ele>34</ele>
        <time>2020-01-12T06:09:46Z</time>
      </trkpt>
      <trkpt lat="59.192053" lon="18.143556">
        <ele>35</ele>
        <time>2020-01-12T06:09:47Z</time>
      </trkpt>
      <trkpt lat="59.192087" lon="18.143521">
        <ele>35</ele>
        <time>2020-01-12T06:09:48Z</time>
      </trkpt>
      <trkpt lat="59.192119" lon="18.143486">
        <ele>35</ele>
        <time>2020-01-12T06:09:49Z</time>
      </trkpt>
      <trkpt lat="59.192151" lon="18.143451">
        <ele>36</ele>
        <time>2020-01-12T06:09:50Z</time>
      </trkpt>
      <trkpt lat="59.192184" lon="18.143418">
        <ele>36</ele>
        <time>2020-01-12T06:09:51Z</time>
      </trkpt>
      <trkpt lat="59.192218" lon="18.143387">
        <ele>36</ele>
        <time>2020-01-12T06:09:52Z</time>
      </trkpt>
      <trkpt lat="59.192252" lon="18.143355">
        <ele>36</ele>
        <time>2020-01-12T06:09:53Z</time>
      </trkpt>
      <trkpt lat="59.192285" lon="18.143321">
        <ele>36</ele>
        <time>2020-01-12T06:09:54Z</time>
      </trkpt>
      <trkpt lat="59.192316" lon="18.143285">
        <ele>36</ele>
        <time>2020-01-12T06:09:55Z</time>
      </trkpt>
      <trkpt lat="59.192348" lon="18.143249">
        <ele>36</ele>
        <time>2020-01-12T06:09:56Z</time>
      </trkpt>
      <trkpt lat="59.19238" lon="18.143216">
        <ele>36</ele>
        <time>2020-01-12T06:09:57Z</time>
      </trkpt>
      <trkpt lat="59.192411" lon="18.143184">
        <ele>37</ele>
        <time>2020-01-12T06:09:58Z</time>
      </trkpt>
      <trkpt lat="59.192443" lon="18.143152">
        <ele>37</ele>
        <time>2020-01-12T06:09:59Z</time>
      </trkpt>
      <trkpt lat="59.192475" lon="18.143121">
        <ele>37</ele>
        <time>2020-01-12T06:10:00Z</time>
      </trkpt>
      <trkpt lat="59.192507" lon="18.143089">
        <ele>37</ele>
        <time>2020-01-12T06:10:01Z</time>
      </trkpt>
      <trkpt lat="59.192537" lon="18.143058">
        <ele>37</ele>
        <time>2020-01-12T06:10:02Z</time>
      </trkpt>
      <trkpt lat="59.192569" lon="18.143027">
        <ele>37</ele>
        <time>2020-01-12T06:10:03Z</time>
      </trkpt>
      <trkpt lat="59.1926" lon="18.142994">
        <ele>37</ele>
        <time>2020-01-12T06:10:04Z</time>
      </trkpt>
      <trkpt lat="59.19263" lon="18.142962">
        <ele>37</ele>
        <time>2020-01-12T06:10:05Z</time>
      </trkpt>
      <trkpt lat="59.192661" lon="18.14293">
        <ele>38</ele>
        <time>2020-01-12T06:10:06Z</time>
      </trkpt>
      <trkpt lat="59.192689" lon="18.142898">
        <ele>38</ele>
        <time>2020-01-12T06:10:07Z</time>
      </trkpt>
      <trkpt lat="59.192718" lon="18.142866">
        <ele>38</ele>
        <time>2020-01-12T06:10:08Z</time>
      </trkpt>
      <trkpt lat="59.192752" lon="18.142841">
        <ele>38</ele>
        <time>2020-01-12T06:10:09Z</time>
      </trkpt>
      <trkpt lat="59.192787" lon="18.142811">
        <ele>38</ele>
        <time>2020-01-12T06:10:10Z</time>
      </trkpt>
      <trkpt lat="59.192821" lon="18.142776">
        <ele>38</ele>
        <time>2020-01-12T06:10:11Z</time>
      </trkpt>
      <trkpt lat="59.192854" lon="18.142742">
        <ele>38</ele>
        <time>2020-01-12T06:10:12Z</time>
      </trkpt>
      <trkpt lat="59.192888" lon="18.142708">
        <ele>38</ele>
        <time>2020-01-12T06:10:13Z</time>
      </trkpt>
      <trkpt lat="59.192921" lon="18.142675">
        <ele>38</ele>
        <time>2020-01-12T06:10:14Z</time>
      </trkpt>
      <trkpt lat="59.192954" lon="18.14264">
        <ele>38</ele>
        <time>2020-01-12T06:10:15Z</time>
      </trkpt>
      <trkpt lat="59.192988" lon="18.142605">
        <ele>38</ele>
        <time>2020-01-12T06:10:16Z</time>
      </trkpt>
      <trkpt lat="59.193022" lon="18.142571">
        <ele>39</ele>
        <time>2020-01-12T06:10:17Z</time>
      </trkpt>
      <trkpt lat="59.193056" lon="18.142534">
        <ele>40</ele>
        <time>2020-01-12T06:10:18Z</time>
      </trkpt>
      <trkpt lat="59.193081" lon="18.14249">
        <ele>41</ele>
        <time>2020-01-12T06:10:19Z</time>
      </trkpt>
      <trkpt lat="59.193112" lon="18.142453">
        <ele>42</ele>
        <time>2020-01-12T06:10:20Z</time>
      </trkpt>
      <trkpt lat="59.193148" lon="18.142417">
        <ele>42</ele>
        <time>2020-01-12T06:10:21Z</time>
      </trkpt>
      <trkpt lat="59.193187" lon="18.142385">
        <ele>42</ele>
        <time>2020-01-12T06:10:22Z</time>
      </trkpt>
      <trkpt lat="59.193228" lon="18.142357">
        <ele>42</ele>
        <time>2020-01-12T06:10:23Z</time>
      </trkpt>
      <trkpt lat="59.193269" lon="18.14233">
        <ele>42</ele>
        <time>2020-01-12T06:10:24Z</time>
      </trkpt>
      <trkpt lat="59.19331" lon="18.142305">
        <ele>42</ele>
        <time>2020-01-12T06:10:25Z</time>
      </trkpt>
      <trkpt lat="59.193351" lon="18.142278">
        <ele>42</ele>
        <time>2020-01-12T06:10:26Z</time>
      </trkpt>
      <trkpt lat="59.193393" lon="18.14225">
        <ele>42</ele>
        <time>2020-01-12T06:10:27Z</time>
      </trkpt>
      <trkpt lat="59.193434" lon="18.142222">
        <ele>42</ele>
        <time>2020-01-12T06:10:28Z</time>
      </trkpt>
      <trkpt lat="59.193475" lon="18.142188">
        <ele>42</ele>
        <time>2020-01-12T06:10:29Z</time>
      </trkpt>
      <trkpt lat="59.193516" lon="18.142153">
        <ele>42</ele>
        <time>2020-01-12T06:10:30Z</time>
      </trkpt>
      <trkpt lat="59.193558" lon="18.142118">
        <ele>42</ele>
        <time>2020-01-12T06:10:31Z</time>
      </trkpt>
      <trkpt lat="59.193599" lon="18.14208">
        <ele>42</ele>
        <time>2020-01-12T06:10:32Z</time>
      </trkpt>
      <trkpt lat="59.193639" lon="18.14204">
        <ele>42</ele>
        <time>2020-01-12T06:10:33Z</time>
      </trkpt>
      <trkpt lat="59.19368" lon="18.141999">
        <ele>42</ele>
        <time>2020-01-12T06:10:34Z</time>
      </trkpt>
      <trkpt lat="59.193722" lon="18.141958">
        <ele>42</ele>
        <time>2020-01-12T06:10:35Z</time>
      </trkpt>
      <trkpt lat="59.193765" lon="18.141913">
        <ele>42</ele>
        <time>2020-01-12T06:10:36Z</time>
      </trkpt>
      <trkpt lat="59.193809" lon="18.141869">
        <ele>42</ele>
        <time>2020-01-12T06:10:37Z</time>
      </trkpt>
      <trkpt lat="59.193854" lon="18.141825">
        <ele>42</ele>
        <time>2020-01-12T06:10:38Z</time>
      </trkpt>
      <trkpt lat="59.193902" lon="18.14178">
        <ele>42</ele>
        <time>2020-01-12T06:10:39Z</time>
      </trkpt>
      <trkpt lat="59.193952" lon="18.141739">
        <ele>42</ele>
        <time>2020-01-12T06:10:40Z</time>
      </trkpt>
      <trkpt lat="59.194002" lon="18.141697">
        <ele>42</ele>
        <time>2020-01-12T06:10:41Z</time>
      </trkpt>
      <trkpt lat="59.194055" lon="18.141645">
        <ele>42</ele>
        <time>2020-01-12T06:10:42Z</time>
      </trkpt>
      <trkpt lat="59.19411" lon="18.141593">
        <ele>41</ele>
        <time>2020-01-12T06:10:43Z</time>
      </trkpt>
      <trkpt lat="59.194165" lon="18.141548">
        <ele>41</ele>
        <time>2020-01-12T06:10:44Z</time>
      </trkpt>
      <trkpt lat="59.194222" lon="18.141502">
        <ele>41</ele>
        <time>2020-01-12T06:10:45Z</time>
      </trkpt>
      <trkpt lat="59.194281" lon="18.141458">
        <ele>41</ele>
        <time>2020-01-12T06:10:46Z</time>
      </trkpt>
      <trkpt lat="59.194341" lon="18.141411">
        <ele>41</ele>
        <time>2020-01-12T06:10:47Z</time>
      </trkpt>
      <trkpt lat="59.194399" lon="18.141353">
        <ele>41</ele>
        <time>2020-01-12T06:10:48Z</time>
      </trkpt>
      <trkpt lat="59.194457" lon="18.141295">
        <ele>41</ele>
        <time>2020-01-12T06:10:49Z</time>
      </trkpt>
      <trkpt lat="59.194516" lon="18.141237">
        <ele>41</ele>
        <time>2020-01-12T06:10:50Z</time>
      </trkpt>
      <trkpt lat="59.194575" lon="18.141179">
        <ele>41</ele>
        <time>2020-01-12T06:10:51Z</time>
      </trkpt>
      <trkpt lat="59.194633" lon="18.141119">
        <ele>41</ele>
        <time>2020-01-12T06:10:52Z</time>
      </trkpt>
      <trkpt lat="59.194692" lon="18.14106">
        <ele>40</ele>
        <time>2020-01-12T06:10:53Z</time>
      </trkpt>
      <trkpt lat="59.194757" lon="18.141005">
        <ele>40</ele>
        <time>2020-01-12T06:10:54Z</time>
      </trkpt>
      <trkpt lat="59.194823" lon="18.14095">
        <ele>40</ele>
        <time>2020-01-12T06:10:55Z</time>
      </trkpt>
      <trkpt lat="59.194893" lon="18.140896">
        <ele>40</ele>
        <time>2020-01-12T06:10:56Z</time>
      </trkpt>
      <trkpt lat="59.194967" lon="18.140842">
        <ele>39</ele>
        <time>2020-01-12T06:10:57Z</time>
      </trkpt>
      <trkpt lat="59.195045" lon="18.140791">
        <ele>39</ele>
        <time>2020-01-12T06:10:58Z</time>
      </trkpt>
      <trkpt lat="59.195129" lon="18.140754">
        <ele>39</ele>
        <time>2020-01-12T06:10:59Z</time>
      </trkpt>
      <trkpt lat="59.195215" lon="18.140731">
        <ele>38</ele>
        <time>2020-01-12T06:11:00Z</time>
      </trkpt>
      <trkpt lat="59.195303" lon="18.140718">
        <ele>38</ele>
        <time>2020-01-12T06:11:01Z</time>
      </trkpt>
      <trkpt lat="59.19539" lon="18.140716">
        <ele>37</ele>
        <time>2020-01-12T06:11:02Z</time>
      </trkpt>
      <trkpt lat="59.195477" lon="18.140722">
        <ele>37</ele>
        <time>2020-01-12T06:11:03Z</time>
      </trkpt>
      <trkpt lat="59.195564" lon="18.140733">
        <ele>36</ele>
        <time>2020-01-12T06:11:04Z</time>
      </trkpt>
      <trkpt lat="59.195649" lon="18.140742">
        <ele>36</ele>
        <time>2020-01-12T06:11:05Z</time>
      </trkpt>
      <trkpt lat="59.195732" lon="18.14075">
        <ele>36</ele>
        <time>2020-01-12T06:11:06Z</time>
      </trkpt>
      <trkpt lat="59.195815" lon="18.140766">
        <ele>36</ele>
        <time>2020-01-12T06:11:07Z</time>
      </trkpt>
      <trkpt lat="59.195898" lon="18.14078">
        <ele>35</ele>
        <time>2020-01-12T06:11:08Z</time>
      </trkpt>
      <trkpt lat="59.195982" lon="18.140793">
        <ele>35</ele>
        <time>2020-01-12T06:11:09Z</time>
      </trkpt>
      <trkpt lat="59.196066" lon="18.140808">
        <ele>35</ele>
        <time>2020-01-12T06:11:10Z</time>
      </trkpt>
      <trkpt lat="59.196149" lon="18.140828">
        <ele>35</ele>
        <time>2020-01-12T06:11:11Z</time>
      </trkpt>
      <trkpt lat="59.196228" lon="18.140844">
        <ele>34</ele>
        <time>2020-01-12T06:11:12Z</time>
      </trkpt>
      <trkpt lat="59.196309" lon="18.14087">
        <ele>34</ele>
        <time>2020-01-12T06:11:13Z</time>
      </trkpt>
      <trkpt lat="59.196388" lon="18.140911">
        <ele>34</ele>
        <time>2020-01-12T06:11:14Z</time>
      </trkpt>
      <trkpt lat="59.196467" lon="18.140957">
        <ele>33</ele>
        <time>2020-01-12T06:11:15Z</time>
      </trkpt>
      <trkpt lat="59.196545" lon="18.141014">
        <ele>33</ele>
        <time>2020-01-12T06:11:16Z</time>
      </trkpt>
      <trkpt lat="59.196621" lon="18.141081">
        <ele>32</ele>
        <time>2020-01-12T06:11:17Z</time>
      </trkpt>
      <trkpt lat="59.196695" lon="18.141158">
        <ele>32</ele>
        <time>2020-01-12T06:11:18Z</time>
      </trkpt>
      <trkpt lat="59.196769" lon="18.141241">
        <ele>31</ele>
        <time>2020-01-12T06:11:19Z</time>
      </trkpt>
      <trkpt lat="59.196841" lon="18.141335">
        <ele>31</ele>
        <time>2020-01-12T06:11:20Z</time>
      </trkpt>
      <trkpt lat="59.196915" lon="18.141437">
        <ele>30</ele>
        <time>2020-01-12T06:11:21Z</time>
      </trkpt>
      <trkpt lat="59.196987" lon="18.141547">
        <ele>30</ele>
        <time>2020-01-12T06:11:22Z</time>
      </trkpt>
      <trkpt lat="59.197058" lon="18.141664">
        <ele>29</ele>
        <time>2020-01-12T06:11:23Z</time>
      </trkpt>
      <trkpt lat="59.197132" lon="18.141779">
        <ele>29</ele>
        <time>2020-01-12T06:11:24Z</time>
      </trkpt>
      <trkpt lat="59.197208" lon="18.141892">
        <ele>28</ele>
        <time>2020-01-12T06:11:25Z</time>
      </trkpt>
      <trkpt lat="59.197284" lon="18.142003">
        <ele>28</ele>
        <time>2020-01-12T06:11:26Z</time>
      </trkpt>
      <trkpt lat="59.197363" lon="18.142104">
        <ele>28</ele>
        <time>2020-01-12T06:11:27Z</time>
      </trkpt>
      <trkpt lat="59.197445" lon="18.142191">
        <ele>27</ele>
        <time>2020-01-12T06:11:28Z</time>
      </trkpt>
      <trkpt lat="59.197528" lon="18.142271">
        <ele>27</ele>
        <time>2020-01-12T06:11:29Z</time>
      </trkpt>
      <trkpt lat="59.19761" lon="18.142346">
        <ele>27</ele>
        <time>2020-01-12T06:11:30Z</time>
      </trkpt>
      <trkpt lat="59.197694" lon="18.142413">
        <ele>27</ele>
        <time>2020-01-12T06:11:31Z</time>
      </trkpt>
      <trkpt lat="59.197778" lon="18.142472">
        <ele>26</ele>
        <time>2020-01-12T06:11:32Z</time>
      </trkpt>
      <trkpt lat="59.197861" lon="18.142529">
        <ele>26</ele>
        <time>2020-01-12T06:11:33Z</time>
      </trkpt>
      <trkpt lat="59.197942" lon="18.142588">
        <ele>26</ele>
        <time>2020-01-12T06:11:34Z</time>
      </trkpt>
      <trkpt lat="59.198021" lon="18.142647">
        <ele>26</ele>
        <time>2020-01-12T06:11:35Z</time>
      </trkpt>
      <trkpt lat="59.198097" lon="18.142712">
        <ele>26</ele>
        <time>2020-01-12T06:11:36Z</time>
      </trkpt>
      <trkpt lat="59.19817" lon="18.142763">
        <ele>26</ele>
        <time>2020-01-12T06:11:37Z</time>
      </trkpt>
      <trkpt lat="59.198245" lon="18.142807">
        <ele>26</ele>
        <time>2020-01-12T06:11:38Z</time>
      </trkpt>
      <trkpt lat="59.198317" lon="18.142852">
        <ele>26</ele>
        <time>2020-01-12T06:11:39Z</time>
      </trkpt>
      <trkpt lat="59.198391" lon="18.142903">
        <ele>26</ele>
        <time>2020-01-12T06:11:40Z</time>
      </trkpt>
      <trkpt lat="59.198467" lon="18.142948">
        <ele>26</ele>
        <time>2020-01-12T06:11:41Z</time>
      </trkpt>
      <trkpt lat="59.198542" lon="18.142981">
        <ele>25</ele>
        <time>2020-01-12T06:11:42Z</time>
      </trkpt>
      <trkpt lat="59.198621" lon="18.143001">
        <ele>25</ele>
        <time>2020-01-12T06:11:43Z</time>
      </trkpt>
      <trkpt lat="59.198695" lon="18.143014">
        <ele>25</ele>
        <time>2020-01-12T06:11:44Z</time>
      </trkpt>
      <trkpt lat="59.198769" lon="18.14302">
        <ele>25</ele>
        <time>2020-01-12T06:11:45Z</time>
      </trkpt>
      <trkpt lat="59.198842" lon="18.143028">
        <ele>0</ele>
        <time>2020-01-12T06:11:45Z</time>
      </trkpt>
      <trkpt lat="59.198916" lon="18.143034">
        <ele>24</ele>
        <time>2020-01-12T06:11:46Z</time>
      </trkpt>
      <trkpt lat="59.19899" lon="18.143038">
        <ele>24</ele>
        <time>2020-01-12T06:11:48Z</time>
      </trkpt>
      <trkpt lat="59.199062" lon="18.143042">
        <ele>24</ele>
        <time>2020-01-12T06:11:49Z</time>
      </trkpt>
      <trkpt lat="59.199135" lon="18.143046">
        <ele>24</ele>
        <time>2020-01-12T06:11:50Z</time>
      </trkpt>
      <trkpt lat="59.199207" lon="18.143049">
        <ele>24</ele>
        <time>2020-01-12T06:11:51Z</time>
      </trkpt>
      <trkpt lat="59.199276" lon="18.143052">
        <ele>24</ele>
        <time>2020-01-12T06:11:52Z</time>
      </trkpt>
      <trkpt lat="59.199343" lon="18.143056">
        <ele>24</ele>
        <time>2020-01-12T06:11:53Z</time>
      </trkpt>
      <trkpt lat="59.199409" lon="18.143049">
        <ele>24</ele>
        <time>2020-01-12T06:11:54Z</time>
      </trkpt>
      <trkpt lat="59.199473" lon="18.143016">
        <ele>23</ele>
        <time>2020-01-12T06:11:55Z</time>
      </trkpt>
      <trkpt lat="59.199533" lon="18.142958">
        <ele>23</ele>
        <time>2020-01-12T06:11:56Z</time>
      </trkpt>
      <trkpt lat="59.199589" lon="18.142886">
        <ele>23</ele>
        <time>2020-01-12T06:11:57Z</time>
      </trkpt>
      <trkpt lat="59.199641" lon="18.142798">
        <ele>23</ele>
        <time>2020-01-12T06:11:58Z</time>
      </trkpt>
      <trkpt lat="59.199687" lon="18.142698">
        <ele>23</ele>
        <time>2020-01-12T06:11:59Z</time>
      </trkpt>
      <trkpt lat="59.199727" lon="18.142592">
        <ele>23</ele>
        <time>2020-01-12T06:12:00Z</time>
      </trkpt>
      <trkpt lat="59.199765" lon="18.142483">
        <ele>23</ele>
        <time>2020-01-12T06:12:01Z</time>
      </trkpt>
      <trkpt lat="59.199799" lon="18.142385">
        <ele>23</ele>
        <time>2020-01-12T06:12:02Z</time>
      </trkpt>
      <trkpt lat="59.19984" lon="18.142297">
        <ele>23</ele>
        <time>2020-01-12T06:12:03Z</time>
      </trkpt>
      <trkpt lat="59.199882" lon="18.142221">
        <ele>23</ele>
        <time>2020-01-12T06:12:04Z</time>
      </trkpt>
      <trkpt lat="59.199927" lon="18.142144">
        <ele>24</ele>
        <time>2020-01-12T06:12:05Z</time>
      </trkpt>
      <trkpt lat="59.199971" lon="18.142083">
        <ele>24</ele>
        <time>2020-01-12T06:12:06Z</time>
      </trkpt>
      <trkpt lat="59.200012" lon="18.142032">
        <ele>24</ele>
        <time>2020-01-12T06:12:07Z</time>
      </trkpt>
      <trkpt lat="59.200056" lon="18.141982">
        <ele>24</ele>
        <time>2020-01-12T06:12:08Z</time>
      </trkpt>
      <trkpt lat="59.200096" lon="18.141937">
        <ele>24</ele>
        <time>2020-01-12T06:12:09Z</time>
      </trkpt>
      <trkpt lat="59.200137" lon="18.141895">
        <ele>24</ele>
        <time>2020-01-12T06:12:10Z</time>
      </trkpt>
      <trkpt lat="59.200173" lon="18.141856">
        <ele>24</ele>
        <time>2020-01-12T06:12:11Z</time>
      </trkpt>
      <trkpt lat="59.20021" lon="18.141821">
        <ele>25</ele>
        <time>2020-01-12T06:12:12Z</time>
      </trkpt>
      <trkpt lat="59.200247" lon="18.141782">
        <ele>25</ele>
        <time>2020-01-12T06:12:13Z</time>
      </trkpt>
      <trkpt lat="59.200283" lon="18.141745">
        <ele>25</ele>
        <time>2020-01-12T06:12:14Z</time>
      </trkpt>
      <trkpt lat="59.200319" lon="18.141708">
        <ele>25</ele>
        <time>2020-01-12T06:12:15Z</time>
      </trkpt>
      <trkpt lat="59.200354" lon="18.141672">
        <ele>25</ele>
        <time>2020-01-12T06:12:16Z</time>
      </trkpt>
      <trkpt lat="59.200388" lon="18.141637">
        <ele>25</ele>
        <time>2020-01-12T06:12:17Z</time>
      </trkpt>
      <trkpt lat="59.200423" lon="18.141602">
        <ele>26</ele>
        <time>2020-01-12T06:12:18Z</time>
      </trkpt>
      <trkpt lat="59.200458" lon="18.141566">
        <ele>26</ele>
        <time>2020-01-12T06:12:19Z</time>
      </trkpt>
      <trkpt lat="59.200492" lon="18.141529">
        <ele>26</ele>
        <time>2020-01-12T06:12:20Z</time>
      </trkpt>
      <trkpt lat="59.200526" lon="18.14149">
        <ele>26</ele>
        <time>2020-01-12T06:12:21Z</time>
      </trkpt>
      <trkpt lat="59.20056" lon="18.141452">
        <ele>27</ele>
        <time>2020-01-12T06:12:22Z</time>
      </trkpt>
      <trkpt lat="59.200595" lon="18.141417">
        <ele>27</ele>
        <time>2020-01-12T06:12:23Z</time>
      </trkpt>
      <trkpt lat="59.200631" lon="18.141385">
        <ele>27</ele>
        <time>2020-01-12T06:12:24Z</time>
      </trkpt>
      <trkpt lat="59.200669" lon="18.141361">
        <ele>27</ele>
        <time>2020-01-12T06:12:25Z</time>
      </trkpt>
      <trkpt lat="59.20071" lon="18.141346">
        <ele>28</ele>
        <time>2020-01-12T06:12:26Z</time>
      </trkpt>
      <trkpt lat="59.200751" lon="18.141339">
        <ele>28</ele>
        <time>2020-01-12T06:12:27Z</time>
      </trkpt>
      <trkpt lat="59.200792" lon="18.141344">
        <ele>28</ele>
        <time>2020-01-12T06:12:28Z</time>
      </trkpt>
      <trkpt lat="59.20083" lon="18.14136">
        <ele>28</ele>
        <time>2020-01-12T06:12:29Z</time>
      </trkpt>
      <trkpt lat="59.200866" lon="18.141385">
        <ele>28</ele>
        <time>2020-01-12T06:12:30Z</time>
      </trkpt>
      <trkpt lat="59.200902" lon="18.141413">
        <ele>29</ele>
        <time>2020-01-12T06:12:31Z</time>
      </trkpt>
      <trkpt lat="59.200937" lon="18.141441">
        <ele>29</ele>
        <time>2020-01-12T06:12:32Z</time>
      </trkpt>
      <trkpt lat="59.200973" lon="18.141471">
        <ele>29</ele>
        <time>2020-01-12T06:12:33Z</time>
      </trkpt>
      <trkpt lat="59.201011" lon="18.141503">
        <ele>29</ele>
        <time>2020-01-12T06:12:34Z</time>
      </trkpt>
      <trkpt lat="59.20105" lon="18.141537">
        <ele>29</ele>
        <time>2020-01-12T06:12:35Z</time>
      </trkpt>
      <trkpt lat="59.201088" lon="18.141569">
        <ele>30</ele>
        <time>2020-01-12T06:12:36Z</time>
      </trkpt>
      <trkpt lat="59.201128" lon="18.141603">
        <ele>30</ele>
        <time>2020-01-12T06:12:37Z</time>
      </trkpt>
      <trkpt lat="59.201166" lon="18.141638">
        <ele>30</ele>
        <time>2020-01-12T06:12:38Z</time>
      </trkpt>
      <trkpt lat="59.201204" lon="18.141674">
        <ele>30</ele>
        <time>2020-01-12T06:12:39Z</time>
      </trkpt>
      <trkpt lat="59.201245" lon="18.141709">
        <ele>30</ele>
        <time>2020-01-12T06:12:40Z</time>
      </trkpt>
      <trkpt lat="59.201285" lon="18.141741">
        <ele>31</ele>
        <time>2020-01-12T06:12:41Z</time>
      </trkpt>
      <trkpt lat="59.201324" lon="18.141772">
        <ele>31</ele>
        <time>2020-01-12T06:12:42Z</time>
      </trkpt>
      <trkpt lat="59.201364" lon="18.141803">
        <ele>31</ele>
        <time>2020-01-12T06:12:43Z</time>
      </trkpt>
      <trkpt lat="59.201405" lon="18.141832">
        <ele>31</ele>
        <time>2020-01-12T06:12:44Z</time>
      </trkpt>
      <trkpt lat="59.201446" lon="18.141862">
        <ele>31</ele>
        <time>2020-01-12T06:12:45Z</time>
      </trkpt>
      <trkpt lat="59.201488" lon="18.14189">
        <ele>31</ele>
        <time>2020-01-12T06:12:46Z</time>
      </trkpt>
      <trkpt lat="59.201531" lon="18.141915">
        <ele>32</ele>
        <time>2020-01-12T06:12:47Z</time>
      </trkpt>
      <trkpt lat="59.201575" lon="18.141939">
        <ele>32</ele>
        <time>2020-01-12T06:12:48Z</time>
      </trkpt>
      <trkpt lat="59.201621" lon="18.14196">
        <ele>32</ele>
        <time>2020-01-12T06:12:49Z</time>
      </trkpt>
      <trkpt lat="59.201669" lon="18.141982">
        <ele>32</ele>
        <time>2020-01-12T06:12:50Z</time>
      </trkpt>
      <trkpt lat="59.201715" lon="18.142005">
        <ele>32</ele>
        <time>2020-01-12T06:12:51Z</time>
      </trkpt>
      <trkpt lat="59.201761" lon="18.142032">
        <ele>32</ele>
        <time>2020-01-12T06:12:52Z</time>
      </trkpt>
      <trkpt lat="59.201806" lon="18.142058">
        <ele>32</ele>
        <time>2020-01-12T06:12:53Z</time>
      </trkpt>
      <trkpt lat="59.201851" lon="18.142084">
        <ele>33</ele>
        <time>2020-01-12T06:12:54Z</time>
      </trkpt>
      <trkpt lat="59.201897" lon="18.142105">
        <ele>33</ele>
        <time>2020-01-12T06:12:55Z</time>
      </trkpt>
      <trkpt lat="59.201943" lon="18.142127">
        <ele>33</ele>
        <time>2020-01-12T06:12:56Z</time>
      </trkpt>
      <trkpt lat="59.20199" lon="18.142149">
        <ele>33</ele>
        <time>2020-01-12T06:12:57Z</time>
      </trkpt>
      <trkpt lat="59.202037" lon="18.142172">
        <ele>33</ele>
        <time>2020-01-12T06:12:58Z</time>
      </trkpt>
      <trkpt lat="59.202085" lon="18.142194">
        <ele>33</ele>
        <time>2020-01-12T06:12:59Z</time>
      </trkpt>
      <trkpt lat="59.202132" lon="18.142215">
        <ele>33</ele>
        <time>2020-01-12T06:13:00Z</time>
      </trkpt>
      <trkpt lat="59.202179" lon="18.142233">
        <ele>33</ele>
        <time>2020-01-12T06:13:01Z</time>
      </trkpt>
      <trkpt lat="59.202225" lon="18.142251">
        <ele>34</ele>
        <time>2020-01-12T06:13:02Z</time>
      </trkpt>
      <trkpt lat="59.202271" lon="18.142266">
        <ele>34</ele>
        <time>2020-01-12T06:13:03Z</time>
      </trkpt>
      <trkpt lat="59.202318" lon="18.142279">
        <ele>34</ele>
        <time>2020-01-12T06:13:04Z</time>
      </trkpt>
      <trkpt lat="59.202364" lon="18.142291">
        <ele>34</ele>
        <time>2020-01-12T06:13:05Z</time>
      </trkpt>
      <trkpt lat="59.202408" lon="18.1423">
        <ele>34</ele>
        <time>2020-01-12T06:13:06Z</time>
      </trkpt>
      <trkpt lat="59.202452" lon="18.142298">
        <ele>34</ele>
        <time>2020-01-12T06:13:07Z</time>
      </trkpt>
      <trkpt lat="59.202498" lon="18.142289">
        <ele>34</ele>
        <time>2020-01-12T06:13:08Z</time>
      </trkpt>
      <trkpt lat="59.202543" lon="18.142277">
        <ele>34</ele>
        <time>2020-01-12T06:13:09Z</time>
      </trkpt>
      <trkpt lat="59.202586" lon="18.142265">
        <ele>34</ele>
        <time>2020-01-12T06:13:10Z</time>
      </trkpt>
      <trkpt lat="59.202627" lon="18.142253">
        <ele>35</ele>
        <time>2020-01-12T06:13:11Z</time>
      </trkpt>
      <trkpt lat="59.20267" lon="18.142247">
        <ele>35</ele>
        <time>2020-01-12T06:13:12Z</time>
      </trkpt>
      <trkpt lat="59.202714" lon="18.142246">
        <ele>35</ele>
        <time>2020-01-12T06:13:13Z</time>
      </trkpt>
      <trkpt lat="59.202759" lon="18.142247">
        <ele>35</ele>
        <time>2020-01-12T06:13:14Z</time>
      </trkpt>
      <trkpt lat="59.202805" lon="18.142247">
        <ele>35</ele>
        <time>2020-01-12T06:13:15Z</time>
      </trkpt>
      <trkpt lat="59.202852" lon="18.142248">
        <ele>35</ele>
        <time>2020-01-12T06:13:16Z</time>
      </trkpt>
      <trkpt lat="59.2029" lon="18.142253">
        <ele>35</ele>
        <time>2020-01-12T06:13:17Z</time>
      </trkpt>
      <trkpt lat="59.202949" lon="18.142261">
        <ele>35</ele>
        <time>2020-01-12T06:13:18Z</time>
      </trkpt>
      <trkpt lat="59.202999" lon="18.142268">
        <ele>35</ele>
        <time>2020-01-12T06:13:19Z</time>
      </trkpt>
      <trkpt lat="59.203049" lon="18.142273">
        <ele>35</ele>
        <time>2020-01-12T06:13:20Z</time>
      </trkpt>
      <trkpt lat="59.2031" lon="18.142281">
        <ele>35</ele>
        <time>2020-01-12T06:13:21Z</time>
      </trkpt>
      <trkpt lat="59.203151" lon="18.142291">
        <ele>35</ele>
        <time>2020-01-12T06:13:22Z</time>
      </trkpt>
      <trkpt lat="59.203202" lon="18.142299">
        <ele>34</ele>
        <time>2020-01-12T06:13:23Z</time>
      </trkpt>
      <trkpt lat="59.203254" lon="18.142303">
        <ele>34</ele>
        <time>2020-01-12T06:13:24Z</time>
      </trkpt>
      <trkpt lat="59.203306" lon="18.142308">
        <ele>34</ele>
        <time>2020-01-12T06:13:25Z</time>
      </trkpt>
      <trkpt lat="59.203358" lon="18.142312">
        <ele>34</ele>
        <time>2020-01-12T06:13:26Z</time>
      </trkpt>
      <trkpt lat="59.203406" lon="18.142315">
        <ele>34</ele>
        <time>2020-01-12T06:13:27Z</time>
      </trkpt>
      <trkpt lat="59.203455" lon="18.142317">
        <ele>35</ele>
        <time>2020-01-12T06:13:28Z</time>
      </trkpt>
      <trkpt lat="59.203507" lon="18.142318">
        <ele>34</ele>
        <time>2020-01-12T06:13:29Z</time>
      </trkpt>
      <trkpt lat="59.203559" lon="18.142317">
        <ele>34</ele>
        <time>2020-01-12T06:13:30Z</time>
      </trkpt>
      <trkpt lat="59.203614" lon="18.142313">
        <ele>34</ele>
        <time>2020-01-12T06:13:31Z</time>
      </trkpt>
      <trkpt lat="59.203667" lon="18.142305">
        <ele>34</ele>
        <time>2020-01-12T06:13:32Z</time>
      </trkpt>
      <trkpt lat="59.203721" lon="18.142291">
        <ele>34</ele>
        <time>2020-01-12T06:13:33Z</time>
      </trkpt>
      <trkpt lat="59.203776" lon="18.142274">
        <ele>34</ele>
        <time>2020-01-12T06:13:34Z</time>
      </trkpt>
      <trkpt lat="59.203832" lon="18.142256">
        <ele>35</ele>
        <time>2020-01-12T06:13:35Z</time>
      </trkpt>
      <trkpt lat="59.203888" lon="18.142237">
        <ele>35</ele>
        <time>2020-01-12T06:13:36Z</time>
      </trkpt>
      <trkpt lat="59.203945" lon="18.142218">
        <ele>35</ele>
        <time>2020-01-12T06:13:37Z</time>
      </trkpt>
      <trkpt lat="59.204001" lon="18.142199">
        <ele>35</ele>
        <time>2020-01-12T06:13:38Z</time>
      </trkpt>
      <trkpt lat="59.204058" lon="18.14218">
        <ele>35</ele>
        <time>2020-01-12T06:13:39Z</time>
      </trkpt>
      <trkpt lat="59.204115" lon="18.142161">
        <ele>35</ele>
        <time>2020-01-12T06:13:40Z</time>
      </trkpt>
      <trkpt lat="59.204172" lon="18.142142">
        <ele>35</ele>
        <time>2020-01-12T06:13:41Z</time>
      </trkpt>
      <trkpt lat="59.204228" lon="18.142119">
        <ele>35</ele>
        <time>2020-01-12T06:13:42Z</time>
      </trkpt>
      <trkpt lat="59.204284" lon="18.142093">
        <ele>35</ele>
        <time>2020-01-12T06:13:43Z</time>
      </trkpt>
      <trkpt lat="59.204339" lon="18.142069">
        <ele>35</ele>
        <time>2020-01-12T06:13:44Z</time>
      </trkpt>
      <trkpt lat="59.204394" lon="18.142047">
        <ele>35</ele>
        <time>2020-01-12T06:13:45Z</time>
      </trkpt>
      <trkpt lat="59.204447" lon="18.142024">
        <ele>36</ele>
        <time>2020-01-12T06:13:46Z</time>
      </trkpt>
      <trkpt lat="59.2045" lon="18.141998">
        <ele>36</ele>
        <time>2020-01-12T06:13:47Z</time>
      </trkpt>
      <trkpt lat="59.204553" lon="18.141971">
        <ele>36</ele>
        <time>2020-01-12T06:13:48Z</time>
      </trkpt>
      <trkpt lat="59.204606" lon="18.141946">
        <ele>36</ele>
        <time>2020-01-12T06:13:49Z</time>
      </trkpt>
      <trkpt lat="59.204658" lon="18.141922">
        <ele>36</ele>
        <time>2020-01-12T06:13:50Z</time>
      </trkpt>
      <trkpt lat="59.204709" lon="18.141902">
        <ele>37</ele>
        <time>2020-01-12T06:13:51Z</time>
      </trkpt>
      <trkpt lat="59.20476" lon="18.14188">
        <ele>37</ele>
        <time>2020-01-12T06:13:52Z</time>
      </trkpt>
      <trkpt lat="59.204809" lon="18.141858">
        <ele>37</ele>
        <time>2020-01-12T06:13:53Z</time>
      </trkpt>
      <trkpt lat="59.204855" lon="18.141831">
        <ele>37</ele>
        <time>2020-01-12T06:13:54Z</time>
      </trkpt>
      <trkpt lat="59.2049" lon="18.141796">
        <ele>37</ele>
        <time>2020-01-12T06:13:55Z</time>
      </trkpt>
      <trkpt lat="59.204948" lon="18.14176">
        <ele>37</ele>
        <time>2020-01-12T06:13:56Z</time>
      </trkpt>
      <trkpt lat="59.204996" lon="18.141725">
        <ele>37</ele>
        <time>2020-01-12T06:13:57Z</time>
      </trkpt>
      <trkpt lat="59.205044" lon="18.141691">
        <ele>37</ele>
        <time>2020-01-12T06:13:58Z</time>
      </trkpt>
      <trkpt lat="59.205092" lon="18.141658">
        <ele>37</ele>
        <time>2020-01-12T06:13:59Z</time>
      </trkpt>
      <trkpt lat="59.20514" lon="18.141622">
        <ele>37</ele>
        <time>2020-01-12T06:14:00Z</time>
      </trkpt>
      <trkpt lat="59.205186" lon="18.141584">
        <ele>37</ele>
        <time>2020-01-12T06:14:01Z</time>
      </trkpt>
      <trkpt lat="59.205232" lon="18.141545">
        <ele>38</ele>
        <time>2020-01-12T06:14:02Z</time>
      </trkpt>
      <trkpt lat="59.205276" lon="18.141508">
        <ele>38</ele>
        <time>2020-01-12T06:14:03Z</time>
      </trkpt>
      <trkpt lat="59.205318" lon="18.141474">
        <ele>38</ele>
        <time>2020-01-12T06:14:04Z</time>
      </trkpt>
      <trkpt lat="59.20536" lon="18.141442">
        <ele>38</ele>
        <time>2020-01-12T06:14:05Z</time>
      </trkpt>
      <trkpt lat="59.205402" lon="18.14141">
        <ele>39</ele>
        <time>2020-01-12T06:14:06Z</time>
      </trkpt>
      <trkpt lat="59.205442" lon="18.141378">
        <ele>39</ele>
        <time>2020-01-12T06:14:07Z</time>
      </trkpt>
      <trkpt lat="59.205484" lon="18.141345">
        <ele>39</ele>
        <time>2020-01-12T06:14:08Z</time>
      </trkpt>
      <trkpt lat="59.205524" lon="18.141309">
        <ele>39</ele>
        <time>2020-01-12T06:14:09Z</time>
      </trkpt>
      <trkpt lat="59.205568" lon="18.141272">
        <ele>39</ele>
        <time>2020-01-12T06:14:10Z</time>
      </trkpt>
      <trkpt lat="59.205613" lon="18.141234">
        <ele>39</ele>
        <time>2020-01-12T06:14:11Z</time>
      </trkpt>
      <trkpt lat="59.205659" lon="18.141195">
        <ele>39</ele>
        <time>2020-01-12T06:14:12Z</time>
      </trkpt>
      <trkpt lat="59.205704" lon="18.141154">
        <ele>40</ele>
        <time>2020-01-12T06:14:13Z</time>
      </trkpt>
      <trkpt lat="59.20575" lon="18.141114">
        <ele>40</ele>
        <time>2020-01-12T06:14:14Z</time>
      </trkpt>
      <trkpt lat="59.205798" lon="18.141072">
        <ele>40</ele>
        <time>2020-01-12T06:14:15Z</time>
      </trkpt>
      <trkpt lat="59.205846" lon="18.14103">
        <ele>40</ele>
        <time>2020-01-12T06:14:16Z</time>
      </trkpt>
      <trkpt lat="59.205896" lon="18.140991">
        <ele>40</ele>
        <time>2020-01-12T06:14:17Z</time>
      </trkpt>
      <trkpt lat="59.205945" lon="18.140954">
        <ele>40</ele>
        <time>2020-01-12T06:14:18Z</time>
      </trkpt>
      <trkpt lat="59.205996" lon="18.140925">
        <ele>40</ele>
        <time>2020-01-12T06:14:19Z</time>
      </trkpt>
      <trkpt lat="59.206047" lon="18.1409">
        <ele>40</ele>
        <time>2020-01-12T06:14:20Z</time>
      </trkpt>
      <trkpt lat="59.2061" lon="18.140878">
        <ele>40</ele>
        <time>2020-01-12T06:14:21Z</time>
      </trkpt>
      <trkpt lat="59.206149" lon="18.140855">
        <ele>40</ele>
        <time>2020-01-12T06:14:22Z</time>
      </trkpt>
      <trkpt lat="59.206193" lon="18.140818">
        <ele>40</ele>
        <time>2020-01-12T06:14:23Z</time>
      </trkpt>
      <trkpt lat="59.20623" lon="18.140761">
        <ele>41</ele>
        <time>2020-01-12T06:14:24Z</time>
      </trkpt>
      <trkpt lat="59.206258" lon="18.140688">
        <ele>41</ele>
        <time>2020-01-12T06:14:25Z</time>
      </trkpt>
      <trkpt lat="59.206281" lon="18.140612">
        <ele>41</ele>
        <time>2020-01-12T06:14:26Z</time>
      </trkpt>
      <trkpt lat="59.20631" lon="18.140541">
        <ele>41</ele>
        <time>2020-01-12T06:14:27Z</time>
      </trkpt>
      <trkpt lat="59.206346" lon="18.140483">
        <ele>41</ele>
        <time>2020-01-12T06:14:28Z</time>
      </trkpt>
      <trkpt lat="59.206384" lon="18.140436">
        <ele>41</ele>
        <time>2020-01-12T06:14:29Z</time>
      </trkpt>
      <trkpt lat="59.206428" lon="18.140401">
        <ele>41</ele>
        <time>2020-01-12T06:14:30Z</time>
      </trkpt>
      <trkpt lat="59.20647" lon="18.140383">
        <ele>41</ele>
        <time>2020-01-12T06:14:31Z</time>
      </trkpt>
      <trkpt lat="59.206515" lon="18.140368">
        <ele>41</ele>
        <time>2020-01-12T06:14:32Z</time>
      </trkpt>
      <trkpt lat="59.206562" lon="18.140357">
        <ele>42</ele>
        <time>2020-01-12T06:14:33Z</time>
      </trkpt>
      <trkpt lat="59.206608" lon="18.140355">
        <ele>42</ele>
        <time>2020-01-12T06:14:34Z</time>
      </trkpt>
      <trkpt lat="59.206652" lon="18.140358">
        <ele>42</ele>
        <time>2020-01-12T06:14:35Z</time>
      </trkpt>
      <trkpt lat="59.206698" lon="18.140362">
        <ele>42</ele>
        <time>2020-01-12T06:14:36Z</time>
      </trkpt>
      <trkpt lat="59.206743" lon="18.140366">
        <ele>0</ele>
        <time>2020-01-12T06:14:36Z</time>
      </trkpt>
      <trkpt lat="59.20679" lon="18.140372">
        <ele>42</ele>
        <time>2020-01-12T06:14:37Z</time>
      </trkpt>
      <trkpt lat="59.206837" lon="18.140379">
        <ele>42</ele>
        <time>2020-01-12T06:14:39Z</time>
      </trkpt>
      <trkpt lat="59.206884" lon="18.140388">
        <ele>42</ele>
        <time>2020-01-12T06:14:40Z</time>
      </trkpt>
      <trkpt lat="59.206932" lon="18.140403">
        <ele>43</ele>
        <time>2020-01-12T06:14:41Z</time>
      </trkpt>
      <trkpt lat="59.206978" lon="18.140414">
        <ele>43</ele>
        <time>2020-01-12T06:14:42Z</time>
      </trkpt>
      <trkpt lat="59.207027" lon="18.140426">
        <ele>43</ele>
        <time>2020-01-12T06:14:43Z</time>
      </trkpt>
      <trkpt lat="59.207074" lon="18.140439">
        <ele>43</ele>
        <time>2020-01-12T06:14:44Z</time>
      </trkpt>
      <trkpt lat="59.20712" lon="18.140455">
        <ele>43</ele>
        <time>2020-01-12T06:14:45Z</time>
      </trkpt>
      <trkpt lat="59.207168" lon="18.140476">
        <ele>44</ele>
        <time>2020-01-12T06:14:46Z</time>
      </trkpt>
      <trkpt lat="59.207213" lon="18.140492">
        <ele>44</ele>
        <time>2020-01-12T06:14:47Z</time>
      </trkpt>
      <trkpt lat="59.20726" lon="18.140509">
        <ele>44</ele>
        <time>2020-01-12T06:14:48Z</time>
      </trkpt>
      <trkpt lat="59.207306" lon="18.140529">
        <ele>45</ele>
        <time>2020-01-12T06:14:49Z</time>
      </trkpt>
      <trkpt lat="59.207351" lon="18.140554">
        <ele>45</ele>
        <time>2020-01-12T06:14:50Z</time>
      </trkpt>
      <trkpt lat="59.207396" lon="18.140579">
        <ele>45</ele>
        <time>2020-01-12T06:14:51Z</time>
      </trkpt>
      <trkpt lat="59.20744" lon="18.140607">
        <ele>46</ele>
        <time>2020-01-12T06:14:52Z</time>
      </trkpt>
      <trkpt lat="59.20748" lon="18.140629">
        <ele>46</ele>
        <time>2020-01-12T06:14:53Z</time>
      </trkpt>
      <trkpt lat="59.20752" lon="18.140653">
        <ele>46</ele>
        <time>2020-01-12T06:14:54Z</time>
      </trkpt>
      <trkpt lat="59.207559" lon="18.140682">
        <ele>46</ele>
        <time>2020-01-12T06:14:55Z</time>
      </trkpt>
      <trkpt lat="59.207602" lon="18.140714">
        <ele>46</ele>
        <time>2020-01-12T06:14:56Z</time>
      </trkpt>
      <trkpt lat="59.20764" lon="18.14074">
        <ele>47</ele>
        <time>2020-01-12T06:14:57Z</time>
      </trkpt>
      <trkpt lat="59.20768" lon="18.140772">
        <ele>47</ele>
        <time>2020-01-12T06:14:58Z</time>
      </trkpt>
      <trkpt lat="59.207717" lon="18.140806">
        <ele>47</ele>
        <time>2020-01-12T06:14:59Z</time>
      </trkpt>
      <trkpt lat="59.207755" lon="18.14084">
        <ele>47</ele>
        <time>2020-01-12T06:15:00Z</time>
      </trkpt>
      <trkpt lat="59.207787" lon="18.140866">
        <ele>48</ele>
        <time>2020-01-12T06:15:01Z</time>
      </trkpt>
      <trkpt lat="59.207819" lon="18.140892">
        <ele>48</ele>
        <time>2020-01-12T06:15:02Z</time>
      </trkpt>
      <trkpt lat="59.207852" lon="18.140925">
        <ele>48</ele>
        <time>2020-01-12T06:15:03Z</time>
      </trkpt>
      <trkpt lat="59.207885" lon="18.140958">
        <ele>48</ele>
        <time>2020-01-12T06:15:04Z</time>
      </trkpt>
      <trkpt lat="59.20792" lon="18.141001">
        <ele>48</ele>
        <time>2020-01-12T06:15:05Z</time>
      </trkpt>
      <trkpt lat="59.207956" lon="18.141051">
        <ele>49</ele>
        <time>2020-01-12T06:15:06Z</time>
      </trkpt>
      <trkpt lat="59.20799" lon="18.141091">
        <ele>49</ele>
        <time>2020-01-12T06:15:07Z</time>
      </trkpt>
      <trkpt lat="59.208021" lon="18.141134">
        <ele>49</ele>
        <time>2020-01-12T06:15:08Z</time>
      </trkpt>
      <trkpt lat="59.208055" lon="18.141177">
        <ele>49</ele>
        <time>2020-01-12T06:15:09Z</time>
      </trkpt>
      <trkpt lat="59.208089" lon="18.141222">
        <ele>49</ele>
        <time>2020-01-12T06:15:10Z</time>
      </trkpt>
      <trkpt lat="59.208128" lon="18.141278">
        <ele>49</ele>
        <time>2020-01-12T06:15:11Z</time>
      </trkpt>
      <trkpt lat="59.208163" lon="18.141328">
        <ele>50</ele>
        <time>2020-01-12T06:15:12Z</time>
      </trkpt>
      <trkpt lat="59.208196" lon="18.141377">
        <ele>50</ele>
        <time>2020-01-12T06:15:13Z</time>
      </trkpt>
      <trkpt lat="59.208228" lon="18.141422">
        <ele>50</ele>
        <time>2020-01-12T06:15:14Z</time>
      </trkpt>
      <trkpt lat="59.208256" lon="18.141471">
        <ele>50</ele>
        <time>2020-01-12T06:15:15Z</time>
      </trkpt>
      <trkpt lat="59.208283" lon="18.14152">
        <ele>50</ele>
        <time>2020-01-12T06:15:16Z</time>
      </trkpt>
      <trkpt lat="59.208313" lon="18.141574">
        <ele>50</ele>
        <time>2020-01-12T06:15:17Z</time>
      </trkpt>
      <trkpt lat="59.208347" lon="18.141642">
        <ele>50</ele>
        <time>2020-01-12T06:15:18Z</time>
      </trkpt>
      <trkpt lat="59.208382" lon="18.141709">
        <ele>50</ele>
        <time>2020-01-12T06:15:19Z</time>
      </trkpt>
      <trkpt lat="59.208418" lon="18.141773">
        <ele>50</ele>
        <time>2020-01-12T06:15:20Z</time>
      </trkpt>
      <trkpt lat="59.208449" lon="18.14183">
        <ele>51</ele>
        <time>2020-01-12T06:15:21Z</time>
      </trkpt>
      <trkpt lat="59.208478" lon="18.141885">
        <ele>51</ele>
        <time>2020-01-12T06:15:22Z</time>
      </trkpt>
      <trkpt lat="59.208508" lon="18.141941">
        <ele>51</ele>
        <time>2020-01-12T06:15:23Z</time>
      </trkpt>
      <trkpt lat="59.208539" lon="18.142003">
        <ele>51</ele>
        <time>2020-01-12T06:15:24Z</time>
      </trkpt>
      <trkpt lat="59.208568" lon="18.142064">
        <ele>51</ele>
        <time>2020-01-12T06:15:25Z</time>
      </trkpt>
      <trkpt lat="59.208596" lon="18.142127">
        <ele>51</ele>
        <time>2020-01-12T06:15:26Z</time>
      </trkpt>
      <trkpt lat="59.208624" lon="18.142192">
        <ele>51</ele>
        <time>2020-01-12T06:15:27Z</time>
      </trkpt>
      <trkpt lat="59.208653" lon="18.14226">
        <ele>51</ele>
        <time>2020-01-12T06:15:28Z</time>
      </trkpt>
      <trkpt lat="59.208682" lon="18.142328">
        <ele>51</ele>
        <time>2020-01-12T06:15:29Z</time>
      </trkpt>
      <trkpt lat="59.20871" lon="18.142396">
        <ele>51</ele>
        <time>2020-01-12T06:15:30Z</time>
      </trkpt>
      <trkpt lat="59.208738" lon="18.142466">
        <ele>51</ele>
        <time>2020-01-12T06:15:31Z</time>
      </trkpt>
      <trkpt lat="59.208766" lon="18.142535">
        <ele>51</ele>
        <time>2020-01-12T06:15:32Z</time>
      </trkpt>
      <trkpt lat="59.208793" lon="18.142605">
        <ele>51</ele>
        <time>2020-01-12T06:15:33Z</time>
      </trkpt>
      <trkpt lat="59.20882" lon="18.142674">
        <ele>0</ele>
        <time>2020-01-12T06:15:33Z</time>
      </trkpt>
      <trkpt lat="59.208848" lon="18.142741">
        <ele>51</ele>
        <time>2020-01-12T06:15:34Z</time>
      </trkpt>
      <trkpt lat="59.208878" lon="18.142813">
        <ele>52</ele>
        <time>2020-01-12T06:15:36Z</time>
      </trkpt>
      <trkpt lat="59.208908" lon="18.142887">
        <ele>52</ele>
        <time>2020-01-12T06:15:37Z</time>
      </trkpt>
      <trkpt lat="59.20894" lon="18.142964">
        <ele>51</ele>
        <time>2020-01-12T06:15:38Z</time>
      </trkpt>
      <trkpt lat="59.208972" lon="18.143043">
        <ele>51</ele>
        <time>2020-01-12T06:15:39Z</time>
      </trkpt>
      <trkpt lat="59.209005" lon="18.143121">
        <ele>51</ele>
        <time>2020-01-12T06:15:40Z</time>
      </trkpt>
      <trkpt lat="59.20904" lon="18.1432">
        <ele>51</ele>
        <time>2020-01-12T06:15:41Z</time>
      </trkpt>
      <trkpt lat="59.209074" lon="18.143284">
        <ele>51</ele>
        <time>2020-01-12T06:15:42Z</time>
      </trkpt>
      <trkpt lat="59.209107" lon="18.143369">
        <ele>51</ele>
        <time>2020-01-12T06:15:43Z</time>
      </trkpt>
      <trkpt lat="59.20914" lon="18.143456">
        <ele>51</ele>
        <time>2020-01-12T06:15:44Z</time>
      </trkpt>
      <trkpt lat="59.209175" lon="18.143542">
        <ele>51</ele>
        <time>2020-01-12T06:15:45Z</time>
      </trkpt>
      <trkpt lat="59.209209" lon="18.143631">
        <ele>51</ele>
        <time>2020-01-12T06:15:46Z</time>
      </trkpt>
      <trkpt lat="59.209244" lon="18.143721">
        <ele>51</ele>
        <time>2020-01-12T06:15:47Z</time>
      </trkpt>
      <trkpt lat="59.20928" lon="18.143813">
        <ele>51</ele>
        <time>2020-01-12T06:15:48Z</time>
      </trkpt>
      <trkpt lat="59.209317" lon="18.143906">
        <ele>50</ele>
        <time>2020-01-12T06:15:49Z</time>
      </trkpt>
      <trkpt lat="59.209353" lon="18.144">
        <ele>50</ele>
        <time>2020-01-12T06:15:50Z</time>
      </trkpt>
      <trkpt lat="59.20939" lon="18.144095">
        <ele>50</ele>
        <time>2020-01-12T06:15:51Z</time>
      </trkpt>
      <trkpt lat="59.209426" lon="18.144193">
        <ele>50</ele>
        <time>2020-01-12T06:15:52Z</time>
      </trkpt>
      <trkpt lat="59.209456" lon="18.144293">
        <ele>50</ele>
        <time>2020-01-12T06:15:53Z</time>
      </trkpt>
      <trkpt lat="59.209482" lon="18.144396">
        <ele>50</ele>
        <time>2020-01-12T06:15:54Z</time>
      </trkpt>
      <trkpt lat="59.209499" lon="18.1445">
        <ele>50</ele>
        <time>2020-01-12T06:15:55Z</time>
      </trkpt>
      <trkpt lat="59.209503" lon="18.144602">
        <ele>50</ele>
        <time>2020-01-12T06:15:56Z</time>
      </trkpt>
      <trkpt lat="59.209508" lon="18.144697">
        <ele>50</ele>
        <time>2020-01-12T06:15:57Z</time>
      </trkpt>
      <trkpt lat="59.20953" lon="18.144779">
        <ele>50</ele>
        <time>2020-01-12T06:15:58Z</time>
      </trkpt>
      <trkpt lat="59.209562" lon="18.144851">
        <ele>50</ele>
        <time>2020-01-12T06:15:59Z</time>
      </trkpt>
      <trkpt lat="59.209603" lon="18.144912">
        <ele>50</ele>
        <time>2020-01-12T06:16:00Z</time>
      </trkpt>
      <trkpt lat="59.20965" lon="18.144951">
        <ele>50</ele>
        <time>2020-01-12T06:16:01Z</time>
      </trkpt>
      <trkpt lat="59.209698" lon="18.144988">
        <ele>50</ele>
        <time>2020-01-12T06:16:02Z</time>
      </trkpt>
      <trkpt lat="59.209745" lon="18.145037">
        <ele>50</ele>
        <time>2020-01-12T06:16:03Z</time>
      </trkpt>
      <trkpt lat="59.209791" lon="18.145098">
        <ele>50</ele>
        <time>2020-01-12T06:16:04Z</time>
      </trkpt>
      <trkpt lat="59.209835" lon="18.14517">
        <ele>50</ele>
        <time>2020-01-12T06:16:05Z</time>
      </trkpt>
      <trkpt lat="59.209874" lon="18.145254">
        <ele>50</ele>
        <time>2020-01-12T06:16:06Z</time>
      </trkpt>
      <trkpt lat="59.20991" lon="18.145348">
        <ele>50</ele>
        <time>2020-01-12T06:16:07Z</time>
      </trkpt>
      <trkpt lat="59.209946" lon="18.145444">
        <ele>50</ele>
        <time>2020-01-12T06:16:08Z</time>
      </trkpt>
      <trkpt lat="59.209981" lon="18.145543">
        <ele>50</ele>
        <time>2020-01-12T06:16:09Z</time>
      </trkpt>
      <trkpt lat="59.210018" lon="18.145642">
        <ele>50</ele>
        <time>2020-01-12T06:16:10Z</time>
      </trkpt>
      <trkpt lat="59.21006" lon="18.145737">
        <ele>50</ele>
        <time>2020-01-12T06:16:11Z</time>
      </trkpt>
      <trkpt lat="59.210108" lon="18.145819">
        <ele>49</ele>
        <time>2020-01-12T06:16:12Z</time>
      </trkpt>
      <trkpt lat="59.210163" lon="18.145886">
        <ele>49</ele>
        <time>2020-01-12T06:16:13Z</time>
      </trkpt>
      <trkpt lat="59.210225" lon="18.145943">
        <ele>49</ele>
        <time>2020-01-12T06:16:14Z</time>
      </trkpt>
      <trkpt lat="59.21029" lon="18.145997">
        <ele>49</ele>
        <time>2020-01-12T06:16:15Z</time>
      </trkpt>
      <trkpt lat="59.210356" lon="18.146058">
        <ele>49</ele>
        <time>2020-01-12T06:16:16Z</time>
      </trkpt>
      <trkpt lat="59.210423" lon="18.14613">
        <ele>48</ele>
        <time>2020-01-12T06:16:17Z</time>
      </trkpt>
      <trkpt lat="59.210492" lon="18.146207">
        <ele>48</ele>
        <time>2020-01-12T06:16:18Z</time>
      </trkpt>
      <trkpt lat="59.210564" lon="18.146289">
        <ele>48</ele>
        <time>2020-01-12T06:16:19Z</time>
      </trkpt>
      <trkpt lat="59.210639" lon="18.14637">
        <ele>48</ele>
        <time>2020-01-12T06:16:20Z</time>
      </trkpt>
      <trkpt lat="59.210715" lon="18.146451">
        <ele>47</ele>
        <time>2020-01-12T06:16:21Z</time>
      </trkpt>
      <trkpt lat="59.210792" lon="18.146532">
        <ele>47</ele>
        <time>2020-01-12T06:16:22Z</time>
      </trkpt>
      <trkpt lat="59.210873" lon="18.146613">
        <ele>47</ele>
        <time>2020-01-12T06:16:23Z</time>
      </trkpt>
      <trkpt lat="59.210957" lon="18.146691">
        <ele>47</ele>
        <time>2020-01-12T06:16:24Z</time>
      </trkpt>
      <trkpt lat="59.211045" lon="18.146763">
        <ele>46</ele>
        <time>2020-01-12T06:16:25Z</time>
      </trkpt>
      <trkpt lat="59.211136" lon="18.146831">
        <ele>46</ele>
        <time>2020-01-12T06:16:26Z</time>
      </trkpt>
      <trkpt lat="59.211229" lon="18.146892">
        <ele>45</ele>
        <time>2020-01-12T06:16:27Z</time>
      </trkpt>
      <trkpt lat="59.211324" lon="18.146952">
        <ele>45</ele>
        <time>2020-01-12T06:16:28Z</time>
      </trkpt>
      <trkpt lat="59.211421" lon="18.147011">
        <ele>44</ele>
        <time>2020-01-12T06:16:29Z</time>
      </trkpt>
      <trkpt lat="59.211523" lon="18.147058">
        <ele>44</ele>
        <time>2020-01-12T06:16:30Z</time>
      </trkpt>
      <trkpt lat="59.211628" lon="18.147098">
        <ele>43</ele>
        <time>2020-01-12T06:16:31Z</time>
      </trkpt>
      <trkpt lat="59.211732" lon="18.147136">
        <ele>43</ele>
        <time>2020-01-12T06:16:32Z</time>
      </trkpt>
      <trkpt lat="59.211839" lon="18.147167">
        <ele>42</ele>
        <time>2020-01-12T06:16:33Z</time>
      </trkpt>
      <trkpt lat="59.211946" lon="18.147184">
        <ele>42</ele>
        <time>2020-01-12T06:16:34Z</time>
      </trkpt>
      <trkpt lat="59.212054" lon="18.147192">
        <ele>41</ele>
        <time>2020-01-12T06:16:35Z</time>
      </trkpt>
      <trkpt lat="59.212162" lon="18.147195">
        <ele>41</ele>
        <time>2020-01-12T06:16:36Z</time>
      </trkpt>
      <trkpt lat="59.212271" lon="18.147196">
        <ele>40</ele>
        <time>2020-01-12T06:16:37Z</time>
      </trkpt>
      <trkpt lat="59.212382" lon="18.147194">
        <ele>39</ele>
        <time>2020-01-12T06:16:38Z</time>
      </trkpt>
      <trkpt lat="59.212493" lon="18.147184">
        <ele>39</ele>
        <time>2020-01-12T06:16:39Z</time>
      </trkpt>
      <trkpt lat="59.212605" lon="18.147165">
        <ele>38</ele>
        <time>2020-01-12T06:16:40Z</time>
      </trkpt>
      <trkpt lat="59.212715" lon="18.147142">
        <ele>37</ele>
        <time>2020-01-12T06:16:41Z</time>
      </trkpt>
      <trkpt lat="59.212825" lon="18.147115">
        <ele>36</ele>
        <time>2020-01-12T06:16:42Z</time>
      </trkpt>
      <trkpt lat="59.212934" lon="18.147083">
        <ele>35</ele>
        <time>2020-01-12T06:16:43Z</time>
      </trkpt>
      <trkpt lat="59.213041" lon="18.147045">
        <ele>35</ele>
        <time>2020-01-12T06:16:44Z</time>
      </trkpt>
      <trkpt lat="59.213147" lon="18.146999">
        <ele>34</ele>
        <time>2020-01-12T06:16:45Z</time>
      </trkpt>
      <trkpt lat="59.213251" lon="18.146947">
        <ele>33</ele>
        <time>2020-01-12T06:16:46Z</time>
      </trkpt>
      <trkpt lat="59.213352" lon="18.146886">
        <ele>0</ele>
        <time>2020-01-12T06:16:46Z</time>
      </trkpt>
      <trkpt lat="59.213451" lon="18.146817">
        <ele>33</ele>
        <time>2020-01-12T06:16:47Z</time>
      </trkpt>
      <trkpt lat="59.213548" lon="18.146746">
        <ele>32</ele>
        <time>2020-01-12T06:16:49Z</time>
      </trkpt>
      <trkpt lat="59.213644" lon="18.146671">
        <ele>32</ele>
        <time>2020-01-12T06:16:50Z</time>
      </trkpt>
      <trkpt lat="59.213735" lon="18.146591">
        <ele>32</ele>
        <time>2020-01-12T06:16:51Z</time>
      </trkpt>
      <trkpt lat="59.213822" lon="18.146502">
        <ele>31</ele>
        <time>2020-01-12T06:16:52Z</time>
      </trkpt>
      <trkpt lat="59.213905" lon="18.146407">
        <ele>31</ele>
        <time>2020-01-12T06:16:53Z</time>
      </trkpt>
      <trkpt lat="59.213986" lon="18.146313">
        <ele>31</ele>
        <time>2020-01-12T06:16:54Z</time>
      </trkpt>
      <trkpt lat="59.214066" lon="18.14622">
        <ele>30</ele>
        <time>2020-01-12T06:16:55Z</time>
      </trkpt>
      <trkpt lat="59.214146" lon="18.146126">
        <ele>30</ele>
        <time>2020-01-12T06:16:56Z</time>
      </trkpt>
      <trkpt lat="59.214224" lon="18.146032">
        <ele>30</ele>
        <time>2020-01-12T06:16:57Z</time>
      </trkpt>
      <trkpt lat="59.214302" lon="18.145938">
        <ele>29</ele>
        <time>2020-01-12T06:16:58Z</time>
      </trkpt>
      <trkpt lat="59.21438" lon="18.145846">
        <ele>29</ele>
        <time>2020-01-12T06:16:59Z</time>
      </trkpt>
      <trkpt lat="59.214457" lon="18.145753">
        <ele>29</ele>
        <time>2020-01-12T06:17:00Z</time>
      </trkpt>
      <trkpt lat="59.214534" lon="18.145659">
        <ele>29</ele>
        <time>2020-01-12T06:17:01Z</time>
      </trkpt>
      <trkpt lat="59.21461" lon="18.145564">
        <ele>29</ele>
        <time>2020-01-12T06:17:02Z</time>
      </trkpt>
      <trkpt lat="59.214686" lon="18.145473">
        <ele>28</ele>
        <time>2020-01-12T06:17:03Z</time>
      </trkpt>
      <trkpt lat="59.214763" lon="18.145384">
        <ele>28</ele>
        <time>2020-01-12T06:17:04Z</time>
      </trkpt>
      <trkpt lat="59.214838" lon="18.145293">
        <ele>28</ele>
        <time>2020-01-12T06:17:05Z</time>
      </trkpt>
      <trkpt lat="59.214914" lon="18.145202">
        <ele>28</ele>
        <time>2020-01-12T06:17:06Z</time>
      </trkpt>
      <trkpt lat="59.214988" lon="18.145114">
        <ele>27</ele>
        <time>2020-01-12T06:17:07Z</time>
      </trkpt>
      <trkpt lat="59.215062" lon="18.145028">
        <ele>27</ele>
        <time>2020-01-12T06:17:08Z</time>
      </trkpt>
      <trkpt lat="59.215134" lon="18.144943">
        <ele>27</ele>
        <time>2020-01-12T06:17:09Z</time>
      </trkpt>
      <trkpt lat="59.215205" lon="18.144857">
        <ele>27</ele>
        <time>2020-01-12T06:17:10Z</time>
      </trkpt>
      <trkpt lat="59.215277" lon="18.144768">
        <ele>27</ele>
        <time>2020-01-12T06:17:11Z</time>
      </trkpt>
      <trkpt lat="59.215348" lon="18.144679">
        <ele>27</ele>
        <time>2020-01-12T06:17:12Z</time>
      </trkpt>
      <trkpt lat="59.215419" lon="18.144594">
        <ele>26</ele>
        <time>2020-01-12T06:17:13Z</time>
      </trkpt>
      <trkpt lat="59.215489" lon="18.144509">
        <ele>26</ele>
        <time>2020-01-12T06:17:14Z</time>
      </trkpt>
      <trkpt lat="59.215559" lon="18.144423">
        <ele>26</ele>
        <time>2020-01-12T06:17:15Z</time>
      </trkpt>
      <trkpt lat="59.215628" lon="18.14434">
        <ele>26</ele>
        <time>2020-01-12T06:17:16Z</time>
      </trkpt>
      <trkpt lat="59.215697" lon="18.144257">
        <ele>26</ele>
        <time>2020-01-12T06:17:17Z</time>
      </trkpt>
      <trkpt lat="59.215765" lon="18.144175">
        <ele>26</ele>
        <time>2020-01-12T06:17:18Z</time>
      </trkpt>
      <trkpt lat="59.215834" lon="18.144094">
        <ele>26</ele>
        <time>2020-01-12T06:17:19Z</time>
      </trkpt>
      <trkpt lat="59.215904" lon="18.144013">
        <ele>25</ele>
        <time>2020-01-12T06:17:20Z</time>
      </trkpt>
      <trkpt lat="59.215973" lon="18.143932">
        <ele>25</ele>
        <time>2020-01-12T06:17:21Z</time>
      </trkpt>
      <trkpt lat="59.216042" lon="18.143846">
        <ele>25</ele>
        <time>2020-01-12T06:17:22Z</time>
      </trkpt>
      <trkpt lat="59.216111" lon="18.14376">
        <ele>25</ele>
        <time>2020-01-12T06:17:23Z</time>
      </trkpt>
      <trkpt lat="59.216181" lon="18.143677">
        <ele>25</ele>
        <time>2020-01-12T06:17:24Z</time>
      </trkpt>
      <trkpt lat="59.21625" lon="18.143594">
        <ele>25</ele>
        <time>2020-01-12T06:17:25Z</time>
      </trkpt>
      <trkpt lat="59.21632" lon="18.143513">
        <ele>25</ele>
        <time>2020-01-12T06:17:26Z</time>
      </trkpt>
      <trkpt lat="59.21639" lon="18.14344">
        <ele>24</ele>
        <time>2020-01-12T06:17:27Z</time>
      </trkpt>
      <trkpt lat="59.216459" lon="18.143365">
        <ele>24</ele>
        <time>2020-01-12T06:17:28Z</time>
      </trkpt>
      <trkpt lat="59.216526" lon="18.143287">
        <ele>24</ele>
        <time>2020-01-12T06:17:29Z</time>
      </trkpt>
      <trkpt lat="59.216591" lon="18.14321">
        <ele>24</ele>
        <time>2020-01-12T06:17:30Z</time>
      </trkpt>
      <trkpt lat="59.216654" lon="18.143136">
        <ele>24</ele>
        <time>2020-01-12T06:17:31Z</time>
      </trkpt>
      <trkpt lat="59.216716" lon="18.143063">
        <ele>24</ele>
        <time>2020-01-12T06:17:32Z</time>
      </trkpt>
      <trkpt lat="59.216778" lon="18.142994">
        <ele>0</ele>
        <time>2020-01-12T06:17:32Z</time>
      </trkpt>
      <trkpt lat="59.216838" lon="18.142929">
        <ele>24</ele>
        <time>2020-01-12T06:17:33Z</time>
      </trkpt>
      <trkpt lat="59.216896" lon="18.142864">
        <ele>24</ele>
        <time>2020-01-12T06:17:35Z</time>
      </trkpt>
      <trkpt lat="59.216953" lon="18.142796">
        <ele>24</ele>
        <time>2020-01-12T06:17:36Z</time>
      </trkpt>
      <trkpt lat="59.21701" lon="18.14273">
        <ele>24</ele>
        <time>2020-01-12T06:17:37Z</time>
      </trkpt>
      <trkpt lat="59.217068" lon="18.142666">
        <ele>24</ele>
        <time>2020-01-12T06:17:38Z</time>
      </trkpt>
      <trkpt lat="59.217125" lon="18.142603">
        <ele>24</ele>
        <time>2020-01-12T06:17:39Z</time>
      </trkpt>
      <trkpt lat="59.217183" lon="18.142537">
        <ele>24</ele>
        <time>2020-01-12T06:17:40Z</time>
      </trkpt>
      <trkpt lat="59.21724" lon="18.142471">
        <ele>24</ele>
        <time>2020-01-12T06:17:41Z</time>
      </trkpt>
      <trkpt lat="59.217297" lon="18.142402">
        <ele>24</ele>
        <time>2020-01-12T06:17:42Z</time>
      </trkpt>
      <trkpt lat="59.217355" lon="18.142335">
        <ele>24</ele>
        <time>2020-01-12T06:17:43Z</time>
      </trkpt>
      <trkpt lat="59.217413" lon="18.142268">
        <ele>24</ele>
        <time>2020-01-12T06:17:44Z</time>
      </trkpt>
      <trkpt lat="59.217472" lon="18.142201">
        <ele>24</ele>
        <time>2020-01-12T06:17:45Z</time>
      </trkpt>
      <trkpt lat="59.217531" lon="18.142137">
        <ele>24</ele>
        <time>2020-01-12T06:17:46Z</time>
      </trkpt>
      <trkpt lat="59.21759" lon="18.142073">
        <ele>24</ele>
        <time>2020-01-12T06:17:47Z</time>
      </trkpt>
      <trkpt lat="59.217649" lon="18.14201">
        <ele>24</ele>
        <time>2020-01-12T06:17:48Z</time>
      </trkpt>
      <trkpt lat="59.217708" lon="18.141947">
        <ele>24</ele>
        <time>2020-01-12T06:17:49Z</time>
      </trkpt>
      <trkpt lat="59.217767" lon="18.141884">
        <ele>24</ele>
        <time>2020-01-12T06:17:50Z</time>
      </trkpt>
      <trkpt lat="59.217825" lon="18.141821">
        <ele>24</ele>
        <time>2020-01-12T06:17:51Z</time>
      </trkpt>
      <trkpt lat="59.217883" lon="18.141756">
        <ele>23</ele>
        <time>2020-01-12T06:17:52Z</time>
      </trkpt>
      <trkpt lat="59.217939" lon="18.141688">
        <ele>23</ele>
        <time>2020-01-12T06:17:53Z</time>
      </trkpt>
      <trkpt lat="59.217994" lon="18.141619">
        <ele>23</ele>
        <time>2020-01-12T06:17:54Z</time>
      </trkpt>
      <trkpt lat="59.218049" lon="18.141553">
        <ele>23</ele>
        <time>2020-01-12T06:17:55Z</time>
      </trkpt>
      <trkpt lat="59.218105" lon="18.1415">
        <ele>23</ele>
        <time>2020-01-12T06:17:56Z</time>
      </trkpt>
      <trkpt lat="59.218161" lon="18.141473">
        <ele>23</ele>
        <time>2020-01-12T06:17:57Z</time>
      </trkpt>
      <trkpt lat="59.218217" lon="18.141486">
        <ele>23</ele>
        <time>2020-01-12T06:17:58Z</time>
      </trkpt>
      <trkpt lat="59.218268" lon="18.141535">
        <ele>23</ele>
        <time>2020-01-12T06:17:59Z</time>
      </trkpt>
      <trkpt lat="59.218315" lon="18.141592">
        <ele>23</ele>
        <time>2020-01-12T06:18:00Z</time>
      </trkpt>
      <trkpt lat="59.218363" lon="18.141624">
        <ele>23</ele>
        <time>2020-01-12T06:18:01Z</time>
      </trkpt>
      <trkpt lat="59.218414" lon="18.14162">
        <ele>23</ele>
        <time>2020-01-12T06:18:02Z</time>
      </trkpt>
      <trkpt lat="59.218463" lon="18.141589">
        <ele>23</ele>
        <time>2020-01-12T06:18:03Z</time>
      </trkpt>
      <trkpt lat="59.218513" lon="18.141558">
        <ele>23</ele>
        <time>2020-01-12T06:18:04Z</time>
      </trkpt>
      <trkpt lat="59.218562" lon="18.141536">
        <ele>23</ele>
        <time>2020-01-12T06:18:05Z</time>
      </trkpt>
      <trkpt lat="59.218604" lon="18.141492">
        <ele>22</ele>
        <time>2020-01-12T06:18:06Z</time>
      </trkpt>
      <trkpt lat="59.218628" lon="18.141415">
        <ele>22</ele>
        <time>2020-01-12T06:18:07Z</time>
      </trkpt>
      <trkpt lat="59.218638" lon="18.14132">
        <ele>22</ele>
        <time>2020-01-12T06:18:08Z</time>
      </trkpt>
      <trkpt lat="59.218646" lon="18.141222">
        <ele>22</ele>
        <time>2020-01-12T06:18:09Z</time>
      </trkpt>
      <trkpt lat="59.218658" lon="18.141122">
        <ele>22</ele>
        <time>2020-01-12T06:18:10Z</time>
      </trkpt>
      <trkpt lat="59.218671" lon="18.141019">
        <ele>22</ele>
        <time>2020-01-12T06:18:11Z</time>
      </trkpt>
      <trkpt lat="59.218687" lon="18.140918">
        <ele>22</ele>
        <time>2020-01-12T06:18:12Z</time>
      </trkpt>
      <trkpt lat="59.218714" lon="18.140826">
        <ele>22</ele>
        <time>2020-01-12T06:18:13Z</time>
      </trkpt>
      <trkpt lat="59.218752" lon="18.140745">
        <ele>22</ele>
        <time>2020-01-12T06:18:14Z</time>
      </trkpt>
      <trkpt lat="59.218796" lon="18.140673">
        <ele>22</ele>
        <time>2020-01-12T06:18:15Z</time>
      </trkpt>
      <trkpt lat="59.218845" lon="18.140607">
        <ele>22</ele>
        <time>2020-01-12T06:18:16Z</time>
      </trkpt>
      <trkpt lat="59.218895" lon="18.140543">
        <ele>22</ele>
        <time>2020-01-12T06:18:17Z</time>
      </trkpt>
      <trkpt lat="59.218946" lon="18.140479">
        <ele>22</ele>
        <time>2020-01-12T06:18:18Z</time>
      </trkpt>
      <trkpt lat="59.218998" lon="18.140418">
        <ele>22</ele>
        <time>2020-01-12T06:18:19Z</time>
      </trkpt>
      <trkpt lat="59.219051" lon="18.140358">
        <ele>22</ele>
        <time>2020-01-12T06:18:20Z</time>
      </trkpt>
      <trkpt lat="59.219103" lon="18.140297">
        <ele>22</ele>
        <time>2020-01-12T06:18:21Z</time>
      </trkpt>
      <trkpt lat="59.219155" lon="18.140234">
        <ele>22</ele>
        <time>2020-01-12T06:18:22Z</time>
      </trkpt>
      <trkpt lat="59.219206" lon="18.140171">
        <ele>22</ele>
        <time>2020-01-12T06:18:23Z</time>
      </trkpt>
      <trkpt lat="59.219258" lon="18.14011">
        <ele>23</ele>
        <time>2020-01-12T06:18:24Z</time>
      </trkpt>
      <trkpt lat="59.21931" lon="18.140048">
        <ele>23</ele>
        <time>2020-01-12T06:18:25Z</time>
      </trkpt>
      <trkpt lat="59.219362" lon="18.139986">
        <ele>23</ele>
        <time>2020-01-12T06:18:26Z</time>
      </trkpt>
      <trkpt lat="59.219414" lon="18.139924">
        <ele>23</ele>
        <time>2020-01-12T06:18:27Z</time>
      </trkpt>
      <trkpt lat="59.219466" lon="18.139861">
        <ele>23</ele>
        <time>2020-01-12T06:18:28Z</time>
      </trkpt>
      <trkpt lat="59.219518" lon="18.139802">
        <ele>23</ele>
        <time>2020-01-12T06:18:29Z</time>
      </trkpt>
      <trkpt lat="59.219569" lon="18.139745">
        <ele>23</ele>
        <time>2020-01-12T06:18:30Z</time>
      </trkpt>
      <trkpt lat="59.21962" lon="18.139688">
        <ele>23</ele>
        <time>2020-01-12T06:18:31Z</time>
      </trkpt>
      <trkpt lat="59.21967" lon="18.139635">
        <ele>24</ele>
        <time>2020-01-12T06:18:32Z</time>
      </trkpt>
      <trkpt lat="59.219718" lon="18.139583">
        <ele>24</ele>
        <time>2020-01-12T06:18:33Z</time>
      </trkpt>
      <trkpt lat="59.219764" lon="18.139531">
        <ele>24</ele>
        <time>2020-01-12T06:18:34Z</time>
      </trkpt>
      <trkpt lat="59.219808" lon="18.139478">
        <ele>24</ele>
        <time>2020-01-12T06:18:35Z</time>
      </trkpt>
      <trkpt lat="59.219852" lon="18.139425">
        <ele>24</ele>
        <time>2020-01-12T06:18:36Z</time>
      </trkpt>
      <trkpt lat="59.219895" lon="18.139372">
        <ele>25</ele>
        <time>2020-01-12T06:18:37Z</time>
      </trkpt>
      <trkpt lat="59.219937" lon="18.139319">
        <ele>25</ele>
        <time>2020-01-12T06:18:38Z</time>
      </trkpt>
      <trkpt lat="59.219978" lon="18.139268">
        <ele>25</ele>
        <time>2020-01-12T06:18:39Z</time>
      </trkpt>
      <trkpt lat="59.220019" lon="18.139213">
        <ele>25</ele>
        <time>2020-01-12T06:18:40Z</time>
      </trkpt>
      <trkpt lat="59.220058" lon="18.139155">
        <ele>25</ele>
        <time>2020-01-12T06:18:41Z</time>
      </trkpt>
      <trkpt lat="59.220097" lon="18.139098">
        <ele>25</ele>
        <time>2020-01-12T06:18:42Z</time>
      </trkpt>
      <trkpt lat="59.220136" lon="18.139041">
        <ele>26</ele>
        <time>2020-01-12T06:18:43Z</time>
      </trkpt>
      <trkpt lat="59.220176" lon="18.138988">
        <ele>26</ele>
        <time>2020-01-12T06:18:44Z</time>
      </trkpt>
      <trkpt lat="59.220214" lon="18.138936">
        <ele>26</ele>
        <time>2020-01-12T06:18:45Z</time>
      </trkpt>
      <trkpt lat="59.220253" lon="18.138889">
        <ele>27</ele>
        <time>2020-01-12T06:18:46Z</time>
      </trkpt>
      <trkpt lat="59.220294" lon="18.138845">
        <ele>27</ele>
        <time>2020-01-12T06:18:47Z</time>
      </trkpt>
      <trkpt lat="59.220334" lon="18.138804">
        <ele>27</ele>
        <time>2020-01-12T06:18:48Z</time>
      </trkpt>
      <trkpt lat="59.220375" lon="18.138765">
        <ele>27</ele>
        <time>2020-01-12T06:18:49Z</time>
      </trkpt>
      <trkpt lat="59.220417" lon="18.138732">
        <ele>28</ele>
        <time>2020-01-12T06:18:50Z</time>
      </trkpt>
      <trkpt lat="59.220461" lon="18.138705">
        <ele>28</ele>
        <time>2020-01-12T06:18:51Z</time>
      </trkpt>
      <trkpt lat="59.220504" lon="18.138673">
        <ele>28</ele>
        <time>2020-01-12T06:18:52Z</time>
      </trkpt>
      <trkpt lat="59.220548" lon="18.138646">
        <ele>28</ele>
        <time>2020-01-12T06:18:53Z</time>
      </trkpt>
      <trkpt lat="59.220592" lon="18.138622">
        <ele>28</ele>
        <time>2020-01-12T06:18:54Z</time>
      </trkpt>
      <trkpt lat="59.220636" lon="18.138598">
        <ele>28</ele>
        <time>2020-01-12T06:18:55Z</time>
      </trkpt>
      <trkpt lat="59.22068" lon="18.138576">
        <ele>29</ele>
        <time>2020-01-12T06:18:56Z</time>
      </trkpt>
      <trkpt lat="59.220725" lon="18.138555">
        <ele>29</ele>
        <time>2020-01-12T06:18:57Z</time>
      </trkpt>
      <trkpt lat="59.22077" lon="18.138535">
        <ele>29</ele>
        <time>2020-01-12T06:18:58Z</time>
      </trkpt>
      <trkpt lat="59.220817" lon="18.138517">
        <ele>29</ele>
        <time>2020-01-12T06:18:59Z</time>
      </trkpt>
      <trkpt lat="59.220864" lon="18.1385">
        <ele>29</ele>
        <time>2020-01-12T06:19:00Z</time>
      </trkpt>
      <trkpt lat="59.220911" lon="18.138481">
        <ele>29</ele>
        <time>2020-01-12T06:19:01Z</time>
      </trkpt>
      <trkpt lat="59.220957" lon="18.138461">
        <ele>29</ele>
        <time>2020-01-12T06:19:02Z</time>
      </trkpt>
      <trkpt lat="59.221005" lon="18.138441">
        <ele>29</ele>
        <time>2020-01-12T06:19:03Z</time>
      </trkpt>
      <trkpt lat="59.221053" lon="18.138422">
        <ele>29</ele>
        <time>2020-01-12T06:19:04Z</time>
      </trkpt>
      <trkpt lat="59.221101" lon="18.1384">
        <ele>29</ele>
        <time>2020-01-12T06:19:05Z</time>
      </trkpt>
      <trkpt lat="59.221151" lon="18.13838">
        <ele>29</ele>
        <time>2020-01-12T06:19:06Z</time>
      </trkpt>
      <trkpt lat="59.221203" lon="18.138361">
        <ele>29</ele>
        <time>2020-01-12T06:19:07Z</time>
      </trkpt>
      <trkpt lat="59.221254" lon="18.138342">
        <ele>29</ele>
        <time>2020-01-12T06:19:08Z</time>
      </trkpt>
      <trkpt lat="59.221307" lon="18.138328">
        <ele>29</ele>
        <time>2020-01-12T06:19:09Z</time>
      </trkpt>
      <trkpt lat="59.22136" lon="18.138311">
        <ele>29</ele>
        <time>2020-01-12T06:19:10Z</time>
      </trkpt>
      <trkpt lat="59.221414" lon="18.138291">
        <ele>29</ele>
        <time>2020-01-12T06:19:11Z</time>
      </trkpt>
      <trkpt lat="59.221466" lon="18.138268">
        <ele>29</ele>
        <time>2020-01-12T06:19:12Z</time>
      </trkpt>
      <trkpt lat="59.221519" lon="18.138246">
        <ele>30</ele>
        <time>2020-01-12T06:19:13Z</time>
      </trkpt>
      <trkpt lat="59.22157" lon="18.138223">
        <ele>30</ele>
        <time>2020-01-12T06:19:14Z</time>
      </trkpt>
      <trkpt lat="59.221622" lon="18.1382">
        <ele>30</ele>
        <time>2020-01-12T06:19:15Z</time>
      </trkpt>
      <trkpt lat="59.221674" lon="18.138176">
        <ele>30</ele>
        <time>2020-01-12T06:19:16Z</time>
      </trkpt>
      <trkpt lat="59.221726" lon="18.138152">
        <ele>30</ele>
        <time>2020-01-12T06:19:17Z</time>
      </trkpt>
      <trkpt lat="59.221779" lon="18.138131">
        <ele>30</ele>
        <time>2020-01-12T06:19:18Z</time>
      </trkpt>
      <trkpt lat="59.221832" lon="18.13811">
        <ele>30</ele>
        <time>2020-01-12T06:19:19Z</time>
      </trkpt>
      <trkpt lat="59.221885" lon="18.138086">
        <ele>30</ele>
        <time>2020-01-12T06:19:20Z</time>
      </trkpt>
      <trkpt lat="59.221938" lon="18.138063">
        <ele>30</ele>
        <time>2020-01-12T06:19:21Z</time>
      </trkpt>
      <trkpt lat="59.221992" lon="18.138039">
        <ele>30</ele>
        <time>2020-01-12T06:19:22Z</time>
      </trkpt>
      <trkpt lat="59.222046" lon="18.138016">
        <ele>30</ele>
        <time>2020-01-12T06:19:23Z</time>
      </trkpt>
      <trkpt lat="59.222101" lon="18.137992">
        <ele>31</ele>
        <time>2020-01-12T06:19:24Z</time>
      </trkpt>
      <trkpt lat="59.222156" lon="18.137965">
        <ele>31</ele>
        <time>2020-01-12T06:19:25Z</time>
      </trkpt>
      <trkpt lat="59.222215" lon="18.137936">
        <ele>31</ele>
        <time>2020-01-12T06:19:26Z</time>
      </trkpt>
      <trkpt lat="59.222273" lon="18.137906">
        <ele>31</ele>
        <time>2020-01-12T06:19:27Z</time>
      </trkpt>
      <trkpt lat="59.222331" lon="18.137873">
        <ele>31</ele>
        <time>2020-01-12T06:19:28Z</time>
      </trkpt>
      <trkpt lat="59.22239" lon="18.137842">
        <ele>31</ele>
        <time>2020-01-12T06:19:29Z</time>
      </trkpt>
      <trkpt lat="59.222449" lon="18.137809">
        <ele>30</ele>
        <time>2020-01-12T06:19:30Z</time>
      </trkpt>
      <trkpt lat="59.222509" lon="18.137773">
        <ele>30</ele>
        <time>2020-01-12T06:19:31Z</time>
      </trkpt>
      <trkpt lat="59.222569" lon="18.137736">
        <ele>31</ele>
        <time>2020-01-12T06:19:32Z</time>
      </trkpt>
      <trkpt lat="59.222628" lon="18.137695">
        <ele>31</ele>
        <time>2020-01-12T06:19:33Z</time>
      </trkpt>
      <trkpt lat="59.222686" lon="18.137651">
        <ele>31</ele>
        <time>2020-01-12T06:19:34Z</time>
      </trkpt>
      <trkpt lat="59.222743" lon="18.137602">
        <ele>31</ele>
        <time>2020-01-12T06:19:35Z</time>
      </trkpt>
      <trkpt lat="59.222799" lon="18.137551">
        <ele>31</ele>
        <time>2020-01-12T06:19:36Z</time>
      </trkpt>
      <trkpt lat="59.222856" lon="18.137495">
        <ele>31</ele>
        <time>2020-01-12T06:19:37Z</time>
      </trkpt>
      <trkpt lat="59.222915" lon="18.137435">
        <ele>31</ele>
        <time>2020-01-12T06:19:38Z</time>
      </trkpt>
      <trkpt lat="59.222971" lon="18.137373">
        <ele>31</ele>
        <time>2020-01-12T06:19:39Z</time>
      </trkpt>
      <trkpt lat="59.223027" lon="18.137307">
        <ele>31</ele>
        <time>2020-01-12T06:19:40Z</time>
      </trkpt>
      <trkpt lat="59.223084" lon="18.137241">
        <ele>31</ele>
        <time>2020-01-12T06:19:41Z</time>
      </trkpt>
      <trkpt lat="59.223137" lon="18.13717">
        <ele>31</ele>
        <time>2020-01-12T06:19:42Z</time>
      </trkpt>
      <trkpt lat="59.223189" lon="18.137095">
        <ele>31</ele>
        <time>2020-01-12T06:19:43Z</time>
      </trkpt>
      <trkpt lat="59.223241" lon="18.137019">
        <ele>31</ele>
        <time>2020-01-12T06:19:44Z</time>
      </trkpt>
      <trkpt lat="59.223293" lon="18.136939">
        <ele>31</ele>
        <time>2020-01-12T06:19:45Z</time>
      </trkpt>
      <trkpt lat="59.223344" lon="18.136857">
        <ele>31</ele>
        <time>2020-01-12T06:19:46Z</time>
      </trkpt>
      <trkpt lat="59.223395" lon="18.136771">
        <ele>31</ele>
        <time>2020-01-12T06:19:47Z</time>
      </trkpt>
      <trkpt lat="59.223444" lon="18.136684">
        <ele>31</ele>
        <time>2020-01-12T06:19:48Z</time>
      </trkpt>
      <trkpt lat="59.223495" lon="18.136594">
        <ele>30</ele>
        <time>2020-01-12T06:19:49Z</time>
      </trkpt>
      <trkpt lat="59.223545" lon="18.136503">
        <ele>30</ele>
        <time>2020-01-12T06:19:50Z</time>
      </trkpt>
      <trkpt lat="59.223594" lon="18.136408">
        <ele>30</ele>
        <time>2020-01-12T06:19:51Z</time>
      </trkpt>
      <trkpt lat="59.22364" lon="18.136311">
        <ele>30</ele>
        <time>2020-01-12T06:19:52Z</time>
      </trkpt>
      <trkpt lat="59.223682" lon="18.136213">
        <ele>30</ele>
        <time>2020-01-12T06:19:53Z</time>
      </trkpt>
      <trkpt lat="59.223723" lon="18.13611">
        <ele>30</ele>
        <time>2020-01-12T06:19:54Z</time>
      </trkpt>
      <trkpt lat="59.223764" lon="18.136004">
        <ele>30</ele>
        <time>2020-01-12T06:19:55Z</time>
      </trkpt>
      <trkpt lat="59.223806" lon="18.135901">
        <ele>30</ele>
        <time>2020-01-12T06:19:56Z</time>
      </trkpt>
      <trkpt lat="59.223848" lon="18.135794">
        <ele>30</ele>
        <time>2020-01-12T06:19:57Z</time>
      </trkpt>
      <trkpt lat="59.223889" lon="18.135686">
        <ele>31</ele>
        <time>2020-01-12T06:19:58Z</time>
      </trkpt>
      <trkpt lat="59.22393" lon="18.135575">
        <ele>31</ele>
        <time>2020-01-12T06:19:59Z</time>
      </trkpt>
      <trkpt lat="59.22397" lon="18.135466">
        <ele>0</ele>
        <time>2020-01-12T06:19:59Z</time>
      </trkpt>
      <trkpt lat="59.224013" lon="18.135355">
        <ele>30</ele>
        <time>2020-01-12T06:20:00Z</time>
      </trkpt>
      <trkpt lat="59.224057" lon="18.135242">
        <ele>30</ele>
        <time>2020-01-12T06:20:02Z</time>
      </trkpt>
      <trkpt lat="59.224102" lon="18.135129">
        <ele>30</ele>
        <time>2020-01-12T06:20:03Z</time>
      </trkpt>
      <trkpt lat="59.224144" lon="18.135012">
        <ele>30</ele>
        <time>2020-01-12T06:20:04Z</time>
      </trkpt>
      <trkpt lat="59.224187" lon="18.1349">
        <ele>30</ele>
        <time>2020-01-12T06:20:05Z</time>
      </trkpt>
      <trkpt lat="59.224229" lon="18.134792">
        <ele>30</ele>
        <time>2020-01-12T06:20:06Z</time>
      </trkpt>
      <trkpt lat="59.224271" lon="18.134686">
        <ele>30</ele>
        <time>2020-01-12T06:20:07Z</time>
      </trkpt>
      <trkpt lat="59.224313" lon="18.134578">
        <ele>30</ele>
        <time>2020-01-12T06:20:08Z</time>
      </trkpt>
      <trkpt lat="59.224355" lon="18.134472">
        <ele>30</ele>
        <time>2020-01-12T06:20:09Z</time>
      </trkpt>
      <trkpt lat="59.224397" lon="18.134365">
        <ele>30</ele>
        <time>2020-01-12T06:20:10Z</time>
      </trkpt>
      <trkpt lat="59.224438" lon="18.13426">
        <ele>30</ele>
        <time>2020-01-12T06:20:11Z</time>
      </trkpt>
      <trkpt lat="59.22448" lon="18.134156">
        <ele>30</ele>
        <time>2020-01-12T06:20:12Z</time>
      </trkpt>
      <trkpt lat="59.224521" lon="18.134056">
        <ele>30</ele>
        <time>2020-01-12T06:20:13Z</time>
      </trkpt>
      <trkpt lat="59.224564" lon="18.13396">
        <ele>30</ele>
        <time>2020-01-12T06:20:14Z</time>
      </trkpt>
      <trkpt lat="59.224605" lon="18.133866">
        <ele>30</ele>
        <time>2020-01-12T06:20:15Z</time>
      </trkpt>
      <trkpt lat="59.224646" lon="18.133776">
        <ele>30</ele>
        <time>2020-01-12T06:20:16Z</time>
      </trkpt>
      <trkpt lat="59.224685" lon="18.13369">
        <ele>30</ele>
        <time>2020-01-12T06:20:17Z</time>
      </trkpt>
      <trkpt lat="59.224721" lon="18.13361">
        <ele>30</ele>
        <time>2020-01-12T06:20:18Z</time>
      </trkpt>
      <trkpt lat="59.224756" lon="18.133536">
        <ele>30</ele>
        <time>2020-01-12T06:20:19Z</time>
      </trkpt>
      <trkpt lat="59.22479" lon="18.133466">
        <ele>30</ele>
        <time>2020-01-12T06:20:20Z</time>
      </trkpt>
      <trkpt lat="59.224823" lon="18.1334">
        <ele>30</ele>
        <time>2020-01-12T06:20:21Z</time>
      </trkpt>
      <trkpt lat="59.224855" lon="18.133339">
        <ele>30</ele>
        <time>2020-01-12T06:20:22Z</time>
      </trkpt>
      <trkpt lat="59.224887" lon="18.13328">
        <ele>31</ele>
        <time>2020-01-12T06:20:23Z</time>
      </trkpt>
      <trkpt lat="59.224917" lon="18.13322">
        <ele>31</ele>
        <time>2020-01-12T06:20:24Z</time>
      </trkpt>
      <trkpt lat="59.224948" lon="18.133169">
        <ele>31</ele>
        <time>2020-01-12T06:20:25Z</time>
      </trkpt>
      <trkpt lat="59.224977" lon="18.133118">
        <ele>31</ele>
        <time>2020-01-12T06:20:26Z</time>
      </trkpt>
      <trkpt lat="59.225007" lon="18.133065">
        <ele>31</ele>
        <time>2020-01-12T06:20:27Z</time>
      </trkpt>
      <trkpt lat="59.225036" lon="18.133007">
        <ele>31</ele>
        <time>2020-01-12T06:20:28Z</time>
      </trkpt>
      <trkpt lat="59.225064" lon="18.132954">
        <ele>31</ele>
        <time>2020-01-12T06:20:29Z</time>
      </trkpt>
      <trkpt lat="59.225091" lon="18.132898">
        <ele>32</ele>
        <time>2020-01-12T06:20:30Z</time>
      </trkpt>
      <trkpt lat="59.225119" lon="18.132841">
        <ele>32</ele>
        <time>2020-01-12T06:20:31Z</time>
      </trkpt>
      <trkpt lat="59.225148" lon="18.132788">
        <ele>32</ele>
        <time>2020-01-12T06:20:32Z</time>
      </trkpt>
      <trkpt lat="59.225177" lon="18.13274">
        <ele>32</ele>
        <time>2020-01-12T06:20:33Z</time>
      </trkpt>
      <trkpt lat="59.225207" lon="18.132692">
        <ele>32</ele>
        <time>2020-01-12T06:20:34Z</time>
      </trkpt>
      <trkpt lat="59.225237" lon="18.13264">
        <ele>32</ele>
        <time>2020-01-12T06:20:35Z</time>
      </trkpt>
      <trkpt lat="59.225267" lon="18.13259">
        <ele>32</ele>
        <time>2020-01-12T06:20:36Z</time>
      </trkpt>
      <trkpt lat="59.225299" lon="18.132544">
        <ele>32</ele>
        <time>2020-01-12T06:20:37Z</time>
      </trkpt>
      <trkpt lat="59.225334" lon="18.132502">
        <ele>32</ele>
        <time>2020-01-12T06:20:38Z</time>
      </trkpt>
      <trkpt lat="59.225367" lon="18.132456">
        <ele>32</ele>
        <time>2020-01-12T06:20:39Z</time>
      </trkpt>
      <trkpt lat="59.2254" lon="18.132414">
        <ele>32</ele>
        <time>2020-01-12T06:20:40Z</time>
      </trkpt>
      <trkpt lat="59.225433" lon="18.13237">
        <ele>32</ele>
        <time>2020-01-12T06:20:41Z</time>
      </trkpt>
      <trkpt lat="59.225463" lon="18.132318">
        <ele>32</ele>
        <time>2020-01-12T06:20:42Z</time>
      </trkpt>
      <trkpt lat="59.225491" lon="18.132264">
        <ele>33</ele>
        <time>2020-01-12T06:20:43Z</time>
      </trkpt>
      <trkpt lat="59.225519" lon="18.13221">
        <ele>33</ele>
        <time>2020-01-12T06:20:44Z</time>
      </trkpt>
      <trkpt lat="59.225551" lon="18.132158">
        <ele>33</ele>
        <time>2020-01-12T06:20:45Z</time>
      </trkpt>
      <trkpt lat="59.225586" lon="18.132108">
        <ele>33</ele>
        <time>2020-01-12T06:20:46Z</time>
      </trkpt>
      <trkpt lat="59.225624" lon="18.132058">
        <ele>33</ele>
        <time>2020-01-12T06:20:47Z</time>
      </trkpt>
      <trkpt lat="59.22566" lon="18.132003">
        <ele>33</ele>
        <time>2020-01-12T06:20:48Z</time>
      </trkpt>
      <trkpt lat="59.225689" lon="18.131942">
        <ele>33</ele>
        <time>2020-01-12T06:20:49Z</time>
      </trkpt>
      <trkpt lat="59.225711" lon="18.131864">
        <ele>33</ele>
        <time>2020-01-12T06:20:50Z</time>
      </trkpt>
      <trkpt lat="59.225727" lon="18.131778">
        <ele>33</ele>
        <time>2020-01-12T06:20:51Z</time>
      </trkpt>
      <trkpt lat="59.22574" lon="18.131686">
        <ele>33</ele>
        <time>2020-01-12T06:20:52Z</time>
      </trkpt>
      <trkpt lat="59.225755" lon="18.131602">
        <ele>33</ele>
        <time>2020-01-12T06:20:53Z</time>
      </trkpt>
      <trkpt lat="59.225778" lon="18.131528">
        <ele>34</ele>
        <time>2020-01-12T06:20:54Z</time>
      </trkpt>
      <trkpt lat="59.225807" lon="18.131462">
        <ele>34</ele>
        <time>2020-01-12T06:20:55Z</time>
      </trkpt>
      <trkpt lat="59.225841" lon="18.131404">
        <ele>34</ele>
        <time>2020-01-12T06:20:56Z</time>
      </trkpt>
      <trkpt lat="59.225875" lon="18.131352">
        <ele>34</ele>
        <time>2020-01-12T06:20:57Z</time>
      </trkpt>
      <trkpt lat="59.225908" lon="18.131303">
        <ele>34</ele>
        <time>2020-01-12T06:20:58Z</time>
      </trkpt>
      <trkpt lat="59.225942" lon="18.131254">
        <ele>34</ele>
        <time>2020-01-12T06:20:59Z</time>
      </trkpt>
      <trkpt lat="59.225975" lon="18.131206">
        <ele>34</ele>
        <time>2020-01-12T06:21:00Z</time>
      </trkpt>
      <trkpt lat="59.226008" lon="18.131158">
        <ele>34</ele>
        <time>2020-01-12T06:21:01Z</time>
      </trkpt>
      <trkpt lat="59.226042" lon="18.131108">
        <ele>35</ele>
        <time>2020-01-12T06:21:02Z</time>
      </trkpt>
      <trkpt lat="59.226075" lon="18.131061">
        <ele>35</ele>
        <time>2020-01-12T06:21:03Z</time>
      </trkpt>
      <trkpt lat="59.226109" lon="18.131015">
        <ele>35</ele>
        <time>2020-01-12T06:21:04Z</time>
      </trkpt>
      <trkpt lat="59.226142" lon="18.130967">
        <ele>35</ele>
        <time>2020-01-12T06:21:05Z</time>
      </trkpt>
      <trkpt lat="59.226176" lon="18.130919">
        <ele>35</ele>
        <time>2020-01-12T06:21:06Z</time>
      </trkpt>
      <trkpt lat="59.226209" lon="18.130868">
        <ele>35</ele>
        <time>2020-01-12T06:21:07Z</time>
      </trkpt>
      <trkpt lat="59.226242" lon="18.130818">
        <ele>35</ele>
        <time>2020-01-12T06:21:08Z</time>
      </trkpt>
      <trkpt lat="59.226274" lon="18.130765">
        <ele>35</ele>
        <time>2020-01-12T06:21:09Z</time>
      </trkpt>
      <trkpt lat="59.226307" lon="18.130716">
        <ele>35</ele>
        <time>2020-01-12T06:21:10Z</time>
      </trkpt>
      <trkpt lat="59.226344" lon="18.130671">
        <ele>35</ele>
        <time>2020-01-12T06:21:11Z</time>
      </trkpt>
      <trkpt lat="59.226379" lon="18.130623">
        <ele>35</ele>
        <time>2020-01-12T06:21:12Z</time>
      </trkpt>
      <trkpt lat="59.226412" lon="18.130572">
        <ele>36</ele>
        <time>2020-01-12T06:21:13Z</time>
      </trkpt>
      <trkpt lat="59.226446" lon="18.13052">
        <ele>36</ele>
        <time>2020-01-12T06:21:14Z</time>
      </trkpt>
      <trkpt lat="59.22648" lon="18.130467">
        <ele>36</ele>
        <time>2020-01-12T06:21:15Z</time>
      </trkpt>
      <trkpt lat="59.226512" lon="18.130414">
        <ele>36</ele>
        <time>2020-01-12T06:21:16Z</time>
      </trkpt>
      <trkpt lat="59.226543" lon="18.130358">
        <ele>36</ele>
        <time>2020-01-12T06:21:17Z</time>
      </trkpt>
      <trkpt lat="59.226572" lon="18.130295">
        <ele>36</ele>
        <time>2020-01-12T06:21:18Z</time>
      </trkpt>
      <trkpt lat="59.226599" lon="18.130225">
        <ele>36</ele>
        <time>2020-01-12T06:21:19Z</time>
      </trkpt>
      <trkpt lat="59.226626" lon="18.130154">
        <ele>36</ele>
        <time>2020-01-12T06:21:20Z</time>
      </trkpt>
      <trkpt lat="59.226651" lon="18.130081">
        <ele>36</ele>
        <time>2020-01-12T06:21:21Z</time>
      </trkpt>
      <trkpt lat="59.226677" lon="18.130007">
        <ele>36</ele>
        <time>2020-01-12T06:21:22Z</time>
      </trkpt>
      <trkpt lat="59.226702" lon="18.129931">
        <ele>37</ele>
        <time>2020-01-12T06:21:23Z</time>
      </trkpt>
      <trkpt lat="59.226729" lon="18.129859">
        <ele>37</ele>
        <time>2020-01-12T06:21:24Z</time>
      </trkpt>
      <trkpt lat="59.226756" lon="18.129785">
        <ele>37</ele>
        <time>2020-01-12T06:21:25Z</time>
      </trkpt>
      <trkpt lat="59.226782" lon="18.129709">
        <ele>37</ele>
        <time>2020-01-12T06:21:26Z</time>
      </trkpt>
      <trkpt lat="59.226808" lon="18.12963">
        <ele>37</ele>
        <time>2020-01-12T06:21:27Z</time>
      </trkpt>
      <trkpt lat="59.226835" lon="18.129553">
        <ele>37</ele>
        <time>2020-01-12T06:21:28Z</time>
      </trkpt>
      <trkpt lat="59.226861" lon="18.129475">
        <ele>37</ele>
        <time>2020-01-12T06:21:29Z</time>
      </trkpt>
      <trkpt lat="59.226887" lon="18.129398">
        <ele>37</ele>
        <time>2020-01-12T06:21:30Z</time>
      </trkpt>
      <trkpt lat="59.226914" lon="18.129322">
        <ele>37</ele>
        <time>2020-01-12T06:21:31Z</time>
      </trkpt>
      <trkpt lat="59.226941" lon="18.12925">
        <ele>37</ele>
        <time>2020-01-12T06:21:32Z</time>
      </trkpt>
      <trkpt lat="59.226966" lon="18.129182">
        <ele>37</ele>
        <time>2020-01-12T06:21:33Z</time>
      </trkpt>
      <trkpt lat="59.226989" lon="18.129113">
        <ele>37</ele>
        <time>2020-01-12T06:21:34Z</time>
      </trkpt>
      <trkpt lat="59.227011" lon="18.129041">
        <ele>37</ele>
        <time>2020-01-12T06:21:35Z</time>
      </trkpt>
      <trkpt lat="59.227034" lon="18.128964">
        <ele>38</ele>
        <time>2020-01-12T06:21:36Z</time>
      </trkpt>
      <trkpt lat="59.227059" lon="18.128886">
        <ele>38</ele>
        <time>2020-01-12T06:21:37Z</time>
      </trkpt>
      <trkpt lat="59.227083" lon="18.128809">
        <ele>38</ele>
        <time>2020-01-12T06:21:38Z</time>
      </trkpt>
      <trkpt lat="59.227108" lon="18.12873">
        <ele>38</ele>
        <time>2020-01-12T06:21:39Z</time>
      </trkpt>
      <trkpt lat="59.227134" lon="18.128654">
        <ele>38</ele>
        <time>2020-01-12T06:21:40Z</time>
      </trkpt>
      <trkpt lat="59.227158" lon="18.128575">
        <ele>38</ele>
        <time>2020-01-12T06:21:41Z</time>
      </trkpt>
      <trkpt lat="59.227186" lon="18.128494">
        <ele>39</ele>
        <time>2020-01-12T06:21:42Z</time>
      </trkpt>
      <trkpt lat="59.227215" lon="18.128415">
        <ele>39</ele>
        <time>2020-01-12T06:21:43Z</time>
      </trkpt>
      <trkpt lat="59.227244" lon="18.128335">
        <ele>39</ele>
        <time>2020-01-12T06:21:44Z</time>
      </trkpt>
      <trkpt lat="59.227272" lon="18.128255">
        <ele>39</ele>
        <time>2020-01-12T06:21:45Z</time>
      </trkpt>
      <trkpt lat="59.227301" lon="18.128176">
        <ele>39</ele>
        <time>2020-01-12T06:21:46Z</time>
      </trkpt>
      <trkpt lat="59.22733" lon="18.128098">
        <ele>39</ele>
        <time>2020-01-12T06:21:47Z</time>
      </trkpt>
      <trkpt lat="59.22736" lon="18.12802">
        <ele>39</ele>
        <time>2020-01-12T06:21:48Z</time>
      </trkpt>
      <trkpt lat="59.227392" lon="18.127939">
        <ele>39</ele>
        <time>2020-01-12T06:21:49Z</time>
      </trkpt>
      <trkpt lat="59.227425" lon="18.127856">
        <ele>39</ele>
        <time>2020-01-12T06:21:50Z</time>
      </trkpt>
      <trkpt lat="59.227457" lon="18.127777">
        <ele>39</ele>
        <time>2020-01-12T06:21:51Z</time>
      </trkpt>
      <trkpt lat="59.227487" lon="18.127699">
        <ele>39</ele>
        <time>2020-01-12T06:21:52Z</time>
      </trkpt>
      <trkpt lat="59.227516" lon="18.127622">
        <ele>39</ele>
        <time>2020-01-12T06:21:53Z</time>
      </trkpt>
      <trkpt lat="59.227544" lon="18.127545">
        <ele>39</ele>
        <time>2020-01-12T06:21:54Z</time>
      </trkpt>
      <trkpt lat="59.227571" lon="18.127469">
        <ele>39</ele>
        <time>2020-01-12T06:21:55Z</time>
      </trkpt>
      <trkpt lat="59.227597" lon="18.127393">
        <ele>39</ele>
        <time>2020-01-12T06:21:56Z</time>
      </trkpt>
      <trkpt lat="59.227623" lon="18.12732">
        <ele>39</ele>
        <time>2020-01-12T06:21:57Z</time>
      </trkpt>
      <trkpt lat="59.227648" lon="18.127249">
        <ele>39</ele>
        <time>2020-01-12T06:21:58Z</time>
      </trkpt>
      <trkpt lat="59.227672" lon="18.127176">
        <ele>39</ele>
        <time>2020-01-12T06:21:59Z</time>
      </trkpt>
      <trkpt lat="59.227693" lon="18.127102">
        <ele>39</ele>
        <time>2020-01-12T06:22:00Z</time>
      </trkpt>
      <trkpt lat="59.227712" lon="18.127026">
        <ele>39</ele>
        <time>2020-01-12T06:22:01Z</time>
      </trkpt>
      <trkpt lat="59.227727" lon="18.126946">
        <ele>39</ele>
        <time>2020-01-12T06:22:02Z</time>
      </trkpt>
      <trkpt lat="59.22774" lon="18.126863">
        <ele>39</ele>
        <time>2020-01-12T06:22:03Z</time>
      </trkpt>
      <trkpt lat="59.227752" lon="18.126778">
        <ele>40</ele>
        <time>2020-01-12T06:22:04Z</time>
      </trkpt>
      <trkpt lat="59.227763" lon="18.126695">
        <ele>40</ele>
        <time>2020-01-12T06:22:05Z</time>
      </trkpt>
      <trkpt lat="59.227781" lon="18.126617">
        <ele>40</ele>
        <time>2020-01-12T06:22:06Z</time>
      </trkpt>
      <trkpt lat="59.227808" lon="18.126553">
        <ele>40</ele>
        <time>2020-01-12T06:22:07Z</time>
      </trkpt>
      <trkpt lat="59.227846" lon="18.126511">
        <ele>40</ele>
        <time>2020-01-12T06:22:08Z</time>
      </trkpt>
      <trkpt lat="59.227891" lon="18.126492">
        <ele>39</ele>
        <time>2020-01-12T06:22:09Z</time>
      </trkpt>
      <trkpt lat="59.227939" lon="18.12648">
        <ele>39</ele>
        <time>2020-01-12T06:22:10Z</time>
      </trkpt>
      <trkpt lat="59.227988" lon="18.126468">
        <ele>39</ele>
        <time>2020-01-12T06:22:11Z</time>
      </trkpt>
      <trkpt lat="59.228039" lon="18.126459">
        <ele>39</ele>
        <time>2020-01-12T06:22:12Z</time>
      </trkpt>
      <trkpt lat="59.228092" lon="18.12645">
        <ele>39</ele>
        <time>2020-01-12T06:22:13Z</time>
      </trkpt>
      <trkpt lat="59.228147" lon="18.126441">
        <ele>39</ele>
        <time>2020-01-12T06:22:14Z</time>
      </trkpt>
      <trkpt lat="59.228206" lon="18.12643">
        <ele>39</ele>
        <time>2020-01-12T06:22:15Z</time>
      </trkpt>
      <trkpt lat="59.228267" lon="18.12642">
        <ele>38</ele>
        <time>2020-01-12T06:22:16Z</time>
      </trkpt>
      <trkpt lat="59.228332" lon="18.126412">
        <ele>38</ele>
        <time>2020-01-12T06:22:17Z</time>
      </trkpt>
      <trkpt lat="59.2284" lon="18.12641">
        <ele>38</ele>
        <time>2020-01-12T06:22:18Z</time>
      </trkpt>
      <trkpt lat="59.228469" lon="18.126415">
        <ele>38</ele>
        <time>2020-01-12T06:22:19Z</time>
      </trkpt>
      <trkpt lat="59.228537" lon="18.12641">
        <ele>37</ele>
        <time>2020-01-12T06:22:20Z</time>
      </trkpt>
      <trkpt lat="59.228602" lon="18.126373">
        <ele>37</ele>
        <time>2020-01-12T06:22:21Z</time>
      </trkpt>
      <trkpt lat="59.228659" lon="18.126301">
        <ele>37</ele>
        <time>2020-01-12T06:22:22Z</time>
      </trkpt>
      <trkpt lat="59.228709" lon="18.126207">
        <ele>37</ele>
        <time>2020-01-12T06:22:23Z</time>
      </trkpt>
      <trkpt lat="59.228757" lon="18.126105">
        <ele>37</ele>
        <time>2020-01-12T06:22:24Z</time>
      </trkpt>
      <trkpt lat="59.228805" lon="18.126008">
        <ele>37</ele>
        <time>2020-01-12T06:22:25Z</time>
      </trkpt>
      <trkpt lat="59.228852" lon="18.125905">
        <ele>37</ele>
        <time>2020-01-12T06:22:26Z</time>
      </trkpt>
      <trkpt lat="59.228902" lon="18.125788">
        <ele>37</ele>
        <time>2020-01-12T06:22:27Z</time>
      </trkpt>
      <trkpt lat="59.228954" lon="18.125671">
        <ele>37</ele>
        <time>2020-01-12T06:22:28Z</time>
      </trkpt>
      <trkpt lat="59.229008" lon="18.125553">
        <ele>37</ele>
        <time>2020-01-12T06:22:29Z</time>
      </trkpt>
      <trkpt lat="59.229061" lon="18.12544">
        <ele>37</ele>
        <time>2020-01-12T06:22:30Z</time>
      </trkpt>
      <trkpt lat="59.229112" lon="18.125333">
        <ele>37</ele>
        <time>2020-01-12T06:22:31Z</time>
      </trkpt>
      <trkpt lat="59.229157" lon="18.125227">
        <ele>37</ele>
        <time>2020-01-12T06:22:32Z</time>
      </trkpt>
      <trkpt lat="59.229192" lon="18.125116">
        <ele>37</ele>
        <time>2020-01-12T06:22:33Z</time>
      </trkpt>
      <trkpt lat="59.229223" lon="18.124989">
        <ele>37</ele>
        <time>2020-01-12T06:22:34Z</time>
      </trkpt>
      <trkpt lat="59.229254" lon="18.12487">
        <ele>37</ele>
        <time>2020-01-12T06:22:35Z</time>
      </trkpt>
      <trkpt lat="59.229277" lon="18.124762">
        <ele>37</ele>
        <time>2020-01-12T06:22:36Z</time>
      </trkpt>
      <trkpt lat="59.229283" lon="18.124644">
        <ele>37</ele>
        <time>2020-01-12T06:22:37Z</time>
      </trkpt>
      <trkpt lat="59.229286" lon="18.12451">
        <ele>37</ele>
        <time>2020-01-12T06:22:38Z</time>
      </trkpt>
      <trkpt lat="59.229294" lon="18.124382">
        <ele>36</ele>
        <time>2020-01-12T06:22:39Z</time>
      </trkpt>
      <trkpt lat="59.22932" lon="18.12426">
        <ele>37</ele>
        <time>2020-01-12T06:22:40Z</time>
      </trkpt>
      <trkpt lat="59.229359" lon="18.124161">
        <ele>36</ele>
        <time>2020-01-12T06:22:41Z</time>
      </trkpt>
      <trkpt lat="59.229406" lon="18.12408">
        <ele>36</ele>
        <time>2020-01-12T06:22:42Z</time>
      </trkpt>
      <trkpt lat="59.229458" lon="18.124018">
        <ele>36</ele>
        <time>2020-01-12T06:22:43Z</time>
      </trkpt>
      <trkpt lat="59.22951" lon="18.123965">
        <ele>36</ele>
        <time>2020-01-12T06:22:44Z</time>
      </trkpt>
      <trkpt lat="59.229563" lon="18.123909">
        <ele>36</ele>
        <time>2020-01-12T06:22:45Z</time>
      </trkpt>
      <trkpt lat="59.229615" lon="18.123855">
        <ele>36</ele>
        <time>2020-01-12T06:22:46Z</time>
      </trkpt>
      <trkpt lat="59.229669" lon="18.123805">
        <ele>36</ele>
        <time>2020-01-12T06:22:47Z</time>
      </trkpt>
      <trkpt lat="59.229721" lon="18.123755">
        <ele>36</ele>
        <time>2020-01-12T06:22:48Z</time>
      </trkpt>
      <trkpt lat="59.229772" lon="18.123706">
        <ele>36</ele>
        <time>2020-01-12T06:22:49Z</time>
      </trkpt>
      <trkpt lat="59.229823" lon="18.123655">
        <ele>36</ele>
        <time>2020-01-12T06:22:50Z</time>
      </trkpt>
      <trkpt lat="59.229876" lon="18.123605">
        <ele>36</ele>
        <time>2020-01-12T06:22:51Z</time>
      </trkpt>
      <trkpt lat="59.229929" lon="18.123556">
        <ele>35</ele>
        <time>2020-01-12T06:22:52Z</time>
      </trkpt>
      <trkpt lat="59.229979" lon="18.123497">
        <ele>35</ele>
        <time>2020-01-12T06:22:53Z</time>
      </trkpt>
      <trkpt lat="59.230018" lon="18.123418">
        <ele>35</ele>
        <time>2020-01-12T06:22:54Z</time>
      </trkpt>
      <trkpt lat="59.230042" lon="18.123319">
        <ele>35</ele>
        <time>2020-01-12T06:22:55Z</time>
      </trkpt>
      <trkpt lat="59.230054" lon="18.123206">
        <ele>35</ele>
        <time>2020-01-12T06:22:56Z</time>
      </trkpt>
      <trkpt lat="59.230055" lon="18.12308">
        <ele>34</ele>
        <time>2020-01-12T06:22:57Z</time>
      </trkpt>
      <trkpt lat="59.230047" lon="18.122952">
        <ele>34</ele>
        <time>2020-01-12T06:22:58Z</time>
      </trkpt>
      <trkpt lat="59.230025" lon="18.122827">
        <ele>34</ele>
        <time>2020-01-12T06:22:59Z</time>
      </trkpt>
      <trkpt lat="59.229993" lon="18.122705">
        <ele>33</ele>
        <time>2020-01-12T06:23:00Z</time>
      </trkpt>
      <trkpt lat="59.229957" lon="18.12258">
        <ele>33</ele>
        <time>2020-01-12T06:23:01Z</time>
      </trkpt>
      <trkpt lat="59.229922" lon="18.122453">
        <ele>33</ele>
        <time>2020-01-12T06:23:02Z</time>
      </trkpt>
      <trkpt lat="59.229884" lon="18.12233">
        <ele>33</ele>
        <time>2020-01-12T06:23:03Z</time>
      </trkpt>
      <trkpt lat="59.229845" lon="18.122208">
        <ele>33</ele>
        <time>2020-01-12T06:23:04Z</time>
      </trkpt>
      <trkpt lat="59.229809" lon="18.122085">
        <ele>32</ele>
        <time>2020-01-12T06:23:05Z</time>
      </trkpt>
      <trkpt lat="59.229781" lon="18.121963">
        <ele>32</ele>
        <time>2020-01-12T06:23:06Z</time>
      </trkpt>
      <trkpt lat="59.229768" lon="18.121839">
        <ele>32</ele>
        <time>2020-01-12T06:23:07Z</time>
      </trkpt>
      <trkpt lat="59.229777" lon="18.12172">
        <ele>33</ele>
        <time>2020-01-12T06:23:08Z</time>
      </trkpt>
      <trkpt lat="59.229805" lon="18.121619">
        <ele>33</ele>
        <time>2020-01-12T06:23:09Z</time>
      </trkpt>
      <trkpt lat="59.229844" lon="18.121544">
        <ele>33</ele>
        <time>2020-01-12T06:23:10Z</time>
      </trkpt>
      <trkpt lat="59.229889" lon="18.121493">
        <ele>33</ele>
        <time>2020-01-12T06:23:11Z</time>
      </trkpt>
      <trkpt lat="59.229936" lon="18.121453">
        <ele>33</ele>
        <time>2020-01-12T06:23:12Z</time>
      </trkpt>
      <trkpt lat="59.229982" lon="18.121413">
        <ele>33</ele>
        <time>2020-01-12T06:23:13Z</time>
      </trkpt>
      <trkpt lat="59.230025" lon="18.121373">
        <ele>33</ele>
        <time>2020-01-12T06:23:14Z</time>
      </trkpt>
      <trkpt lat="59.230066" lon="18.121331">
        <ele>34</ele>
        <time>2020-01-12T06:23:15Z</time>
      </trkpt>
      <trkpt lat="59.230104" lon="18.12129">
        <ele>34</ele>
        <time>2020-01-12T06:23:16Z</time>
      </trkpt>
      <trkpt lat="59.230148" lon="18.121251">
        <ele>34</ele>
        <time>2020-01-12T06:23:17Z</time>
      </trkpt>
      <trkpt lat="59.230195" lon="18.121216">
        <ele>34</ele>
        <time>2020-01-12T06:23:18Z</time>
      </trkpt>
      <trkpt lat="59.230245" lon="18.121185">
        <ele>34</ele>
        <time>2020-01-12T06:23:19Z</time>
      </trkpt>
      <trkpt lat="59.230295" lon="18.12116">
        <ele>34</ele>
        <time>2020-01-12T06:23:20Z</time>
      </trkpt>
      <trkpt lat="59.230345" lon="18.121144">
        <ele>34</ele>
        <time>2020-01-12T06:23:21Z</time>
      </trkpt>
      <trkpt lat="59.230392" lon="18.121137">
        <ele>34</ele>
        <time>2020-01-12T06:23:22Z</time>
      </trkpt>
      <trkpt lat="59.230439" lon="18.121136">
        <ele>34</ele>
        <time>2020-01-12T06:23:23Z</time>
      </trkpt>
      <trkpt lat="59.230487" lon="18.121136">
        <ele>34</ele>
        <time>2020-01-12T06:23:24Z</time>
      </trkpt>
      <trkpt lat="59.230532" lon="18.121132">
        <ele>34</ele>
        <time>2020-01-12T06:23:25Z</time>
      </trkpt>
      <trkpt lat="59.230577" lon="18.121128">
        <ele>34</ele>
        <time>2020-01-12T06:23:26Z</time>
      </trkpt>
      <trkpt lat="59.230624" lon="18.121122">
        <ele>34</ele>
        <time>2020-01-12T06:23:27Z</time>
      </trkpt>
      <trkpt lat="59.230667" lon="18.12111">
        <ele>34</ele>
        <time>2020-01-12T06:23:28Z</time>
      </trkpt>
      <trkpt lat="59.230713" lon="18.121088">
        <ele>0</ele>
        <time>2020-01-12T06:23:28Z</time>
      </trkpt>
      <trkpt lat="59.230762" lon="18.121057">
        <ele>35</ele>
        <time>2020-01-12T06:23:29Z</time>
      </trkpt>
      <trkpt lat="59.230809" lon="18.121026">
        <ele>35</ele>
        <time>2020-01-12T06:23:31Z</time>
      </trkpt>
      <trkpt lat="59.230855" lon="18.120997">
        <ele>35</ele>
        <time>2020-01-12T06:23:32Z</time>
      </trkpt>
      <trkpt lat="59.230898" lon="18.120971">
        <ele>35</ele>
        <time>2020-01-12T06:23:33Z</time>
      </trkpt>
      <trkpt lat="59.230941" lon="18.120943">
        <ele>36</ele>
        <time>2020-01-12T06:23:34Z</time>
      </trkpt>
      <trkpt lat="59.230985" lon="18.120915">
        <ele>36</ele>
        <time>2020-01-12T06:23:35Z</time>
      </trkpt>
      <trkpt lat="59.23103" lon="18.120888">
        <ele>36</ele>
        <time>2020-01-12T06:23:36Z</time>
      </trkpt>
      <trkpt lat="59.231072" lon="18.120857">
        <ele>36</ele>
        <time>2020-01-12T06:23:37Z</time>
      </trkpt>
      <trkpt lat="59.231114" lon="18.120829">
        <ele>36</ele>
        <time>2020-01-12T06:23:38Z</time>
      </trkpt>
      <trkpt lat="59.231155" lon="18.1208">
        <ele>37</ele>
        <time>2020-01-12T06:23:39Z</time>
      </trkpt>
      <trkpt lat="59.231198" lon="18.120767">
        <ele>37</ele>
        <time>2020-01-12T06:23:40Z</time>
      </trkpt>
      <trkpt lat="59.231242" lon="18.120737">
        <ele>37</ele>
        <time>2020-01-12T06:23:41Z</time>
      </trkpt>
      <trkpt lat="59.231288" lon="18.120709">
        <ele>37</ele>
        <time>2020-01-12T06:23:42Z</time>
      </trkpt>
      <trkpt lat="59.231333" lon="18.120678">
        <ele>37</ele>
        <time>2020-01-12T06:23:43Z</time>
      </trkpt>
      <trkpt lat="59.231376" lon="18.120646">
        <ele>37</ele>
        <time>2020-01-12T06:23:44Z</time>
      </trkpt>
      <trkpt lat="59.231422" lon="18.120613">
        <ele>37</ele>
        <time>2020-01-12T06:23:45Z</time>
      </trkpt>
      <trkpt lat="59.231469" lon="18.120578">
        <ele>37</ele>
        <time>2020-01-12T06:23:46Z</time>
      </trkpt>
      <trkpt lat="59.231516" lon="18.12054">
        <ele>38</ele>
        <time>2020-01-12T06:23:47Z</time>
      </trkpt>
      <trkpt lat="59.231564" lon="18.120507">
        <ele>38</ele>
        <time>2020-01-12T06:23:48Z</time>
      </trkpt>
      <trkpt lat="59.231614" lon="18.120471">
        <ele>38</ele>
        <time>2020-01-12T06:23:49Z</time>
      </trkpt>
      <trkpt lat="59.231664" lon="18.12044">
        <ele>38</ele>
        <time>2020-01-12T06:23:50Z</time>
      </trkpt>
      <trkpt lat="59.231712" lon="18.12041">
        <ele>38</ele>
        <time>2020-01-12T06:23:51Z</time>
      </trkpt>
      <trkpt lat="59.231765" lon="18.120381">
        <ele>38</ele>
        <time>2020-01-12T06:23:52Z</time>
      </trkpt>
      <trkpt lat="59.231825" lon="18.120356">
        <ele>38</ele>
        <time>2020-01-12T06:23:53Z</time>
      </trkpt>
      <trkpt lat="59.231886" lon="18.12033">
        <ele>38</ele>
        <time>2020-01-12T06:23:54Z</time>
      </trkpt>
      <trkpt lat="59.23195" lon="18.12031">
        <ele>38</ele>
        <time>2020-01-12T06:23:55Z</time>
      </trkpt>
      <trkpt lat="59.232018" lon="18.120295">
        <ele>38</ele>
        <time>2020-01-12T06:23:56Z</time>
      </trkpt>
      <trkpt lat="59.232087" lon="18.120288">
        <ele>38</ele>
        <time>2020-01-12T06:23:57Z</time>
      </trkpt>
      <trkpt lat="59.232156" lon="18.120286">
        <ele>38</ele>
        <time>2020-01-12T06:23:58Z</time>
      </trkpt>
      <trkpt lat="59.232222" lon="18.120293">
        <ele>38</ele>
        <time>2020-01-12T06:23:59Z</time>
      </trkpt>
      <trkpt lat="59.232283" lon="18.120306">
        <ele>38</ele>
        <time>2020-01-12T06:24:00Z</time>
      </trkpt>
      <trkpt lat="59.232341" lon="18.120339">
        <ele>38</ele>
        <time>2020-01-12T06:24:01Z</time>
      </trkpt>
      <trkpt lat="59.23239" lon="18.120394">
        <ele>38</ele>
        <time>2020-01-12T06:24:02Z</time>
      </trkpt>
      <trkpt lat="59.232425" lon="18.120458">
        <ele>38</ele>
        <time>2020-01-12T06:24:03Z</time>
      </trkpt>
      <trkpt lat="59.232444" lon="18.120514">
        <ele>38</ele>
        <time>2020-01-12T06:24:04Z</time>
      </trkpt>
      <trkpt lat="59.232453" lon="18.120555">
        <ele>38</ele>
        <time>2020-01-12T06:24:05Z</time>
      </trkpt>
      <trkpt lat="59.232464" lon="18.120614">
        <ele>38</ele>
        <time>2020-01-12T06:24:07Z</time>
      </trkpt>
      <trkpt lat="59.232485" lon="18.120679">
        <ele>38</ele>
        <time>2020-01-12T06:24:09Z</time>
      </trkpt>
      <trkpt lat="59.232501" lon="18.120721">
        <ele>38</ele>
        <time>2020-01-12T06:24:10Z</time>
      </trkpt>
      <trkpt lat="59.232516" lon="18.12077">
        <ele>38</ele>
        <time>2020-01-12T06:24:11Z</time>
      </trkpt>
      <trkpt lat="59.232532" lon="18.120823">
        <ele>37</ele>
        <time>2020-01-12T06:24:12Z</time>
      </trkpt>
      <trkpt lat="59.232551" lon="18.120876">
        <ele>37</ele>
        <time>2020-01-12T06:24:13Z</time>
      </trkpt>
      <trkpt lat="59.232571" lon="18.120934">
        <ele>37</ele>
        <time>2020-01-12T06:24:14Z</time>
      </trkpt>
      <trkpt lat="59.232594" lon="18.120991">
        <ele>37</ele>
        <time>2020-01-12T06:24:15Z</time>
      </trkpt>
      <trkpt lat="59.232626" lon="18.121035">
        <ele>37</ele>
        <time>2020-01-12T06:24:16Z</time>
      </trkpt>
      <trkpt lat="59.232664" lon="18.121067">
        <ele>37</ele>
        <time>2020-01-12T06:24:17Z</time>
      </trkpt>
      <trkpt lat="59.232703" lon="18.1211">
        <ele>38</ele>
        <time>2020-01-12T06:24:18Z</time>
      </trkpt>
      <trkpt lat="59.232742" lon="18.121144">
        <ele>38</ele>
        <time>2020-01-12T06:24:19Z</time>
      </trkpt>
      <trkpt lat="59.23278" lon="18.121198">
        <ele>37</ele>
        <time>2020-01-12T06:24:20Z</time>
      </trkpt>
      <trkpt lat="59.232818" lon="18.121253">
        <ele>37</ele>
        <time>2020-01-12T06:24:21Z</time>
      </trkpt>
      <trkpt lat="59.232859" lon="18.121306">
        <ele>37</ele>
        <time>2020-01-12T06:24:22Z</time>
      </trkpt>
      <trkpt lat="59.232905" lon="18.121349">
        <ele>37</ele>
        <time>2020-01-12T06:24:23Z</time>
      </trkpt>
      <trkpt lat="59.232955" lon="18.121377">
        <ele>37</ele>
        <time>2020-01-12T06:24:24Z</time>
      </trkpt>
      <trkpt lat="59.233007" lon="18.121389">
        <ele>37</ele>
        <time>2020-01-12T06:24:25Z</time>
      </trkpt>
      <trkpt lat="59.233064" lon="18.121386">
        <ele>38</ele>
        <time>2020-01-12T06:24:26Z</time>
      </trkpt>
      <trkpt lat="59.233123" lon="18.121366">
        <ele>38</ele>
        <time>2020-01-12T06:24:27Z</time>
      </trkpt>
      <trkpt lat="59.233184" lon="18.12133">
        <ele>38</ele>
        <time>2020-01-12T06:24:28Z</time>
      </trkpt>
      <trkpt lat="59.233247" lon="18.121279">
        <ele>38</ele>
        <time>2020-01-12T06:24:29Z</time>
      </trkpt>
      <trkpt lat="59.233313" lon="18.121222">
        <ele>38</ele>
        <time>2020-01-12T06:24:30Z</time>
      </trkpt>
      <trkpt lat="59.233383" lon="18.121171">
        <ele>38</ele>
        <time>2020-01-12T06:24:31Z</time>
      </trkpt>
      <trkpt lat="59.233454" lon="18.121122">
        <ele>38</ele>
        <time>2020-01-12T06:24:32Z</time>
      </trkpt>
      <trkpt lat="59.233529" lon="18.121069">
        <ele>38</ele>
        <time>2020-01-12T06:24:33Z</time>
      </trkpt>
      <trkpt lat="59.233607" lon="18.121011">
        <ele>38</ele>
        <time>2020-01-12T06:24:34Z</time>
      </trkpt>
      <trkpt lat="59.233688" lon="18.120951">
        <ele>39</ele>
        <time>2020-01-12T06:24:35Z</time>
      </trkpt>
      <trkpt lat="59.23377" lon="18.120888">
        <ele>39</ele>
        <time>2020-01-12T06:24:36Z</time>
      </trkpt>
      <trkpt lat="59.233854" lon="18.120825">
        <ele>39</ele>
        <time>2020-01-12T06:24:37Z</time>
      </trkpt>
      <trkpt lat="59.233942" lon="18.120765">
        <ele>39</ele>
        <time>2020-01-12T06:24:38Z</time>
      </trkpt>
      <trkpt lat="59.234036" lon="18.120708">
        <ele>38</ele>
        <time>2020-01-12T06:24:39Z</time>
      </trkpt>
      <trkpt lat="59.23413" lon="18.120645">
        <ele>37</ele>
        <time>2020-01-12T06:24:40Z</time>
      </trkpt>
      <trkpt lat="59.234229" lon="18.120573">
        <ele>36</ele>
        <time>2020-01-12T06:24:41Z</time>
      </trkpt>
      <trkpt lat="59.234331" lon="18.120509">
        <ele>35</ele>
        <time>2020-01-12T06:24:42Z</time>
      </trkpt>
      <trkpt lat="59.234433" lon="18.120449">
        <ele>34</ele>
        <time>2020-01-12T06:24:43Z</time>
      </trkpt>
      <trkpt lat="59.234534" lon="18.120389">
        <ele>33</ele>
        <time>2020-01-12T06:24:44Z</time>
      </trkpt>
      <trkpt lat="59.234633" lon="18.120322">
        <ele>32</ele>
        <time>2020-01-12T06:24:45Z</time>
      </trkpt>
      <trkpt lat="59.234733" lon="18.120256">
        <ele>32</ele>
        <time>2020-01-12T06:24:46Z</time>
      </trkpt>
      <trkpt lat="59.234832" lon="18.120195">
        <ele>31</ele>
        <time>2020-01-12T06:24:47Z</time>
      </trkpt>
      <trkpt lat="59.234931" lon="18.120137">
        <ele>31</ele>
        <time>2020-01-12T06:24:48Z</time>
      </trkpt>
      <trkpt lat="59.235029" lon="18.120091">
        <ele>30</ele>
        <time>2020-01-12T06:24:49Z</time>
      </trkpt>
      <trkpt lat="59.235128" lon="18.120064">
        <ele>30</ele>
        <time>2020-01-12T06:24:50Z</time>
      </trkpt>
      <trkpt lat="59.235224" lon="18.120041">
        <ele>30</ele>
        <time>2020-01-12T06:24:51Z</time>
      </trkpt>
      <trkpt lat="59.235316" lon="18.120007">
        <ele>30</ele>
        <time>2020-01-12T06:24:52Z</time>
      </trkpt>
      <trkpt lat="59.235406" lon="18.119964">
        <ele>29</ele>
        <time>2020-01-12T06:24:53Z</time>
      </trkpt>
      <trkpt lat="59.235493" lon="18.119917">
        <ele>29</ele>
        <time>2020-01-12T06:24:54Z</time>
      </trkpt>
      <trkpt lat="59.235576" lon="18.119867">
        <ele>29</ele>
        <time>2020-01-12T06:24:55Z</time>
      </trkpt>
      <trkpt lat="59.235657" lon="18.119816">
        <ele>29</ele>
        <time>2020-01-12T06:24:56Z</time>
      </trkpt>
      <trkpt lat="59.235737" lon="18.119768">
        <ele>29</ele>
        <time>2020-01-12T06:24:57Z</time>
      </trkpt>
      <trkpt lat="59.235815" lon="18.119723">
        <ele>29</ele>
        <time>2020-01-12T06:24:58Z</time>
      </trkpt>
      <trkpt lat="59.235894" lon="18.119687">
        <ele>29</ele>
        <time>2020-01-12T06:24:59Z</time>
      </trkpt>
      <trkpt lat="59.235972" lon="18.119661">
        <ele>28</ele>
        <time>2020-01-12T06:25:00Z</time>
      </trkpt>
      <trkpt lat="59.23605" lon="18.119639">
        <ele>28</ele>
        <time>2020-01-12T06:25:01Z</time>
      </trkpt>
      <trkpt lat="59.236126" lon="18.119618">
        <ele>28</ele>
        <time>2020-01-12T06:25:02Z</time>
      </trkpt>
      <trkpt lat="59.236201" lon="18.119597">
        <ele>28</ele>
        <time>2020-01-12T06:25:03Z</time>
      </trkpt>
      <trkpt lat="59.236278" lon="18.119581">
        <ele>0</ele>
        <time>2020-01-12T06:25:03Z</time>
      </trkpt>
      <trkpt lat="59.236354" lon="18.119571">
        <ele>28</ele>
        <time>2020-01-12T06:25:04Z</time>
      </trkpt>
      <trkpt lat="59.23643" lon="18.119563">
        <ele>27</ele>
        <time>2020-01-12T06:25:06Z</time>
      </trkpt>
      <trkpt lat="59.236504" lon="18.119556">
        <ele>27</ele>
        <time>2020-01-12T06:25:07Z</time>
      </trkpt>
      <trkpt lat="59.236579" lon="18.119551">
        <ele>27</ele>
        <time>2020-01-12T06:25:08Z</time>
      </trkpt>
      <trkpt lat="59.236653" lon="18.119547">
        <ele>27</ele>
        <time>2020-01-12T06:25:09Z</time>
      </trkpt>
      <trkpt lat="59.236729" lon="18.119544">
        <ele>27</ele>
        <time>2020-01-12T06:25:10Z</time>
      </trkpt>
      <trkpt lat="59.236804" lon="18.119545">
        <ele>27</ele>
        <time>2020-01-12T06:25:11Z</time>
      </trkpt>
      <trkpt lat="59.236879" lon="18.119551">
        <ele>26</ele>
        <time>2020-01-12T06:25:12Z</time>
      </trkpt>
      <trkpt lat="59.236953" lon="18.119558">
        <ele>26</ele>
        <time>2020-01-12T06:25:13Z</time>
      </trkpt>
      <trkpt lat="59.237026" lon="18.119565">
        <ele>26</ele>
        <time>2020-01-12T06:25:14Z</time>
      </trkpt>
      <trkpt lat="59.237098" lon="18.119575">
        <ele>26</ele>
        <time>2020-01-12T06:25:15Z</time>
      </trkpt>
      <trkpt lat="59.237168" lon="18.119586">
        <ele>26</ele>
        <time>2020-01-12T06:25:16Z</time>
      </trkpt>
      <trkpt lat="59.237239" lon="18.119597">
        <ele>26</ele>
        <time>2020-01-12T06:25:17Z</time>
      </trkpt>
      <trkpt lat="59.237308" lon="18.119608">
        <ele>26</ele>
        <time>2020-01-12T06:25:18Z</time>
      </trkpt>
      <trkpt lat="59.237378" lon="18.119617">
        <ele>26</ele>
        <time>2020-01-12T06:25:19Z</time>
      </trkpt>
      <trkpt lat="59.237447" lon="18.119627">
        <ele>26</ele>
        <time>2020-01-12T06:25:20Z</time>
      </trkpt>
      <trkpt lat="59.237518" lon="18.119637">
        <ele>26</ele>
        <time>2020-01-12T06:25:21Z</time>
      </trkpt>
      <trkpt lat="59.237587" lon="18.119649">
        <ele>26</ele>
        <time>2020-01-12T06:25:22Z</time>
      </trkpt>
      <trkpt lat="59.237658" lon="18.119661">
        <ele>26</ele>
        <time>2020-01-12T06:25:23Z</time>
      </trkpt>
      <trkpt lat="59.237728" lon="18.119672">
        <ele>26</ele>
        <time>2020-01-12T06:25:24Z</time>
      </trkpt>
      <trkpt lat="59.237798" lon="18.119685">
        <ele>26</ele>
        <time>2020-01-12T06:25:25Z</time>
      </trkpt>
      <trkpt lat="59.23787" lon="18.119699">
        <ele>26</ele>
        <time>2020-01-12T06:25:26Z</time>
      </trkpt>
      <trkpt lat="59.237944" lon="18.119707">
        <ele>26</ele>
        <time>2020-01-12T06:25:27Z</time>
      </trkpt>
      <trkpt lat="59.238016" lon="18.119716">
        <ele>26</ele>
        <time>2020-01-12T06:25:28Z</time>
      </trkpt>
      <trkpt lat="59.23809" lon="18.119728">
        <ele>26</ele>
        <time>2020-01-12T06:25:29Z</time>
      </trkpt>
      <trkpt lat="59.238166" lon="18.119739">
        <ele>25</ele>
        <time>2020-01-12T06:25:30Z</time>
      </trkpt>
      <trkpt lat="59.238242" lon="18.119749">
        <ele>25</ele>
        <time>2020-01-12T06:25:31Z</time>
      </trkpt>
      <trkpt lat="59.238319" lon="18.119758">
        <ele>25</ele>
        <time>2020-01-12T06:25:32Z</time>
      </trkpt>
      <trkpt lat="59.238398" lon="18.119771">
        <ele>25</ele>
        <time>2020-01-12T06:25:33Z</time>
      </trkpt>
      <trkpt lat="59.238479" lon="18.11978">
        <ele>25</ele>
        <time>2020-01-12T06:25:34Z</time>
      </trkpt>
      <trkpt lat="59.238558" lon="18.11979">
        <ele>25</ele>
        <time>2020-01-12T06:25:35Z</time>
      </trkpt>
      <trkpt lat="59.23864" lon="18.119802">
        <ele>25</ele>
        <time>2020-01-12T06:25:36Z</time>
      </trkpt>
      <trkpt lat="59.238719" lon="18.119812">
        <ele>24</ele>
        <time>2020-01-12T06:25:37Z</time>
      </trkpt>
      <trkpt lat="59.2388" lon="18.119822">
        <ele>24</ele>
        <time>2020-01-12T06:25:38Z</time>
      </trkpt>
      <trkpt lat="59.23888" lon="18.119828">
        <ele>24</ele>
        <time>2020-01-12T06:25:39Z</time>
      </trkpt>
      <trkpt lat="59.238962" lon="18.119831">
        <ele>24</ele>
        <time>2020-01-12T06:25:40Z</time>
      </trkpt>
      <trkpt lat="59.239042" lon="18.119832">
        <ele>24</ele>
        <time>2020-01-12T06:25:41Z</time>
      </trkpt>
      <trkpt lat="59.239122" lon="18.119826">
        <ele>24</ele>
        <time>2020-01-12T06:25:42Z</time>
      </trkpt>
      <trkpt lat="59.2392" lon="18.119815">
        <ele>24</ele>
        <time>2020-01-12T06:25:43Z</time>
      </trkpt>
      <trkpt lat="59.239278" lon="18.119802">
        <ele>24</ele>
        <time>2020-01-12T06:25:44Z</time>
      </trkpt>
      <trkpt lat="59.239356" lon="18.119783">
        <ele>24</ele>
        <time>2020-01-12T06:25:45Z</time>
      </trkpt>
      <trkpt lat="59.239432" lon="18.119759">
        <ele>24</ele>
        <time>2020-01-12T06:25:46Z</time>
      </trkpt>
      <trkpt lat="59.239509" lon="18.119733">
        <ele>24</ele>
        <time>2020-01-12T06:25:47Z</time>
      </trkpt>
      <trkpt lat="59.239583" lon="18.119704">
        <ele>24</ele>
        <time>2020-01-12T06:25:48Z</time>
      </trkpt>
      <trkpt lat="59.239659" lon="18.119676">
        <ele>24</ele>
        <time>2020-01-12T06:25:49Z</time>
      </trkpt>
      <trkpt lat="59.239734" lon="18.119646">
        <ele>24</ele>
        <time>2020-01-12T06:25:50Z</time>
      </trkpt>
      <trkpt lat="59.239808" lon="18.119615">
        <ele>24</ele>
        <time>2020-01-12T06:25:51Z</time>
      </trkpt>
      <trkpt lat="59.23988" lon="18.119581">
        <ele>24</ele>
        <time>2020-01-12T06:25:52Z</time>
      </trkpt>
      <trkpt lat="59.239951" lon="18.119551">
        <ele>24</ele>
        <time>2020-01-12T06:25:53Z</time>
      </trkpt>
      <trkpt lat="59.240022" lon="18.119525">
        <ele>24</ele>
        <time>2020-01-12T06:25:54Z</time>
      </trkpt>
      <trkpt lat="59.240092" lon="18.119499">
        <ele>24</ele>
        <time>2020-01-12T06:25:55Z</time>
      </trkpt>
      <trkpt lat="59.24016" lon="18.119469">
        <ele>24</ele>
        <time>2020-01-12T06:25:56Z</time>
      </trkpt>
      <trkpt lat="59.240226" lon="18.119439">
        <ele>24</ele>
        <time>2020-01-12T06:25:57Z</time>
      </trkpt>
      <trkpt lat="59.240292" lon="18.119414">
        <ele>24</ele>
        <time>2020-01-12T06:25:58Z</time>
      </trkpt>
      <trkpt lat="59.240353" lon="18.119393">
        <ele>24</ele>
        <time>2020-01-12T06:25:59Z</time>
      </trkpt>
      <trkpt lat="59.240408" lon="18.119388">
        <ele>24</ele>
        <time>2020-01-12T06:26:00Z</time>
      </trkpt>
      <trkpt lat="59.240454" lon="18.119418">
        <ele>24</ele>
        <time>2020-01-12T06:26:01Z</time>
      </trkpt>
      <trkpt lat="59.240492" lon="18.119472">
        <ele>24</ele>
        <time>2020-01-12T06:26:02Z</time>
      </trkpt>
      <trkpt lat="59.240532" lon="18.119521">
        <ele>23</ele>
        <time>2020-01-12T06:26:03Z</time>
      </trkpt>
      <trkpt lat="59.24058" lon="18.119546">
        <ele>23</ele>
        <time>2020-01-12T06:26:04Z</time>
      </trkpt>
      <trkpt lat="59.240633" lon="18.119548">
        <ele>23</ele>
        <time>2020-01-12T06:26:05Z</time>
      </trkpt>
      <trkpt lat="59.240689" lon="18.119541">
        <ele>23</ele>
        <time>2020-01-12T06:26:06Z</time>
      </trkpt>
      <trkpt lat="59.240746" lon="18.119544">
        <ele>23</ele>
        <time>2020-01-12T06:26:07Z</time>
      </trkpt>
      <trkpt lat="59.240803" lon="18.119562">
        <ele>23</ele>
        <time>2020-01-12T06:26:08Z</time>
      </trkpt>
      <trkpt lat="59.240859" lon="18.119595">
        <ele>23</ele>
        <time>2020-01-12T06:26:09Z</time>
      </trkpt>
      <trkpt lat="59.240913" lon="18.119639">
        <ele>23</ele>
        <time>2020-01-12T06:26:10Z</time>
      </trkpt>
      <trkpt lat="59.240964" lon="18.119693">
        <ele>23</ele>
        <time>2020-01-12T06:26:11Z</time>
      </trkpt>
      <trkpt lat="59.241013" lon="18.119751">
        <ele>23</ele>
        <time>2020-01-12T06:26:12Z</time>
      </trkpt>
      <trkpt lat="59.241059" lon="18.119808">
        <ele>23</ele>
        <time>2020-01-12T06:26:13Z</time>
      </trkpt>
      <trkpt lat="59.241104" lon="18.119846">
        <ele>22</ele>
        <time>2020-01-12T06:26:14Z</time>
      </trkpt>
      <trkpt lat="59.241133" lon="18.119855">
        <ele>22</ele>
        <time>2020-01-12T06:26:15Z</time>
      </trkpt>
      <trkpt lat="59.241164" lon="18.119821">
        <ele>22</ele>
        <time>2020-01-12T06:26:17Z</time>
      </trkpt>
      <trkpt lat="59.241161" lon="18.119773">
        <ele>22</ele>
        <time>2020-01-12T06:26:18Z</time>
      </trkpt>
      <trkpt lat="59.241133" lon="18.119677">
        <ele>22</ele>
        <time>2020-01-12T06:26:19Z</time>
      </trkpt>
      <trkpt lat="59.24112" lon="18.11955">
        <ele>22</ele>
        <time>2020-01-12T06:26:20Z</time>
      </trkpt>
      <trkpt lat="59.241141" lon="18.119413">
        <ele>23</ele>
        <time>2020-01-12T06:26:21Z</time>
      </trkpt>
      <trkpt lat="59.241178" lon="18.119331">
        <ele>23</ele>
        <time>2020-01-12T06:26:22Z</time>
      </trkpt>
      <trkpt lat="59.241233" lon="18.119259">
        <ele>23</ele>
        <time>2020-01-12T06:26:23Z</time>
      </trkpt>
      <trkpt lat="59.241289" lon="18.119229">
        <ele>23</ele>
        <time>2020-01-12T06:26:24Z</time>
      </trkpt>
      <trkpt lat="59.241341" lon="18.119213">
        <ele>23</ele>
        <time>2020-01-12T06:26:25Z</time>
      </trkpt>
      <trkpt lat="59.241392" lon="18.119212">
        <ele>23</ele>
        <time>2020-01-12T06:26:26Z</time>
      </trkpt>
      <trkpt lat="59.241442" lon="18.119217">
        <ele>23</ele>
        <time>2020-01-12T06:26:27Z</time>
      </trkpt>
      <trkpt lat="59.241508" lon="18.119241">
        <ele>22</ele>
        <time>2020-01-12T06:26:28Z</time>
      </trkpt>
      <trkpt lat="59.241569" lon="18.119265">
        <ele>22</ele>
        <time>2020-01-12T06:26:29Z</time>
      </trkpt>
      <trkpt lat="59.241624" lon="18.11929">
        <ele>22</ele>
        <time>2020-01-12T06:26:30Z</time>
      </trkpt>
      <trkpt lat="59.241673" lon="18.119331">
        <ele>23</ele>
        <time>2020-01-12T06:26:31Z</time>
      </trkpt>
      <trkpt lat="59.241721" lon="18.119356">
        <ele>23</ele>
        <time>2020-01-12T06:26:32Z</time>
      </trkpt>
      <trkpt lat="59.241777" lon="18.119373">
        <ele>23</ele>
        <time>2020-01-12T06:26:33Z</time>
      </trkpt>
      <trkpt lat="59.241832" lon="18.119383">
        <ele>23</ele>
        <time>2020-01-12T06:26:34Z</time>
      </trkpt>
      <trkpt lat="59.241889" lon="18.119378">
        <ele>23</ele>
        <time>2020-01-12T06:26:35Z</time>
      </trkpt>
      <trkpt lat="59.241945" lon="18.119359">
        <ele>23</ele>
        <time>2020-01-12T06:26:36Z</time>
      </trkpt>
      <trkpt lat="59.242001" lon="18.119329">
        <ele>24</ele>
        <time>2020-01-12T06:26:37Z</time>
      </trkpt>
      <trkpt lat="59.242059" lon="18.119297">
        <ele>24</ele>
        <time>2020-01-12T06:26:38Z</time>
      </trkpt>
      <trkpt lat="59.242116" lon="18.119265">
        <ele>24</ele>
        <time>2020-01-12T06:26:39Z</time>
      </trkpt>
      <trkpt lat="59.242172" lon="18.119229">
        <ele>24</ele>
        <time>2020-01-12T06:26:40Z</time>
      </trkpt>
      <trkpt lat="59.242225" lon="18.119187">
        <ele>24</ele>
        <time>2020-01-12T06:26:41Z</time>
      </trkpt>
      <trkpt lat="59.242277" lon="18.119137">
        <ele>24</ele>
        <time>2020-01-12T06:26:42Z</time>
      </trkpt>
      <trkpt lat="59.242331" lon="18.119088">
        <ele>25</ele>
        <time>2020-01-12T06:26:43Z</time>
      </trkpt>
      <trkpt lat="59.242386" lon="18.119035">
        <ele>25</ele>
        <time>2020-01-12T06:26:44Z</time>
      </trkpt>
      <trkpt lat="59.242441" lon="18.118973">
        <ele>25</ele>
        <time>2020-01-12T06:26:45Z</time>
      </trkpt>
      <trkpt lat="59.242491" lon="18.118899">
        <ele>25</ele>
        <time>2020-01-12T06:26:46Z</time>
      </trkpt>
      <trkpt lat="59.242539" lon="18.118814">
        <ele>24</ele>
        <time>2020-01-12T06:26:47Z</time>
      </trkpt>
      <trkpt lat="59.242583" lon="18.118722">
        <ele>24</ele>
        <time>2020-01-12T06:26:48Z</time>
      </trkpt>
      <trkpt lat="59.242623" lon="18.118625">
        <ele>24</ele>
        <time>2020-01-12T06:26:49Z</time>
      </trkpt>
      <trkpt lat="59.242657" lon="18.118521">
        <ele>24</ele>
        <time>2020-01-12T06:26:50Z</time>
      </trkpt>
      <trkpt lat="59.242689" lon="18.118418">
        <ele>24</ele>
        <time>2020-01-12T06:26:51Z</time>
      </trkpt>
      <trkpt lat="59.242719" lon="18.118317">
        <ele>24</ele>
        <time>2020-01-12T06:26:52Z</time>
      </trkpt>
      <trkpt lat="59.242749" lon="18.118216">
        <ele>24</ele>
        <time>2020-01-12T06:26:53Z</time>
      </trkpt>
      <trkpt lat="59.242779" lon="18.118117">
        <ele>24</ele>
        <time>2020-01-12T06:26:54Z</time>
      </trkpt>
      <trkpt lat="59.242809" lon="18.11802">
        <ele>24</ele>
        <time>2020-01-12T06:26:55Z</time>
      </trkpt>
      <trkpt lat="59.242842" lon="18.117921">
        <ele>24</ele>
        <time>2020-01-12T06:26:56Z</time>
      </trkpt>
      <trkpt lat="59.242874" lon="18.117823">
        <ele>24</ele>
        <time>2020-01-12T06:26:57Z</time>
      </trkpt>
      <trkpt lat="59.242905" lon="18.117723">
        <ele>24</ele>
        <time>2020-01-12T06:26:58Z</time>
      </trkpt>
      <trkpt lat="59.242937" lon="18.117621">
        <ele>24</ele>
        <time>2020-01-12T06:26:59Z</time>
      </trkpt>
      <trkpt lat="59.242968" lon="18.117518">
        <ele>24</ele>
        <time>2020-01-12T06:27:00Z</time>
      </trkpt>
      <trkpt lat="59.242999" lon="18.117415">
        <ele>24</ele>
        <time>2020-01-12T06:27:01Z</time>
      </trkpt>
      <trkpt lat="59.24303" lon="18.117314">
        <ele>24</ele>
        <time>2020-01-12T06:27:02Z</time>
      </trkpt>
      <trkpt lat="59.243062" lon="18.117216">
        <ele>24</ele>
        <time>2020-01-12T06:27:03Z</time>
      </trkpt>
      <trkpt lat="59.243092" lon="18.117118">
        <ele>24</ele>
        <time>2020-01-12T06:27:04Z</time>
      </trkpt>
      <trkpt lat="59.243123" lon="18.117018">
        <ele>24</ele>
        <time>2020-01-12T06:27:05Z</time>
      </trkpt>
      <trkpt lat="59.243155" lon="18.11692">
        <ele>24</ele>
        <time>2020-01-12T06:27:06Z</time>
      </trkpt>
      <trkpt lat="59.243186" lon="18.116824">
        <ele>24</ele>
        <time>2020-01-12T06:27:07Z</time>
      </trkpt>
      <trkpt lat="59.243216" lon="18.116729">
        <ele>24</ele>
        <time>2020-01-12T06:27:08Z</time>
      </trkpt>
      <trkpt lat="59.243246" lon="18.116633">
        <ele>24</ele>
        <time>2020-01-12T06:27:09Z</time>
      </trkpt>
      <trkpt lat="59.243277" lon="18.116538">
        <ele>24</ele>
        <time>2020-01-12T06:27:10Z</time>
      </trkpt>
      <trkpt lat="59.243307" lon="18.116443">
        <ele>24</ele>
        <time>2020-01-12T06:27:11Z</time>
      </trkpt>
      <trkpt lat="59.243339" lon="18.116347">
        <ele>23</ele>
        <time>2020-01-12T06:27:12Z</time>
      </trkpt>
      <trkpt lat="59.24337" lon="18.116249">
        <ele>23</ele>
        <time>2020-01-12T06:27:13Z</time>
      </trkpt>
      <trkpt lat="59.243401" lon="18.116152">
        <ele>23</ele>
        <time>2020-01-12T06:27:14Z</time>
      </trkpt>
      <trkpt lat="59.243431" lon="18.116056">
        <ele>23</ele>
        <time>2020-01-12T06:27:15Z</time>
      </trkpt>
      <trkpt lat="59.243461" lon="18.11596">
        <ele>23</ele>
        <time>2020-01-12T06:27:16Z</time>
      </trkpt>
      <trkpt lat="59.24349" lon="18.115866">
        <ele>0</ele>
        <time>2020-01-12T06:27:16Z</time>
      </trkpt>
      <trkpt lat="59.243518" lon="18.115774">
        <ele>23</ele>
        <time>2020-01-12T06:27:17Z</time>
      </trkpt>
      <trkpt lat="59.243545" lon="18.11568">
        <ele>23</ele>
        <time>2020-01-12T06:27:19Z</time>
      </trkpt>
      <trkpt lat="59.243568" lon="18.115583">
        <ele>23</ele>
        <time>2020-01-12T06:27:20Z</time>
      </trkpt>
      <trkpt lat="59.243586" lon="18.115481">
        <ele>23</ele>
        <time>2020-01-12T06:27:21Z</time>
      </trkpt>
      <trkpt lat="59.243599" lon="18.115377">
        <ele>24</ele>
        <time>2020-01-12T06:27:22Z</time>
      </trkpt>
      <trkpt lat="59.243605" lon="18.115272">
        <ele>24</ele>
        <time>2020-01-12T06:27:23Z</time>
      </trkpt>
      <trkpt lat="59.24361" lon="18.11517">
        <ele>24</ele>
        <time>2020-01-12T06:27:24Z</time>
      </trkpt>
      <trkpt lat="59.243618" lon="18.115073">
        <ele>24</ele>
        <time>2020-01-12T06:27:25Z</time>
      </trkpt>
      <trkpt lat="59.24363" lon="18.114981">
        <ele>24</ele>
        <time>2020-01-12T06:27:26Z</time>
      </trkpt>
      <trkpt lat="59.243644" lon="18.114892">
        <ele>24</ele>
        <time>2020-01-12T06:27:27Z</time>
      </trkpt>
      <trkpt lat="59.243661" lon="18.114804">
        <ele>24</ele>
        <time>2020-01-12T06:27:28Z</time>
      </trkpt>
      <trkpt lat="59.243679" lon="18.114715">
        <ele>24</ele>
        <time>2020-01-12T06:27:29Z</time>
      </trkpt>
      <trkpt lat="59.243695" lon="18.114626">
        <ele>24</ele>
        <time>2020-01-12T06:27:30Z</time>
      </trkpt>
      <trkpt lat="59.24371" lon="18.114534">
        <ele>24</ele>
        <time>2020-01-12T06:27:31Z</time>
      </trkpt>
      <trkpt lat="59.243725" lon="18.114442">
        <ele>24</ele>
        <time>2020-01-12T06:27:32Z</time>
      </trkpt>
      <trkpt lat="59.243739" lon="18.11435">
        <ele>25</ele>
        <time>2020-01-12T06:27:33Z</time>
      </trkpt>
      <trkpt lat="59.243752" lon="18.114258">
        <ele>25</ele>
        <time>2020-01-12T06:27:34Z</time>
      </trkpt>
      <trkpt lat="59.243763" lon="18.114166">
        <ele>25</ele>
        <time>2020-01-12T06:27:35Z</time>
      </trkpt>
      <trkpt lat="59.243775" lon="18.114071">
        <ele>25</ele>
        <time>2020-01-12T06:27:36Z</time>
      </trkpt>
      <trkpt lat="59.243787" lon="18.113973">
        <ele>25</ele>
        <time>2020-01-12T06:27:37Z</time>
      </trkpt>
      <trkpt lat="59.243799" lon="18.113873">
        <ele>25</ele>
        <time>2020-01-12T06:27:38Z</time>
      </trkpt>
      <trkpt lat="59.243811" lon="18.113775">
        <ele>25</ele>
        <time>2020-01-12T06:27:39Z</time>
      </trkpt>
      <trkpt lat="59.243821" lon="18.113673">
        <ele>25</ele>
        <time>2020-01-12T06:27:40Z</time>
      </trkpt>
      <trkpt lat="59.243831" lon="18.113572">
        <ele>25</ele>
        <time>2020-01-12T06:27:41Z</time>
      </trkpt>
      <trkpt lat="59.243838" lon="18.113476">
        <ele>26</ele>
        <time>2020-01-12T06:27:42Z</time>
      </trkpt>
      <trkpt lat="59.243847" lon="18.113385">
        <ele>26</ele>
        <time>2020-01-12T06:27:43Z</time>
      </trkpt>
      <trkpt lat="59.243856" lon="18.113287">
        <ele>26</ele>
        <time>2020-01-12T06:27:44Z</time>
      </trkpt>
      <trkpt lat="59.243867" lon="18.113184">
        <ele>26</ele>
        <time>2020-01-12T06:27:45Z</time>
      </trkpt>
      <trkpt lat="59.243876" lon="18.113081">
        <ele>26</ele>
        <time>2020-01-12T06:27:46Z</time>
      </trkpt>
      <trkpt lat="59.243882" lon="18.112974">
        <ele>26</ele>
        <time>2020-01-12T06:27:47Z</time>
      </trkpt>
      <trkpt lat="59.243887" lon="18.11287">
        <ele>26</ele>
        <time>2020-01-12T06:27:48Z</time>
      </trkpt>
      <trkpt lat="59.24389" lon="18.112765">
        <ele>26</ele>
        <time>2020-01-12T06:27:49Z</time>
      </trkpt>
      <trkpt lat="59.243894" lon="18.112662">
        <ele>26</ele>
        <time>2020-01-12T06:27:50Z</time>
      </trkpt>
      <trkpt lat="59.243896" lon="18.112559">
        <ele>26</ele>
        <time>2020-01-12T06:27:51Z</time>
      </trkpt>
      <trkpt lat="59.243898" lon="18.112459">
        <ele>26</ele>
        <time>2020-01-12T06:27:52Z</time>
      </trkpt>
      <trkpt lat="59.2439" lon="18.112359">
        <ele>26</ele>
        <time>2020-01-12T06:27:53Z</time>
      </trkpt>
      <trkpt lat="59.243903" lon="18.112258">
        <ele>26</ele>
        <time>2020-01-12T06:27:54Z</time>
      </trkpt>
      <trkpt lat="59.243904" lon="18.112158">
        <ele>26</ele>
        <time>2020-01-12T06:27:55Z</time>
      </trkpt>
      <trkpt lat="59.243906" lon="18.112058">
        <ele>26</ele>
        <time>2020-01-12T06:27:56Z</time>
      </trkpt>
      <trkpt lat="59.243908" lon="18.11196">
        <ele>27</ele>
        <time>2020-01-12T06:27:57Z</time>
      </trkpt>
      <trkpt lat="59.24391" lon="18.111862">
        <ele>27</ele>
        <time>2020-01-12T06:27:58Z</time>
      </trkpt>
      <trkpt lat="59.243911" lon="18.111766">
        <ele>27</ele>
        <time>2020-01-12T06:27:59Z</time>
      </trkpt>
      <trkpt lat="59.243913" lon="18.111673">
        <ele>27</ele>
        <time>2020-01-12T06:28:00Z</time>
      </trkpt>
      <trkpt lat="59.243915" lon="18.111583">
        <ele>27</ele>
        <time>2020-01-12T06:28:01Z</time>
      </trkpt>
      <trkpt lat="59.243916" lon="18.111493">
        <ele>27</ele>
        <time>2020-01-12T06:28:02Z</time>
      </trkpt>
      <trkpt lat="59.243918" lon="18.111404">
        <ele>27</ele>
        <time>2020-01-12T06:28:03Z</time>
      </trkpt>
      <trkpt lat="59.243918" lon="18.111317">
        <ele>27</ele>
        <time>2020-01-12T06:28:04Z</time>
      </trkpt>
      <trkpt lat="59.243918" lon="18.11123">
        <ele>27</ele>
        <time>2020-01-12T06:28:05Z</time>
      </trkpt>
      <trkpt lat="59.243919" lon="18.111144">
        <ele>28</ele>
        <time>2020-01-12T06:28:06Z</time>
      </trkpt>
      <trkpt lat="59.24392" lon="18.111057">
        <ele>28</ele>
        <time>2020-01-12T06:28:07Z</time>
      </trkpt>
      <trkpt lat="59.24392" lon="18.110973">
        <ele>28</ele>
        <time>2020-01-12T06:28:08Z</time>
      </trkpt>
      <trkpt lat="59.24392" lon="18.110891">
        <ele>28</ele>
        <time>2020-01-12T06:28:09Z</time>
      </trkpt>
      <trkpt lat="59.243921" lon="18.11081">
        <ele>28</ele>
        <time>2020-01-12T06:28:10Z</time>
      </trkpt>
      <trkpt lat="59.243924" lon="18.110731">
        <ele>28</ele>
        <time>2020-01-12T06:28:11Z</time>
      </trkpt>
      <trkpt lat="59.243925" lon="18.110653">
        <ele>29</ele>
        <time>2020-01-12T06:28:12Z</time>
      </trkpt>
      <trkpt lat="59.243924" lon="18.110578">
        <ele>29</ele>
        <time>2020-01-12T06:28:13Z</time>
      </trkpt>
      <trkpt lat="59.243923" lon="18.110503">
        <ele>29</ele>
        <time>2020-01-12T06:28:14Z</time>
      </trkpt>
      <trkpt lat="59.243923" lon="18.110429">
        <ele>29</ele>
        <time>2020-01-12T06:28:15Z</time>
      </trkpt>
      <trkpt lat="59.243925" lon="18.110353">
        <ele>29</ele>
        <time>2020-01-12T06:28:16Z</time>
      </trkpt>
      <trkpt lat="59.243927" lon="18.110276">
        <ele>30</ele>
        <time>2020-01-12T06:28:17Z</time>
      </trkpt>
      <trkpt lat="59.24393" lon="18.110199">
        <ele>30</ele>
        <time>2020-01-12T06:28:18Z</time>
      </trkpt>
      <trkpt lat="59.243933" lon="18.110123">
        <ele>30</ele>
        <time>2020-01-12T06:28:19Z</time>
      </trkpt>
      <trkpt lat="59.243937" lon="18.110047">
        <ele>30</ele>
        <time>2020-01-12T06:28:20Z</time>
      </trkpt>
      <trkpt lat="59.243942" lon="18.109971">
        <ele>30</ele>
        <time>2020-01-12T06:28:21Z</time>
      </trkpt>
      <trkpt lat="59.243947" lon="18.109895">
        <ele>30</ele>
        <time>2020-01-12T06:28:22Z</time>
      </trkpt>
      <trkpt lat="59.243953" lon="18.109818">
        <ele>30</ele>
        <time>2020-01-12T06:28:23Z</time>
      </trkpt>
      <trkpt lat="59.243959" lon="18.109739">
        <ele>30</ele>
        <time>2020-01-12T06:28:24Z</time>
      </trkpt>
      <trkpt lat="59.243968" lon="18.109661">
        <ele>30</ele>
        <time>2020-01-12T06:28:25Z</time>
      </trkpt>
      <trkpt lat="59.24398" lon="18.109584">
        <ele>30</ele>
        <time>2020-01-12T06:28:26Z</time>
      </trkpt>
      <trkpt lat="59.24399" lon="18.109507">
        <ele>30</ele>
        <time>2020-01-12T06:28:27Z</time>
      </trkpt>
      <trkpt lat="59.244006" lon="18.109432">
        <ele>30</ele>
        <time>2020-01-12T06:28:28Z</time>
      </trkpt>
      <trkpt lat="59.244024" lon="18.109357">
        <ele>30</ele>
        <time>2020-01-12T06:28:29Z</time>
      </trkpt>
      <trkpt lat="59.244045" lon="18.109281">
        <ele>30</ele>
        <time>2020-01-12T06:28:30Z</time>
      </trkpt>
      <trkpt lat="59.244068" lon="18.109206">
        <ele>30</ele>
        <time>2020-01-12T06:28:31Z</time>
      </trkpt>
      <trkpt lat="59.244094" lon="18.109134">
        <ele>30</ele>
        <time>2020-01-12T06:28:32Z</time>
      </trkpt>
      <trkpt lat="59.244121" lon="18.109067">
        <ele>30</ele>
        <time>2020-01-12T06:28:33Z</time>
      </trkpt>
      <trkpt lat="59.244149" lon="18.109002">
        <ele>30</ele>
        <time>2020-01-12T06:28:34Z</time>
      </trkpt>
      <trkpt lat="59.244177" lon="18.108936">
        <ele>30</ele>
        <time>2020-01-12T06:28:35Z</time>
      </trkpt>
      <trkpt lat="59.244206" lon="18.108874">
        <ele>30</ele>
        <time>2020-01-12T06:28:36Z</time>
      </trkpt>
      <trkpt lat="59.244238" lon="18.108815">
        <ele>30</ele>
        <time>2020-01-12T06:28:37Z</time>
      </trkpt>
      <trkpt lat="59.244271" lon="18.108758">
        <ele>30</ele>
        <time>2020-01-12T06:28:38Z</time>
      </trkpt>
      <trkpt lat="59.244304" lon="18.108699">
        <ele>30</ele>
        <time>2020-01-12T06:28:39Z</time>
      </trkpt>
      <trkpt lat="59.244337" lon="18.108638">
        <ele>30</ele>
        <time>2020-01-12T06:28:40Z</time>
      </trkpt>
      <trkpt lat="59.24437" lon="18.108575">
        <ele>30</ele>
        <time>2020-01-12T06:28:41Z</time>
      </trkpt>
      <trkpt lat="59.244403" lon="18.10851">
        <ele>30</ele>
        <time>2020-01-12T06:28:42Z</time>
      </trkpt>
      <trkpt lat="59.244437" lon="18.108445">
        <ele>30</ele>
        <time>2020-01-12T06:28:43Z</time>
      </trkpt>
      <trkpt lat="59.244471" lon="18.108381">
        <ele>30</ele>
        <time>2020-01-12T06:28:44Z</time>
      </trkpt>
      <trkpt lat="59.244506" lon="18.108317">
        <ele>30</ele>
        <time>2020-01-12T06:28:45Z</time>
      </trkpt>
      <trkpt lat="59.244541" lon="18.108255">
        <ele>30</ele>
        <time>2020-01-12T06:28:46Z</time>
      </trkpt>
      <trkpt lat="59.244577" lon="18.108191">
        <ele>30</ele>
        <time>2020-01-12T06:28:47Z</time>
      </trkpt>
      <trkpt lat="59.244612" lon="18.108127">
        <ele>30</ele>
        <time>2020-01-12T06:28:48Z</time>
      </trkpt>
      <trkpt lat="59.244646" lon="18.10806">
        <ele>30</ele>
        <time>2020-01-12T06:28:49Z</time>
      </trkpt>
      <trkpt lat="59.244679" lon="18.107994">
        <ele>30</ele>
        <time>2020-01-12T06:28:50Z</time>
      </trkpt>
      <trkpt lat="59.244714" lon="18.107929">
        <ele>30</ele>
        <time>2020-01-12T06:28:51Z</time>
      </trkpt>
      <trkpt lat="59.244748" lon="18.107863">
        <ele>30</ele>
        <time>2020-01-12T06:28:52Z</time>
      </trkpt>
      <trkpt lat="59.244784" lon="18.107797">
        <ele>30</ele>
        <time>2020-01-12T06:28:53Z</time>
      </trkpt>
      <trkpt lat="59.244819" lon="18.107732">
        <ele>30</ele>
        <time>2020-01-12T06:28:54Z</time>
      </trkpt>
      <trkpt lat="59.244855" lon="18.107666">
        <ele>30</ele>
        <time>2020-01-12T06:28:55Z</time>
      </trkpt>
      <trkpt lat="59.244892" lon="18.107599">
        <ele>30</ele>
        <time>2020-01-12T06:28:56Z</time>
      </trkpt>
      <trkpt lat="59.24493" lon="18.107533">
        <ele>30</ele>
        <time>2020-01-12T06:28:57Z</time>
      </trkpt>
      <trkpt lat="59.24497" lon="18.107468">
        <ele>30</ele>
        <time>2020-01-12T06:28:58Z</time>
      </trkpt>
      <trkpt lat="59.24501" lon="18.107402">
        <ele>30</ele>
        <time>2020-01-12T06:28:59Z</time>
      </trkpt>
      <trkpt lat="59.245052" lon="18.107336">
        <ele>30</ele>
        <time>2020-01-12T06:29:00Z</time>
      </trkpt>
      <trkpt lat="59.245095" lon="18.107266">
        <ele>30</ele>
        <time>2020-01-12T06:29:01Z</time>
      </trkpt>
      <trkpt lat="59.245137" lon="18.107189">
        <ele>30</ele>
        <time>2020-01-12T06:29:02Z</time>
      </trkpt>
      <trkpt lat="59.245181" lon="18.107113">
        <ele>30</ele>
        <time>2020-01-12T06:29:03Z</time>
      </trkpt>
      <trkpt lat="59.245226" lon="18.107033">
        <ele>29</ele>
        <time>2020-01-12T06:29:04Z</time>
      </trkpt>
      <trkpt lat="59.24527" lon="18.10695">
        <ele>29</ele>
        <time>2020-01-12T06:29:05Z</time>
      </trkpt>
      <trkpt lat="59.245315" lon="18.106866">
        <ele>29</ele>
        <time>2020-01-12T06:29:06Z</time>
      </trkpt>
      <trkpt lat="59.245361" lon="18.106782">
        <ele>29</ele>
        <time>2020-01-12T06:29:07Z</time>
      </trkpt>
      <trkpt lat="59.245407" lon="18.106695">
        <ele>29</ele>
        <time>2020-01-12T06:29:08Z</time>
      </trkpt>
      <trkpt lat="59.245454" lon="18.106606">
        <ele>29</ele>
        <time>2020-01-12T06:29:09Z</time>
      </trkpt>
      <trkpt lat="59.245501" lon="18.106516">
        <ele>29</ele>
        <time>2020-01-12T06:29:10Z</time>
      </trkpt>
      <trkpt lat="59.245551" lon="18.106427">
        <ele>29</ele>
        <time>2020-01-12T06:29:11Z</time>
      </trkpt>
      <trkpt lat="59.245602" lon="18.106341">
        <ele>29</ele>
        <time>2020-01-12T06:29:12Z</time>
      </trkpt>
      <trkpt lat="59.245657" lon="18.106256">
        <ele>29</ele>
        <time>2020-01-12T06:29:13Z</time>
      </trkpt>
      <trkpt lat="59.245713" lon="18.106171">
        <ele>29</ele>
        <time>2020-01-12T06:29:14Z</time>
      </trkpt>
      <trkpt lat="59.245769" lon="18.106084">
        <ele>29</ele>
        <time>2020-01-12T06:29:15Z</time>
      </trkpt>
      <trkpt lat="59.245826" lon="18.105994">
        <ele>29</ele>
        <time>2020-01-12T06:29:16Z</time>
      </trkpt>
      <trkpt lat="59.245886" lon="18.105904">
        <ele>29</ele>
        <time>2020-01-12T06:29:17Z</time>
      </trkpt>
      <trkpt lat="59.245945" lon="18.105816">
        <ele>29</ele>
        <time>2020-01-12T06:29:18Z</time>
      </trkpt>
      <trkpt lat="59.246003" lon="18.105731">
        <ele>28</ele>
        <time>2020-01-12T06:29:19Z</time>
      </trkpt>
      <trkpt lat="59.24606" lon="18.105647">
        <ele>28</ele>
        <time>2020-01-12T06:29:20Z</time>
      </trkpt>
      <trkpt lat="59.246118" lon="18.105563">
        <ele>28</ele>
        <time>2020-01-12T06:29:21Z</time>
      </trkpt>
      <trkpt lat="59.246181" lon="18.105487">
        <ele>28</ele>
        <time>2020-01-12T06:29:22Z</time>
      </trkpt>
      <trkpt lat="59.246252" lon="18.105426">
        <ele>27</ele>
        <time>2020-01-12T06:29:23Z</time>
      </trkpt>
      <trkpt lat="59.246329" lon="18.10539">
        <ele>27</ele>
        <time>2020-01-12T06:29:24Z</time>
      </trkpt>
      <trkpt lat="59.246409" lon="18.105368">
        <ele>26</ele>
        <time>2020-01-12T06:29:25Z</time>
      </trkpt>
      <trkpt lat="59.246492" lon="18.105342">
        <ele>26</ele>
        <time>2020-01-12T06:29:26Z</time>
      </trkpt>
      <trkpt lat="59.246574" lon="18.105297">
        <ele>26</ele>
        <time>2020-01-12T06:29:27Z</time>
      </trkpt>
      <trkpt lat="59.24665" lon="18.105221">
        <ele>25</ele>
        <time>2020-01-12T06:29:28Z</time>
      </trkpt>
      <trkpt lat="59.246721" lon="18.105127">
        <ele>25</ele>
        <time>2020-01-12T06:29:29Z</time>
      </trkpt>
      <trkpt lat="59.246792" lon="18.105032">
        <ele>0</ele>
        <time>2020-01-12T06:29:29Z</time>
      </trkpt>
      <trkpt lat="59.246859" lon="18.104941">
        <ele>25</ele>
        <time>2020-01-12T06:29:30Z</time>
      </trkpt>
      <trkpt lat="59.246915" lon="18.10485">
        <ele>24</ele>
        <time>2020-01-12T06:29:32Z</time>
      </trkpt>
      <trkpt lat="59.246953" lon="18.10475">
        <ele>24</ele>
        <time>2020-01-12T06:29:33Z</time>
      </trkpt>
      <trkpt lat="59.246964" lon="18.104637">
        <ele>24</ele>
        <time>2020-01-12T06:29:34Z</time>
      </trkpt>
      <trkpt lat="59.246963" lon="18.104521">
        <ele>24</ele>
        <time>2020-01-12T06:29:35Z</time>
      </trkpt>
      <trkpt lat="59.246957" lon="18.104415">
        <ele>24</ele>
        <time>2020-01-12T06:29:36Z</time>
      </trkpt>
      <trkpt lat="59.246952" lon="18.104312">
        <ele>25</ele>
        <time>2020-01-12T06:29:37Z</time>
      </trkpt>
      <trkpt lat="59.246949" lon="18.104204">
        <ele>24</ele>
        <time>2020-01-12T06:29:38Z</time>
      </trkpt>
      <trkpt lat="59.246956" lon="18.104102">
        <ele>24</ele>
        <time>2020-01-12T06:29:39Z</time>
      </trkpt>
      <trkpt lat="59.246966" lon="18.104005">
        <ele>25</ele>
        <time>2020-01-12T06:29:40Z</time>
      </trkpt>
      <trkpt lat="59.246983" lon="18.103906">
        <ele>25</ele>
        <time>2020-01-12T06:29:41Z</time>
      </trkpt>
      <trkpt lat="59.247002" lon="18.103825">
        <ele>25</ele>
        <time>2020-01-12T06:29:42Z</time>
      </trkpt>
      <trkpt lat="59.247023" lon="18.103747">
        <ele>25</ele>
        <time>2020-01-12T06:29:43Z</time>
      </trkpt>
      <trkpt lat="59.247051" lon="18.103669">
        <ele>25</ele>
        <time>2020-01-12T06:29:44Z</time>
      </trkpt>
      <trkpt lat="59.24708" lon="18.103598">
        <ele>25</ele>
        <time>2020-01-12T06:29:45Z</time>
      </trkpt>
      <trkpt lat="59.247111" lon="18.103533">
        <ele>25</ele>
        <time>2020-01-12T06:29:46Z</time>
      </trkpt>
      <trkpt lat="59.247143" lon="18.103471">
        <ele>26</ele>
        <time>2020-01-12T06:29:47Z</time>
      </trkpt>
      <trkpt lat="59.247176" lon="18.103415">
        <ele>26</ele>
        <time>2020-01-12T06:29:48Z</time>
      </trkpt>
      <trkpt lat="59.247211" lon="18.103362">
        <ele>26</ele>
        <time>2020-01-12T06:29:49Z</time>
      </trkpt>
      <trkpt lat="59.247249" lon="18.103312">
        <ele>26</ele>
        <time>2020-01-12T06:29:50Z</time>
      </trkpt>
      <trkpt lat="59.247287" lon="18.103259">
        <ele>26</ele>
        <time>2020-01-12T06:29:51Z</time>
      </trkpt>
      <trkpt lat="59.247322" lon="18.103202">
        <ele>26</ele>
        <time>2020-01-12T06:29:52Z</time>
      </trkpt>
      <trkpt lat="59.247358" lon="18.103145">
        <ele>26</ele>
        <time>2020-01-12T06:29:53Z</time>
      </trkpt>
      <trkpt lat="59.247393" lon="18.103086">
        <ele>26</ele>
        <time>2020-01-12T06:29:54Z</time>
      </trkpt>
      <trkpt lat="59.247428" lon="18.103024">
        <ele>27</ele>
        <time>2020-01-12T06:29:55Z</time>
      </trkpt>
      <trkpt lat="59.247461" lon="18.102957">
        <ele>27</ele>
        <time>2020-01-12T06:29:56Z</time>
      </trkpt>
      <trkpt lat="59.247489" lon="18.102886">
        <ele>27</ele>
        <time>2020-01-12T06:29:57Z</time>
      </trkpt>
      <trkpt lat="59.247512" lon="18.10281">
        <ele>27</ele>
        <time>2020-01-12T06:29:58Z</time>
      </trkpt>
      <trkpt lat="59.247533" lon="18.102733">
        <ele>27</ele>
        <time>2020-01-12T06:29:59Z</time>
      </trkpt>
      <trkpt lat="59.247553" lon="18.102653">
        <ele>27</ele>
        <time>2020-01-12T06:30:00Z</time>
      </trkpt>
      <trkpt lat="59.247572" lon="18.102572">
        <ele>27</ele>
        <time>2020-01-12T06:30:01Z</time>
      </trkpt>
      <trkpt lat="59.247592" lon="18.102492">
        <ele>28</ele>
        <time>2020-01-12T06:30:02Z</time>
      </trkpt>
      <trkpt lat="59.247612" lon="18.102413">
        <ele>28</ele>
        <time>2020-01-12T06:30:03Z</time>
      </trkpt>
      <trkpt lat="59.247632" lon="18.102335">
        <ele>28</ele>
        <time>2020-01-12T06:30:04Z</time>
      </trkpt>
      <trkpt lat="59.247653" lon="18.102254">
        <ele>28</ele>
        <time>2020-01-12T06:30:05Z</time>
      </trkpt>
      <trkpt lat="59.247674" lon="18.102172">
        <ele>28</ele>
        <time>2020-01-12T06:30:06Z</time>
      </trkpt>
      <trkpt lat="59.247695" lon="18.102087">
        <ele>28</ele>
        <time>2020-01-12T06:30:07Z</time>
      </trkpt>
      <trkpt lat="59.247715" lon="18.102">
        <ele>28</ele>
        <time>2020-01-12T06:30:08Z</time>
      </trkpt>
      <trkpt lat="59.247738" lon="18.10191">
        <ele>28</ele>
        <time>2020-01-12T06:30:09Z</time>
      </trkpt>
      <trkpt lat="59.24776" lon="18.10182">
        <ele>28</ele>
        <time>2020-01-12T06:30:10Z</time>
      </trkpt>
      <trkpt lat="59.247782" lon="18.10173">
        <ele>28</ele>
        <time>2020-01-12T06:30:11Z</time>
      </trkpt>
      <trkpt lat="59.247807" lon="18.101641">
        <ele>29</ele>
        <time>2020-01-12T06:30:12Z</time>
      </trkpt>
      <trkpt lat="59.247836" lon="18.101552">
        <ele>28</ele>
        <time>2020-01-12T06:30:13Z</time>
      </trkpt>
      <trkpt lat="59.247866" lon="18.101463">
        <ele>29</ele>
        <time>2020-01-12T06:30:14Z</time>
      </trkpt>
      <trkpt lat="59.247899" lon="18.10137">
        <ele>29</ele>
        <time>2020-01-12T06:30:15Z</time>
      </trkpt>
      <trkpt lat="59.247932" lon="18.101277">
        <ele>29</ele>
        <time>2020-01-12T06:30:16Z</time>
      </trkpt>
      <trkpt lat="59.247968" lon="18.101183">
        <ele>29</ele>
        <time>2020-01-12T06:30:17Z</time>
      </trkpt>
      <trkpt lat="59.248002" lon="18.101091">
        <ele>29</ele>
        <time>2020-01-12T06:30:18Z</time>
      </trkpt>
      <trkpt lat="59.248038" lon="18.101">
        <ele>29</ele>
        <time>2020-01-12T06:30:19Z</time>
      </trkpt>
      <trkpt lat="59.248079" lon="18.100909">
        <ele>29</ele>
        <time>2020-01-12T06:30:20Z</time>
      </trkpt>
      <trkpt lat="59.248125" lon="18.100823">
        <ele>28</ele>
        <time>2020-01-12T06:30:21Z</time>
      </trkpt>
      <trkpt lat="59.248175" lon="18.100743">
        <ele>28</ele>
        <time>2020-01-12T06:30:22Z</time>
      </trkpt>
      <trkpt lat="59.24823" lon="18.100672">
        <ele>28</ele>
        <time>2020-01-12T06:30:23Z</time>
      </trkpt>
      <trkpt lat="59.248286" lon="18.100611">
        <ele>28</ele>
        <time>2020-01-12T06:30:24Z</time>
      </trkpt>
      <trkpt lat="59.248346" lon="18.100553">
        <ele>28</ele>
        <time>2020-01-12T06:30:25Z</time>
      </trkpt>
      <trkpt lat="59.248411" lon="18.100494">
        <ele>28</ele>
        <time>2020-01-12T06:30:26Z</time>
      </trkpt>
      <trkpt lat="59.248479" lon="18.100431">
        <ele>27</ele>
        <time>2020-01-12T06:30:27Z</time>
      </trkpt>
      <trkpt lat="59.248544" lon="18.10036">
        <ele>28</ele>
        <time>2020-01-12T06:30:28Z</time>
      </trkpt>
      <trkpt lat="59.248603" lon="18.100283">
        <ele>27</ele>
        <time>2020-01-12T06:30:29Z</time>
      </trkpt>
      <trkpt lat="59.24866" lon="18.1002">
        <ele>27</ele>
        <time>2020-01-12T06:30:30Z</time>
      </trkpt>
      <trkpt lat="59.248716" lon="18.100118">
        <ele>27</ele>
        <time>2020-01-12T06:30:31Z</time>
      </trkpt>
      <trkpt lat="59.24877" lon="18.100039">
        <ele>27</ele>
        <time>2020-01-12T06:30:32Z</time>
      </trkpt>
      <trkpt lat="59.248825" lon="18.099962">
        <ele>27</ele>
        <time>2020-01-12T06:30:33Z</time>
      </trkpt>
      <trkpt lat="59.248882" lon="18.099892">
        <ele>27</ele>
        <time>2020-01-12T06:30:34Z</time>
      </trkpt>
      <trkpt lat="59.248941" lon="18.099828">
        <ele>27</ele>
        <time>2020-01-12T06:30:35Z</time>
      </trkpt>
      <trkpt lat="59.249002" lon="18.099768">
        <ele>27</ele>
        <time>2020-01-12T06:30:36Z</time>
      </trkpt>
      <trkpt lat="59.249066" lon="18.099712">
        <ele>27</ele>
        <time>2020-01-12T06:30:37Z</time>
      </trkpt>
      <trkpt lat="59.249132" lon="18.099664">
        <ele>27</ele>
        <time>2020-01-12T06:30:38Z</time>
      </trkpt>
      <trkpt lat="59.249201" lon="18.099625">
        <ele>27</ele>
        <time>2020-01-12T06:30:39Z</time>
      </trkpt>
      <trkpt lat="59.249271" lon="18.099591">
        <ele>27</ele>
        <time>2020-01-12T06:30:40Z</time>
      </trkpt>
      <trkpt lat="59.24934" lon="18.09956">
        <ele>27</ele>
        <time>2020-01-12T06:30:41Z</time>
      </trkpt>
      <trkpt lat="59.24941" lon="18.099529">
        <ele>27</ele>
        <time>2020-01-12T06:30:42Z</time>
      </trkpt>
      <trkpt lat="59.24948" lon="18.099499">
        <ele>26</ele>
        <time>2020-01-12T06:30:43Z</time>
      </trkpt>
      <trkpt lat="59.249551" lon="18.099472">
        <ele>26</ele>
        <time>2020-01-12T06:30:44Z</time>
      </trkpt>
      <trkpt lat="59.249626" lon="18.099459">
        <ele>26</ele>
        <time>2020-01-12T06:30:45Z</time>
      </trkpt>
      <trkpt lat="59.249699" lon="18.099461">
        <ele>26</ele>
        <time>2020-01-12T06:30:46Z</time>
      </trkpt>
      <trkpt lat="59.249769" lon="18.099478">
        <ele>26</ele>
        <time>2020-01-12T06:30:47Z</time>
      </trkpt>
      <trkpt lat="59.249836" lon="18.099502">
        <ele>26</ele>
        <time>2020-01-12T06:30:48Z</time>
      </trkpt>
      <trkpt lat="59.249898" lon="18.099527">
        <ele>27</ele>
        <time>2020-01-12T06:30:49Z</time>
      </trkpt>
      <trkpt lat="59.249957" lon="18.099554">
        <ele>27</ele>
        <time>2020-01-12T06:30:50Z</time>
      </trkpt>
      <trkpt lat="59.250015" lon="18.099581">
        <ele>27</ele>
        <time>2020-01-12T06:30:51Z</time>
      </trkpt>
      <trkpt lat="59.250071" lon="18.099608">
        <ele>27</ele>
        <time>2020-01-12T06:30:52Z</time>
      </trkpt>
      <trkpt lat="59.250126" lon="18.099631">
        <ele>27</ele>
        <time>2020-01-12T06:30:53Z</time>
      </trkpt>
      <trkpt lat="59.25018" lon="18.099651">
        <ele>27</ele>
        <time>2020-01-12T06:30:54Z</time>
      </trkpt>
      <trkpt lat="59.250231" lon="18.099672">
        <ele>28</ele>
        <time>2020-01-12T06:30:55Z</time>
      </trkpt>
      <trkpt lat="59.250282" lon="18.099696">
        <ele>28</ele>
        <time>2020-01-12T06:30:56Z</time>
      </trkpt>
      <trkpt lat="59.250331" lon="18.099721">
        <ele>28</ele>
        <time>2020-01-12T06:30:57Z</time>
      </trkpt>
      <trkpt lat="59.25038" lon="18.099748">
        <ele>28</ele>
        <time>2020-01-12T06:30:58Z</time>
      </trkpt>
      <trkpt lat="59.250428" lon="18.099777">
        <ele>28</ele>
        <time>2020-01-12T06:30:59Z</time>
      </trkpt>
      <trkpt lat="59.250475" lon="18.099806">
        <ele>28</ele>
        <time>2020-01-12T06:31:00Z</time>
      </trkpt>
      <trkpt lat="59.250519" lon="18.099845">
        <ele>28</ele>
        <time>2020-01-12T06:31:01Z</time>
      </trkpt>
      <trkpt lat="59.250559" lon="18.099896">
        <ele>28</ele>
        <time>2020-01-12T06:31:02Z</time>
      </trkpt>
      <trkpt lat="59.250597" lon="18.099952">
        <ele>28</ele>
        <time>2020-01-12T06:31:03Z</time>
      </trkpt>
      <trkpt lat="59.250634" lon="18.100009">
        <ele>28</ele>
        <time>2020-01-12T06:31:04Z</time>
      </trkpt>
      <trkpt lat="59.25067" lon="18.100064">
        <ele>28</ele>
        <time>2020-01-12T06:31:05Z</time>
      </trkpt>
      <trkpt lat="59.250704" lon="18.100127">
        <ele>28</ele>
        <time>2020-01-12T06:31:06Z</time>
      </trkpt>
      <trkpt lat="59.250736" lon="18.100199">
        <ele>28</ele>
        <time>2020-01-12T06:31:07Z</time>
      </trkpt>
      <trkpt lat="59.250766" lon="18.100277">
        <ele>28</ele>
        <time>2020-01-12T06:31:08Z</time>
      </trkpt>
      <trkpt lat="59.250797" lon="18.100358">
        <ele>28</ele>
        <time>2020-01-12T06:31:09Z</time>
      </trkpt>
      <trkpt lat="59.250831" lon="18.100437">
        <ele>28</ele>
        <time>2020-01-12T06:31:10Z</time>
      </trkpt>
      <trkpt lat="59.250871" lon="18.100512">
        <ele>28</ele>
        <time>2020-01-12T06:31:11Z</time>
      </trkpt>
      <trkpt lat="59.250915" lon="18.100584">
        <ele>28</ele>
        <time>2020-01-12T06:31:12Z</time>
      </trkpt>
      <trkpt lat="59.250963" lon="18.100653">
        <ele>28</ele>
        <time>2020-01-12T06:31:13Z</time>
      </trkpt>
      <trkpt lat="59.251015" lon="18.100713">
        <ele>27</ele>
        <time>2020-01-12T06:31:14Z</time>
      </trkpt>
      <trkpt lat="59.251071" lon="18.100768">
        <ele>27</ele>
        <time>2020-01-12T06:31:15Z</time>
      </trkpt>
      <trkpt lat="59.251129" lon="18.100818">
        <ele>27</ele>
        <time>2020-01-12T06:31:16Z</time>
      </trkpt>
      <trkpt lat="59.25119" lon="18.100866">
        <ele>27</ele>
        <time>2020-01-12T06:31:17Z</time>
      </trkpt>
      <trkpt lat="59.251254" lon="18.100906">
        <ele>27</ele>
        <time>2020-01-12T06:31:18Z</time>
      </trkpt>
      <trkpt lat="59.25132" lon="18.100936">
        <ele>27</ele>
        <time>2020-01-12T06:31:19Z</time>
      </trkpt>
      <trkpt lat="59.251388" lon="18.100948">
        <ele>27</ele>
        <time>2020-01-12T06:31:20Z</time>
      </trkpt>
      <trkpt lat="59.251456" lon="18.100937">
        <ele>27</ele>
        <time>2020-01-12T06:31:21Z</time>
      </trkpt>
      <trkpt lat="59.251524" lon="18.100906">
        <ele>27</ele>
        <time>2020-01-12T06:31:22Z</time>
      </trkpt>
      <trkpt lat="59.251593" lon="18.100865">
        <ele>26</ele>
        <time>2020-01-12T06:31:23Z</time>
      </trkpt>
      <trkpt lat="59.251661" lon="18.100823">
        <ele>26</ele>
        <time>2020-01-12T06:31:24Z</time>
      </trkpt>
      <trkpt lat="59.251733" lon="18.100779">
        <ele>26</ele>
        <time>2020-01-12T06:31:25Z</time>
      </trkpt>
      <trkpt lat="59.251805" lon="18.100733">
        <ele>26</ele>
        <time>2020-01-12T06:31:26Z</time>
      </trkpt>
      <trkpt lat="59.251879" lon="18.100687">
        <ele>25</ele>
        <time>2020-01-12T06:31:27Z</time>
      </trkpt>
      <trkpt lat="59.251955" lon="18.100639">
        <ele>25</ele>
        <time>2020-01-12T06:31:28Z</time>
      </trkpt>
      <trkpt lat="59.252034" lon="18.100589">
        <ele>25</ele>
        <time>2020-01-12T06:31:29Z</time>
      </trkpt>
      <trkpt lat="59.252115" lon="18.100537">
        <ele>25</ele>
        <time>2020-01-12T06:31:30Z</time>
      </trkpt>
      <trkpt lat="59.252197" lon="18.100483">
        <ele>24</ele>
        <time>2020-01-12T06:31:31Z</time>
      </trkpt>
      <trkpt lat="59.252281" lon="18.100432">
        <ele>24</ele>
        <time>2020-01-12T06:31:32Z</time>
      </trkpt>
      <trkpt lat="59.252365" lon="18.100382">
        <ele>24</ele>
        <time>2020-01-12T06:31:33Z</time>
      </trkpt>
      <trkpt lat="59.252452" lon="18.100335">
        <ele>24</ele>
        <time>2020-01-12T06:31:34Z</time>
      </trkpt>
      <trkpt lat="59.252539" lon="18.100289">
        <ele>24</ele>
        <time>2020-01-12T06:31:35Z</time>
      </trkpt>
      <trkpt lat="59.252625" lon="18.100247">
        <ele>24</ele>
        <time>2020-01-12T06:31:36Z</time>
      </trkpt>
      <trkpt lat="59.252711" lon="18.10021">
        <ele>23</ele>
        <time>2020-01-12T06:31:37Z</time>
      </trkpt>
      <trkpt lat="59.252795" lon="18.100179">
        <ele>23</ele>
        <time>2020-01-12T06:31:38Z</time>
      </trkpt>
      <trkpt lat="59.252878" lon="18.100157">
        <ele>23</ele>
        <time>2020-01-12T06:31:39Z</time>
      </trkpt>
      <trkpt lat="59.252961" lon="18.100143">
        <ele>23</ele>
        <time>2020-01-12T06:31:40Z</time>
      </trkpt>
      <trkpt lat="59.253043" lon="18.100138">
        <ele>23</ele>
        <time>2020-01-12T06:31:41Z</time>
      </trkpt>
      <trkpt lat="59.253123" lon="18.100141">
        <ele>23</ele>
        <time>2020-01-12T06:31:42Z</time>
      </trkpt>
      <trkpt lat="59.2532" lon="18.100162">
        <ele>23</ele>
        <time>2020-01-12T06:31:43Z</time>
      </trkpt>
      <trkpt lat="59.253274" lon="18.100204">
        <ele>24</ele>
        <time>2020-01-12T06:31:44Z</time>
      </trkpt>
      <trkpt lat="59.253342" lon="18.100253">
        <ele>24</ele>
        <time>2020-01-12T06:31:45Z</time>
      </trkpt>
      <trkpt lat="59.253409" lon="18.100307">
        <ele>23</ele>
        <time>2020-01-12T06:31:46Z</time>
      </trkpt>
      <trkpt lat="59.253477" lon="18.10036">
        <ele>24</ele>
        <time>2020-01-12T06:31:47Z</time>
      </trkpt>
      <trkpt lat="59.253546" lon="18.100404">
        <ele>24</ele>
        <time>2020-01-12T06:31:48Z</time>
      </trkpt>
      <trkpt lat="59.253615" lon="18.100444">
        <ele>24</ele>
        <time>2020-01-12T06:31:49Z</time>
      </trkpt>
      <trkpt lat="59.253682" lon="18.100477">
        <ele>24</ele>
        <time>2020-01-12T06:31:50Z</time>
      </trkpt>
      <trkpt lat="59.253749" lon="18.100507">
        <ele>24</ele>
        <time>2020-01-12T06:31:51Z</time>
      </trkpt>
      <trkpt lat="59.253817" lon="18.100533">
        <ele>24</ele>
        <time>2020-01-12T06:31:52Z</time>
      </trkpt>
      <trkpt lat="59.253883" lon="18.100557">
        <ele>24</ele>
        <time>2020-01-12T06:31:53Z</time>
      </trkpt>
      <trkpt lat="59.253947" lon="18.100579">
        <ele>24</ele>
        <time>2020-01-12T06:31:54Z</time>
      </trkpt>
      <trkpt lat="59.254011" lon="18.100601">
        <ele>24</ele>
        <time>2020-01-12T06:31:55Z</time>
      </trkpt>
      <trkpt lat="59.254074" lon="18.100614">
        <ele>24</ele>
        <time>2020-01-12T06:31:56Z</time>
      </trkpt>
      <trkpt lat="59.254137" lon="18.100621">
        <ele>24</ele>
        <time>2020-01-12T06:31:57Z</time>
      </trkpt>
      <trkpt lat="59.254201" lon="18.100628">
        <ele>24</ele>
        <time>2020-01-12T06:31:58Z</time>
      </trkpt>
      <trkpt lat="59.254264" lon="18.100641">
        <ele>24</ele>
        <time>2020-01-12T06:31:59Z</time>
      </trkpt>
      <trkpt lat="59.254328" lon="18.100663">
        <ele>24</ele>
        <time>2020-01-12T06:32:00Z</time>
      </trkpt>
      <trkpt lat="59.25439" lon="18.100689">
        <ele>24</ele>
        <time>2020-01-12T06:32:01Z</time>
      </trkpt>
      <trkpt lat="59.25445" lon="18.100711">
        <ele>23</ele>
        <time>2020-01-12T06:32:01Z</time>
      </trkpt>
      <trkpt lat="59.254511" lon="18.100737">
        <ele>24</ele>
        <time>2020-01-12T06:32:02Z</time>
      </trkpt>
      <trkpt lat="59.254576" lon="18.100762">
        <ele>23</ele>
        <time>2020-01-12T06:32:04Z</time>
      </trkpt>
      <trkpt lat="59.254639" lon="18.100783">
        <ele>23</ele>
        <time>2020-01-12T06:32:05Z</time>
      </trkpt>
      <trkpt lat="59.254697" lon="18.100804">
        <ele>24</ele>
        <time>2020-01-12T06:32:06Z</time>
      </trkpt>
      <trkpt lat="59.254758" lon="18.100824">
        <ele>23</ele>
        <time>2020-01-12T06:32:07Z</time>
      </trkpt>
      <trkpt lat="59.254819" lon="18.100838">
        <ele>23</ele>
        <time>2020-01-12T06:32:08Z</time>
      </trkpt>
      <trkpt lat="59.254876" lon="18.100853">
        <ele>23</ele>
        <time>2020-01-12T06:32:09Z</time>
      </trkpt>
      <trkpt lat="59.254938" lon="18.100871">
        <ele>23</ele>
        <time>2020-01-12T06:32:10Z</time>
      </trkpt>
      <trkpt lat="59.255004" lon="18.100888">
        <ele>23</ele>
        <time>2020-01-12T06:32:11Z</time>
      </trkpt>
      <trkpt lat="59.255072" lon="18.1009">
        <ele>23</ele>
        <time>2020-01-12T06:32:12Z</time>
      </trkpt>
      <trkpt lat="59.255138" lon="18.100916">
        <ele>23</ele>
        <time>2020-01-12T06:32:13Z</time>
      </trkpt>
      <trkpt lat="59.255198" lon="18.100931">
        <ele>23</ele>
        <time>2020-01-12T06:32:14Z</time>
      </trkpt>
      <trkpt lat="59.255258" lon="18.100942">
        <ele>23</ele>
        <time>2020-01-12T06:32:15Z</time>
      </trkpt>
      <trkpt lat="59.255321" lon="18.100951">
        <ele>23</ele>
        <time>2020-01-12T06:32:16Z</time>
      </trkpt>
      <trkpt lat="59.255386" lon="18.100963">
        <ele>24</ele>
        <time>2020-01-12T06:32:17Z</time>
      </trkpt>
      <trkpt lat="59.255452" lon="18.100978">
        <ele>23</ele>
        <time>2020-01-12T06:32:18Z</time>
      </trkpt>
      <trkpt lat="59.25552" lon="18.100995">
        <ele>23</ele>
        <time>2020-01-12T06:32:19Z</time>
      </trkpt>
      <trkpt lat="59.255586" lon="18.101008">
        <ele>23</ele>
        <time>2020-01-12T06:32:20Z</time>
      </trkpt>
      <trkpt lat="59.255651" lon="18.101022">
        <ele>24</ele>
        <time>2020-01-12T06:32:21Z</time>
      </trkpt>
      <trkpt lat="59.255717" lon="18.101037">
        <ele>24</ele>
        <time>2020-01-12T06:32:22Z</time>
      </trkpt>
      <trkpt lat="59.25578" lon="18.10105">
        <ele>24</ele>
        <time>2020-01-12T06:32:23Z</time>
      </trkpt>
      <trkpt lat="59.255845" lon="18.101062">
        <ele>24</ele>
        <time>2020-01-12T06:32:24Z</time>
      </trkpt>
      <trkpt lat="59.255908" lon="18.101071">
        <ele>24</ele>
        <time>2020-01-12T06:32:25Z</time>
      </trkpt>
      <trkpt lat="59.255971" lon="18.101078">
        <ele>24</ele>
        <time>2020-01-12T06:32:26Z</time>
      </trkpt>
      <trkpt lat="59.256036" lon="18.101083">
        <ele>24</ele>
        <time>2020-01-12T06:32:27Z</time>
      </trkpt>
      <trkpt lat="59.256099" lon="18.101085">
        <ele>24</ele>
        <time>2020-01-12T06:32:28Z</time>
      </trkpt>
      <trkpt lat="59.256164" lon="18.101089">
        <ele>24</ele>
        <time>2020-01-12T06:32:29Z</time>
      </trkpt>
      <trkpt lat="59.256228" lon="18.101093">
        <ele>24</ele>
        <time>2020-01-12T06:32:30Z</time>
      </trkpt>
      <trkpt lat="59.256294" lon="18.1011">
        <ele>24</ele>
        <time>2020-01-12T06:32:31Z</time>
      </trkpt>
      <trkpt lat="59.256363" lon="18.101106">
        <ele>24</ele>
        <time>2020-01-12T06:32:32Z</time>
      </trkpt>
      <trkpt lat="59.256428" lon="18.10111">
        <ele>0</ele>
        <time>2020-01-12T06:32:32Z</time>
      </trkpt>
      <trkpt lat="59.256491" lon="18.101115">
        <ele>24</ele>
        <time>2020-01-12T06:32:33Z</time>
      </trkpt>
      <trkpt lat="59.256554" lon="18.101123">
        <ele>24</ele>
        <time>2020-01-12T06:32:35Z</time>
      </trkpt>
      <trkpt lat="59.256616" lon="18.101129">
        <ele>24</ele>
        <time>2020-01-12T06:32:36Z</time>
      </trkpt>
      <trkpt lat="59.256681" lon="18.101132">
        <ele>24</ele>
        <time>2020-01-12T06:32:37Z</time>
      </trkpt>
      <trkpt lat="59.256743" lon="18.101138">
        <ele>24</ele>
        <time>2020-01-12T06:32:38Z</time>
      </trkpt>
      <trkpt lat="59.256803" lon="18.101138">
        <ele>24</ele>
        <time>2020-01-12T06:32:39Z</time>
      </trkpt>
      <trkpt lat="59.256864" lon="18.101125">
        <ele>24</ele>
        <time>2020-01-12T06:32:40Z</time>
      </trkpt>
      <trkpt lat="59.256923" lon="18.101105">
        <ele>24</ele>
        <time>2020-01-12T06:32:41Z</time>
      </trkpt>
      <trkpt lat="59.256975" lon="18.101063">
        <ele>24</ele>
        <time>2020-01-12T06:32:42Z</time>
      </trkpt>
      <trkpt lat="59.257013" lon="18.100991">
        <ele>24</ele>
        <time>2020-01-12T06:32:43Z</time>
      </trkpt>
      <trkpt lat="59.257038" lon="18.100894">
        <ele>24</ele>
        <time>2020-01-12T06:32:44Z</time>
      </trkpt>
      <trkpt lat="59.25706" lon="18.100792">
        <ele>24</ele>
        <time>2020-01-12T06:32:45Z</time>
      </trkpt>
      <trkpt lat="59.257082" lon="18.10069">
        <ele>24</ele>
        <time>2020-01-12T06:32:46Z</time>
      </trkpt>
      <trkpt lat="59.25714" lon="18.100347">
        <ele>24</ele>
        <time>2020-01-12T06:32:49Z</time>
      </trkpt>
      <trkpt lat="59.257189" lon="18.100057">
        <ele>25</ele>
        <time>2020-01-12T06:32:51Z</time>
      </trkpt>
      <trkpt lat="59.257282" lon="18.099856">
        <ele>25</ele>
        <time>2020-01-12T06:32:53Z</time>
      </trkpt>
      <trkpt lat="59.257325" lon="18.099746">
        <ele>25</ele>
        <time>2020-01-12T06:32:54Z</time>
      </trkpt>
      <trkpt lat="59.257364" lon="18.099652">
        <ele>25</ele>
        <time>2020-01-12T06:32:55Z</time>
      </trkpt>
      <trkpt lat="59.257403" lon="18.099565">
        <ele>25</ele>
        <time>2020-01-12T06:32:56Z</time>
      </trkpt>
      <trkpt lat="59.257442" lon="18.09948">
        <ele>25</ele>
        <time>2020-01-12T06:32:57Z</time>
      </trkpt>
      <trkpt lat="59.257477" lon="18.099409">
        <ele>25</ele>
        <time>2020-01-12T06:32:58Z</time>
      </trkpt>
      <trkpt lat="59.25752" lon="18.099345">
        <ele>25</ele>
        <time>2020-01-12T06:32:59Z</time>
      </trkpt>
      <trkpt lat="59.257564" lon="18.099297">
        <ele>25</ele>
        <time>2020-01-12T06:33:00Z</time>
      </trkpt>
      <trkpt lat="59.257607" lon="18.099257">
        <ele>25</ele>
        <time>2020-01-12T06:33:01Z</time>
      </trkpt>
      <trkpt lat="59.257651" lon="18.099228">
        <ele>25</ele>
        <time>2020-01-12T06:33:02Z</time>
      </trkpt>
      <trkpt lat="59.257698" lon="18.099207">
        <ele>25</ele>
        <time>2020-01-12T06:33:03Z</time>
      </trkpt>
      <trkpt lat="59.257744" lon="18.099194">
        <ele>25</ele>
        <time>2020-01-12T06:33:04Z</time>
      </trkpt>
      <trkpt lat="59.257791" lon="18.099191">
        <ele>26</ele>
        <time>2020-01-12T06:33:05Z</time>
      </trkpt>
      <trkpt lat="59.257838" lon="18.0992">
        <ele>26</ele>
        <time>2020-01-12T06:33:06Z</time>
      </trkpt>
      <trkpt lat="59.257884" lon="18.099213">
        <ele>26</ele>
        <time>2020-01-12T06:33:07Z</time>
      </trkpt>
      <trkpt lat="59.257932" lon="18.099224">
        <ele>26</ele>
        <time>2020-01-12T06:33:08Z</time>
      </trkpt>
      <trkpt lat="59.257978" lon="18.099237">
        <ele>27</ele>
        <time>2020-01-12T06:33:09Z</time>
      </trkpt>
      <trkpt lat="59.258024" lon="18.099248">
        <ele>27</ele>
        <time>2020-01-12T06:33:10Z</time>
      </trkpt>
      <trkpt lat="59.258072" lon="18.099254">
        <ele>27</ele>
        <time>2020-01-12T06:33:11Z</time>
      </trkpt>
      <trkpt lat="59.258122" lon="18.099256">
        <ele>27</ele>
        <time>2020-01-12T06:33:12Z</time>
      </trkpt>
      <trkpt lat="59.258176" lon="18.099256">
        <ele>27</ele>
        <time>2020-01-12T06:33:13Z</time>
      </trkpt>
      <trkpt lat="59.258225" lon="18.099254">
        <ele>28</ele>
        <time>2020-01-12T06:33:14Z</time>
      </trkpt>
      <trkpt lat="59.258278" lon="18.099248">
        <ele>27</ele>
        <time>2020-01-12T06:33:15Z</time>
      </trkpt>
      <trkpt lat="59.258336" lon="18.099254">
        <ele>27</ele>
        <time>2020-01-12T06:33:16Z</time>
      </trkpt>
      <trkpt lat="59.258396" lon="18.09926">
        <ele>27</ele>
        <time>2020-01-12T06:33:17Z</time>
      </trkpt>
      <trkpt lat="59.25845" lon="18.099264">
        <ele>27</ele>
        <time>2020-01-12T06:33:18Z</time>
      </trkpt>
      <trkpt lat="59.258507" lon="18.099265">
        <ele>27</ele>
        <time>2020-01-12T06:33:19Z</time>
      </trkpt>
      <trkpt lat="59.258565" lon="18.099265">
        <ele>27</ele>
        <time>2020-01-12T06:33:20Z</time>
      </trkpt>
      <trkpt lat="59.258622" lon="18.099263">
        <ele>27</ele>
        <time>2020-01-12T06:33:21Z</time>
      </trkpt>
      <trkpt lat="59.258678" lon="18.09926">
        <ele>27</ele>
        <time>2020-01-12T06:33:22Z</time>
      </trkpt>
      <trkpt lat="59.258737" lon="18.099258">
        <ele>27</ele>
        <time>2020-01-12T06:33:23Z</time>
      </trkpt>
      <trkpt lat="59.258795" lon="18.099255">
        <ele>27</ele>
        <time>2020-01-12T06:33:24Z</time>
      </trkpt>
      <trkpt lat="59.258854" lon="18.099251">
        <ele>27</ele>
        <time>2020-01-12T06:33:25Z</time>
      </trkpt>
      <trkpt lat="59.258912" lon="18.099249">
        <ele>27</ele>
        <time>2020-01-12T06:33:26Z</time>
      </trkpt>
      <trkpt lat="59.25897" lon="18.099247">
        <ele>27</ele>
        <time>2020-01-12T06:33:27Z</time>
      </trkpt>
      <trkpt lat="59.259029" lon="18.099242">
        <ele>27</ele>
        <time>2020-01-12T06:33:28Z</time>
      </trkpt>
      <trkpt lat="59.259091" lon="18.099238">
        <ele>27</ele>
        <time>2020-01-12T06:33:29Z</time>
      </trkpt>
      <trkpt lat="59.259154" lon="18.099232">
        <ele>27</ele>
        <time>2020-01-12T06:33:30Z</time>
      </trkpt>
      <trkpt lat="59.25922" lon="18.099225">
        <ele>27</ele>
        <time>2020-01-12T06:33:31Z</time>
      </trkpt>
      <trkpt lat="59.259286" lon="18.099204">
        <ele>27</ele>
        <time>2020-01-12T06:33:32Z</time>
      </trkpt>
      <trkpt lat="59.25935" lon="18.099166">
        <ele>27</ele>
        <time>2020-01-12T06:33:33Z</time>
      </trkpt>
      <trkpt lat="59.259412" lon="18.099111">
        <ele>27</ele>
        <time>2020-01-12T06:33:34Z</time>
      </trkpt>
      <trkpt lat="59.259468" lon="18.099042">
        <ele>27</ele>
        <time>2020-01-12T06:33:35Z</time>
      </trkpt>
      <trkpt lat="59.259519" lon="18.098959">
        <ele>27</ele>
        <time>2020-01-12T06:33:36Z</time>
      </trkpt>
      <trkpt lat="59.259562" lon="18.098864">
        <ele>27</ele>
        <time>2020-01-12T06:33:37Z</time>
      </trkpt>
      <trkpt lat="59.259596" lon="18.098758">
        <ele>27</ele>
        <time>2020-01-12T06:33:38Z</time>
      </trkpt>
      <trkpt lat="59.259622" lon="18.098645">
        <ele>27</ele>
        <time>2020-01-12T06:33:39Z</time>
      </trkpt>
      <trkpt lat="59.259642" lon="18.098529">
        <ele>27</ele>
        <time>2020-01-12T06:33:40Z</time>
      </trkpt>
      <trkpt lat="59.259656" lon="18.098413">
        <ele>27</ele>
        <time>2020-01-12T06:33:41Z</time>
      </trkpt>
      <trkpt lat="59.259665" lon="18.098297">
        <ele>28</ele>
        <time>2020-01-12T06:33:42Z</time>
      </trkpt>
      <trkpt lat="59.25967" lon="18.09818">
        <ele>28</ele>
        <time>2020-01-12T06:33:43Z</time>
      </trkpt>
      <trkpt lat="59.259678" lon="18.098062">
        <ele>28</ele>
        <time>2020-01-12T06:33:44Z</time>
      </trkpt>
      <trkpt lat="59.259685" lon="18.097945">
        <ele>28</ele>
        <time>2020-01-12T06:33:45Z</time>
      </trkpt>
      <trkpt lat="59.259692" lon="18.097832">
        <ele>28</ele>
        <time>2020-01-12T06:33:46Z</time>
      </trkpt>
      <trkpt lat="59.259699" lon="18.097724">
        <ele>29</ele>
        <time>2020-01-12T06:33:47Z</time>
      </trkpt>
      <trkpt lat="59.25971" lon="18.097613">
        <ele>29</ele>
        <time>2020-01-12T06:33:48Z</time>
      </trkpt>
      <trkpt lat="59.25972" lon="18.097503">
        <ele>29</ele>
        <time>2020-01-12T06:33:49Z</time>
      </trkpt>
      <trkpt lat="59.259733" lon="18.097396">
        <ele>29</ele>
        <time>2020-01-12T06:33:50Z</time>
      </trkpt>
      <trkpt lat="59.259754" lon="18.097291">
        <ele>29</ele>
        <time>2020-01-12T06:33:51Z</time>
      </trkpt>
      <trkpt lat="59.259781" lon="18.097198">
        <ele>29</ele>
        <time>2020-01-12T06:33:52Z</time>
      </trkpt>
      <trkpt lat="59.259818" lon="18.09711">
        <ele>28</ele>
        <time>2020-01-12T06:33:53Z</time>
      </trkpt>
      <trkpt lat="59.259864" lon="18.097032">
        <ele>28</ele>
        <time>2020-01-12T06:33:54Z</time>
      </trkpt>
      <trkpt lat="59.259915" lon="18.096964">
        <ele>28</ele>
        <time>2020-01-12T06:33:55Z</time>
      </trkpt>
      <trkpt lat="59.259971" lon="18.096899">
        <ele>28</ele>
        <time>2020-01-12T06:33:56Z</time>
      </trkpt>
      <trkpt lat="59.260031" lon="18.096839">
        <ele>27</ele>
        <time>2020-01-12T06:33:57Z</time>
      </trkpt>
      <trkpt lat="59.260096" lon="18.096785">
        <ele>27</ele>
        <time>2020-01-12T06:33:58Z</time>
      </trkpt>
      <trkpt lat="59.260161" lon="18.096734">
        <ele>27</ele>
        <time>2020-01-12T06:33:59Z</time>
      </trkpt>
      <trkpt lat="59.26023" lon="18.096679">
        <ele>27</ele>
        <time>2020-01-12T06:34:00Z</time>
      </trkpt>
      <trkpt lat="59.260296" lon="18.096623">
        <ele>27</ele>
        <time>2020-01-12T06:34:01Z</time>
      </trkpt>
      <trkpt lat="59.260363" lon="18.096561">
        <ele>27</ele>
        <time>2020-01-12T06:34:02Z</time>
      </trkpt>
      <trkpt lat="59.260497" lon="18.096484">
        <ele>27</ele>
        <time>2020-01-12T06:34:04Z</time>
      </trkpt>
      <trkpt lat="59.260637" lon="18.096492">
        <ele>28</ele>
        <time>2020-01-12T06:34:06Z</time>
      </trkpt>
      <trkpt lat="59.260693" lon="18.096487">
        <ele>28</ele>
        <time>2020-01-12T06:34:07Z</time>
      </trkpt>
      <trkpt lat="59.260747" lon="18.096483">
        <ele>28</ele>
        <time>2020-01-12T06:34:08Z</time>
      </trkpt>
      <trkpt lat="59.260798" lon="18.096478">
        <ele>28</ele>
        <time>2020-01-12T06:34:09Z</time>
      </trkpt>
      <trkpt lat="59.260848" lon="18.096468">
        <ele>28</ele>
        <time>2020-01-12T06:34:10Z</time>
      </trkpt>
      <trkpt lat="59.260898" lon="18.096463">
        <ele>28</ele>
        <time>2020-01-12T06:34:11Z</time>
      </trkpt>
      <trkpt lat="59.260948" lon="18.096462">
        <ele>28</ele>
        <time>2020-01-12T06:34:12Z</time>
      </trkpt>
      <trkpt lat="59.260996" lon="18.096467">
        <ele>28</ele>
        <time>2020-01-12T06:34:13Z</time>
      </trkpt>
      <trkpt lat="59.261043" lon="18.096481">
        <ele>28</ele>
        <time>2020-01-12T06:34:14Z</time>
      </trkpt>
      <trkpt lat="59.261091" lon="18.096504">
        <ele>0</ele>
        <time>2020-01-12T06:34:14Z</time>
      </trkpt>
      <trkpt lat="59.261139" lon="18.096533">
        <ele>28</ele>
        <time>2020-01-12T06:34:15Z</time>
      </trkpt>
      <trkpt lat="59.26119" lon="18.096566">
        <ele>28</ele>
        <time>2020-01-12T06:34:17Z</time>
      </trkpt>
      <trkpt lat="59.261242" lon="18.096602">
        <ele>28</ele>
        <time>2020-01-12T06:34:18Z</time>
      </trkpt>
      <trkpt lat="59.261294" lon="18.096645">
        <ele>28</ele>
        <time>2020-01-12T06:34:19Z</time>
      </trkpt>
      <trkpt lat="59.261346" lon="18.096693">
        <ele>28</ele>
        <time>2020-01-12T06:34:20Z</time>
      </trkpt>
      <trkpt lat="59.261397" lon="18.096743">
        <ele>28</ele>
        <time>2020-01-12T06:34:21Z</time>
      </trkpt>
      <trkpt lat="59.261448" lon="18.096802">
        <ele>29</ele>
        <time>2020-01-12T06:34:22Z</time>
      </trkpt>
      <trkpt lat="59.261498" lon="18.096868">
        <ele>29</ele>
        <time>2020-01-12T06:34:23Z</time>
      </trkpt>
      <trkpt lat="59.261545" lon="18.096938">
        <ele>29</ele>
        <time>2020-01-12T06:34:24Z</time>
      </trkpt>
      <trkpt lat="59.261592" lon="18.097012">
        <ele>29</ele>
        <time>2020-01-12T06:34:25Z</time>
      </trkpt>
      <trkpt lat="59.261638" lon="18.097086">
        <ele>29</ele>
        <time>2020-01-12T06:34:26Z</time>
      </trkpt>
      <trkpt lat="59.261685" lon="18.097162">
        <ele>29</ele>
        <time>2020-01-12T06:34:27Z</time>
      </trkpt>
      <trkpt lat="59.26173" lon="18.097239">
        <ele>29</ele>
        <time>2020-01-12T06:34:28Z</time>
      </trkpt>
      <trkpt lat="59.261775" lon="18.097317">
        <ele>29</ele>
        <time>2020-01-12T06:34:29Z</time>
      </trkpt>
      <trkpt lat="59.26182" lon="18.097392">
        <ele>29</ele>
        <time>2020-01-12T06:34:30Z</time>
      </trkpt>
      <trkpt lat="59.261864" lon="18.097465">
        <ele>29</ele>
        <time>2020-01-12T06:34:31Z</time>
      </trkpt>
      <trkpt lat="59.261908" lon="18.097537">
        <ele>29</ele>
        <time>2020-01-12T06:34:32Z</time>
      </trkpt>
      <trkpt lat="59.261953" lon="18.097609">
        <ele>29</ele>
        <time>2020-01-12T06:34:33Z</time>
      </trkpt>
      <trkpt lat="59.261997" lon="18.097681">
        <ele>28</ele>
        <time>2020-01-12T06:34:34Z</time>
      </trkpt>
      <trkpt lat="59.262041" lon="18.097751">
        <ele>28</ele>
        <time>2020-01-12T06:34:35Z</time>
      </trkpt>
      <trkpt lat="59.262085" lon="18.097821">
        <ele>28</ele>
        <time>2020-01-12T06:34:36Z</time>
      </trkpt>
      <trkpt lat="59.26213" lon="18.09789">
        <ele>28</ele>
        <time>2020-01-12T06:34:37Z</time>
      </trkpt>
      <trkpt lat="59.262175" lon="18.097955">
        <ele>28</ele>
        <time>2020-01-12T06:34:38Z</time>
      </trkpt>
      <trkpt lat="59.262222" lon="18.098013">
        <ele>28</ele>
        <time>2020-01-12T06:34:39Z</time>
      </trkpt>
      <trkpt lat="59.262271" lon="18.098064">
        <ele>28</ele>
        <time>2020-01-12T06:34:40Z</time>
      </trkpt>
      <trkpt lat="59.26232" lon="18.098104">
        <ele>28</ele>
        <time>2020-01-12T06:34:41Z</time>
      </trkpt>
      <trkpt lat="59.26237" lon="18.098132">
        <ele>28</ele>
        <time>2020-01-12T06:34:42Z</time>
      </trkpt>
      <trkpt lat="59.26242" lon="18.09815">
        <ele>28</ele>
        <time>2020-01-12T06:34:43Z</time>
      </trkpt>
      <trkpt lat="59.262473" lon="18.098161">
        <ele>28</ele>
        <time>2020-01-12T06:34:44Z</time>
      </trkpt>
      <trkpt lat="59.262526" lon="18.098168">
        <ele>29</ele>
        <time>2020-01-12T06:34:45Z</time>
      </trkpt>
      <trkpt lat="59.262578" lon="18.09817">
        <ele>29</ele>
        <time>2020-01-12T06:34:46Z</time>
      </trkpt>
      <trkpt lat="59.262629" lon="18.098171">
        <ele>29</ele>
        <time>2020-01-12T06:34:47Z</time>
      </trkpt>
      <trkpt lat="59.262681" lon="18.09817">
        <ele>29</ele>
        <time>2020-01-12T06:34:48Z</time>
      </trkpt>
      <trkpt lat="59.262732" lon="18.098169">
        <ele>29</ele>
        <time>2020-01-12T06:34:49Z</time>
      </trkpt>
      <trkpt lat="59.262784" lon="18.098168">
        <ele>29</ele>
        <time>2020-01-12T06:34:50Z</time>
      </trkpt>
      <trkpt lat="59.262834" lon="18.098164">
        <ele>29</ele>
        <time>2020-01-12T06:34:51Z</time>
      </trkpt>
      <trkpt lat="59.262879" lon="18.098159">
        <ele>29</ele>
        <time>2020-01-12T06:34:52Z</time>
      </trkpt>
      <trkpt lat="59.262928" lon="18.098158">
        <ele>29</ele>
        <time>2020-01-12T06:34:53Z</time>
      </trkpt>
      <trkpt lat="59.262974" lon="18.098155">
        <ele>29</ele>
        <time>2020-01-12T06:34:54Z</time>
      </trkpt>
      <trkpt lat="59.263017" lon="18.098149">
        <ele>30</ele>
        <time>2020-01-12T06:34:55Z</time>
      </trkpt>
      <trkpt lat="59.263062" lon="18.098142">
        <ele>30</ele>
        <time>2020-01-12T06:34:56Z</time>
      </trkpt>
      <trkpt lat="59.263104" lon="18.098133">
        <ele>30</ele>
        <time>2020-01-12T06:34:57Z</time>
      </trkpt>
      <trkpt lat="59.263143" lon="18.098118">
        <ele>30</ele>
        <time>2020-01-12T06:34:58Z</time>
      </trkpt>
      <trkpt lat="59.263183" lon="18.098102">
        <ele>31</ele>
        <time>2020-01-12T06:34:59Z</time>
      </trkpt>
      <trkpt lat="59.263226" lon="18.098085">
        <ele>31</ele>
        <time>2020-01-12T06:35:00Z</time>
      </trkpt>
      <trkpt lat="59.263271" lon="18.098069">
        <ele>31</ele>
        <time>2020-01-12T06:35:01Z</time>
      </trkpt>
      <trkpt lat="59.26333" lon="18.098058">
        <ele>31</ele>
        <time>2020-01-12T06:35:02Z</time>
      </trkpt>
      <trkpt lat="59.263388" lon="18.098053">
        <ele>32</ele>
        <time>2020-01-12T06:35:03Z</time>
      </trkpt>
      <trkpt lat="59.263437" lon="18.098039">
        <ele>32</ele>
        <time>2020-01-12T06:35:04Z</time>
      </trkpt>
      <trkpt lat="59.263482" lon="18.098024">
        <ele>32</ele>
        <time>2020-01-12T06:35:05Z</time>
      </trkpt>
      <trkpt lat="59.263531" lon="18.098007">
        <ele>32</ele>
        <time>2020-01-12T06:35:06Z</time>
      </trkpt>
      <trkpt lat="59.263577" lon="18.097988">
        <ele>33</ele>
        <time>2020-01-12T06:35:07Z</time>
      </trkpt>
      <trkpt lat="59.263621" lon="18.097972">
        <ele>33</ele>
        <time>2020-01-12T06:35:08Z</time>
      </trkpt>
      <trkpt lat="59.263664" lon="18.097957">
        <ele>33</ele>
        <time>2020-01-12T06:35:09Z</time>
      </trkpt>
      <trkpt lat="59.263709" lon="18.097944">
        <ele>34</ele>
        <time>2020-01-12T06:35:10Z</time>
      </trkpt>
      <trkpt lat="59.263755" lon="18.097932">
        <ele>34</ele>
        <time>2020-01-12T06:35:11Z</time>
      </trkpt>
      <trkpt lat="59.263802" lon="18.097917">
        <ele>0</ele>
        <time>2020-01-12T06:35:11Z</time>
      </trkpt>
      <trkpt lat="59.263848" lon="18.097902">
        <ele>34</ele>
        <time>2020-01-12T06:35:12Z</time>
      </trkpt>
      <trkpt lat="59.263893" lon="18.097888">
        <ele>34</ele>
        <time>2020-01-12T06:35:14Z</time>
      </trkpt>
      <trkpt lat="59.263938" lon="18.097873">
        <ele>34</ele>
        <time>2020-01-12T06:35:15Z</time>
      </trkpt>
      <trkpt lat="59.263981" lon="18.097858">
        <ele>34</ele>
        <time>2020-01-12T06:35:16Z</time>
      </trkpt>
      <trkpt lat="59.264026" lon="18.097843">
        <ele>34</ele>
        <time>2020-01-12T06:35:17Z</time>
      </trkpt>
      <trkpt lat="59.26407" lon="18.097828">
        <ele>34</ele>
        <time>2020-01-12T06:35:18Z</time>
      </trkpt>
      <trkpt lat="59.264114" lon="18.097812">
        <ele>34</ele>
        <time>2020-01-12T06:35:19Z</time>
      </trkpt>
      <trkpt lat="59.264156" lon="18.097794">
        <ele>35</ele>
        <time>2020-01-12T06:35:20Z</time>
      </trkpt>
      <trkpt lat="59.264201" lon="18.097774">
        <ele>35</ele>
        <time>2020-01-12T06:35:21Z</time>
      </trkpt>
      <trkpt lat="59.264248" lon="18.097753">
        <ele>35</ele>
        <time>2020-01-12T06:35:22Z</time>
      </trkpt>
      <trkpt lat="59.264295" lon="18.09773">
        <ele>35</ele>
        <time>2020-01-12T06:35:23Z</time>
      </trkpt>
      <trkpt lat="59.264342" lon="18.097709">
        <ele>36</ele>
        <time>2020-01-12T06:35:24Z</time>
      </trkpt>
      <trkpt lat="59.264389" lon="18.097687">
        <ele>36</ele>
        <time>2020-01-12T06:35:25Z</time>
      </trkpt>
      <trkpt lat="59.264438" lon="18.097666">
        <ele>36</ele>
        <time>2020-01-12T06:35:26Z</time>
      </trkpt>
      <trkpt lat="59.264488" lon="18.097644">
        <ele>36</ele>
        <time>2020-01-12T06:35:27Z</time>
      </trkpt>
      <trkpt lat="59.264542" lon="18.097623">
        <ele>36</ele>
        <time>2020-01-12T06:35:28Z</time>
      </trkpt>
      <trkpt lat="59.264598" lon="18.097599">
        <ele>36</ele>
        <time>2020-01-12T06:35:29Z</time>
      </trkpt>
      <trkpt lat="59.264658" lon="18.097574">
        <ele>36</ele>
        <time>2020-01-12T06:35:30Z</time>
      </trkpt>
      <trkpt lat="59.26472" lon="18.09755">
        <ele>36</ele>
        <time>2020-01-12T06:35:31Z</time>
      </trkpt>
      <trkpt lat="59.264783" lon="18.097525">
        <ele>36</ele>
        <time>2020-01-12T06:35:32Z</time>
      </trkpt>
      <trkpt lat="59.264847" lon="18.0975">
        <ele>36</ele>
        <time>2020-01-12T06:35:33Z</time>
      </trkpt>
      <trkpt lat="59.264911" lon="18.097473">
        <ele>36</ele>
        <time>2020-01-12T06:35:34Z</time>
      </trkpt>
      <trkpt lat="59.264974" lon="18.097444">
        <ele>35</ele>
        <time>2020-01-12T06:35:35Z</time>
      </trkpt>
      <trkpt lat="59.265041" lon="18.097419">
        <ele>35</ele>
        <time>2020-01-12T06:35:36Z</time>
      </trkpt>
      <trkpt lat="59.265112" lon="18.097392">
        <ele>35</ele>
        <time>2020-01-12T06:35:37Z</time>
      </trkpt>
      <trkpt lat="59.265182" lon="18.097362">
        <ele>35</ele>
        <time>2020-01-12T06:35:38Z</time>
      </trkpt>
      <trkpt lat="59.265245" lon="18.097338">
        <ele>35</ele>
        <time>2020-01-12T06:35:39Z</time>
      </trkpt>
      <trkpt lat="59.265298" lon="18.097338">
        <ele>35</ele>
        <time>2020-01-12T06:35:40Z</time>
      </trkpt>
      <trkpt lat="59.265334" lon="18.097372">
        <ele>35</ele>
        <time>2020-01-12T06:35:41Z</time>
      </trkpt>
      <trkpt lat="59.265355" lon="18.097446">
        <ele>35</ele>
        <time>2020-01-12T06:35:42Z</time>
      </trkpt>
      <trkpt lat="59.265369" lon="18.097532">
        <ele>35</ele>
        <time>2020-01-12T06:35:43Z</time>
      </trkpt>
      <trkpt lat="59.265374" lon="18.097616">
        <ele>35</ele>
        <time>2020-01-12T06:35:44Z</time>
      </trkpt>
      <trkpt lat="59.265374" lon="18.097705">
        <ele>35</ele>
        <time>2020-01-12T06:35:45Z</time>
      </trkpt>
      <trkpt lat="59.26537" lon="18.097906">
        <ele>35</ele>
        <time>2020-01-12T06:35:47Z</time>
      </trkpt>
      <trkpt lat="59.265427" lon="18.098106">
        <ele>35</ele>
        <time>2020-01-12T06:35:49Z</time>
      </trkpt>
      <trkpt lat="59.265523" lon="18.098117">
        <ele>35</ele>
        <time>2020-01-12T06:35:50Z</time>
      </trkpt>
      <trkpt lat="59.265559" lon="18.098135">
        <ele>35</ele>
        <time>2020-01-12T06:35:52Z</time>
      </trkpt>
      <trkpt lat="59.265599" lon="18.098126">
        <ele>35</ele>
        <time>2020-01-12T06:35:53Z</time>
      </trkpt>
      <trkpt lat="59.265636" lon="18.098106">
        <ele>34</ele>
        <time>2020-01-12T06:35:54Z</time>
      </trkpt>
      <trkpt lat="59.265673" lon="18.098089">
        <ele>34</ele>
        <time>2020-01-12T06:35:55Z</time>
      </trkpt>
      <trkpt lat="59.265712" lon="18.098071">
        <ele>34</ele>
        <time>2020-01-12T06:35:56Z</time>
      </trkpt>
      <trkpt lat="59.265751" lon="18.098047">
        <ele>34</ele>
        <time>2020-01-12T06:35:57Z</time>
      </trkpt>
      <trkpt lat="59.265791" lon="18.098024">
        <ele>34</ele>
        <time>2020-01-12T06:35:58Z</time>
      </trkpt>
      <trkpt lat="59.265833" lon="18.097999">
        <ele>34</ele>
        <time>2020-01-12T06:35:59Z</time>
      </trkpt>
      <trkpt lat="59.265872" lon="18.097973">
        <ele>34</ele>
        <time>2020-01-12T06:36:00Z</time>
      </trkpt>
      <trkpt lat="59.265912" lon="18.097947">
        <ele>34</ele>
        <time>2020-01-12T06:36:01Z</time>
      </trkpt>
      <trkpt lat="59.265951" lon="18.097919">
        <ele>34</ele>
        <time>2020-01-12T06:36:02Z</time>
      </trkpt>
      <trkpt lat="59.265989" lon="18.097892">
        <ele>34</ele>
        <time>2020-01-12T06:36:03Z</time>
      </trkpt>
      <trkpt lat="59.266027" lon="18.097865">
        <ele>34</ele>
        <time>2020-01-12T06:36:04Z</time>
      </trkpt>
      <trkpt lat="59.266063" lon="18.09784">
        <ele>34</ele>
        <time>2020-01-12T06:36:05Z</time>
      </trkpt>
      <trkpt lat="59.266099" lon="18.097826">
        <ele>34</ele>
        <time>2020-01-12T06:36:06Z</time>
      </trkpt>
      <trkpt lat="59.266133" lon="18.09784">
        <ele>34</ele>
        <time>2020-01-12T06:36:07Z</time>
      </trkpt>
      <trkpt lat="59.266157" lon="18.097882">
        <ele>34</ele>
        <time>2020-01-12T06:36:08Z</time>
      </trkpt>
      <trkpt lat="59.266171" lon="18.097938">
        <ele>34</ele>
        <time>2020-01-12T06:36:09Z</time>
      </trkpt>
      <trkpt lat="59.266187" lon="18.097993">
        <ele>34</ele>
        <time>2020-01-12T06:36:10Z</time>
      </trkpt>
      <trkpt lat="59.266214" lon="18.09803">
        <ele>34</ele>
        <time>2020-01-12T06:36:11Z</time>
      </trkpt>
      <trkpt lat="59.266248" lon="18.098036">
        <ele>34</ele>
        <time>2020-01-12T06:36:12Z</time>
      </trkpt>
      <trkpt lat="59.266286" lon="18.098024">
        <ele>35</ele>
        <time>2020-01-12T06:36:13Z</time>
      </trkpt>
      <trkpt lat="59.266324" lon="18.098004">
        <ele>35</ele>
        <time>2020-01-12T06:36:14Z</time>
      </trkpt>
      <trkpt lat="59.266364" lon="18.097983">
        <ele>35</ele>
        <time>2020-01-12T06:36:15Z</time>
      </trkpt>
      <trkpt lat="59.266407" lon="18.097966">
        <ele>35</ele>
        <time>2020-01-12T06:36:16Z</time>
      </trkpt>
      <trkpt lat="59.266451" lon="18.097948">
        <ele>35</ele>
        <time>2020-01-12T06:36:17Z</time>
      </trkpt>
      <trkpt lat="59.266497" lon="18.097928">
        <ele>35</ele>
        <time>2020-01-12T06:36:18Z</time>
      </trkpt>
      <trkpt lat="59.266543" lon="18.097908">
        <ele>35</ele>
        <time>2020-01-12T06:36:19Z</time>
      </trkpt>
      <trkpt lat="59.266591" lon="18.097886">
        <ele>35</ele>
        <time>2020-01-12T06:36:20Z</time>
      </trkpt>
      <trkpt lat="59.266639" lon="18.097861">
        <ele>34</ele>
        <time>2020-01-12T06:36:21Z</time>
      </trkpt>
      <trkpt lat="59.266688" lon="18.097831">
        <ele>34</ele>
        <time>2020-01-12T06:36:22Z</time>
      </trkpt>
      <trkpt lat="59.266735" lon="18.097804">
        <ele>35</ele>
        <time>2020-01-12T06:36:23Z</time>
      </trkpt>
      <trkpt lat="59.266783" lon="18.097778">
        <ele>35</ele>
        <time>2020-01-12T06:36:24Z</time>
      </trkpt>
      <trkpt lat="59.26683" lon="18.097748">
        <ele>35</ele>
        <time>2020-01-12T06:36:25Z</time>
      </trkpt>
      <trkpt lat="59.266879" lon="18.097717">
        <ele>34</ele>
        <time>2020-01-12T06:36:26Z</time>
      </trkpt>
      <trkpt lat="59.266931" lon="18.097686">
        <ele>34</ele>
        <time>2020-01-12T06:36:27Z</time>
      </trkpt>
      <trkpt lat="59.266982" lon="18.097654">
        <ele>34</ele>
        <time>2020-01-12T06:36:28Z</time>
      </trkpt>
      <trkpt lat="59.267034" lon="18.09762">
        <ele>34</ele>
        <time>2020-01-12T06:36:29Z</time>
      </trkpt>
      <trkpt lat="59.267088" lon="18.097584">
        <ele>34</ele>
        <time>2020-01-12T06:36:30Z</time>
      </trkpt>
      <trkpt lat="59.267142" lon="18.097548">
        <ele>35</ele>
        <time>2020-01-12T06:36:31Z</time>
      </trkpt>
      <trkpt lat="59.267197" lon="18.09751">
        <ele>35</ele>
        <time>2020-01-12T06:36:32Z</time>
      </trkpt>
      <trkpt lat="59.267251" lon="18.097472">
        <ele>34</ele>
        <time>2020-01-12T06:36:33Z</time>
      </trkpt>
      <trkpt lat="59.267305" lon="18.097436">
        <ele>34</ele>
        <time>2020-01-12T06:36:34Z</time>
      </trkpt>
      <trkpt lat="59.267358" lon="18.097398">
        <ele>34</ele>
        <time>2020-01-12T06:36:35Z</time>
      </trkpt>
      <trkpt lat="59.267412" lon="18.09736">
        <ele>34</ele>
        <time>2020-01-12T06:36:36Z</time>
      </trkpt>
      <trkpt lat="59.267468" lon="18.097318">
        <ele>34</ele>
        <time>2020-01-12T06:36:37Z</time>
      </trkpt>
      <trkpt lat="59.267524" lon="18.097276">
        <ele>34</ele>
        <time>2020-01-12T06:36:38Z</time>
      </trkpt>
      <trkpt lat="59.26758" lon="18.097236">
        <ele>35</ele>
        <time>2020-01-12T06:36:39Z</time>
      </trkpt>
      <trkpt lat="59.267638" lon="18.097195">
        <ele>35</ele>
        <time>2020-01-12T06:36:40Z</time>
      </trkpt>
      <trkpt lat="59.267694" lon="18.09716">
        <ele>35</ele>
        <time>2020-01-12T06:36:41Z</time>
      </trkpt>
      <trkpt lat="59.26775" lon="18.097124">
        <ele>35</ele>
        <time>2020-01-12T06:36:42Z</time>
      </trkpt>
      <trkpt lat="59.26781" lon="18.097091">
        <ele>35</ele>
        <time>2020-01-12T06:36:43Z</time>
      </trkpt>
      <trkpt lat="59.267871" lon="18.097062">
        <ele>35</ele>
        <time>2020-01-12T06:36:44Z</time>
      </trkpt>
      <trkpt lat="59.267929" lon="18.097039">
        <ele>35</ele>
        <time>2020-01-12T06:36:45Z</time>
      </trkpt>
      <trkpt lat="59.267987" lon="18.097018">
        <ele>35</ele>
        <time>2020-01-12T06:36:46Z</time>
      </trkpt>
      <trkpt lat="59.268044" lon="18.096992">
        <ele>35</ele>
        <time>2020-01-12T06:36:47Z</time>
      </trkpt>
      <trkpt lat="59.268098" lon="18.096964">
        <ele>35</ele>
        <time>2020-01-12T06:36:48Z</time>
      </trkpt>
      <trkpt lat="59.268153" lon="18.09693">
        <ele>35</ele>
        <time>2020-01-12T06:36:49Z</time>
      </trkpt>
      <trkpt lat="59.268206" lon="18.096894">
        <ele>35</ele>
        <time>2020-01-12T06:36:50Z</time>
      </trkpt>
      <trkpt lat="59.268258" lon="18.09686">
        <ele>35</ele>
        <time>2020-01-12T06:36:51Z</time>
      </trkpt>
      <trkpt lat="59.268309" lon="18.096822">
        <ele>35</ele>
        <time>2020-01-12T06:36:52Z</time>
      </trkpt>
      <trkpt lat="59.26836" lon="18.096783">
        <ele>35</ele>
        <time>2020-01-12T06:36:53Z</time>
      </trkpt>
      <trkpt lat="59.268413" lon="18.096742">
        <ele>36</ele>
        <time>2020-01-12T06:36:54Z</time>
      </trkpt>
      <trkpt lat="59.268466" lon="18.096706">
        <ele>35</ele>
        <time>2020-01-12T06:36:55Z</time>
      </trkpt>
      <trkpt lat="59.268521" lon="18.096668">
        <ele>35</ele>
        <time>2020-01-12T06:36:56Z</time>
      </trkpt>
      <trkpt lat="59.268576" lon="18.09663">
        <ele>35</ele>
        <time>2020-01-12T06:36:57Z</time>
      </trkpt>
      <trkpt lat="59.268631" lon="18.096594">
        <ele>35</ele>
        <time>2020-01-12T06:36:58Z</time>
      </trkpt>
      <trkpt lat="59.268686" lon="18.096558">
        <ele>35</ele>
        <time>2020-01-12T06:36:59Z</time>
      </trkpt>
      <trkpt lat="59.268742" lon="18.096521">
        <ele>36</ele>
        <time>2020-01-12T06:37:00Z</time>
      </trkpt>
      <trkpt lat="59.268799" lon="18.096488">
        <ele>36</ele>
        <time>2020-01-12T06:37:01Z</time>
      </trkpt>
      <trkpt lat="59.268855" lon="18.096456">
        <ele>36</ele>
        <time>2020-01-12T06:37:02Z</time>
      </trkpt>
      <trkpt lat="59.268912" lon="18.096427">
        <ele>36</ele>
        <time>2020-01-12T06:37:03Z</time>
      </trkpt>
      <trkpt lat="59.268969" lon="18.096403">
        <ele>36</ele>
        <time>2020-01-12T06:37:04Z</time>
      </trkpt>
      <trkpt lat="59.269027" lon="18.096378">
        <ele>36</ele>
        <time>2020-01-12T06:37:05Z</time>
      </trkpt>
      <trkpt lat="59.269084" lon="18.096354">
        <ele>36</ele>
        <time>2020-01-12T06:37:06Z</time>
      </trkpt>
      <trkpt lat="59.269139" lon="18.096326">
        <ele>36</ele>
        <time>2020-01-12T06:37:07Z</time>
      </trkpt>
      <trkpt lat="59.269193" lon="18.096295">
        <ele>36</ele>
        <time>2020-01-12T06:37:08Z</time>
      </trkpt>
      <trkpt lat="59.269247" lon="18.096267">
        <ele>36</ele>
        <time>2020-01-12T06:37:09Z</time>
      </trkpt>
      <trkpt lat="59.269301" lon="18.096237">
        <ele>37</ele>
        <time>2020-01-12T06:37:10Z</time>
      </trkpt>
      <trkpt lat="59.269356" lon="18.096207">
        <ele>37</ele>
        <time>2020-01-12T06:37:11Z</time>
      </trkpt>
      <trkpt lat="59.269411" lon="18.096174">
        <ele>37</ele>
        <time>2020-01-12T06:37:12Z</time>
      </trkpt>
      <trkpt lat="59.269465" lon="18.096144">
        <ele>37</ele>
        <time>2020-01-12T06:37:13Z</time>
      </trkpt>
      <trkpt lat="59.269522" lon="18.096116">
        <ele>37</ele>
        <time>2020-01-12T06:37:14Z</time>
      </trkpt>
      <trkpt lat="59.269578" lon="18.096085">
        <ele>37</ele>
        <time>2020-01-12T06:37:15Z</time>
      </trkpt>
      <trkpt lat="59.269629" lon="18.096051">
        <ele>37</ele>
        <time>2020-01-12T06:37:16Z</time>
      </trkpt>
      <trkpt lat="59.269682" lon="18.096015">
        <ele>37</ele>
        <time>2020-01-12T06:37:17Z</time>
      </trkpt>
      <trkpt lat="59.269735" lon="18.095976">
        <ele>37</ele>
        <time>2020-01-12T06:37:18Z</time>
      </trkpt>
      <trkpt lat="59.269787" lon="18.095937">
        <ele>38</ele>
        <time>2020-01-12T06:37:19Z</time>
      </trkpt>
      <trkpt lat="59.269841" lon="18.095897">
        <ele>38</ele>
        <time>2020-01-12T06:37:20Z</time>
      </trkpt>
      <trkpt lat="59.269894" lon="18.095857">
        <ele>38</ele>
        <time>2020-01-12T06:37:21Z</time>
      </trkpt>
      <trkpt lat="59.269946" lon="18.095814">
        <ele>38</ele>
        <time>2020-01-12T06:37:22Z</time>
      </trkpt>
      <trkpt lat="59.270011" lon="18.095776">
        <ele>38</ele>
        <time>2020-01-12T06:37:23Z</time>
      </trkpt>
      <trkpt lat="59.270074" lon="18.095738">
        <ele>39</ele>
        <time>2020-01-12T06:37:24Z</time>
      </trkpt>
      <trkpt lat="59.270137" lon="18.095705">
        <ele>39</ele>
        <time>2020-01-12T06:37:25Z</time>
      </trkpt>
      <trkpt lat="59.270199" lon="18.095678">
        <ele>39</ele>
        <time>2020-01-12T06:37:26Z</time>
      </trkpt>
      <trkpt lat="59.27026" lon="18.095653">
        <ele>39</ele>
        <time>2020-01-12T06:37:27Z</time>
      </trkpt>
      <trkpt lat="59.270325" lon="18.095629">
        <ele>38</ele>
        <time>2020-01-12T06:37:28Z</time>
      </trkpt>
      <trkpt lat="59.270389" lon="18.095607">
        <ele>39</ele>
        <time>2020-01-12T06:37:29Z</time>
      </trkpt>
      <trkpt lat="59.270456" lon="18.095589">
        <ele>39</ele>
        <time>2020-01-12T06:37:30Z</time>
      </trkpt>
      <trkpt lat="59.270523" lon="18.095573">
        <ele>39</ele>
        <time>2020-01-12T06:37:31Z</time>
      </trkpt>
      <trkpt lat="59.270588" lon="18.09555">
        <ele>39</ele>
        <time>2020-01-12T06:37:32Z</time>
      </trkpt>
      <trkpt lat="59.270649" lon="18.095514">
        <ele>39</ele>
        <time>2020-01-12T06:37:33Z</time>
      </trkpt>
      <trkpt lat="59.270706" lon="18.095475">
        <ele>39</ele>
        <time>2020-01-12T06:37:34Z</time>
      </trkpt>
      <trkpt lat="59.270765" lon="18.095428">
        <ele>39</ele>
        <time>2020-01-12T06:37:35Z</time>
      </trkpt>
      <trkpt lat="59.270827" lon="18.095385">
        <ele>39</ele>
        <time>2020-01-12T06:37:36Z</time>
      </trkpt>
      <trkpt lat="59.270889" lon="18.095343">
        <ele>39</ele>
        <time>2020-01-12T06:37:37Z</time>
      </trkpt>
      <trkpt lat="59.270952" lon="18.095303">
        <ele>39</ele>
        <time>2020-01-12T06:37:38Z</time>
      </trkpt>
      <trkpt lat="59.271015" lon="18.095269">
        <ele>39</ele>
        <time>2020-01-12T06:37:39Z</time>
      </trkpt>
      <trkpt lat="59.271079" lon="18.095239">
        <ele>39</ele>
        <time>2020-01-12T06:37:40Z</time>
      </trkpt>
      <trkpt lat="59.271139" lon="18.095208">
        <ele>39</ele>
        <time>2020-01-12T06:37:41Z</time>
      </trkpt>
      <trkpt lat="59.271199" lon="18.095175">
        <ele>39</ele>
        <time>2020-01-12T06:37:42Z</time>
      </trkpt>
      <trkpt lat="59.271259" lon="18.095145">
        <ele>39</ele>
        <time>2020-01-12T06:37:43Z</time>
      </trkpt>
      <trkpt lat="59.27132" lon="18.095119">
        <ele>39</ele>
        <time>2020-01-12T06:37:44Z</time>
      </trkpt>
      <trkpt lat="59.27138" lon="18.095096">
        <ele>39</ele>
        <time>2020-01-12T06:37:45Z</time>
      </trkpt>
      <trkpt lat="59.271439" lon="18.095078">
        <ele>39</ele>
        <time>2020-01-12T06:37:46Z</time>
      </trkpt>
      <trkpt lat="59.271495" lon="18.095061">
        <ele>39</ele>
        <time>2020-01-12T06:37:47Z</time>
      </trkpt>
      <trkpt lat="59.271549" lon="18.095039">
        <ele>39</ele>
        <time>2020-01-12T06:37:48Z</time>
      </trkpt>
      <trkpt lat="59.271602" lon="18.095016">
        <ele>39</ele>
        <time>2020-01-12T06:37:49Z</time>
      </trkpt>
      <trkpt lat="59.271655" lon="18.094996">
        <ele>39</ele>
        <time>2020-01-12T06:37:50Z</time>
      </trkpt>
      <trkpt lat="59.271708" lon="18.094974">
        <ele>39</ele>
        <time>2020-01-12T06:37:51Z</time>
      </trkpt>
      <trkpt lat="59.27176" lon="18.094951">
        <ele>39</ele>
        <time>2020-01-12T06:37:52Z</time>
      </trkpt>
      <trkpt lat="59.271811" lon="18.094921">
        <ele>39</ele>
        <time>2020-01-12T06:37:53Z</time>
      </trkpt>
      <trkpt lat="59.271862" lon="18.094884">
        <ele>39</ele>
        <time>2020-01-12T06:37:54Z</time>
      </trkpt>
      <trkpt lat="59.271911" lon="18.094838">
        <ele>39</ele>
        <time>2020-01-12T06:37:55Z</time>
      </trkpt>
      <trkpt lat="59.271962" lon="18.094797">
        <ele>39</ele>
        <time>2020-01-12T06:37:56Z</time>
      </trkpt>
      <trkpt lat="59.272016" lon="18.094768">
        <ele>39</ele>
        <time>2020-01-12T06:37:57Z</time>
      </trkpt>
      <trkpt lat="59.272072" lon="18.094745">
        <ele>39</ele>
        <time>2020-01-12T06:37:58Z</time>
      </trkpt>
      <trkpt lat="59.272129" lon="18.094723">
        <ele>39</ele>
        <time>2020-01-12T06:37:59Z</time>
      </trkpt>
      <trkpt lat="59.272185" lon="18.094704">
        <ele>39</ele>
        <time>2020-01-12T06:38:00Z</time>
      </trkpt>
      <trkpt lat="59.272242" lon="18.094687">
        <ele>40</ele>
        <time>2020-01-12T06:38:01Z</time>
      </trkpt>
      <trkpt lat="59.272297" lon="18.094675">
        <ele>40</ele>
        <time>2020-01-12T06:38:02Z</time>
      </trkpt>
      <trkpt lat="59.272352" lon="18.094663">
        <ele>40</ele>
        <time>2020-01-12T06:38:03Z</time>
      </trkpt>
      <trkpt lat="59.272407" lon="18.094649">
        <ele>40</ele>
        <time>2020-01-12T06:38:04Z</time>
      </trkpt>
      <trkpt lat="59.272462" lon="18.094636">
        <ele>40</ele>
        <time>2020-01-12T06:38:05Z</time>
      </trkpt>
      <trkpt lat="59.272518" lon="18.094623">
        <ele>40</ele>
        <time>2020-01-12T06:38:06Z</time>
      </trkpt>
      <trkpt lat="59.272573" lon="18.09461">
        <ele>40</ele>
        <time>2020-01-12T06:38:07Z</time>
      </trkpt>
      <trkpt lat="59.272628" lon="18.094595">
        <ele>41</ele>
        <time>2020-01-12T06:38:08Z</time>
      </trkpt>
      <trkpt lat="59.272684" lon="18.094582">
        <ele>41</ele>
        <time>2020-01-12T06:38:09Z</time>
      </trkpt>
      <trkpt lat="59.272738" lon="18.09457">
        <ele>41</ele>
        <time>2020-01-12T06:38:10Z</time>
      </trkpt>
      <trkpt lat="59.272792" lon="18.094554">
        <ele>41</ele>
        <time>2020-01-12T06:38:11Z</time>
      </trkpt>
      <trkpt lat="59.272845" lon="18.094536">
        <ele>41</ele>
        <time>2020-01-12T06:38:12Z</time>
      </trkpt>
      <trkpt lat="59.272898" lon="18.094518">
        <ele>41</ele>
        <time>2020-01-12T06:38:13Z</time>
      </trkpt>
      <trkpt lat="59.272953" lon="18.094499">
        <ele>41</ele>
        <time>2020-01-12T06:38:14Z</time>
      </trkpt>
      <trkpt lat="59.273008" lon="18.09448">
        <ele>41</ele>
        <time>2020-01-12T06:38:15Z</time>
      </trkpt>
      <trkpt lat="59.273065" lon="18.09446">
        <ele>41</ele>
        <time>2020-01-12T06:38:16Z</time>
      </trkpt>
      <trkpt lat="59.273124" lon="18.09444">
        <ele>41</ele>
        <time>2020-01-12T06:38:17Z</time>
      </trkpt>
      <trkpt lat="59.273186" lon="18.094425">
        <ele>41</ele>
        <time>2020-01-12T06:38:18Z</time>
      </trkpt>
      <trkpt lat="59.273251" lon="18.094412">
        <ele>40</ele>
        <time>2020-01-12T06:38:19Z</time>
      </trkpt>
      <trkpt lat="59.273319" lon="18.094394">
        <ele>40</ele>
        <time>2020-01-12T06:38:20Z</time>
      </trkpt>
      <trkpt lat="59.273389" lon="18.094368">
        <ele>40</ele>
        <time>2020-01-12T06:38:21Z</time>
      </trkpt>
      <trkpt lat="59.27346" lon="18.094334">
        <ele>40</ele>
        <time>2020-01-12T06:38:22Z</time>
      </trkpt>
      <trkpt lat="59.273531" lon="18.094291">
        <ele>40</ele>
        <time>2020-01-12T06:38:23Z</time>
      </trkpt>
      <trkpt lat="59.273604" lon="18.09424">
        <ele>39</ele>
        <time>2020-01-12T06:38:24Z</time>
      </trkpt>
      <trkpt lat="59.273679" lon="18.094188">
        <ele>39</ele>
        <time>2020-01-12T06:38:25Z</time>
      </trkpt>
      <trkpt lat="59.273755" lon="18.094136">
        <ele>39</ele>
        <time>2020-01-12T06:38:26Z</time>
      </trkpt>
      <trkpt lat="59.273835" lon="18.094088">
        <ele>38</ele>
        <time>2020-01-12T06:38:27Z</time>
      </trkpt>
      <trkpt lat="59.273918" lon="18.094047">
        <ele>38</ele>
        <time>2020-01-12T06:38:28Z</time>
      </trkpt>
      <trkpt lat="59.274004" lon="18.09401">
        <ele>38</ele>
        <time>2020-01-12T06:38:29Z</time>
      </trkpt>
      <trkpt lat="59.274092" lon="18.093973">
        <ele>37</ele>
        <time>2020-01-12T06:38:30Z</time>
      </trkpt>
      <trkpt lat="59.274182" lon="18.093936">
        <ele>37</ele>
        <time>2020-01-12T06:38:31Z</time>
      </trkpt>
      <trkpt lat="59.274272" lon="18.093898">
        <ele>37</ele>
        <time>2020-01-12T06:38:32Z</time>
      </trkpt>
      <trkpt lat="59.274363" lon="18.093858">
        <ele>36</ele>
        <time>2020-01-12T06:38:33Z</time>
      </trkpt>
      <trkpt lat="59.274453" lon="18.093821">
        <ele>36</ele>
        <time>2020-01-12T06:38:34Z</time>
      </trkpt>
      <trkpt lat="59.274543" lon="18.093783">
        <ele>36</ele>
        <time>2020-01-12T06:38:35Z</time>
      </trkpt>
      <trkpt lat="59.274634" lon="18.093745">
        <ele>36</ele>
        <time>2020-01-12T06:38:36Z</time>
      </trkpt>
      <trkpt lat="59.274723" lon="18.093709">
        <ele>36</ele>
        <time>2020-01-12T06:38:37Z</time>
      </trkpt>
      <trkpt lat="59.274813" lon="18.093675">
        <ele>36</ele>
        <time>2020-01-12T06:38:38Z</time>
      </trkpt>
      <trkpt lat="59.274902" lon="18.093641">
        <ele>36</ele>
        <time>2020-01-12T06:38:39Z</time>
      </trkpt>
      <trkpt lat="59.274989" lon="18.093607">
        <ele>36</ele>
        <time>2020-01-12T06:38:40Z</time>
      </trkpt>
      <trkpt lat="59.275074" lon="18.093576">
        <ele>0</ele>
        <time>2020-01-12T06:38:40Z</time>
      </trkpt>
      <trkpt lat="59.275159" lon="18.093545">
        <ele>36</ele>
        <time>2020-01-12T06:38:41Z</time>
      </trkpt>
      <trkpt lat="59.275244" lon="18.093518">
        <ele>36</ele>
        <time>2020-01-12T06:38:43Z</time>
      </trkpt>
      <trkpt lat="59.275328" lon="18.093494">
        <ele>36</ele>
        <time>2020-01-12T06:38:44Z</time>
      </trkpt>
      <trkpt lat="59.275411" lon="18.093471">
        <ele>36</ele>
        <time>2020-01-12T06:38:45Z</time>
      </trkpt>
      <trkpt lat="59.275494" lon="18.093447">
        <ele>36</ele>
        <time>2020-01-12T06:38:46Z</time>
      </trkpt>
      <trkpt lat="59.275575" lon="18.093427">
        <ele>36</ele>
        <time>2020-01-12T06:38:47Z</time>
      </trkpt>
      <trkpt lat="59.275656" lon="18.093404">
        <ele>36</ele>
        <time>2020-01-12T06:38:48Z</time>
      </trkpt>
      <trkpt lat="59.275735" lon="18.093381">
        <ele>36</ele>
        <time>2020-01-12T06:38:49Z</time>
      </trkpt>
      <trkpt lat="59.275814" lon="18.093361">
        <ele>35</ele>
        <time>2020-01-12T06:38:50Z</time>
      </trkpt>
      <trkpt lat="59.275893" lon="18.093342">
        <ele>35</ele>
        <time>2020-01-12T06:38:51Z</time>
      </trkpt>
      <trkpt lat="59.275973" lon="18.093322">
        <ele>35</ele>
        <time>2020-01-12T06:38:52Z</time>
      </trkpt>
      <trkpt lat="59.276052" lon="18.093301">
        <ele>35</ele>
        <time>2020-01-12T06:38:53Z</time>
      </trkpt>
      <trkpt lat="59.276131" lon="18.093284">
        <ele>35</ele>
        <time>2020-01-12T06:38:54Z</time>
      </trkpt>
      <trkpt lat="59.276209" lon="18.093274">
        <ele>35</ele>
        <time>2020-01-12T06:38:55Z</time>
      </trkpt>
      <trkpt lat="59.276288" lon="18.093266">
        <ele>35</ele>
        <time>2020-01-12T06:38:56Z</time>
      </trkpt>
      <trkpt lat="59.276366" lon="18.093251">
        <ele>35</ele>
        <time>2020-01-12T06:38:57Z</time>
      </trkpt>
      <trkpt lat="59.276444" lon="18.093237">
        <ele>35</ele>
        <time>2020-01-12T06:38:58Z</time>
      </trkpt>
      <trkpt lat="59.276522" lon="18.093224">
        <ele>35</ele>
        <time>2020-01-12T06:38:59Z</time>
      </trkpt>
      <trkpt lat="59.276601" lon="18.093209">
        <ele>35</ele>
        <time>2020-01-12T06:39:00Z</time>
      </trkpt>
      <trkpt lat="59.27668" lon="18.093195">
        <ele>35</ele>
        <time>2020-01-12T06:39:01Z</time>
      </trkpt>
      <trkpt lat="59.276759" lon="18.093181">
        <ele>35</ele>
        <time>2020-01-12T06:39:02Z</time>
      </trkpt>
      <trkpt lat="59.276838" lon="18.093165">
        <ele>35</ele>
        <time>2020-01-12T06:39:03Z</time>
      </trkpt>
      <trkpt lat="59.276917" lon="18.093148">
        <ele>35</ele>
        <time>2020-01-12T06:39:04Z</time>
      </trkpt>
      <trkpt lat="59.276995" lon="18.09313">
        <ele>35</ele>
        <time>2020-01-12T06:39:05Z</time>
      </trkpt>
      <trkpt lat="59.277072" lon="18.09311">
        <ele>35</ele>
        <time>2020-01-12T06:39:06Z</time>
      </trkpt>
      <trkpt lat="59.277149" lon="18.093088">
        <ele>35</ele>
        <time>2020-01-12T06:39:07Z</time>
      </trkpt>
      <trkpt lat="59.277225" lon="18.093064">
        <ele>35</ele>
        <time>2020-01-12T06:39:08Z</time>
      </trkpt>
      <trkpt lat="59.277303" lon="18.093037">
        <ele>35</ele>
        <time>2020-01-12T06:39:09Z</time>
      </trkpt>
      <trkpt lat="59.27738" lon="18.093008">
        <ele>34</ele>
        <time>2020-01-12T06:39:10Z</time>
      </trkpt>
      <trkpt lat="59.277457" lon="18.092975">
        <ele>34</ele>
        <time>2020-01-12T06:39:11Z</time>
      </trkpt>
      <trkpt lat="59.277535" lon="18.092945">
        <ele>34</ele>
        <time>2020-01-12T06:39:12Z</time>
      </trkpt>
      <trkpt lat="59.277613" lon="18.092917">
        <ele>34</ele>
        <time>2020-01-12T06:39:13Z</time>
      </trkpt>
      <trkpt lat="59.277691" lon="18.09289">
        <ele>34</ele>
        <time>2020-01-12T06:39:14Z</time>
      </trkpt>
      <trkpt lat="59.277768" lon="18.09286">
        <ele>35</ele>
        <time>2020-01-12T06:39:15Z</time>
      </trkpt>
      <trkpt lat="59.277845" lon="18.092825">
        <ele>35</ele>
        <time>2020-01-12T06:39:16Z</time>
      </trkpt>
      <trkpt lat="59.277922" lon="18.092792">
        <ele>35</ele>
        <time>2020-01-12T06:39:17Z</time>
      </trkpt>
      <trkpt lat="59.277999" lon="18.092758">
        <ele>34</ele>
        <time>2020-01-12T06:39:18Z</time>
      </trkpt>
      <trkpt lat="59.278075" lon="18.092722">
        <ele>34</ele>
        <time>2020-01-12T06:39:19Z</time>
      </trkpt>
      <trkpt lat="59.278151" lon="18.092685">
        <ele>34</ele>
        <time>2020-01-12T06:39:20Z</time>
      </trkpt>
      <trkpt lat="59.278227" lon="18.092652">
        <ele>34</ele>
        <time>2020-01-12T06:39:21Z</time>
      </trkpt>
      <trkpt lat="59.278303" lon="18.092621">
        <ele>34</ele>
        <time>2020-01-12T06:39:22Z</time>
      </trkpt>
      <trkpt lat="59.278378" lon="18.09259">
        <ele>34</ele>
        <time>2020-01-12T06:39:23Z</time>
      </trkpt>
      <trkpt lat="59.278455" lon="18.092561">
        <ele>34</ele>
        <time>2020-01-12T06:39:24Z</time>
      </trkpt>
      <trkpt lat="59.278532" lon="18.092533">
        <ele>34</ele>
        <time>2020-01-12T06:39:25Z</time>
      </trkpt>
      <trkpt lat="59.278609" lon="18.092504">
        <ele>33</ele>
        <time>2020-01-12T06:39:26Z</time>
      </trkpt>
      <trkpt lat="59.278686" lon="18.092472">
        <ele>33</ele>
        <time>2020-01-12T06:39:27Z</time>
      </trkpt>
      <trkpt lat="59.278762" lon="18.09244">
        <ele>33</ele>
        <time>2020-01-12T06:39:28Z</time>
      </trkpt>
      <trkpt lat="59.278838" lon="18.092407">
        <ele>33</ele>
        <time>2020-01-12T06:39:29Z</time>
      </trkpt>
      <trkpt lat="59.278914" lon="18.092375">
        <ele>33</ele>
        <time>2020-01-12T06:39:30Z</time>
      </trkpt>
      <trkpt lat="59.278988" lon="18.092345">
        <ele>33</ele>
        <time>2020-01-12T06:39:31Z</time>
      </trkpt>
      <trkpt lat="59.279061" lon="18.092316">
        <ele>33</ele>
        <time>2020-01-12T06:39:32Z</time>
      </trkpt>
      <trkpt lat="59.279131" lon="18.092285">
        <ele>33</ele>
        <time>2020-01-12T06:39:33Z</time>
      </trkpt>
      <trkpt lat="59.279198" lon="18.092266">
        <ele>33</ele>
        <time>2020-01-12T06:39:34Z</time>
      </trkpt>
      <trkpt lat="59.279262" lon="18.092257">
        <ele>33</ele>
        <time>2020-01-12T06:39:35Z</time>
      </trkpt>
      <trkpt lat="59.279323" lon="18.09225">
        <ele>33</ele>
        <time>2020-01-12T06:39:36Z</time>
      </trkpt>
      <trkpt lat="59.279383" lon="18.092228">
        <ele>32</ele>
        <time>2020-01-12T06:39:37Z</time>
      </trkpt>
      <trkpt lat="59.279445" lon="18.092202">
        <ele>33</ele>
        <time>2020-01-12T06:39:38Z</time>
      </trkpt>
      <trkpt lat="59.279508" lon="18.092173">
        <ele>33</ele>
        <time>2020-01-12T06:39:39Z</time>
      </trkpt>
      <trkpt lat="59.279569" lon="18.092142">
        <ele>33</ele>
        <time>2020-01-12T06:39:40Z</time>
      </trkpt>
      <trkpt lat="59.279627" lon="18.092114">
        <ele>33</ele>
        <time>2020-01-12T06:39:41Z</time>
      </trkpt>
      <trkpt lat="59.279684" lon="18.09209">
        <ele>33</ele>
        <time>2020-01-12T06:39:42Z</time>
      </trkpt>
      <trkpt lat="59.27974" lon="18.09206">
        <ele>33</ele>
        <time>2020-01-12T06:39:43Z</time>
      </trkpt>
      <trkpt lat="59.279797" lon="18.092027">
        <ele>33</ele>
        <time>2020-01-12T06:39:44Z</time>
      </trkpt>
      <trkpt lat="59.279854" lon="18.091996">
        <ele>33</ele>
        <time>2020-01-12T06:39:45Z</time>
      </trkpt>
      <trkpt lat="59.279911" lon="18.09197">
        <ele>33</ele>
        <time>2020-01-12T06:39:46Z</time>
      </trkpt>
      <trkpt lat="59.279969" lon="18.091948">
        <ele>33</ele>
        <time>2020-01-12T06:39:47Z</time>
      </trkpt>
      <trkpt lat="59.28003" lon="18.091927">
        <ele>33</ele>
        <time>2020-01-12T06:39:48Z</time>
      </trkpt>
      <trkpt lat="59.280091" lon="18.09191">
        <ele>33</ele>
        <time>2020-01-12T06:39:49Z</time>
      </trkpt>
      <trkpt lat="59.280153" lon="18.091894">
        <ele>33</ele>
        <time>2020-01-12T06:39:50Z</time>
      </trkpt>
      <trkpt lat="59.280216" lon="18.091874">
        <ele>33</ele>
        <time>2020-01-12T06:39:51Z</time>
      </trkpt>
      <trkpt lat="59.28028" lon="18.091852">
        <ele>33</ele>
        <time>2020-01-12T06:39:52Z</time>
      </trkpt>
      <trkpt lat="59.280343" lon="18.09183">
        <ele>33</ele>
        <time>2020-01-12T06:39:53Z</time>
      </trkpt>
      <trkpt lat="59.280407" lon="18.09181">
        <ele>32</ele>
        <time>2020-01-12T06:39:54Z</time>
      </trkpt>
      <trkpt lat="59.280472" lon="18.091789">
        <ele>32</ele>
        <time>2020-01-12T06:39:55Z</time>
      </trkpt>
      <trkpt lat="59.280535" lon="18.091767">
        <ele>32</ele>
        <time>2020-01-12T06:39:56Z</time>
      </trkpt>
      <trkpt lat="59.280599" lon="18.091747">
        <ele>32</ele>
        <time>2020-01-12T06:39:57Z</time>
      </trkpt>
      <trkpt lat="59.280663" lon="18.091727">
        <ele>32</ele>
        <time>2020-01-12T06:39:58Z</time>
      </trkpt>
      <trkpt lat="59.280728" lon="18.091705">
        <ele>32</ele>
        <time>2020-01-12T06:39:59Z</time>
      </trkpt>
      <trkpt lat="59.280794" lon="18.091686">
        <ele>32</ele>
        <time>2020-01-12T06:40:00Z</time>
      </trkpt>
      <trkpt lat="59.28086" lon="18.091666">
        <ele>32</ele>
        <time>2020-01-12T06:40:01Z</time>
      </trkpt>
      <trkpt lat="59.280927" lon="18.091643">
        <ele>32</ele>
        <time>2020-01-12T06:40:02Z</time>
      </trkpt>
      <trkpt lat="59.280995" lon="18.09162">
        <ele>32</ele>
        <time>2020-01-12T06:40:03Z</time>
      </trkpt>
      <trkpt lat="59.281064" lon="18.0916">
        <ele>32</ele>
        <time>2020-01-12T06:40:04Z</time>
      </trkpt>
      <trkpt lat="59.281133" lon="18.091581">
        <ele>32</ele>
        <time>2020-01-12T06:40:05Z</time>
      </trkpt>
      <trkpt lat="59.281203" lon="18.091559">
        <ele>32</ele>
        <time>2020-01-12T06:40:06Z</time>
      </trkpt>
      <trkpt lat="59.281273" lon="18.091535">
        <ele>32</ele>
        <time>2020-01-12T06:40:07Z</time>
      </trkpt>
      <trkpt lat="59.281343" lon="18.091513">
        <ele>32</ele>
        <time>2020-01-12T06:40:08Z</time>
      </trkpt>
      <trkpt lat="59.281414" lon="18.091493">
        <ele>32</ele>
        <time>2020-01-12T06:40:09Z</time>
      </trkpt>
      <trkpt lat="59.281484" lon="18.091471">
        <ele>32</ele>
        <time>2020-01-12T06:40:10Z</time>
      </trkpt>
      <trkpt lat="59.281554" lon="18.091447">
        <ele>32</ele>
        <time>2020-01-12T06:40:11Z</time>
      </trkpt>
      <trkpt lat="59.281624" lon="18.091425">
        <ele>31</ele>
        <time>2020-01-12T06:40:12Z</time>
      </trkpt>
      <trkpt lat="59.281694" lon="18.091408">
        <ele>32</ele>
        <time>2020-01-12T06:40:13Z</time>
      </trkpt>
      <trkpt lat="59.281762" lon="18.091387">
        <ele>32</ele>
        <time>2020-01-12T06:40:14Z</time>
      </trkpt>
      <trkpt lat="59.281831" lon="18.091364">
        <ele>31</ele>
        <time>2020-01-12T06:40:15Z</time>
      </trkpt>
      <trkpt lat="59.2819" lon="18.091342">
        <ele>31</ele>
        <time>2020-01-12T06:40:16Z</time>
      </trkpt>
      <trkpt lat="59.28197" lon="18.091319">
        <ele>31</ele>
        <time>2020-01-12T06:40:17Z</time>
      </trkpt>
      <trkpt lat="59.28204" lon="18.091293">
        <ele>31</ele>
        <time>2020-01-12T06:40:18Z</time>
      </trkpt>
      <trkpt lat="59.28211" lon="18.09127">
        <ele>31</ele>
        <time>2020-01-12T06:40:19Z</time>
      </trkpt>
      <trkpt lat="59.28218" lon="18.09125">
        <ele>31</ele>
        <time>2020-01-12T06:40:20Z</time>
      </trkpt>
      <trkpt lat="59.28225" lon="18.09123">
        <ele>31</ele>
        <time>2020-01-12T06:40:21Z</time>
      </trkpt>
      <trkpt lat="59.282319" lon="18.091201">
        <ele>32</ele>
        <time>2020-01-12T06:40:22Z</time>
      </trkpt>
      <trkpt lat="59.282386" lon="18.091165">
        <ele>32</ele>
        <time>2020-01-12T06:40:23Z</time>
      </trkpt>
      <trkpt lat="59.282454" lon="18.091132">
        <ele>32</ele>
        <time>2020-01-12T06:40:24Z</time>
      </trkpt>
      <trkpt lat="59.28252" lon="18.0911">
        <ele>32</ele>
        <time>2020-01-12T06:40:25Z</time>
      </trkpt>
      <trkpt lat="59.282584" lon="18.091065">
        <ele>32</ele>
        <time>2020-01-12T06:40:26Z</time>
      </trkpt>
      <trkpt lat="59.282646" lon="18.09103">
        <ele>32</ele>
        <time>2020-01-12T06:40:27Z</time>
      </trkpt>
      <trkpt lat="59.282709" lon="18.090997">
        <ele>33</ele>
        <time>2020-01-12T06:40:28Z</time>
      </trkpt>
      <trkpt lat="59.282772" lon="18.090964">
        <ele>33</ele>
        <time>2020-01-12T06:40:29Z</time>
      </trkpt>
      <trkpt lat="59.282835" lon="18.090934">
        <ele>33</ele>
        <time>2020-01-12T06:40:30Z</time>
      </trkpt>
      <trkpt lat="59.282899" lon="18.090902">
        <ele>33</ele>
        <time>2020-01-12T06:40:31Z</time>
      </trkpt>
      <trkpt lat="59.282963" lon="18.090867">
        <ele>33</ele>
        <time>2020-01-12T06:40:32Z</time>
      </trkpt>
      <trkpt lat="59.283028" lon="18.090832">
        <ele>33</ele>
        <time>2020-01-12T06:40:33Z</time>
      </trkpt>
      <trkpt lat="59.283093" lon="18.090797">
        <ele>33</ele>
        <time>2020-01-12T06:40:34Z</time>
      </trkpt>
      <trkpt lat="59.28316" lon="18.090765">
        <ele>33</ele>
        <time>2020-01-12T06:40:35Z</time>
      </trkpt>
      <trkpt lat="59.283228" lon="18.090735">
        <ele>33</ele>
        <time>2020-01-12T06:40:36Z</time>
      </trkpt>
      <trkpt lat="59.283294" lon="18.090704">
        <ele>33</ele>
        <time>2020-01-12T06:40:37Z</time>
      </trkpt>
      <trkpt lat="59.283358" lon="18.090669">
        <ele>33</ele>
        <time>2020-01-12T06:40:38Z</time>
      </trkpt>
      <trkpt lat="59.283423" lon="18.090637">
        <ele>33</ele>
        <time>2020-01-12T06:40:39Z</time>
      </trkpt>
      <trkpt lat="59.283489" lon="18.090608">
        <ele>33</ele>
        <time>2020-01-12T06:40:40Z</time>
      </trkpt>
      <trkpt lat="59.283555" lon="18.090576">
        <ele>34</ele>
        <time>2020-01-12T06:40:41Z</time>
      </trkpt>
      <trkpt lat="59.283621" lon="18.09054">
        <ele>34</ele>
        <time>2020-01-12T06:40:42Z</time>
      </trkpt>
      <trkpt lat="59.283686" lon="18.090506">
        <ele>34</ele>
        <time>2020-01-12T06:40:43Z</time>
      </trkpt>
      <trkpt lat="59.283748" lon="18.090476">
        <ele>34</ele>
        <time>2020-01-12T06:40:44Z</time>
      </trkpt>
      <trkpt lat="59.283811" lon="18.090443">
        <ele>35</ele>
        <time>2020-01-12T06:40:45Z</time>
      </trkpt>
      <trkpt lat="59.283872" lon="18.090408">
        <ele>35</ele>
        <time>2020-01-12T06:40:46Z</time>
      </trkpt>
      <trkpt lat="59.283934" lon="18.090376">
        <ele>35</ele>
        <time>2020-01-12T06:40:47Z</time>
      </trkpt>
      <trkpt lat="59.283997" lon="18.090346">
        <ele>35</ele>
        <time>2020-01-12T06:40:48Z</time>
      </trkpt>
      <trkpt lat="59.284059" lon="18.090312">
        <ele>36</ele>
        <time>2020-01-12T06:40:49Z</time>
      </trkpt>
      <trkpt lat="59.284121" lon="18.090279">
        <ele>36</ele>
        <time>2020-01-12T06:40:50Z</time>
      </trkpt>
      <trkpt lat="59.284182" lon="18.090249">
        <ele>36</ele>
        <time>2020-01-12T06:40:51Z</time>
      </trkpt>
      <trkpt lat="59.284243" lon="18.090218">
        <ele>36</ele>
        <time>2020-01-12T06:40:52Z</time>
      </trkpt>
      <trkpt lat="59.284305" lon="18.090185">
        <ele>37</ele>
        <time>2020-01-12T06:40:53Z</time>
      </trkpt>
      <trkpt lat="59.284368" lon="18.090151">
        <ele>37</ele>
        <time>2020-01-12T06:40:54Z</time>
      </trkpt>
      <trkpt lat="59.28443" lon="18.090116">
        <ele>37</ele>
        <time>2020-01-12T06:40:55Z</time>
      </trkpt>
      <trkpt lat="59.284492" lon="18.090084">
        <ele>38</ele>
        <time>2020-01-12T06:40:56Z</time>
      </trkpt>
      <trkpt lat="59.284555" lon="18.09005">
        <ele>38</ele>
        <time>2020-01-12T06:40:57Z</time>
      </trkpt>
      <trkpt lat="59.284615" lon="18.090014">
        <ele>38</ele>
        <time>2020-01-12T06:40:58Z</time>
      </trkpt>
      <trkpt lat="59.284677" lon="18.089979">
        <ele>38</ele>
        <time>2020-01-12T06:40:59Z</time>
      </trkpt>
      <trkpt lat="59.284741" lon="18.08995">
        <ele>38</ele>
        <time>2020-01-12T06:41:00Z</time>
      </trkpt>
      <trkpt lat="59.284809" lon="18.089925">
        <ele>38</ele>
        <time>2020-01-12T06:41:01Z</time>
      </trkpt>
      <trkpt lat="59.284873" lon="18.089894">
        <ele>38</ele>
        <time>2020-01-12T06:41:02Z</time>
      </trkpt>
      <trkpt lat="59.284934" lon="18.089864">
        <ele>38</ele>
        <time>2020-01-12T06:41:03Z</time>
      </trkpt>
      <trkpt lat="59.284996" lon="18.089836">
        <ele>38</ele>
        <time>2020-01-12T06:41:04Z</time>
      </trkpt>
      <trkpt lat="59.285058" lon="18.089805">
        <ele>38</ele>
        <time>2020-01-12T06:41:05Z</time>
      </trkpt>
      <trkpt lat="59.285118" lon="18.089771">
        <ele>38</ele>
        <time>2020-01-12T06:41:06Z</time>
      </trkpt>
      <trkpt lat="59.285177" lon="18.089741">
        <ele>38</ele>
        <time>2020-01-12T06:41:07Z</time>
      </trkpt>
      <trkpt lat="59.285236" lon="18.089717">
        <ele>38</ele>
        <time>2020-01-12T06:41:08Z</time>
      </trkpt>
      <trkpt lat="59.285296" lon="18.089692">
        <ele>38</ele>
        <time>2020-01-12T06:41:09Z</time>
      </trkpt>
      <trkpt lat="59.285354" lon="18.08966">
        <ele>38</ele>
        <time>2020-01-12T06:41:10Z</time>
      </trkpt>
      <trkpt lat="59.285411" lon="18.08963">
        <ele>38</ele>
        <time>2020-01-12T06:41:11Z</time>
      </trkpt>
      <trkpt lat="59.28547" lon="18.089605">
        <ele>38</ele>
        <time>2020-01-12T06:41:12Z</time>
      </trkpt>
      <trkpt lat="59.285528" lon="18.089581">
        <ele>38</ele>
        <time>2020-01-12T06:41:13Z</time>
      </trkpt>
      <trkpt lat="59.285585" lon="18.089558">
        <ele>38</ele>
        <time>2020-01-12T06:41:14Z</time>
      </trkpt>
      <trkpt lat="59.285644" lon="18.089532">
        <ele>38</ele>
        <time>2020-01-12T06:41:15Z</time>
      </trkpt>
      <trkpt lat="59.285704" lon="18.089503">
        <ele>38</ele>
        <time>2020-01-12T06:41:16Z</time>
      </trkpt>
      <trkpt lat="59.285761" lon="18.089473">
        <ele>38</ele>
        <time>2020-01-12T06:41:17Z</time>
      </trkpt>
      <trkpt lat="59.28582" lon="18.089443">
        <ele>38</ele>
        <time>2020-01-12T06:41:18Z</time>
      </trkpt>
      <trkpt lat="59.285878" lon="18.089413">
        <ele>38</ele>
        <time>2020-01-12T06:41:19Z</time>
      </trkpt>
      <trkpt lat="59.285938" lon="18.089387">
        <ele>38</ele>
        <time>2020-01-12T06:41:20Z</time>
      </trkpt>
      <trkpt lat="59.285999" lon="18.089359">
        <ele>38</ele>
        <time>2020-01-12T06:41:21Z</time>
      </trkpt>
      <trkpt lat="59.286061" lon="18.089331">
        <ele>38</ele>
        <time>2020-01-12T06:41:22Z</time>
      </trkpt>
      <trkpt lat="59.286123" lon="18.089299">
        <ele>38</ele>
        <time>2020-01-12T06:41:23Z</time>
      </trkpt>
      <trkpt lat="59.286185" lon="18.089267">
        <ele>37</ele>
        <time>2020-01-12T06:41:24Z</time>
      </trkpt>
      <trkpt lat="59.286248" lon="18.089235">
        <ele>37</ele>
        <time>2020-01-12T06:41:25Z</time>
      </trkpt>
      <trkpt lat="59.286312" lon="18.089205">
        <ele>37</ele>
        <time>2020-01-12T06:41:26Z</time>
      </trkpt>
      <trkpt lat="59.286374" lon="18.089178">
        <ele>37</ele>
        <time>2020-01-12T06:41:27Z</time>
      </trkpt>
      <trkpt lat="59.286438" lon="18.089158">
        <ele>37</ele>
        <time>2020-01-12T06:41:28Z</time>
      </trkpt>
      <trkpt lat="59.2865" lon="18.089138">
        <ele>37</ele>
        <time>2020-01-12T06:41:29Z</time>
      </trkpt>
      <trkpt lat="59.286565" lon="18.089116">
        <ele>37</ele>
        <time>2020-01-12T06:41:30Z</time>
      </trkpt>
      <trkpt lat="59.286627" lon="18.089091">
        <ele>37</ele>
        <time>2020-01-12T06:41:31Z</time>
      </trkpt>
      <trkpt lat="59.286689" lon="18.089063">
        <ele>37</ele>
        <time>2020-01-12T06:41:32Z</time>
      </trkpt>
      <trkpt lat="59.286751" lon="18.089037">
        <ele>37</ele>
        <time>2020-01-12T06:41:33Z</time>
      </trkpt>
      <trkpt lat="59.286812" lon="18.08901">
        <ele>37</ele>
        <time>2020-01-12T06:41:34Z</time>
      </trkpt>
      <trkpt lat="59.286872" lon="18.088979">
        <ele>37</ele>
        <time>2020-01-12T06:41:35Z</time>
      </trkpt>
      <trkpt lat="59.286931" lon="18.088946">
        <ele>38</ele>
        <time>2020-01-12T06:41:36Z</time>
      </trkpt>
      <trkpt lat="59.286988" lon="18.088912">
        <ele>38</ele>
        <time>2020-01-12T06:41:37Z</time>
      </trkpt>
      <trkpt lat="59.287046" lon="18.088878">
        <ele>38</ele>
        <time>2020-01-12T06:41:38Z</time>
      </trkpt>
      <trkpt lat="59.287104" lon="18.088844">
        <ele>38</ele>
        <time>2020-01-12T06:41:39Z</time>
      </trkpt>
      <trkpt lat="59.287159" lon="18.08881">
        <ele>38</ele>
        <time>2020-01-12T06:41:40Z</time>
      </trkpt>
      <trkpt lat="59.287215" lon="18.088779">
        <ele>38</ele>
        <time>2020-01-12T06:41:41Z</time>
      </trkpt>
      <trkpt lat="59.28727" lon="18.088749">
        <ele>38</ele>
        <time>2020-01-12T06:41:42Z</time>
      </trkpt>
      <trkpt lat="59.287324" lon="18.08872">
        <ele>38</ele>
        <time>2020-01-12T06:41:43Z</time>
      </trkpt>
      <trkpt lat="59.287378" lon="18.088699">
        <ele>38</ele>
        <time>2020-01-12T06:41:44Z</time>
      </trkpt>
      <trkpt lat="59.28743" lon="18.088702">
        <ele>38</ele>
        <time>2020-01-12T06:41:45Z</time>
      </trkpt>
      <trkpt lat="59.287476" lon="18.088742">
        <ele>38</ele>
        <time>2020-01-12T06:41:46Z</time>
      </trkpt>
      <trkpt lat="59.287512" lon="18.088827">
        <ele>38</ele>
        <time>2020-01-12T06:41:47Z</time>
      </trkpt>
      <trkpt lat="59.287539" lon="18.088921">
        <ele>38</ele>
        <time>2020-01-12T06:41:48Z</time>
      </trkpt>
      <trkpt lat="59.28757" lon="18.089003">
        <ele>38</ele>
        <time>2020-01-12T06:41:49Z</time>
      </trkpt>
      <trkpt lat="59.287609" lon="18.089057">
        <ele>38</ele>
        <time>2020-01-12T06:41:50Z</time>
      </trkpt>
      <trkpt lat="59.287664" lon="18.089085">
        <ele>0</ele>
        <time>2020-01-12T06:41:50Z</time>
      </trkpt>
      <trkpt lat="59.287727" lon="18.089101">
        <ele>38</ele>
        <time>2020-01-12T06:41:51Z</time>
      </trkpt>
      <trkpt lat="59.287788" lon="18.089108">
        <ele>38</ele>
        <time>2020-01-12T06:41:53Z</time>
      </trkpt>
      <trkpt lat="59.287849" lon="18.089101">
        <ele>38</ele>
        <time>2020-01-12T06:41:54Z</time>
      </trkpt>
      <trkpt lat="59.28791" lon="18.089081">
        <ele>38</ele>
        <time>2020-01-12T06:41:55Z</time>
      </trkpt>
      <trkpt lat="59.287974" lon="18.089057">
        <ele>38</ele>
        <time>2020-01-12T06:41:56Z</time>
      </trkpt>
      <trkpt lat="59.288032" lon="18.089024">
        <ele>38</ele>
        <time>2020-01-12T06:41:57Z</time>
      </trkpt>
      <trkpt lat="59.288087" lon="18.08899">
        <ele>39</ele>
        <time>2020-01-12T06:41:58Z</time>
      </trkpt>
      <trkpt lat="59.288141" lon="18.088961">
        <ele>39</ele>
        <time>2020-01-12T06:41:59Z</time>
      </trkpt>
      <trkpt lat="59.288193" lon="18.088936">
        <ele>39</ele>
        <time>2020-01-12T06:42:00Z</time>
      </trkpt>
      <trkpt lat="59.288251" lon="18.088909">
        <ele>39</ele>
        <time>2020-01-12T06:42:01Z</time>
      </trkpt>
      <trkpt lat="59.288308" lon="18.088884">
        <ele>38</ele>
        <time>2020-01-12T06:42:02Z</time>
      </trkpt>
      <trkpt lat="59.288365" lon="18.088861">
        <ele>38</ele>
        <time>2020-01-12T06:42:03Z</time>
      </trkpt>
      <trkpt lat="59.288419" lon="18.088834">
        <ele>38</ele>
        <time>2020-01-12T06:42:04Z</time>
      </trkpt>
      <trkpt lat="59.288469" lon="18.088806">
        <ele>38</ele>
        <time>2020-01-12T06:42:05Z</time>
      </trkpt>
      <trkpt lat="59.288515" lon="18.088769">
        <ele>38</ele>
        <time>2020-01-12T06:42:06Z</time>
      </trkpt>
      <trkpt lat="59.288556" lon="18.08874">
        <ele>38</ele>
        <time>2020-01-12T06:42:07Z</time>
      </trkpt>
      <trkpt lat="59.288596" lon="18.088725">
        <ele>38</ele>
        <time>2020-01-12T06:42:08Z</time>
      </trkpt>
      <trkpt lat="59.288632" lon="18.088714">
        <ele>38</ele>
        <time>2020-01-12T06:42:09Z</time>
      </trkpt>
      <trkpt lat="59.288667" lon="18.088701">
        <ele>0</ele>
        <time>2020-01-12T06:42:09Z</time>
      </trkpt>
      <trkpt lat="59.288704" lon="18.088684">
        <ele>38</ele>
        <time>2020-01-12T06:42:10Z</time>
      </trkpt>
      <trkpt lat="59.288742" lon="18.088656">
        <ele>38</ele>
        <time>2020-01-12T06:42:12Z</time>
      </trkpt>
      <trkpt lat="59.288771" lon="18.088607">
        <ele>38</ele>
        <time>2020-01-12T06:42:13Z</time>
      </trkpt>
      <trkpt lat="59.288784" lon="18.088536">
        <ele>38</ele>
        <time>2020-01-12T06:42:14Z</time>
      </trkpt>
      <trkpt lat="59.288787" lon="18.088464">
        <ele>38</ele>
        <time>2020-01-12T06:42:15Z</time>
      </trkpt>
      <trkpt lat="59.288798" lon="18.088392">
        <ele>38</ele>
        <time>2020-01-12T06:42:16Z</time>
      </trkpt>
      <trkpt lat="59.288822" lon="18.088322">
        <ele>38</ele>
        <time>2020-01-12T06:42:17Z</time>
      </trkpt>
      <trkpt lat="59.288859" lon="18.088269">
        <ele>38</ele>
        <time>2020-01-12T06:42:18Z</time>
      </trkpt>
      <trkpt lat="59.288907" lon="18.088235">
        <ele>38</ele>
        <time>2020-01-12T06:42:19Z</time>
      </trkpt>
      <trkpt lat="59.28896" lon="18.088211">
        <ele>38</ele>
        <time>2020-01-12T06:42:20Z</time>
      </trkpt>
      <trkpt lat="59.289012" lon="18.088186">
        <ele>38</ele>
        <time>2020-01-12T06:42:21Z</time>
      </trkpt>
      <trkpt lat="59.289067" lon="18.08816">
        <ele>38</ele>
        <time>2020-01-12T06:42:22Z</time>
      </trkpt>
      <trkpt lat="59.289122" lon="18.088133">
        <ele>38</ele>
        <time>2020-01-12T06:42:23Z</time>
      </trkpt>
      <trkpt lat="59.289179" lon="18.088105">
        <ele>38</ele>
        <time>2020-01-12T06:42:24Z</time>
      </trkpt>
      <trkpt lat="59.289236" lon="18.088075">
        <ele>38</ele>
        <time>2020-01-12T06:42:25Z</time>
      </trkpt>
      <trkpt lat="59.289293" lon="18.088047">
        <ele>38</ele>
        <time>2020-01-12T06:42:26Z</time>
      </trkpt>
      <trkpt lat="59.28935" lon="18.088021">
        <ele>38</ele>
        <time>2020-01-12T06:42:27Z</time>
      </trkpt>
      <trkpt lat="59.289407" lon="18.087994">
        <ele>38</ele>
        <time>2020-01-12T06:42:28Z</time>
      </trkpt>
      <trkpt lat="59.289463" lon="18.087966">
        <ele>38</ele>
        <time>2020-01-12T06:42:29Z</time>
      </trkpt>
      <trkpt lat="59.289519" lon="18.087938">
        <ele>38</ele>
        <time>2020-01-12T06:42:30Z</time>
      </trkpt>
      <trkpt lat="59.289575" lon="18.087912">
        <ele>38</ele>
        <time>2020-01-12T06:42:31Z</time>
      </trkpt>
      <trkpt lat="59.289631" lon="18.087885">
        <ele>38</ele>
        <time>2020-01-12T06:42:32Z</time>
      </trkpt>
      <trkpt lat="59.289688" lon="18.087857">
        <ele>38</ele>
        <time>2020-01-12T06:42:33Z</time>
      </trkpt>
      <trkpt lat="59.289744" lon="18.087829">
        <ele>38</ele>
        <time>2020-01-12T06:42:34Z</time>
      </trkpt>
      <trkpt lat="59.289799" lon="18.0878">
        <ele>38</ele>
        <time>2020-01-12T06:42:35Z</time>
      </trkpt>
      <trkpt lat="59.289855" lon="18.08777">
        <ele>38</ele>
        <time>2020-01-12T06:42:36Z</time>
      </trkpt>
      <trkpt lat="59.28991" lon="18.087741">
        <ele>38</ele>
        <time>2020-01-12T06:42:37Z</time>
      </trkpt>
      <trkpt lat="59.289964" lon="18.087704">
        <ele>38</ele>
        <time>2020-01-12T06:42:38Z</time>
      </trkpt>
      <trkpt lat="59.290016" lon="18.087659">
        <ele>38</ele>
        <time>2020-01-12T06:42:39Z</time>
      </trkpt>
      <trkpt lat="59.290067" lon="18.087611">
        <ele>37</ele>
        <time>2020-01-12T06:42:40Z</time>
      </trkpt>
      <trkpt lat="59.290119" lon="18.087566">
        <ele>37</ele>
        <time>2020-01-12T06:42:41Z</time>
      </trkpt>
      <trkpt lat="59.290171" lon="18.087526">
        <ele>37</ele>
        <time>2020-01-12T06:42:42Z</time>
      </trkpt>
      <trkpt lat="59.290222" lon="18.087489">
        <ele>37</ele>
        <time>2020-01-12T06:42:43Z</time>
      </trkpt>
      <trkpt lat="59.290272" lon="18.08745">
        <ele>37</ele>
        <time>2020-01-12T06:42:44Z</time>
      </trkpt>
      <trkpt lat="59.290321" lon="18.087413">
        <ele>37</ele>
        <time>2020-01-12T06:42:45Z</time>
      </trkpt>
      <trkpt lat="59.290369" lon="18.087375">
        <ele>38</ele>
        <time>2020-01-12T06:42:46Z</time>
      </trkpt>
      <trkpt lat="59.290418" lon="18.087338">
        <ele>38</ele>
        <time>2020-01-12T06:42:47Z</time>
      </trkpt>
      <trkpt lat="59.290467" lon="18.087302">
        <ele>0</ele>
        <time>2020-01-12T06:42:47Z</time>
      </trkpt>
      <trkpt lat="59.290517" lon="18.087267">
        <ele>38</ele>
        <time>2020-01-12T06:42:48Z</time>
      </trkpt>
      <trkpt lat="59.290566" lon="18.087235">
        <ele>38</ele>
        <time>2020-01-12T06:42:50Z</time>
      </trkpt>
      <trkpt lat="59.290616" lon="18.087206">
        <ele>38</ele>
        <time>2020-01-12T06:42:51Z</time>
      </trkpt>
      <trkpt lat="59.290666" lon="18.087179">
        <ele>38</ele>
        <time>2020-01-12T06:42:52Z</time>
      </trkpt>
      <trkpt lat="59.290716" lon="18.087151">
        <ele>38</ele>
        <time>2020-01-12T06:42:53Z</time>
      </trkpt>
      <trkpt lat="59.290765" lon="18.087126">
        <ele>39</ele>
        <time>2020-01-12T06:42:54Z</time>
      </trkpt>
      <trkpt lat="59.290813" lon="18.087099">
        <ele>39</ele>
        <time>2020-01-12T06:42:55Z</time>
      </trkpt>
      <trkpt lat="59.290862" lon="18.087072">
        <ele>39</ele>
        <time>2020-01-12T06:42:56Z</time>
      </trkpt>
      <trkpt lat="59.290911" lon="18.087044">
        <ele>39</ele>
        <time>2020-01-12T06:42:57Z</time>
      </trkpt>
      <trkpt lat="59.29096" lon="18.087018">
        <ele>39</ele>
        <time>2020-01-12T06:42:58Z</time>
      </trkpt>
      <trkpt lat="59.291008" lon="18.086993">
        <ele>40</ele>
        <time>2020-01-12T06:42:59Z</time>
      </trkpt>
      <trkpt lat="59.291056" lon="18.086968">
        <ele>40</ele>
        <time>2020-01-12T06:43:00Z</time>
      </trkpt>
      <trkpt lat="59.291103" lon="18.086946">
        <ele>40</ele>
        <time>2020-01-12T06:43:01Z</time>
      </trkpt>
      <trkpt lat="59.291148" lon="18.086921">
        <ele>41</ele>
        <time>2020-01-12T06:43:02Z</time>
      </trkpt>
      <trkpt lat="59.291193" lon="18.086894">
        <ele>41</ele>
        <time>2020-01-12T06:43:03Z</time>
      </trkpt>
      <trkpt lat="59.291237" lon="18.086866">
        <ele>42</ele>
        <time>2020-01-12T06:43:04Z</time>
      </trkpt>
      <trkpt lat="59.291281" lon="18.086836">
        <ele>42</ele>
        <time>2020-01-12T06:43:05Z</time>
      </trkpt>
      <trkpt lat="59.291325" lon="18.08681">
        <ele>42</ele>
        <time>2020-01-12T06:43:06Z</time>
      </trkpt>
      <trkpt lat="59.291371" lon="18.086786">
        <ele>42</ele>
        <time>2020-01-12T06:43:07Z</time>
      </trkpt>
      <trkpt lat="59.291418" lon="18.086763">
        <ele>42</ele>
        <time>2020-01-12T06:43:08Z</time>
      </trkpt>
      <trkpt lat="59.291464" lon="18.08674">
        <ele>43</ele>
        <time>2020-01-12T06:43:09Z</time>
      </trkpt>
      <trkpt lat="59.29151" lon="18.086717">
        <ele>43</ele>
        <time>2020-01-12T06:43:10Z</time>
      </trkpt>
      <trkpt lat="59.291556" lon="18.086696">
        <ele>43</ele>
        <time>2020-01-12T06:43:11Z</time>
      </trkpt>
      <trkpt lat="59.2916" lon="18.086673">
        <ele>43</ele>
        <time>2020-01-12T06:43:12Z</time>
      </trkpt>
      <trkpt lat="59.291644" lon="18.086648">
        <ele>44</ele>
        <time>2020-01-12T06:43:13Z</time>
      </trkpt>
      <trkpt lat="59.291687" lon="18.086623">
        <ele>44</ele>
        <time>2020-01-12T06:43:14Z</time>
      </trkpt>
      <trkpt lat="59.291728" lon="18.086599">
        <ele>44</ele>
        <time>2020-01-12T06:43:15Z</time>
      </trkpt>
      <trkpt lat="59.291769" lon="18.086573">
        <ele>45</ele>
        <time>2020-01-12T06:43:16Z</time>
      </trkpt>
      <trkpt lat="59.291811" lon="18.086551">
        <ele>45</ele>
        <time>2020-01-12T06:43:17Z</time>
      </trkpt>
      <trkpt lat="59.291852" lon="18.086531">
        <ele>45</ele>
        <time>2020-01-12T06:43:18Z</time>
      </trkpt>
      <trkpt lat="59.291893" lon="18.08651">
        <ele>45</ele>
        <time>2020-01-12T06:43:19Z</time>
      </trkpt>
      <trkpt lat="59.291935" lon="18.08649">
        <ele>45</ele>
        <time>2020-01-12T06:43:20Z</time>
      </trkpt>
      <trkpt lat="59.291978" lon="18.086469">
        <ele>46</ele>
        <time>2020-01-12T06:43:21Z</time>
      </trkpt>
      <trkpt lat="59.292021" lon="18.086444">
        <ele>46</ele>
        <time>2020-01-12T06:43:22Z</time>
      </trkpt>
      <trkpt lat="59.292065" lon="18.086421">
        <ele>46</ele>
        <time>2020-01-12T06:43:23Z</time>
      </trkpt>
      <trkpt lat="59.292109" lon="18.086396">
        <ele>46</ele>
        <time>2020-01-12T06:43:24Z</time>
      </trkpt>
      <trkpt lat="59.292152" lon="18.086374">
        <ele>47</ele>
        <time>2020-01-12T06:43:25Z</time>
      </trkpt>
      <trkpt lat="59.292195" lon="18.086352">
        <ele>47</ele>
        <time>2020-01-12T06:43:26Z</time>
      </trkpt>
      <trkpt lat="59.292238" lon="18.086326">
        <ele>47</ele>
        <time>2020-01-12T06:43:27Z</time>
      </trkpt>
      <trkpt lat="59.292282" lon="18.086301">
        <ele>47</ele>
        <time>2020-01-12T06:43:28Z</time>
      </trkpt>
      <trkpt lat="59.292326" lon="18.086276">
        <ele>47</ele>
        <time>2020-01-12T06:43:29Z</time>
      </trkpt>
      <trkpt lat="59.292371" lon="18.086253">
        <ele>47</ele>
        <time>2020-01-12T06:43:30Z</time>
      </trkpt>
      <trkpt lat="59.292417" lon="18.086233">
        <ele>48</ele>
        <time>2020-01-12T06:43:31Z</time>
      </trkpt>
      <trkpt lat="59.292463" lon="18.086207">
        <ele>48</ele>
        <time>2020-01-12T06:43:32Z</time>
      </trkpt>
      <trkpt lat="59.292509" lon="18.086182">
        <ele>48</ele>
        <time>2020-01-12T06:43:33Z</time>
      </trkpt>
      <trkpt lat="59.292555" lon="18.086158">
        <ele>48</ele>
        <time>2020-01-12T06:43:34Z</time>
      </trkpt>
      <trkpt lat="59.292602" lon="18.086133">
        <ele>48</ele>
        <time>2020-01-12T06:43:35Z</time>
      </trkpt>
      <trkpt lat="59.29265" lon="18.086107">
        <ele>48</ele>
        <time>2020-01-12T06:43:36Z</time>
      </trkpt>
      <trkpt lat="59.292698" lon="18.08608">
        <ele>48</ele>
        <time>2020-01-12T06:43:37Z</time>
      </trkpt>
      <trkpt lat="59.292748" lon="18.086055">
        <ele>48</ele>
        <time>2020-01-12T06:43:38Z</time>
      </trkpt>
      <trkpt lat="59.292799" lon="18.086029">
        <ele>48</ele>
        <time>2020-01-12T06:43:39Z</time>
      </trkpt>
      <trkpt lat="59.292851" lon="18.086005">
        <ele>48</ele>
        <time>2020-01-12T06:43:40Z</time>
      </trkpt>
      <trkpt lat="59.292903" lon="18.085978">
        <ele>48</ele>
        <time>2020-01-12T06:43:41Z</time>
      </trkpt>
      <trkpt lat="59.292959" lon="18.085957">
        <ele>48</ele>
        <time>2020-01-12T06:43:42Z</time>
      </trkpt>
      <trkpt lat="59.293016" lon="18.085939">
        <ele>48</ele>
        <time>2020-01-12T06:43:43Z</time>
      </trkpt>
      <trkpt lat="59.293071" lon="18.085911">
        <ele>47</ele>
        <time>2020-01-12T06:43:44Z</time>
      </trkpt>
      <trkpt lat="59.293128" lon="18.085882">
        <ele>47</ele>
        <time>2020-01-12T06:43:45Z</time>
      </trkpt>
      <trkpt lat="59.293186" lon="18.085854">
        <ele>47</ele>
        <time>2020-01-12T06:43:46Z</time>
      </trkpt>
      <trkpt lat="59.293243" lon="18.085824">
        <ele>47</ele>
        <time>2020-01-12T06:43:47Z</time>
      </trkpt>
      <trkpt lat="59.293301" lon="18.085793">
        <ele>47</ele>
        <time>2020-01-12T06:43:48Z</time>
      </trkpt>
      <trkpt lat="59.293361" lon="18.085763">
        <ele>47</ele>
        <time>2020-01-12T06:43:49Z</time>
      </trkpt>
      <trkpt lat="59.293421" lon="18.085732">
        <ele>47</ele>
        <time>2020-01-12T06:43:50Z</time>
      </trkpt>
      <trkpt lat="59.29348" lon="18.085696">
        <ele>47</ele>
        <time>2020-01-12T06:43:51Z</time>
      </trkpt>
      <trkpt lat="59.293541" lon="18.085659">
        <ele>47</ele>
        <time>2020-01-12T06:43:52Z</time>
      </trkpt>
      <trkpt lat="59.293602" lon="18.085623">
        <ele>47</ele>
        <time>2020-01-12T06:43:53Z</time>
      </trkpt>
      <trkpt lat="59.293664" lon="18.085587">
        <ele>47</ele>
        <time>2020-01-12T06:43:54Z</time>
      </trkpt>
      <trkpt lat="59.293726" lon="18.085551">
        <ele>47</ele>
        <time>2020-01-12T06:43:55Z</time>
      </trkpt>
      <trkpt lat="59.293788" lon="18.085514">
        <ele>48</ele>
        <time>2020-01-12T06:43:56Z</time>
      </trkpt>
      <trkpt lat="59.293849" lon="18.085476">
        <ele>48</ele>
        <time>2020-01-12T06:43:57Z</time>
      </trkpt>
      <trkpt lat="59.293912" lon="18.085439">
        <ele>48</ele>
        <time>2020-01-12T06:43:58Z</time>
      </trkpt>
      <trkpt lat="59.293976" lon="18.085402">
        <ele>48</ele>
        <time>2020-01-12T06:43:59Z</time>
      </trkpt>
      <trkpt lat="59.29404" lon="18.085368">
        <ele>48</ele>
        <time>2020-01-12T06:44:00Z</time>
      </trkpt>
      <trkpt lat="59.294102" lon="18.085331">
        <ele>48</ele>
        <time>2020-01-12T06:44:01Z</time>
      </trkpt>
      <trkpt lat="59.294164" lon="18.085297">
        <ele>48</ele>
        <time>2020-01-12T06:44:02Z</time>
      </trkpt>
      <trkpt lat="59.294225" lon="18.085264">
        <ele>48</ele>
        <time>2020-01-12T06:44:03Z</time>
      </trkpt>
      <trkpt lat="59.294284" lon="18.085235">
        <ele>0</ele>
        <time>2020-01-12T06:44:03Z</time>
      </trkpt>
      <trkpt lat="59.294336" lon="18.085203">
        <ele>48</ele>
        <time>2020-01-12T06:44:04Z</time>
      </trkpt>
      <trkpt lat="59.294384" lon="18.085167">
        <ele>48</ele>
        <time>2020-01-12T06:44:06Z</time>
      </trkpt>
      <trkpt lat="59.294429" lon="18.085134">
        <ele>48</ele>
        <time>2020-01-12T06:44:07Z</time>
      </trkpt>
      <trkpt lat="59.294538" lon="18.085024">
        <ele>48</ele>
        <time>2020-01-12T06:44:09Z</time>
      </trkpt>
      <trkpt lat="59.294657" lon="18.084852">
        <ele>48</ele>
        <time>2020-01-12T06:44:11Z</time>
      </trkpt>
      <trkpt lat="59.294717" lon="18.084795">
        <ele>48</ele>
        <time>2020-01-12T06:44:12Z</time>
      </trkpt>
      <trkpt lat="59.294778" lon="18.084764">
        <ele>49</ele>
        <time>2020-01-12T06:44:13Z</time>
      </trkpt>
      <trkpt lat="59.29484" lon="18.084745">
        <ele>49</ele>
        <time>2020-01-12T06:44:14Z</time>
      </trkpt>
      <trkpt lat="59.294899" lon="18.084724">
        <ele>49</ele>
        <time>2020-01-12T06:44:15Z</time>
      </trkpt>
      <trkpt lat="59.294957" lon="18.084703">
        <ele>49</ele>
        <time>2020-01-12T06:44:16Z</time>
      </trkpt>
      <trkpt lat="59.295013" lon="18.084683">
        <ele>49</ele>
        <time>2020-01-12T06:44:17Z</time>
      </trkpt>
      <trkpt lat="59.295068" lon="18.084661">
        <ele>49</ele>
        <time>2020-01-12T06:44:18Z</time>
      </trkpt>
      <trkpt lat="59.295121" lon="18.084642">
        <ele>49</ele>
        <time>2020-01-12T06:44:19Z</time>
      </trkpt>
      <trkpt lat="59.295174" lon="18.084622">
        <ele>49</ele>
        <time>2020-01-12T06:44:20Z</time>
      </trkpt>
      <trkpt lat="59.295228" lon="18.084597">
        <ele>49</ele>
        <time>2020-01-12T06:44:21Z</time>
      </trkpt>
      <trkpt lat="59.29528" lon="18.08457">
        <ele>48</ele>
        <time>2020-01-12T06:44:22Z</time>
      </trkpt>
      <trkpt lat="59.295334" lon="18.084547">
        <ele>48</ele>
        <time>2020-01-12T06:44:23Z</time>
      </trkpt>
      <trkpt lat="59.295388" lon="18.084525">
        <ele>48</ele>
        <time>2020-01-12T06:44:24Z</time>
      </trkpt>
      <trkpt lat="59.295442" lon="18.084502">
        <ele>48</ele>
        <time>2020-01-12T06:44:25Z</time>
      </trkpt>
      <trkpt lat="59.295494" lon="18.084478">
        <ele>48</ele>
        <time>2020-01-12T06:44:26Z</time>
      </trkpt>
      <trkpt lat="59.295545" lon="18.08445">
        <ele>48</ele>
        <time>2020-01-12T06:44:27Z</time>
      </trkpt>
      <trkpt lat="59.295597" lon="18.084422">
        <ele>48</ele>
        <time>2020-01-12T06:44:28Z</time>
      </trkpt>
      <trkpt lat="59.295647" lon="18.084392">
        <ele>48</ele>
        <time>2020-01-12T06:44:29Z</time>
      </trkpt>
      <trkpt lat="59.295699" lon="18.084365">
        <ele>48</ele>
        <time>2020-01-12T06:44:30Z</time>
      </trkpt>
      <trkpt lat="59.295751" lon="18.08434">
        <ele>48</ele>
        <time>2020-01-12T06:44:31Z</time>
      </trkpt>
      <trkpt lat="59.295803" lon="18.084317">
        <ele>47</ele>
        <time>2020-01-12T06:44:32Z</time>
      </trkpt>
      <trkpt lat="59.295858" lon="18.084297">
        <ele>47</ele>
        <time>2020-01-12T06:44:33Z</time>
      </trkpt>
      <trkpt lat="59.295912" lon="18.084276">
        <ele>47</ele>
        <time>2020-01-12T06:44:34Z</time>
      </trkpt>
      <trkpt lat="59.295963" lon="18.084247">
        <ele>47</ele>
        <time>2020-01-12T06:44:35Z</time>
      </trkpt>
      <trkpt lat="59.296015" lon="18.084216">
        <ele>47</ele>
        <time>2020-01-12T06:44:36Z</time>
      </trkpt>
      <trkpt lat="59.296068" lon="18.084187">
        <ele>46</ele>
        <time>2020-01-12T06:44:37Z</time>
      </trkpt>
      <trkpt lat="59.296121" lon="18.084158">
        <ele>46</ele>
        <time>2020-01-12T06:44:38Z</time>
      </trkpt>
      <trkpt lat="59.296176" lon="18.084128">
        <ele>46</ele>
        <time>2020-01-12T06:44:39Z</time>
      </trkpt>
      <trkpt lat="59.296233" lon="18.084102">
        <ele>46</ele>
        <time>2020-01-12T06:44:40Z</time>
      </trkpt>
      <trkpt lat="59.29629" lon="18.084092">
        <ele>46</ele>
        <time>2020-01-12T06:44:41Z</time>
      </trkpt>
      <trkpt lat="59.296347" lon="18.084117">
        <ele>45</ele>
        <time>2020-01-12T06:44:42Z</time>
      </trkpt>
      <trkpt lat="59.296399" lon="18.084185">
        <ele>45</ele>
        <time>2020-01-12T06:44:43Z</time>
      </trkpt>
      <trkpt lat="59.296438" lon="18.084277">
        <ele>45</ele>
        <time>2020-01-12T06:44:44Z</time>
      </trkpt>
      <trkpt lat="59.296465" lon="18.084384">
        <ele>45</ele>
        <time>2020-01-12T06:44:45Z</time>
      </trkpt>
      <trkpt lat="59.29649" lon="18.084488">
        <ele>45</ele>
        <time>2020-01-12T06:44:46Z</time>
      </trkpt>
      <trkpt lat="59.296525" lon="18.084567">
        <ele>45</ele>
        <time>2020-01-12T06:44:47Z</time>
      </trkpt>
      <trkpt lat="59.29657" lon="18.084613">
        <ele>45</ele>
        <time>2020-01-12T06:44:48Z</time>
      </trkpt>
      <trkpt lat="59.29662" lon="18.084631">
        <ele>45</ele>
        <time>2020-01-12T06:44:49Z</time>
      </trkpt>
      <trkpt lat="59.296672" lon="18.084635">
        <ele>45</ele>
        <time>2020-01-12T06:44:50Z</time>
      </trkpt>
      <trkpt lat="59.296725" lon="18.084634">
        <ele>45</ele>
        <time>2020-01-12T06:44:51Z</time>
      </trkpt>
      <trkpt lat="59.296778" lon="18.084634">
        <ele>45</ele>
        <time>2020-01-12T06:44:52Z</time>
      </trkpt>
      <trkpt lat="59.296834" lon="18.084639">
        <ele>45</ele>
        <time>2020-01-12T06:44:53Z</time>
      </trkpt>
      <trkpt lat="59.296892" lon="18.084648">
        <ele>45</ele>
        <time>2020-01-12T06:44:54Z</time>
      </trkpt>
      <trkpt lat="59.296952" lon="18.084651">
        <ele>44</ele>
        <time>2020-01-12T06:44:55Z</time>
      </trkpt>
      <trkpt lat="59.297014" lon="18.084641">
        <ele>44</ele>
        <time>2020-01-12T06:44:56Z</time>
      </trkpt>
      <trkpt lat="59.297075" lon="18.084609">
        <ele>44</ele>
        <time>2020-01-12T06:44:57Z</time>
      </trkpt>
      <trkpt lat="59.297131" lon="18.084545">
        <ele>43</ele>
        <time>2020-01-12T06:44:58Z</time>
      </trkpt>
      <trkpt lat="59.297178" lon="18.084455">
        <ele>43</ele>
        <time>2020-01-12T06:44:59Z</time>
      </trkpt>
      <trkpt lat="59.297217" lon="18.084344">
        <ele>42</ele>
        <time>2020-01-12T06:45:00Z</time>
      </trkpt>
      <trkpt lat="59.297245" lon="18.084215">
        <ele>42</ele>
        <time>2020-01-12T06:45:01Z</time>
      </trkpt>
      <trkpt lat="59.297262" lon="18.084072">
        <ele>42</ele>
        <time>2020-01-12T06:45:02Z</time>
      </trkpt>
      <trkpt lat="59.297268" lon="18.083924">
        <ele>42</ele>
        <time>2020-01-12T06:45:03Z</time>
      </trkpt>
      <trkpt lat="59.297265" lon="18.08378">
        <ele>42</ele>
        <time>2020-01-12T06:45:04Z</time>
      </trkpt>
      <trkpt lat="59.297258" lon="18.083643">
        <ele>42</ele>
        <time>2020-01-12T06:45:05Z</time>
      </trkpt>
      <trkpt lat="59.297261" lon="18.083516">
        <ele>42</ele>
        <time>2020-01-12T06:45:06Z</time>
      </trkpt>
      <trkpt lat="59.297283" lon="18.083406">
        <ele>42</ele>
        <time>2020-01-12T06:45:07Z</time>
      </trkpt>
      <trkpt lat="59.297322" lon="18.083322">
        <ele>42</ele>
        <time>2020-01-12T06:45:08Z</time>
      </trkpt>
      <trkpt lat="59.297374" lon="18.083264">
        <ele>42</ele>
        <time>2020-01-12T06:45:09Z</time>
      </trkpt>
      <trkpt lat="59.297433" lon="18.083221">
        <ele>42</ele>
        <time>2020-01-12T06:45:10Z</time>
      </trkpt>
      <trkpt lat="59.297494" lon="18.083182">
        <ele>42</ele>
        <time>2020-01-12T06:45:11Z</time>
      </trkpt>
      <trkpt lat="59.297557" lon="18.083142">
        <ele>42</ele>
        <time>2020-01-12T06:45:12Z</time>
      </trkpt>
      <trkpt lat="59.297621" lon="18.083104">
        <ele>42</ele>
        <time>2020-01-12T06:45:13Z</time>
      </trkpt>
      <trkpt lat="59.297686" lon="18.08307">
        <ele>42</ele>
        <time>2020-01-12T06:45:14Z</time>
      </trkpt>
      <trkpt lat="59.297752" lon="18.083052">
        <ele>41</ele>
        <time>2020-01-12T06:45:15Z</time>
      </trkpt>
      <trkpt lat="59.297819" lon="18.083047">
        <ele>41</ele>
        <time>2020-01-12T06:45:16Z</time>
      </trkpt>
      <trkpt lat="59.297887" lon="18.083042">
        <ele>41</ele>
        <time>2020-01-12T06:45:17Z</time>
      </trkpt>
      <trkpt lat="59.297958" lon="18.083028">
        <ele>41</ele>
        <time>2020-01-12T06:45:18Z</time>
      </trkpt>
      <trkpt lat="59.29803" lon="18.083002">
        <ele>41</ele>
        <time>2020-01-12T06:45:19Z</time>
      </trkpt>
      <trkpt lat="59.298102" lon="18.082962">
        <ele>40</ele>
        <time>2020-01-12T06:45:20Z</time>
      </trkpt>
      <trkpt lat="59.298175" lon="18.082912">
        <ele>40</ele>
        <time>2020-01-12T06:45:21Z</time>
      </trkpt>
      <trkpt lat="59.298249" lon="18.082856">
        <ele>40</ele>
        <time>2020-01-12T06:45:22Z</time>
      </trkpt>
      <trkpt lat="59.298322" lon="18.082792">
        <ele>40</ele>
        <time>2020-01-12T06:45:23Z</time>
      </trkpt>
      <trkpt lat="59.298391" lon="18.082722">
        <ele>40</ele>
        <time>2020-01-12T06:45:24Z</time>
      </trkpt>
      <trkpt lat="59.29846" lon="18.082648">
        <ele>40</ele>
        <time>2020-01-12T06:45:25Z</time>
      </trkpt>
      <trkpt lat="59.298529" lon="18.082578">
        <ele>39</ele>
        <time>2020-01-12T06:45:26Z</time>
      </trkpt>
      <trkpt lat="59.298601" lon="18.082518">
        <ele>39</ele>
        <time>2020-01-12T06:45:27Z</time>
      </trkpt>
      <trkpt lat="59.298675" lon="18.082468">
        <ele>39</ele>
        <time>2020-01-12T06:45:28Z</time>
      </trkpt>
      <trkpt lat="59.298751" lon="18.082422">
        <ele>39</ele>
        <time>2020-01-12T06:45:29Z</time>
      </trkpt>
      <trkpt lat="59.298827" lon="18.082375">
        <ele>39</ele>
        <time>2020-01-12T06:45:30Z</time>
      </trkpt>
      <trkpt lat="59.298903" lon="18.082325">
        <ele>38</ele>
        <time>2020-01-12T06:45:31Z</time>
      </trkpt>
      <trkpt lat="59.298979" lon="18.082276">
        <ele>38</ele>
        <time>2020-01-12T06:45:32Z</time>
      </trkpt>
      <trkpt lat="59.299057" lon="18.08224">
        <ele>38</ele>
        <time>2020-01-12T06:45:33Z</time>
      </trkpt>
      <trkpt lat="59.299134" lon="18.082222">
        <ele>38</ele>
        <time>2020-01-12T06:45:34Z</time>
      </trkpt>
      <trkpt lat="59.299211" lon="18.082222">
        <ele>38</ele>
        <time>2020-01-12T06:45:35Z</time>
      </trkpt>
      <trkpt lat="59.299286" lon="18.082234">
        <ele>38</ele>
        <time>2020-01-12T06:45:36Z</time>
      </trkpt>
      <trkpt lat="59.299361" lon="18.082252">
        <ele>38</ele>
        <time>2020-01-12T06:45:37Z</time>
      </trkpt>
      <trkpt lat="59.299429" lon="18.082254">
        <ele>39</ele>
        <time>2020-01-12T06:45:38Z</time>
      </trkpt>
      <trkpt lat="59.299495" lon="18.08222">
        <ele>39</ele>
        <time>2020-01-12T06:45:39Z</time>
      </trkpt>
      <trkpt lat="59.29956" lon="18.082174">
        <ele>39</ele>
        <time>2020-01-12T06:45:40Z</time>
      </trkpt>
      <trkpt lat="59.299634" lon="18.082128">
        <ele>39</ele>
        <time>2020-01-12T06:45:41Z</time>
      </trkpt>
      <trkpt lat="59.299713" lon="18.082084">
        <ele>39</ele>
        <time>2020-01-12T06:45:42Z</time>
      </trkpt>
      <trkpt lat="59.299789" lon="18.082038">
        <ele>39</ele>
        <time>2020-01-12T06:45:43Z</time>
      </trkpt>
      <trkpt lat="59.299863" lon="18.081992">
        <ele>39</ele>
        <time>2020-01-12T06:45:44Z</time>
      </trkpt>
      <trkpt lat="59.299936" lon="18.081942">
        <ele>39</ele>
        <time>2020-01-12T06:45:45Z</time>
      </trkpt>
      <trkpt lat="59.300007" lon="18.081886">
        <ele>39</ele>
        <time>2020-01-12T06:45:46Z</time>
      </trkpt>
      <trkpt lat="59.300076" lon="18.081829">
        <ele>39</ele>
        <time>2020-01-12T06:45:47Z</time>
      </trkpt>
      <trkpt lat="59.300144" lon="18.081776">
        <ele>39</ele>
        <time>2020-01-12T06:45:48Z</time>
      </trkpt>
      <trkpt lat="59.300213" lon="18.081734">
        <ele>39</ele>
        <time>2020-01-12T06:45:49Z</time>
      </trkpt>
      <trkpt lat="59.300282" lon="18.081698">
        <ele>39</ele>
        <time>2020-01-12T06:45:50Z</time>
      </trkpt>
      <trkpt lat="59.30035" lon="18.081664">
        <ele>39</ele>
        <time>2020-01-12T06:45:51Z</time>
      </trkpt>
      <trkpt lat="59.300416" lon="18.081628">
        <ele>39</ele>
        <time>2020-01-12T06:45:52Z</time>
      </trkpt>
      <trkpt lat="59.300482" lon="18.081588">
        <ele>39</ele>
        <time>2020-01-12T06:45:53Z</time>
      </trkpt>
      <trkpt lat="59.300547" lon="18.081545">
        <ele>39</ele>
        <time>2020-01-12T06:45:54Z</time>
      </trkpt>
      <trkpt lat="59.30061" lon="18.0815">
        <ele>39</ele>
        <time>2020-01-12T06:45:55Z</time>
      </trkpt>
      <trkpt lat="59.300672" lon="18.081454">
        <ele>39</ele>
        <time>2020-01-12T06:45:56Z</time>
      </trkpt>
      <trkpt lat="59.300733" lon="18.081404">
        <ele>39</ele>
        <time>2020-01-12T06:45:57Z</time>
      </trkpt>
      <trkpt lat="59.300796" lon="18.08135">
        <ele>39</ele>
        <time>2020-01-12T06:45:58Z</time>
      </trkpt>
      <trkpt lat="59.300862" lon="18.08129">
        <ele>39</ele>
        <time>2020-01-12T06:45:59Z</time>
      </trkpt>
      <trkpt lat="59.300928" lon="18.081226">
        <ele>39</ele>
        <time>2020-01-12T06:46:00Z</time>
      </trkpt>
      <trkpt lat="59.300993" lon="18.081158">
        <ele>39</ele>
        <time>2020-01-12T06:46:01Z</time>
      </trkpt>
      <trkpt lat="59.301059" lon="18.081089">
        <ele>39</ele>
        <time>2020-01-12T06:46:02Z</time>
      </trkpt>
      <trkpt lat="59.301125" lon="18.08102">
        <ele>39</ele>
        <time>2020-01-12T06:46:03Z</time>
      </trkpt>
      <trkpt lat="59.30119" lon="18.080955">
        <ele>39</ele>
        <time>2020-01-12T06:46:04Z</time>
      </trkpt>
      <trkpt lat="59.301256" lon="18.08089">
        <ele>39</ele>
        <time>2020-01-12T06:46:05Z</time>
      </trkpt>
      <trkpt lat="59.301323" lon="18.080828">
        <ele>39</ele>
        <time>2020-01-12T06:46:06Z</time>
      </trkpt>
      <trkpt lat="59.30139" lon="18.080768">
        <ele>39</ele>
        <time>2020-01-12T06:46:07Z</time>
      </trkpt>
      <trkpt lat="59.301457" lon="18.080711">
        <ele>39</ele>
        <time>2020-01-12T06:46:08Z</time>
      </trkpt>
      <trkpt lat="59.301524" lon="18.080656">
        <ele>39</ele>
        <time>2020-01-12T06:46:09Z</time>
      </trkpt>
      <trkpt lat="59.301591" lon="18.080603">
        <ele>39</ele>
        <time>2020-01-12T06:46:10Z</time>
      </trkpt>
      <trkpt lat="59.301659" lon="18.080552">
        <ele>39</ele>
        <time>2020-01-12T06:46:11Z</time>
      </trkpt>
      <trkpt lat="59.301725" lon="18.080502">
        <ele>39</ele>
        <time>2020-01-12T06:46:12Z</time>
      </trkpt>
      <trkpt lat="59.30179" lon="18.080452">
        <ele>38</ele>
        <time>2020-01-12T06:46:13Z</time>
      </trkpt>
      <trkpt lat="59.301855" lon="18.080405">
        <ele>38</ele>
        <time>2020-01-12T06:46:14Z</time>
      </trkpt>
      <trkpt lat="59.301919" lon="18.080359">
        <ele>38</ele>
        <time>2020-01-12T06:46:15Z</time>
      </trkpt>
      <trkpt lat="59.301983" lon="18.080315">
        <ele>38</ele>
        <time>2020-01-12T06:46:16Z</time>
      </trkpt>
      <trkpt lat="59.302048" lon="18.080272">
        <ele>38</ele>
        <time>2020-01-12T06:46:17Z</time>
      </trkpt>
      <trkpt lat="59.302113" lon="18.080232">
        <ele>37</ele>
        <time>2020-01-12T06:46:18Z</time>
      </trkpt>
      <trkpt lat="59.302178" lon="18.080194">
        <ele>37</ele>
        <time>2020-01-12T06:46:19Z</time>
      </trkpt>
      <trkpt lat="59.302243" lon="18.080155">
        <ele>37</ele>
        <time>2020-01-12T06:46:20Z</time>
      </trkpt>
      <trkpt lat="59.302309" lon="18.080114">
        <ele>37</ele>
        <time>2020-01-12T06:46:21Z</time>
      </trkpt>
      <trkpt lat="59.302375" lon="18.080074">
        <ele>37</ele>
        <time>2020-01-12T06:46:22Z</time>
      </trkpt>
      <trkpt lat="59.30244" lon="18.080034">
        <ele>37</ele>
        <time>2020-01-12T06:46:23Z</time>
      </trkpt>
      <trkpt lat="59.302506" lon="18.079995">
        <ele>37</ele>
        <time>2020-01-12T06:46:24Z</time>
      </trkpt>
      <trkpt lat="59.30257" lon="18.079955">
        <ele>36</ele>
        <time>2020-01-12T06:46:25Z</time>
      </trkpt>
      <trkpt lat="59.302635" lon="18.079913">
        <ele>36</ele>
        <time>2020-01-12T06:46:26Z</time>
      </trkpt>
      <trkpt lat="59.302699" lon="18.079873">
        <ele>36</ele>
        <time>2020-01-12T06:46:27Z</time>
      </trkpt>
      <trkpt lat="59.302764" lon="18.079833">
        <ele>36</ele>
        <time>2020-01-12T06:46:28Z</time>
      </trkpt>
      <trkpt lat="59.302829" lon="18.079792">
        <ele>36</ele>
        <time>2020-01-12T06:46:29Z</time>
      </trkpt>
      <trkpt lat="59.302895" lon="18.079752">
        <ele>36</ele>
        <time>2020-01-12T06:46:30Z</time>
      </trkpt>
      <trkpt lat="59.302962" lon="18.079712">
        <ele>36</ele>
        <time>2020-01-12T06:46:31Z</time>
      </trkpt>
      <trkpt lat="59.303029" lon="18.079669">
        <ele>36</ele>
        <time>2020-01-12T06:46:32Z</time>
      </trkpt>
      <trkpt lat="59.303097" lon="18.079625">
        <ele>36</ele>
        <time>2020-01-12T06:46:33Z</time>
      </trkpt>
      <trkpt lat="59.303165" lon="18.079582">
        <ele>35</ele>
        <time>2020-01-12T06:46:34Z</time>
      </trkpt>
      <trkpt lat="59.303234" lon="18.079538">
        <ele>35</ele>
        <time>2020-01-12T06:46:35Z</time>
      </trkpt>
      <trkpt lat="59.303302" lon="18.079494">
        <ele>35</ele>
        <time>2020-01-12T06:46:36Z</time>
      </trkpt>
      <trkpt lat="59.303371" lon="18.079452">
        <ele>35</ele>
        <time>2020-01-12T06:46:37Z</time>
      </trkpt>
      <trkpt lat="59.303441" lon="18.079409">
        <ele>35</ele>
        <time>2020-01-12T06:46:38Z</time>
      </trkpt>
      <trkpt lat="59.303512" lon="18.079365">
        <ele>35</ele>
        <time>2020-01-12T06:46:39Z</time>
      </trkpt>
      <trkpt lat="59.303584" lon="18.07932">
        <ele>34</ele>
        <time>2020-01-12T06:46:40Z</time>
      </trkpt>
      <trkpt lat="59.303658" lon="18.079275">
        <ele>34</ele>
        <time>2020-01-12T06:46:41Z</time>
      </trkpt>
      <trkpt lat="59.303732" lon="18.079229">
        <ele>34</ele>
        <time>2020-01-12T06:46:42Z</time>
      </trkpt>
      <trkpt lat="59.303808" lon="18.079181">
        <ele>34</ele>
        <time>2020-01-12T06:46:43Z</time>
      </trkpt>
      <trkpt lat="59.303884" lon="18.079133">
        <ele>33</ele>
        <time>2020-01-12T06:46:44Z</time>
      </trkpt>
      <trkpt lat="59.303961" lon="18.079083">
        <ele>33</ele>
        <time>2020-01-12T06:46:45Z</time>
      </trkpt>
      <trkpt lat="59.304041" lon="18.079032">
        <ele>33</ele>
        <time>2020-01-12T06:46:46Z</time>
      </trkpt>
      <trkpt lat="59.304122" lon="18.078979">
        <ele>33</ele>
        <time>2020-01-12T06:46:47Z</time>
      </trkpt>
      <trkpt lat="59.304205" lon="18.078927">
        <ele>32</ele>
        <time>2020-01-12T06:46:48Z</time>
      </trkpt>
      <trkpt lat="59.304289" lon="18.078874">
        <ele>32</ele>
        <time>2020-01-12T06:46:49Z</time>
      </trkpt>
      <trkpt lat="59.304374" lon="18.078821">
        <ele>31</ele>
        <time>2020-01-12T06:46:50Z</time>
      </trkpt>
      <trkpt lat="59.304461" lon="18.078766">
        <ele>31</ele>
        <time>2020-01-12T06:46:51Z</time>
      </trkpt>
      <trkpt lat="59.304548" lon="18.078711">
        <ele>31</ele>
        <time>2020-01-12T06:46:52Z</time>
      </trkpt>
      <trkpt lat="59.304636" lon="18.078655">
        <ele>30</ele>
        <time>2020-01-12T06:46:53Z</time>
      </trkpt>
      <trkpt lat="59.304725" lon="18.078599">
        <ele>30</ele>
        <time>2020-01-12T06:46:54Z</time>
      </trkpt>
      <trkpt lat="59.304814" lon="18.078541">
        <ele>29</ele>
        <time>2020-01-12T06:46:55Z</time>
      </trkpt>
      <trkpt lat="59.304906" lon="18.078483">
        <ele>29</ele>
        <time>2020-01-12T06:46:56Z</time>
      </trkpt>
      <trkpt lat="59.304998" lon="18.078425">
        <ele>28</ele>
        <time>2020-01-12T06:46:57Z</time>
      </trkpt>
      <trkpt lat="59.305093" lon="18.078366">
        <ele>28</ele>
        <time>2020-01-12T06:46:58Z</time>
      </trkpt>
      <trkpt lat="59.305188" lon="18.078307">
        <ele>28</ele>
        <time>2020-01-12T06:46:59Z</time>
      </trkpt>
      <trkpt lat="59.305283" lon="18.078246">
        <ele>27</ele>
        <time>2020-01-12T06:47:00Z</time>
      </trkpt>
      <trkpt lat="59.305378" lon="18.078186">
        <ele>27</ele>
        <time>2020-01-12T06:47:01Z</time>
      </trkpt>
      <trkpt lat="59.305472" lon="18.078127">
        <ele>26</ele>
        <time>2020-01-12T06:47:02Z</time>
      </trkpt>
      <trkpt lat="59.305566" lon="18.078067">
        <ele>26</ele>
        <time>2020-01-12T06:47:03Z</time>
      </trkpt>
      <trkpt lat="59.30566" lon="18.078009">
        <ele>25</ele>
        <time>2020-01-12T06:47:04Z</time>
      </trkpt>
      <trkpt lat="59.305754" lon="18.077951">
        <ele>25</ele>
        <time>2020-01-12T06:47:05Z</time>
      </trkpt>
      <trkpt lat="59.305848" lon="18.077893">
        <ele>25</ele>
        <time>2020-01-12T06:47:06Z</time>
      </trkpt>
      <trkpt lat="59.30594" lon="18.077834">
        <ele>24</ele>
        <time>2020-01-12T06:47:07Z</time>
      </trkpt>
      <trkpt lat="59.306032" lon="18.077775">
        <ele>24</ele>
        <time>2020-01-12T06:47:08Z</time>
      </trkpt>
      <trkpt lat="59.306123" lon="18.077715">
        <ele>24</ele>
        <time>2020-01-12T06:47:09Z</time>
      </trkpt>
      <trkpt lat="59.306214" lon="18.077657">
        <ele>24</ele>
        <time>2020-01-12T06:47:10Z</time>
      </trkpt>
      <trkpt lat="59.306304" lon="18.077597">
        <ele>23</ele>
        <time>2020-01-12T06:47:11Z</time>
      </trkpt>
      <trkpt lat="59.306392" lon="18.077531">
        <ele>23</ele>
        <time>2020-01-12T06:47:12Z</time>
      </trkpt>
      <trkpt lat="59.306478" lon="18.07746">
        <ele>23</ele>
        <time>2020-01-12T06:47:13Z</time>
      </trkpt>
      <trkpt lat="59.306564" lon="18.077394">
        <ele>23</ele>
        <time>2020-01-12T06:47:14Z</time>
      </trkpt>
      <trkpt lat="59.306649" lon="18.077336">
        <ele>23</ele>
        <time>2020-01-12T06:47:15Z</time>
      </trkpt>
      <trkpt lat="59.306735" lon="18.077291">
        <ele>23</ele>
        <time>2020-01-12T06:47:16Z</time>
      </trkpt>
      <trkpt lat="59.30682" lon="18.07725">
        <ele>23</ele>
        <time>2020-01-12T06:47:17Z</time>
      </trkpt>
      <trkpt lat="59.306904" lon="18.077212">
        <ele>23</ele>
        <time>2020-01-12T06:47:18Z</time>
      </trkpt>
      <trkpt lat="59.306985" lon="18.077175">
        <ele>23</ele>
        <time>2020-01-12T06:47:19Z</time>
      </trkpt>
      <trkpt lat="59.307065" lon="18.077137">
        <ele>23</ele>
        <time>2020-01-12T06:47:20Z</time>
      </trkpt>
      <trkpt lat="59.307143" lon="18.077097">
        <ele>23</ele>
        <time>2020-01-12T06:47:21Z</time>
      </trkpt>
      <trkpt lat="59.307219" lon="18.07706">
        <ele>23</ele>
        <time>2020-01-12T06:47:22Z</time>
      </trkpt>
      <trkpt lat="59.307291" lon="18.077022">
        <ele>23</ele>
        <time>2020-01-12T06:47:23Z</time>
      </trkpt>
      <trkpt lat="59.307361" lon="18.076987">
        <ele>23</ele>
        <time>2020-01-12T06:47:24Z</time>
      </trkpt>
      <trkpt lat="59.30743" lon="18.076953">
        <ele>23</ele>
        <time>2020-01-12T06:47:25Z</time>
      </trkpt>
      <trkpt lat="59.307495" lon="18.076919">
        <ele>23</ele>
        <time>2020-01-12T06:47:26Z</time>
      </trkpt>
      <trkpt lat="59.307556" lon="18.076887">
        <ele>23</ele>
        <time>2020-01-12T06:47:27Z</time>
      </trkpt>
      <trkpt lat="59.307616" lon="18.076855">
        <ele>23</ele>
        <time>2020-01-12T06:47:28Z</time>
      </trkpt>
      <trkpt lat="59.307674" lon="18.076819">
        <ele>24</ele>
        <time>2020-01-12T06:47:29Z</time>
      </trkpt>
      <trkpt lat="59.307727" lon="18.076764">
        <ele>24</ele>
        <time>2020-01-12T06:47:30Z</time>
      </trkpt>
      <trkpt lat="59.307787" lon="18.076721">
        <ele>24</ele>
        <time>2020-01-12T06:47:31Z</time>
      </trkpt>
      <trkpt lat="59.307848" lon="18.076677">
        <ele>24</ele>
        <time>2020-01-12T06:47:32Z</time>
      </trkpt>
      <trkpt lat="59.307909" lon="18.076632">
        <ele>24</ele>
        <time>2020-01-12T06:47:33Z</time>
      </trkpt>
      <trkpt lat="59.30797" lon="18.076588">
        <ele>24</ele>
        <time>2020-01-12T06:47:34Z</time>
      </trkpt>
      <trkpt lat="59.30803" lon="18.07655">
        <ele>25</ele>
        <time>2020-01-12T06:47:35Z</time>
      </trkpt>
      <trkpt lat="59.30809" lon="18.076516">
        <ele>24</ele>
        <time>2020-01-12T06:47:36Z</time>
      </trkpt>
      <trkpt lat="59.308154" lon="18.076487">
        <ele>24</ele>
        <time>2020-01-12T06:47:37Z</time>
      </trkpt>
      <trkpt lat="59.308218" lon="18.076457">
        <ele>24</ele>
        <time>2020-01-12T06:47:38Z</time>
      </trkpt>
      <trkpt lat="59.308283" lon="18.076425">
        <ele>24</ele>
        <time>2020-01-12T06:47:39Z</time>
      </trkpt>
      <trkpt lat="59.308349" lon="18.076391">
        <ele>23</ele>
        <time>2020-01-12T06:47:40Z</time>
      </trkpt>
      <trkpt lat="59.308416" lon="18.076356">
        <ele>23</ele>
        <time>2020-01-12T06:47:41Z</time>
      </trkpt>
      <trkpt lat="59.308485" lon="18.07632">
        <ele>23</ele>
        <time>2020-01-12T06:47:42Z</time>
      </trkpt>
      <trkpt lat="59.308556" lon="18.076291">
        <ele>23</ele>
        <time>2020-01-12T06:47:43Z</time>
      </trkpt>
      <trkpt lat="59.308628" lon="18.076263">
        <ele>23</ele>
        <time>2020-01-12T06:47:44Z</time>
      </trkpt>
      <trkpt lat="59.308701" lon="18.076238">
        <ele>23</ele>
        <time>2020-01-12T06:47:45Z</time>
      </trkpt>
      <trkpt lat="59.308773" lon="18.076201">
        <ele>23</ele>
        <time>2020-01-12T06:47:46Z</time>
      </trkpt>
      <trkpt lat="59.308845" lon="18.076168">
        <ele>23</ele>
        <time>2020-01-12T06:47:47Z</time>
      </trkpt>
      <trkpt lat="59.308915" lon="18.076134">
        <ele>23</ele>
        <time>2020-01-12T06:47:48Z</time>
      </trkpt>
      <trkpt lat="59.308982" lon="18.076104">
        <ele>23</ele>
        <time>2020-01-12T06:47:49Z</time>
      </trkpt>
      <trkpt lat="59.30905" lon="18.076073">
        <ele>23</ele>
        <time>2020-01-12T06:47:50Z</time>
      </trkpt>
      <trkpt lat="59.309118" lon="18.076042">
        <ele>23</ele>
        <time>2020-01-12T06:47:51Z</time>
      </trkpt>
      <trkpt lat="59.309186" lon="18.076008">
        <ele>23</ele>
        <time>2020-01-12T06:47:52Z</time>
      </trkpt>
      <trkpt lat="59.309253" lon="18.075971">
        <ele>23</ele>
        <time>2020-01-12T06:47:53Z</time>
      </trkpt>
      <trkpt lat="59.309319" lon="18.07594">
        <ele>23</ele>
        <time>2020-01-12T06:47:54Z</time>
      </trkpt>
      <trkpt lat="59.309383" lon="18.07592">
        <ele>24</ele>
        <time>2020-01-12T06:47:55Z</time>
      </trkpt>
      <trkpt lat="59.309445" lon="18.075896">
        <ele>24</ele>
        <time>2020-01-12T06:47:56Z</time>
      </trkpt>
      <trkpt lat="59.309505" lon="18.075855">
        <ele>25</ele>
        <time>2020-01-12T06:47:57Z</time>
      </trkpt>
      <trkpt lat="59.309565" lon="18.075808">
        <ele>26</ele>
        <time>2020-01-12T06:47:58Z</time>
      </trkpt>
      <trkpt lat="59.309629" lon="18.075758">
        <ele>25</ele>
        <time>2020-01-12T06:47:59Z</time>
      </trkpt>
      <trkpt lat="59.309699" lon="18.075725">
        <ele>25</ele>
        <time>2020-01-12T06:48:00Z</time>
      </trkpt>
      <trkpt lat="59.309767" lon="18.075691">
        <ele>25</ele>
        <time>2020-01-12T06:48:01Z</time>
      </trkpt>
      <trkpt lat="59.309831" lon="18.075658">
        <ele>25</ele>
        <time>2020-01-12T06:48:02Z</time>
      </trkpt>
      <trkpt lat="59.309894" lon="18.075624">
        <ele>25</ele>
        <time>2020-01-12T06:48:03Z</time>
      </trkpt>
      <trkpt lat="59.309958" lon="18.075594">
        <ele>25</ele>
        <time>2020-01-12T06:48:04Z</time>
      </trkpt>
      <trkpt lat="59.310021" lon="18.075562">
        <ele>25</ele>
        <time>2020-01-12T06:48:05Z</time>
      </trkpt>
      <trkpt lat="59.310081" lon="18.07553">
        <ele>25</ele>
        <time>2020-01-12T06:48:06Z</time>
      </trkpt>
      <trkpt lat="59.310141" lon="18.0755">
        <ele>25</ele>
        <time>2020-01-12T06:48:07Z</time>
      </trkpt>
      <trkpt lat="59.310201" lon="18.075472">
        <ele>25</ele>
        <time>2020-01-12T06:48:08Z</time>
      </trkpt>
      <trkpt lat="59.31026" lon="18.075446">
        <ele>25</ele>
        <time>2020-01-12T06:48:09Z</time>
      </trkpt>
      <trkpt lat="59.310319" lon="18.075418">
        <ele>25</ele>
        <time>2020-01-12T06:48:10Z</time>
      </trkpt>
      <trkpt lat="59.310381" lon="18.075392">
        <ele>25</ele>
        <time>2020-01-12T06:48:11Z</time>
      </trkpt>
      <trkpt lat="59.310443" lon="18.075364">
        <ele>25</ele>
        <time>2020-01-12T06:48:12Z</time>
      </trkpt>
      <trkpt lat="59.310506" lon="18.075332">
        <ele>25</ele>
        <time>2020-01-12T06:48:13Z</time>
      </trkpt>
      <trkpt lat="59.310567" lon="18.075294">
        <ele>25</ele>
        <time>2020-01-12T06:48:14Z</time>
      </trkpt>
      <trkpt lat="59.310628" lon="18.075258">
        <ele>25</ele>
        <time>2020-01-12T06:48:15Z</time>
      </trkpt>
      <trkpt lat="59.31069" lon="18.07522">
        <ele>25</ele>
        <time>2020-01-12T06:48:16Z</time>
      </trkpt>
      <trkpt lat="59.310751" lon="18.075176">
        <ele>25</ele>
        <time>2020-01-12T06:48:17Z</time>
      </trkpt>
      <trkpt lat="59.310812" lon="18.075144">
        <ele>25</ele>
        <time>2020-01-12T06:48:18Z</time>
      </trkpt>
      <trkpt lat="59.310874" lon="18.075116">
        <ele>25</ele>
        <time>2020-01-12T06:48:19Z</time>
      </trkpt>
      <trkpt lat="59.310934" lon="18.075086">
        <ele>24</ele>
        <time>2020-01-12T06:48:20Z</time>
      </trkpt>
      <trkpt lat="59.310996" lon="18.075055">
        <ele>24</ele>
        <time>2020-01-12T06:48:21Z</time>
      </trkpt>
      <trkpt lat="59.311057" lon="18.075026">
        <ele>24</ele>
        <time>2020-01-12T06:48:22Z</time>
      </trkpt>
      <trkpt lat="59.311119" lon="18.074996">
        <ele>24</ele>
        <time>2020-01-12T06:48:23Z</time>
      </trkpt>
      <trkpt lat="59.311181" lon="18.074965">
        <ele>25</ele>
        <time>2020-01-12T06:48:24Z</time>
      </trkpt>
      <trkpt lat="59.311242" lon="18.074935">
        <ele>25</ele>
        <time>2020-01-12T06:48:25Z</time>
      </trkpt>
      <trkpt lat="59.311303" lon="18.074906">
        <ele>25</ele>
        <time>2020-01-12T06:48:26Z</time>
      </trkpt>
      <trkpt lat="59.311364" lon="18.074874">
        <ele>25</ele>
        <time>2020-01-12T06:48:27Z</time>
      </trkpt>
      <trkpt lat="59.311425" lon="18.074841">
        <ele>25</ele>
        <time>2020-01-12T06:48:28Z</time>
      </trkpt>
      <trkpt lat="59.311486" lon="18.074806">
        <ele>25</ele>
        <time>2020-01-12T06:48:29Z</time>
      </trkpt>
      <trkpt lat="59.311546" lon="18.074766">
        <ele>25</ele>
        <time>2020-01-12T06:48:30Z</time>
      </trkpt>
      <trkpt lat="59.311607" lon="18.074727">
        <ele>25</ele>
        <time>2020-01-12T06:48:31Z</time>
      </trkpt>
      <trkpt lat="59.311666" lon="18.074694">
        <ele>25</ele>
        <time>2020-01-12T06:48:32Z</time>
      </trkpt>
      <trkpt lat="59.311727" lon="18.074668">
        <ele>25</ele>
        <time>2020-01-12T06:48:33Z</time>
      </trkpt>
      <trkpt lat="59.311788" lon="18.074644">
        <ele>25</ele>
        <time>2020-01-12T06:48:34Z</time>
      </trkpt>
      <trkpt lat="59.311851" lon="18.074622">
        <ele>25</ele>
        <time>2020-01-12T06:48:35Z</time>
      </trkpt>
      <trkpt lat="59.311912" lon="18.074596">
        <ele>25</ele>
        <time>2020-01-12T06:48:36Z</time>
      </trkpt>
      <trkpt lat="59.311973" lon="18.074568">
        <ele>25</ele>
        <time>2020-01-12T06:48:37Z</time>
      </trkpt>
      <trkpt lat="59.312034" lon="18.07454">
        <ele>25</ele>
        <time>2020-01-12T06:48:38Z</time>
      </trkpt>
      <trkpt lat="59.312095" lon="18.074512">
        <ele>25</ele>
        <time>2020-01-12T06:48:39Z</time>
      </trkpt>
      <trkpt lat="59.312157" lon="18.074476">
        <ele>25</ele>
        <time>2020-01-12T06:48:40Z</time>
      </trkpt>
      <trkpt lat="59.312219" lon="18.07444">
        <ele>25</ele>
        <time>2020-01-12T06:48:41Z</time>
      </trkpt>
      <trkpt lat="59.312282" lon="18.074405">
        <ele>25</ele>
        <time>2020-01-12T06:48:42Z</time>
      </trkpt>
      <trkpt lat="59.312344" lon="18.074379">
        <ele>24</ele>
        <time>2020-01-12T06:48:43Z</time>
      </trkpt>
      <trkpt lat="59.312406" lon="18.074356">
        <ele>24</ele>
        <time>2020-01-12T06:48:44Z</time>
      </trkpt>
      <trkpt lat="59.312467" lon="18.074336">
        <ele>24</ele>
        <time>2020-01-12T06:48:45Z</time>
      </trkpt>
      <trkpt lat="59.312527" lon="18.074308">
        <ele>24</ele>
        <time>2020-01-12T06:48:46Z</time>
      </trkpt>
      <trkpt lat="59.312586" lon="18.07428">
        <ele>24</ele>
        <time>2020-01-12T06:48:47Z</time>
      </trkpt>
      <trkpt lat="59.312645" lon="18.074252">
        <ele>24</ele>
        <time>2020-01-12T06:48:48Z</time>
      </trkpt>
      <trkpt lat="59.312701" lon="18.074224">
        <ele>24</ele>
        <time>2020-01-12T06:48:49Z</time>
      </trkpt>
      <trkpt lat="59.312756" lon="18.074198">
        <ele>24</ele>
        <time>2020-01-12T06:48:50Z</time>
      </trkpt>
      <trkpt lat="59.312811" lon="18.074176">
        <ele>24</ele>
        <time>2020-01-12T06:48:51Z</time>
      </trkpt>
      <trkpt lat="59.312863" lon="18.074158">
        <ele>24</ele>
        <time>2020-01-12T06:48:52Z</time>
      </trkpt>
      <trkpt lat="59.312913" lon="18.074142">
        <ele>24</ele>
        <time>2020-01-12T06:48:53Z</time>
      </trkpt>
      <trkpt lat="59.312963" lon="18.074121">
        <ele>24</ele>
        <time>2020-01-12T06:48:54Z</time>
      </trkpt>
      <trkpt lat="59.313011" lon="18.074086">
        <ele>24</ele>
        <time>2020-01-12T06:48:55Z</time>
      </trkpt>
      <trkpt lat="59.313062" lon="18.074057">
        <ele>24</ele>
        <time>2020-01-12T06:48:56Z</time>
      </trkpt>
      <trkpt lat="59.313115" lon="18.074031">
        <ele>24</ele>
        <time>2020-01-12T06:48:57Z</time>
      </trkpt>
      <trkpt lat="59.313168" lon="18.074004">
        <ele>24</ele>
        <time>2020-01-12T06:48:58Z</time>
      </trkpt>
      <trkpt lat="59.313219" lon="18.073977">
        <ele>24</ele>
        <time>2020-01-12T06:48:59Z</time>
      </trkpt>
      <trkpt lat="59.31327" lon="18.073952">
        <ele>24</ele>
        <time>2020-01-12T06:49:00Z</time>
      </trkpt>
      <trkpt lat="59.31332" lon="18.073928">
        <ele>24</ele>
        <time>2020-01-12T06:49:01Z</time>
      </trkpt>
      <trkpt lat="59.31337" lon="18.073903">
        <ele>24</ele>
        <time>2020-01-12T06:49:02Z</time>
      </trkpt>
      <trkpt lat="59.31342" lon="18.073879">
        <ele>24</ele>
        <time>2020-01-12T06:49:03Z</time>
      </trkpt>
      <trkpt lat="59.31347" lon="18.073855">
        <ele>24</ele>
        <time>2020-01-12T06:49:04Z</time>
      </trkpt>
      <trkpt lat="59.31352" lon="18.073827">
        <ele>24</ele>
        <time>2020-01-12T06:49:05Z</time>
      </trkpt>
      <trkpt lat="59.313571" lon="18.073798">
        <ele>24</ele>
        <time>2020-01-12T06:49:06Z</time>
      </trkpt>
      <trkpt lat="59.313624" lon="18.073764">
        <ele>24</ele>
        <time>2020-01-12T06:49:07Z</time>
      </trkpt>
      <trkpt lat="59.31368" lon="18.073741">
        <ele>24</ele>
        <time>2020-01-12T06:49:08Z</time>
      </trkpt>
      <trkpt lat="59.313737" lon="18.073719">
        <ele>24</ele>
        <time>2020-01-12T06:49:09Z</time>
      </trkpt>
      <trkpt lat="59.313795" lon="18.073696">
        <ele>24</ele>
        <time>2020-01-12T06:49:10Z</time>
      </trkpt>
      <trkpt lat="59.313854" lon="18.073673">
        <ele>24</ele>
        <time>2020-01-12T06:49:11Z</time>
      </trkpt>
      <trkpt lat="59.313913" lon="18.07365">
        <ele>23</ele>
        <time>2020-01-12T06:49:12Z</time>
      </trkpt>
      <trkpt lat="59.313973" lon="18.073625">
        <ele>23</ele>
        <time>2020-01-12T06:49:13Z</time>
      </trkpt>
      <trkpt lat="59.314032" lon="18.073599">
        <ele>23</ele>
        <time>2020-01-12T06:49:14Z</time>
      </trkpt>
      <trkpt lat="59.314091" lon="18.073572">
        <ele>23</ele>
        <time>2020-01-12T06:49:15Z</time>
      </trkpt>
      <trkpt lat="59.314148" lon="18.073546">
        <ele>24</ele>
        <time>2020-01-12T06:49:16Z</time>
      </trkpt>
      <trkpt lat="59.314205" lon="18.073524">
        <ele>24</ele>
        <time>2020-01-12T06:49:17Z</time>
      </trkpt>
      <trkpt lat="59.314261" lon="18.073497">
        <ele>24</ele>
        <time>2020-01-12T06:49:18Z</time>
      </trkpt>
      <trkpt lat="59.314315" lon="18.073471">
        <ele>24</ele>
        <time>2020-01-12T06:49:19Z</time>
      </trkpt>
      <trkpt lat="59.314369" lon="18.073447">
        <ele>24</ele>
        <time>2020-01-12T06:49:20Z</time>
      </trkpt>
      <trkpt lat="59.31442" lon="18.073427">
        <ele>25</ele>
        <time>2020-01-12T06:49:21Z</time>
      </trkpt>
      <trkpt lat="59.314472" lon="18.073415">
        <ele>25</ele>
        <time>2020-01-12T06:49:22Z</time>
      </trkpt>
      <trkpt lat="59.314528" lon="18.073396">
        <ele>24</ele>
        <time>2020-01-12T06:49:23Z</time>
      </trkpt>
      <trkpt lat="59.314584" lon="18.073372">
        <ele>25</ele>
        <time>2020-01-12T06:49:24Z</time>
      </trkpt>
      <trkpt lat="59.314641" lon="18.07335">
        <ele>25</ele>
        <time>2020-01-12T06:49:25Z</time>
      </trkpt>
      <trkpt lat="59.314698" lon="18.073331">
        <ele>25</ele>
        <time>2020-01-12T06:49:26Z</time>
      </trkpt>
      <trkpt lat="59.314753" lon="18.073314">
        <ele>0</ele>
        <time>2020-01-12T06:49:26Z</time>
      </trkpt>
      <trkpt lat="59.314809" lon="18.073294">
        <ele>25</ele>
        <time>2020-01-12T06:49:27Z</time>
      </trkpt>
      <trkpt lat="59.314864" lon="18.073277">
        <ele>25</ele>
        <time>2020-01-12T06:49:29Z</time>
      </trkpt>
      <trkpt lat="59.314918" lon="18.073248">
        <ele>26</ele>
        <time>2020-01-12T06:49:30Z</time>
      </trkpt>
      <trkpt lat="59.314973" lon="18.073217">
        <ele>26</ele>
        <time>2020-01-12T06:49:31Z</time>
      </trkpt>
      <trkpt lat="59.315027" lon="18.073179">
        <ele>26</ele>
        <time>2020-01-12T06:49:32Z</time>
      </trkpt>
      <trkpt lat="59.315081" lon="18.07314">
        <ele>26</ele>
        <time>2020-01-12T06:49:33Z</time>
      </trkpt>
      <trkpt lat="59.315136" lon="18.073111">
        <ele>26</ele>
        <time>2020-01-12T06:49:34Z</time>
      </trkpt>
      <trkpt lat="59.315191" lon="18.073082">
        <ele>26</ele>
        <time>2020-01-12T06:49:35Z</time>
      </trkpt>
      <trkpt lat="59.315245" lon="18.073053">
        <ele>26</ele>
        <time>2020-01-12T06:49:36Z</time>
      </trkpt>
      <trkpt lat="59.315297" lon="18.073022">
        <ele>26</ele>
        <time>2020-01-12T06:49:37Z</time>
      </trkpt>
      <trkpt lat="59.31535" lon="18.07299">
        <ele>26</ele>
        <time>2020-01-12T06:49:38Z</time>
      </trkpt>
      <trkpt lat="59.315403" lon="18.072959">
        <ele>26</ele>
        <time>2020-01-12T06:49:39Z</time>
      </trkpt>
      <trkpt lat="59.315455" lon="18.072922">
        <ele>26</ele>
        <time>2020-01-12T06:49:40Z</time>
      </trkpt>
      <trkpt lat="59.315506" lon="18.072881">
        <ele>26</ele>
        <time>2020-01-12T06:49:41Z</time>
      </trkpt>
      <trkpt lat="59.315556" lon="18.072841">
        <ele>26</ele>
        <time>2020-01-12T06:49:42Z</time>
      </trkpt>
      <trkpt lat="59.315605" lon="18.072796">
        <ele>26</ele>
        <time>2020-01-12T06:49:43Z</time>
      </trkpt>
      <trkpt lat="59.315653" lon="18.072738">
        <ele>26</ele>
        <time>2020-01-12T06:49:44Z</time>
      </trkpt>
      <trkpt lat="59.315693" lon="18.072671">
        <ele>26</ele>
        <time>2020-01-12T06:49:45Z</time>
      </trkpt>
      <trkpt lat="59.31573" lon="18.072604">
        <ele>27</ele>
        <time>2020-01-12T06:49:46Z</time>
      </trkpt>
      <trkpt lat="59.315772" lon="18.072557">
        <ele>27</ele>
        <time>2020-01-12T06:49:47Z</time>
      </trkpt>
      <trkpt lat="59.315818" lon="18.072527">
        <ele>27</ele>
        <time>2020-01-12T06:49:48Z</time>
      </trkpt>
      <trkpt lat="59.315864" lon="18.072508">
        <ele>27</ele>
        <time>2020-01-12T06:49:49Z</time>
      </trkpt>
      <trkpt lat="59.315909" lon="18.072489">
        <ele>28</ele>
        <time>2020-01-12T06:49:50Z</time>
      </trkpt>
      <trkpt lat="59.315952" lon="18.072466">
        <ele>28</ele>
        <time>2020-01-12T06:49:51Z</time>
      </trkpt>
      <trkpt lat="59.315996" lon="18.072445">
        <ele>28</ele>
        <time>2020-01-12T06:49:52Z</time>
      </trkpt>
      <trkpt lat="59.316041" lon="18.072424">
        <ele>28</ele>
        <time>2020-01-12T06:49:53Z</time>
      </trkpt>
      <trkpt lat="59.316085" lon="18.072403">
        <ele>28</ele>
        <time>2020-01-12T06:49:54Z</time>
      </trkpt>
      <trkpt lat="59.316129" lon="18.07238">
        <ele>29</ele>
        <time>2020-01-12T06:49:55Z</time>
      </trkpt>
      <trkpt lat="59.316171" lon="18.072356">
        <ele>29</ele>
        <time>2020-01-12T06:49:56Z</time>
      </trkpt>
      <trkpt lat="59.316211" lon="18.072329">
        <ele>29</ele>
        <time>2020-01-12T06:49:57Z</time>
      </trkpt>
      <trkpt lat="59.316253" lon="18.072301">
        <ele>30</ele>
        <time>2020-01-12T06:49:58Z</time>
      </trkpt>
      <trkpt lat="59.316297" lon="18.072276">
        <ele>30</ele>
        <time>2020-01-12T06:49:59Z</time>
      </trkpt>
      <trkpt lat="59.316338" lon="18.07225">
        <ele>30</ele>
        <time>2020-01-12T06:50:00Z</time>
      </trkpt>
      <trkpt lat="59.316383" lon="18.072227">
        <ele>31</ele>
        <time>2020-01-12T06:50:01Z</time>
      </trkpt>
      <trkpt lat="59.31643" lon="18.072207">
        <ele>31</ele>
        <time>2020-01-12T06:50:02Z</time>
      </trkpt>
      <trkpt lat="59.316476" lon="18.072185">
        <ele>31</ele>
        <time>2020-01-12T06:50:03Z</time>
      </trkpt>
      <trkpt lat="59.316522" lon="18.072158">
        <ele>31</ele>
        <time>2020-01-12T06:50:04Z</time>
      </trkpt>
      <trkpt lat="59.316569" lon="18.072137">
        <ele>31</ele>
        <time>2020-01-12T06:50:05Z</time>
      </trkpt>
      <trkpt lat="59.31661" lon="18.072119">
        <ele>32</ele>
        <time>2020-01-12T06:50:06Z</time>
      </trkpt>
      <trkpt lat="59.316651" lon="18.072109">
        <ele>32</ele>
        <time>2020-01-12T06:50:07Z</time>
      </trkpt>
      <trkpt lat="59.316691" lon="18.072091">
        <ele>32</ele>
        <time>2020-01-12T06:50:08Z</time>
      </trkpt>
      <trkpt lat="59.31673" lon="18.072076">
        <ele>32</ele>
        <time>2020-01-12T06:50:09Z</time>
      </trkpt>
      <trkpt lat="59.316774" lon="18.072053">
        <ele>32</ele>
        <time>2020-01-12T06:50:10Z</time>
      </trkpt>
      <trkpt lat="59.316823" lon="18.07203">
        <ele>33</ele>
        <time>2020-01-12T06:50:11Z</time>
      </trkpt>
      <trkpt lat="59.316872" lon="18.072003">
        <ele>33</ele>
        <time>2020-01-12T06:50:12Z</time>
      </trkpt>
      <trkpt lat="59.316923" lon="18.071981">
        <ele>33</ele>
        <time>2020-01-12T06:50:13Z</time>
      </trkpt>
      <trkpt lat="59.316977" lon="18.071952">
        <ele>32</ele>
        <time>2020-01-12T06:50:14Z</time>
      </trkpt>
      <trkpt lat="59.317031" lon="18.07193">
        <ele>32</ele>
        <time>2020-01-12T06:50:15Z</time>
      </trkpt>
      <trkpt lat="59.317085" lon="18.071909">
        <ele>32</ele>
        <time>2020-01-12T06:50:16Z</time>
      </trkpt>
      <trkpt lat="59.31714" lon="18.071891">
        <ele>32</ele>
        <time>2020-01-12T06:50:17Z</time>
      </trkpt>
      <trkpt lat="59.317193" lon="18.071865">
        <ele>32</ele>
        <time>2020-01-12T06:50:18Z</time>
      </trkpt>
      <trkpt lat="59.317244" lon="18.071839">
        <ele>32</ele>
        <time>2020-01-12T06:50:19Z</time>
      </trkpt>
      <trkpt lat="59.317292" lon="18.071811">
        <ele>32</ele>
        <time>2020-01-12T06:50:20Z</time>
      </trkpt>
      <trkpt lat="59.317339" lon="18.071784">
        <ele>32</ele>
        <time>2020-01-12T06:50:21Z</time>
      </trkpt>
      <trkpt lat="59.317386" lon="18.071759">
        <ele>32</ele>
        <time>2020-01-12T06:50:22Z</time>
      </trkpt>
      <trkpt lat="59.317437" lon="18.071738">
        <ele>32</ele>
        <time>2020-01-12T06:50:23Z</time>
      </trkpt>
      <trkpt lat="59.317494" lon="18.071715">
        <ele>32</ele>
        <time>2020-01-12T06:50:24Z</time>
      </trkpt>
      <trkpt lat="59.317547" lon="18.071691">
        <ele>32</ele>
        <time>2020-01-12T06:50:25Z</time>
      </trkpt>
      <trkpt lat="59.317605" lon="18.071663">
        <ele>32</ele>
        <time>2020-01-12T06:50:26Z</time>
      </trkpt>
      <trkpt lat="59.317664" lon="18.071637">
        <ele>32</ele>
        <time>2020-01-12T06:50:27Z</time>
      </trkpt>
      <trkpt lat="59.317724" lon="18.071621">
        <ele>31</ele>
        <time>2020-01-12T06:50:28Z</time>
      </trkpt>
      <trkpt lat="59.317785" lon="18.071593">
        <ele>31</ele>
        <time>2020-01-12T06:50:29Z</time>
      </trkpt>
      <trkpt lat="59.317848" lon="18.071565">
        <ele>31</ele>
        <time>2020-01-12T06:50:30Z</time>
      </trkpt>
      <trkpt lat="59.317912" lon="18.071543">
        <ele>31</ele>
        <time>2020-01-12T06:50:31Z</time>
      </trkpt>
      <trkpt lat="59.317976" lon="18.071519">
        <ele>31</ele>
        <time>2020-01-12T06:50:32Z</time>
      </trkpt>
      <trkpt lat="59.31804" lon="18.071481">
        <ele>31</ele>
        <time>2020-01-12T06:50:33Z</time>
      </trkpt>
      <trkpt lat="59.318104" lon="18.071443">
        <ele>31</ele>
        <time>2020-01-12T06:50:34Z</time>
      </trkpt>
      <trkpt lat="59.318171" lon="18.071421">
        <ele>31</ele>
        <time>2020-01-12T06:50:35Z</time>
      </trkpt>
      <trkpt lat="59.318239" lon="18.071404">
        <ele>31</ele>
        <time>2020-01-12T06:50:36Z</time>
      </trkpt>
      <trkpt lat="59.318306" lon="18.071384">
        <ele>31</ele>
        <time>2020-01-12T06:50:37Z</time>
      </trkpt>
      <trkpt lat="59.318374" lon="18.071354">
        <ele>31</ele>
        <time>2020-01-12T06:50:38Z</time>
      </trkpt>
      <trkpt lat="59.318444" lon="18.071318">
        <ele>31</ele>
        <time>2020-01-12T06:50:39Z</time>
      </trkpt>
      <trkpt lat="59.318516" lon="18.071283">
        <ele>30</ele>
        <time>2020-01-12T06:50:40Z</time>
      </trkpt>
      <trkpt lat="59.318591" lon="18.071238">
        <ele>30</ele>
        <time>2020-01-12T06:50:41Z</time>
      </trkpt>
      <trkpt lat="59.318664" lon="18.071166">
        <ele>30</ele>
        <time>2020-01-12T06:50:42Z</time>
      </trkpt>
      <trkpt lat="59.318736" lon="18.07109">
        <ele>30</ele>
        <time>2020-01-12T06:50:43Z</time>
      </trkpt>
      <trkpt lat="59.318822" lon="18.071063">
        <ele>29</ele>
        <time>2020-01-12T06:50:44Z</time>
      </trkpt>
      <trkpt lat="59.318912" lon="18.071033">
        <ele>29</ele>
        <time>2020-01-12T06:50:45Z</time>
      </trkpt>
      <trkpt lat="59.319002" lon="18.070989">
        <ele>29</ele>
        <time>2020-01-12T06:50:46Z</time>
      </trkpt>
      <trkpt lat="59.319095" lon="18.070951">
        <ele>29</ele>
        <time>2020-01-12T06:50:47Z</time>
      </trkpt>
      <trkpt lat="59.319188" lon="18.070913">
        <ele>28</ele>
        <time>2020-01-12T06:50:48Z</time>
      </trkpt>
      <trkpt lat="59.319287" lon="18.070875">
        <ele>27</ele>
        <time>2020-01-12T06:50:49Z</time>
      </trkpt>
      <trkpt lat="59.319379" lon="18.070822">
        <ele>26</ele>
        <time>2020-01-12T06:50:50Z</time>
      </trkpt>
      <trkpt lat="59.319463" lon="18.070756">
        <ele>25</ele>
        <time>2020-01-12T06:50:51Z</time>
      </trkpt>
      <trkpt lat="59.319543" lon="18.070697">
        <ele>25</ele>
        <time>2020-01-12T06:50:52Z</time>
      </trkpt>
      <trkpt lat="59.319621" lon="18.070648">
        <ele>24</ele>
        <time>2020-01-12T06:50:53Z</time>
      </trkpt>
      <trkpt lat="59.319696" lon="18.070602">
        <ele>24</ele>
        <time>2020-01-12T06:50:54Z</time>
      </trkpt>
      <trkpt lat="59.319766" lon="18.070554">
        <ele>24</ele>
        <time>2020-01-12T06:50:55Z</time>
      </trkpt>
      <trkpt lat="59.31983" lon="18.070516">
        <ele>24</ele>
        <time>2020-01-12T06:50:56Z</time>
      </trkpt>
      <trkpt lat="59.319886" lon="18.07049">
        <ele>24</ele>
        <time>2020-01-12T06:50:57Z</time>
      </trkpt>
      <trkpt lat="59.319934" lon="18.070485">
        <ele>23</ele>
        <time>2020-01-12T06:50:58Z</time>
      </trkpt>
      <trkpt lat="59.319983" lon="18.070524">
        <ele>23</ele>
        <time>2020-01-12T06:50:59Z</time>
      </trkpt>
      <trkpt lat="59.32003" lon="18.070602">
        <ele>23</ele>
        <time>2020-01-12T06:51:00Z</time>
      </trkpt>
      <trkpt lat="59.320071" lon="18.070678">
        <ele>22</ele>
        <time>2020-01-12T06:51:01Z</time>
      </trkpt>
      <trkpt lat="59.320119" lon="18.07075">
        <ele>22</ele>
        <time>2020-01-12T06:51:02Z</time>
      </trkpt>
      <trkpt lat="59.320172" lon="18.070813">
        <ele>21</ele>
        <time>2020-01-12T06:51:03Z</time>
      </trkpt>
      <trkpt lat="59.32023" lon="18.070874">
        <ele>21</ele>
        <time>2020-01-12T06:51:04Z</time>
      </trkpt>
      <trkpt lat="59.320292" lon="18.070932">
        <ele>20</ele>
        <time>2020-01-12T06:51:05Z</time>
      </trkpt>
      <trkpt lat="59.320357" lon="18.070987">
        <ele>20</ele>
        <time>2020-01-12T06:51:06Z</time>
      </trkpt>
      <trkpt lat="59.320422" lon="18.071042">
        <ele>19</ele>
        <time>2020-01-12T06:51:07Z</time>
      </trkpt>
      <trkpt lat="59.320487" lon="18.071097">
        <ele>19</ele>
        <time>2020-01-12T06:51:08Z</time>
      </trkpt>
      <trkpt lat="59.320552" lon="18.07115">
        <ele>19</ele>
        <time>2020-01-12T06:51:09Z</time>
      </trkpt>
      <trkpt lat="59.320617" lon="18.071202">
        <ele>18</ele>
        <time>2020-01-12T06:51:10Z</time>
      </trkpt>
      <trkpt lat="59.320681" lon="18.071245">
        <ele>18</ele>
        <time>2020-01-12T06:51:11Z</time>
      </trkpt>
      <trkpt lat="59.320746" lon="18.071284">
        <ele>17</ele>
        <time>2020-01-12T06:51:12Z</time>
      </trkpt>
      <trkpt lat="59.320809" lon="18.071341">
        <ele>17</ele>
        <time>2020-01-12T06:51:13Z</time>
      </trkpt>
      <trkpt lat="59.320866" lon="18.071421">
        <ele>16</ele>
        <time>2020-01-12T06:51:14Z</time>
      </trkpt>
      <trkpt lat="59.320914" lon="18.071526">
        <ele>15</ele>
        <time>2020-01-12T06:51:15Z</time>
      </trkpt>
      <trkpt lat="59.32095" lon="18.071653">
        <ele>14</ele>
        <time>2020-01-12T06:51:16Z</time>
      </trkpt>
      <trkpt lat="59.320981" lon="18.07179">
        <ele>14</ele>
        <time>2020-01-12T06:51:17Z</time>
      </trkpt>
      <trkpt lat="59.321023" lon="18.071922">
        <ele>13</ele>
        <time>2020-01-12T06:51:18Z</time>
      </trkpt>
      <trkpt lat="59.321078" lon="18.072034">
        <ele>13</ele>
        <time>2020-01-12T06:51:19Z</time>
      </trkpt>
      <trkpt lat="59.321143" lon="18.072123">
        <ele>12</ele>
        <time>2020-01-12T06:51:20Z</time>
      </trkpt>
      <trkpt lat="59.321212" lon="18.072199">
        <ele>12</ele>
        <time>2020-01-12T06:51:21Z</time>
      </trkpt>
      <trkpt lat="59.321282" lon="18.072266">
        <ele>11</ele>
        <time>2020-01-12T06:51:22Z</time>
      </trkpt>
      <trkpt lat="59.321353" lon="18.072325">
        <ele>11</ele>
        <time>2020-01-12T06:51:23Z</time>
      </trkpt>
      <trkpt lat="59.321424" lon="18.072379">
        <ele>10</ele>
        <time>2020-01-12T06:51:24Z</time>
      </trkpt>
      <trkpt lat="59.321496" lon="18.072431">
        <ele>10</ele>
        <time>2020-01-12T06:51:25Z</time>
      </trkpt>
      <trkpt lat="59.321568" lon="18.072481">
        <ele>9</ele>
        <time>2020-01-12T06:51:26Z</time>
      </trkpt>
      <trkpt lat="59.32164" lon="18.072534">
        <ele>9</ele>
        <time>2020-01-12T06:51:27Z</time>
      </trkpt>
      <trkpt lat="59.32171" lon="18.072586">
        <ele>8</ele>
        <time>2020-01-12T06:51:28Z</time>
      </trkpt>
      <trkpt lat="59.321779" lon="18.072632">
        <ele>8</ele>
        <time>2020-01-12T06:51:29Z</time>
      </trkpt>
      <trkpt lat="59.321847" lon="18.072671">
        <ele>8</ele>
        <time>2020-01-12T06:51:30Z</time>
      </trkpt>
      <trkpt lat="59.321911" lon="18.072707">
        <ele>7</ele>
        <time>2020-01-12T06:51:31Z</time>
      </trkpt>
      <trkpt lat="59.321962" lon="18.072766">
        <ele>7</ele>
        <time>2020-01-12T06:51:32Z</time>
      </trkpt>
      <trkpt lat="59.321994" lon="18.07286">
        <ele>7</ele>
        <time>2020-01-12T06:51:33Z</time>
      </trkpt>
      <trkpt lat="59.322009" lon="18.072972">
        <ele>7</ele>
        <time>2020-01-12T06:51:34Z</time>
      </trkpt>
      <trkpt lat="59.322004" lon="18.073087">
        <ele>7</ele>
        <time>2020-01-12T06:51:35Z</time>
      </trkpt>
      <trkpt lat="59.321985" lon="18.073198">
        <ele>7</ele>
        <time>2020-01-12T06:51:36Z</time>
      </trkpt>
      <trkpt lat="59.321965" lon="18.073309">
        <ele>7</ele>
        <time>2020-01-12T06:51:37Z</time>
      </trkpt>
      <trkpt lat="59.321946" lon="18.07342">
        <ele>7</ele>
        <time>2020-01-12T06:51:38Z</time>
      </trkpt>
      <trkpt lat="59.321925" lon="18.073537">
        <ele>8</ele>
        <time>2020-01-12T06:51:39Z</time>
      </trkpt>
      <trkpt lat="59.321901" lon="18.073654">
        <ele>7</ele>
        <time>2020-01-12T06:51:40Z</time>
      </trkpt>
      <trkpt lat="59.32189" lon="18.073774">
        <ele>7</ele>
        <time>2020-01-12T06:51:41Z</time>
      </trkpt>
      <trkpt lat="59.321908" lon="18.073892">
        <ele>7</ele>
        <time>2020-01-12T06:51:42Z</time>
      </trkpt>
      <trkpt lat="59.321943" lon="18.073998">
        <ele>7</ele>
        <time>2020-01-12T06:51:43Z</time>
      </trkpt>
      <trkpt lat="59.321997" lon="18.07409">
        <ele>7</ele>
        <time>2020-01-12T06:51:44Z</time>
      </trkpt>
      <trkpt lat="59.322062" lon="18.074168">
        <ele>7</ele>
        <time>2020-01-12T06:51:45Z</time>
      </trkpt>
      <trkpt lat="59.322131" lon="18.074236">
        <ele>6</ele>
        <time>2020-01-12T06:51:46Z</time>
      </trkpt>
      <trkpt lat="59.322205" lon="18.0743">
        <ele>6</ele>
        <time>2020-01-12T06:51:47Z</time>
      </trkpt>
      <trkpt lat="59.322276" lon="18.074362">
        <ele>6</ele>
        <time>2020-01-12T06:51:48Z</time>
      </trkpt>
      <trkpt lat="59.322346" lon="18.074425">
        <ele>6</ele>
        <time>2020-01-12T06:51:49Z</time>
      </trkpt>
      <trkpt lat="59.322417" lon="18.074489">
        <ele>6</ele>
        <time>2020-01-12T06:51:50Z</time>
      </trkpt>
      <trkpt lat="59.322487" lon="18.074554">
        <ele>6</ele>
        <time>2020-01-12T06:51:51Z</time>
      </trkpt>
      <trkpt lat="59.322556" lon="18.074626">
        <ele>6</ele>
        <time>2020-01-12T06:51:52Z</time>
      </trkpt>
      <trkpt lat="59.32262" lon="18.074701">
        <ele>6</ele>
        <time>2020-01-12T06:51:53Z</time>
      </trkpt>
      <trkpt lat="59.322683" lon="18.07478">
        <ele>5</ele>
        <time>2020-01-12T06:51:54Z</time>
      </trkpt>
      <trkpt lat="59.322744" lon="18.07486">
        <ele>5</ele>
        <time>2020-01-12T06:51:55Z</time>
      </trkpt>
      <trkpt lat="59.322807" lon="18.074932">
        <ele>5</ele>
        <time>2020-01-12T06:51:56Z</time>
      </trkpt>
      <trkpt lat="59.322869" lon="18.074997">
        <ele>5</ele>
        <time>2020-01-12T06:51:57Z</time>
      </trkpt>
      <trkpt lat="59.322932" lon="18.075056">
        <ele>5</ele>
        <time>2020-01-12T06:51:58Z</time>
      </trkpt>
      <trkpt lat="59.322999" lon="18.075106">
        <ele>5</ele>
        <time>2020-01-12T06:51:59Z</time>
      </trkpt>
      <trkpt lat="59.323064" lon="18.075148">
        <ele>5</ele>
        <time>2020-01-12T06:52:00Z</time>
      </trkpt>
      <trkpt lat="59.323129" lon="18.075189">
        <ele>5</ele>
        <time>2020-01-12T06:52:01Z</time>
      </trkpt>
      <trkpt lat="59.323194" lon="18.075226">
        <ele>5</ele>
        <time>2020-01-12T06:52:02Z</time>
      </trkpt>
      <trkpt lat="59.323261" lon="18.07526">
        <ele>5</ele>
        <time>2020-01-12T06:52:03Z</time>
      </trkpt>
      <trkpt lat="59.323326" lon="18.07529">
        <ele>5</ele>
        <time>2020-01-12T06:52:04Z</time>
      </trkpt>
      <trkpt lat="59.323396" lon="18.075315">
        <ele>5</ele>
        <time>2020-01-12T06:52:05Z</time>
      </trkpt>
      <trkpt lat="59.323466" lon="18.075339">
        <ele>5</ele>
        <time>2020-01-12T06:52:06Z</time>
      </trkpt>
      <trkpt lat="59.323531" lon="18.075368">
        <ele>5</ele>
        <time>2020-01-12T06:52:07Z</time>
      </trkpt>
      <trkpt lat="59.323598" lon="18.075397">
        <ele>5</ele>
        <time>2020-01-12T06:52:08Z</time>
      </trkpt>
      <trkpt lat="59.323666" lon="18.075422">
        <ele>5</ele>
        <time>2020-01-12T06:52:09Z</time>
      </trkpt>
      <trkpt lat="59.323734" lon="18.075447">
        <ele>5</ele>
        <time>2020-01-12T06:52:10Z</time>
      </trkpt>
      <trkpt lat="59.323806" lon="18.075475">
        <ele>5</ele>
        <time>2020-01-12T06:52:11Z</time>
      </trkpt>
      <trkpt lat="59.323877" lon="18.075502">
        <ele>5</ele>
        <time>2020-01-12T06:52:12Z</time>
      </trkpt>
      <trkpt lat="59.323949" lon="18.075527">
        <ele>5</ele>
        <time>2020-01-12T06:52:13Z</time>
      </trkpt>
      <trkpt lat="59.324018" lon="18.075555">
        <ele>5</ele>
        <time>2020-01-12T06:52:14Z</time>
      </trkpt>
      <trkpt lat="59.324088" lon="18.075584">
        <ele>5</ele>
        <time>2020-01-12T06:52:15Z</time>
      </trkpt>
      <trkpt lat="59.324159" lon="18.075609">
        <ele>5</ele>
        <time>2020-01-12T06:52:16Z</time>
      </trkpt>
      <trkpt lat="59.324228" lon="18.075635">
        <ele>5</ele>
        <time>2020-01-12T06:52:17Z</time>
      </trkpt>
      <trkpt lat="59.324296" lon="18.075661">
        <ele>5</ele>
        <time>2020-01-12T06:52:18Z</time>
      </trkpt>
      <trkpt lat="59.324367" lon="18.07568">
        <ele>5</ele>
        <time>2020-01-12T06:52:19Z</time>
      </trkpt>
      <trkpt lat="59.324436" lon="18.075697">
        <ele>5</ele>
        <time>2020-01-12T06:52:20Z</time>
      </trkpt>
      <trkpt lat="59.324502" lon="18.07572">
        <ele>5</ele>
        <time>2020-01-12T06:52:21Z</time>
      </trkpt>
      <trkpt lat="59.324568" lon="18.075747">
        <ele>5</ele>
        <time>2020-01-12T06:52:22Z</time>
      </trkpt>
      <trkpt lat="59.324632" lon="18.075773">
        <ele>5</ele>
        <time>2020-01-12T06:52:23Z</time>
      </trkpt>
      <trkpt lat="59.324698" lon="18.075798">
        <ele>5</ele>
        <time>2020-01-12T06:52:24Z</time>
      </trkpt>
      <trkpt lat="59.324766" lon="18.075816">
        <ele>5</ele>
        <time>2020-01-12T06:52:25Z</time>
      </trkpt>
      <trkpt lat="59.324832" lon="18.075834">
        <ele>5</ele>
        <time>2020-01-12T06:52:26Z</time>
      </trkpt>
      <trkpt lat="59.324898" lon="18.075842">
        <ele>5</ele>
        <time>2020-01-12T06:52:27Z</time>
      </trkpt>
      <trkpt lat="59.324962" lon="18.075846">
        <ele>5</ele>
        <time>2020-01-12T06:52:28Z</time>
      </trkpt>
      <trkpt lat="59.325026" lon="18.075856">
        <ele>5</ele>
        <time>2020-01-12T06:52:29Z</time>
      </trkpt>
      <trkpt lat="59.32509" lon="18.075865">
        <ele>5</ele>
        <time>2020-01-12T06:52:30Z</time>
      </trkpt>
      <trkpt lat="59.325158" lon="18.075861">
        <ele>5</ele>
        <time>2020-01-12T06:52:31Z</time>
      </trkpt>
      <trkpt lat="59.325225" lon="18.075847">
        <ele>5</ele>
        <time>2020-01-12T06:52:32Z</time>
      </trkpt>
      <trkpt lat="59.325292" lon="18.075831">
        <ele>6</ele>
        <time>2020-01-12T06:52:33Z</time>
      </trkpt>
      <trkpt lat="59.325357" lon="18.075815">
        <ele>6</ele>
        <time>2020-01-12T06:52:34Z</time>
      </trkpt>
      <trkpt lat="59.32542" lon="18.075805">
        <ele>6</ele>
        <time>2020-01-12T06:52:35Z</time>
      </trkpt>
      <trkpt lat="59.325481" lon="18.0758">
        <ele>6</ele>
        <time>2020-01-12T06:52:36Z</time>
      </trkpt>
      <trkpt lat="59.325543" lon="18.075796">
        <ele>6</ele>
        <time>2020-01-12T06:52:37Z</time>
      </trkpt>
      <trkpt lat="59.325608" lon="18.075786">
        <ele>6</ele>
        <time>2020-01-12T06:52:38Z</time>
      </trkpt>
      <trkpt lat="59.325676" lon="18.075763">
        <ele>6</ele>
        <time>2020-01-12T06:52:39Z</time>
      </trkpt>
      <trkpt lat="59.325742" lon="18.075729">
        <ele>6</ele>
        <time>2020-01-12T06:52:40Z</time>
      </trkpt>
      <trkpt lat="59.325805" lon="18.075689">
        <ele>6</ele>
        <time>2020-01-12T06:52:41Z</time>
      </trkpt>
      <trkpt lat="59.325867" lon="18.075648">
        <ele>5</ele>
        <time>2020-01-12T06:52:42Z</time>
      </trkpt>
      <trkpt lat="59.325928" lon="18.075606">
        <ele>5</ele>
        <time>2020-01-12T06:52:43Z</time>
      </trkpt>
      <trkpt lat="59.32599" lon="18.075558">
        <ele>5</ele>
        <time>2020-01-12T06:52:44Z</time>
      </trkpt>
      <trkpt lat="59.326047" lon="18.075504">
        <ele>5</ele>
        <time>2020-01-12T06:52:45Z</time>
      </trkpt>
      <trkpt lat="59.326103" lon="18.075447">
        <ele>5</ele>
        <time>2020-01-12T06:52:46Z</time>
      </trkpt>
      <trkpt lat="59.326156" lon="18.075385">
        <ele>5</ele>
        <time>2020-01-12T06:52:47Z</time>
      </trkpt>
      <trkpt lat="59.326208" lon="18.075318">
        <ele>5</ele>
        <time>2020-01-12T06:52:48Z</time>
      </trkpt>
      <trkpt lat="59.32626" lon="18.075247">
        <ele>5</ele>
        <time>2020-01-12T06:52:49Z</time>
      </trkpt>
      <trkpt lat="59.326309" lon="18.075177">
        <ele>5</ele>
        <time>2020-01-12T06:52:50Z</time>
      </trkpt>
      <trkpt lat="59.326362" lon="18.075111">
        <ele>5</ele>
        <time>2020-01-12T06:52:51Z</time>
      </trkpt>
      <trkpt lat="59.326412" lon="18.075046">
        <ele>5</ele>
        <time>2020-01-12T06:52:52Z</time>
      </trkpt>
      <trkpt lat="59.326463" lon="18.074981">
        <ele>5</ele>
        <time>2020-01-12T06:52:53Z</time>
      </trkpt>
      <trkpt lat="59.326516" lon="18.074918">
        <ele>5</ele>
        <time>2020-01-12T06:52:54Z</time>
      </trkpt>
      <trkpt lat="59.32657" lon="18.074863">
        <ele>5</ele>
        <time>2020-01-12T06:52:55Z</time>
      </trkpt>
      <trkpt lat="59.326626" lon="18.074813">
        <ele>0</ele>
        <time>2020-01-12T06:52:55Z</time>
      </trkpt>
      <trkpt lat="59.326683" lon="18.074763">
        <ele>4</ele>
        <time>2020-01-12T06:52:56Z</time>
      </trkpt>
      <trkpt lat="59.326739" lon="18.074712">
        <ele>4</ele>
        <time>2020-01-12T06:52:58Z</time>
      </trkpt>
      <trkpt lat="59.326796" lon="18.074661">
        <ele>4</ele>
        <time>2020-01-12T06:52:59Z</time>
      </trkpt>
      <trkpt lat="59.326852" lon="18.074607">
        <ele>4</ele>
        <time>2020-01-12T06:53:00Z</time>
      </trkpt>
      <trkpt lat="59.326904" lon="18.074544">
        <ele>4</ele>
        <time>2020-01-12T06:53:01Z</time>
      </trkpt>
      <trkpt lat="59.326955" lon="18.074471">
        <ele>4</ele>
        <time>2020-01-12T06:53:02Z</time>
      </trkpt>
      <trkpt lat="59.327005" lon="18.074396">
        <ele>4</ele>
        <time>2020-01-12T06:53:03Z</time>
      </trkpt>
      <trkpt lat="59.327058" lon="18.074326">
        <ele>4</ele>
        <time>2020-01-12T06:53:04Z</time>
      </trkpt>
      <trkpt lat="59.327111" lon="18.074259">
        <ele>4</ele>
        <time>2020-01-12T06:53:05Z</time>
      </trkpt>
      <trkpt lat="59.327165" lon="18.074195">
        <ele>4</ele>
        <time>2020-01-12T06:53:06Z</time>
      </trkpt>
      <trkpt lat="59.32722" lon="18.07413">
        <ele>4</ele>
        <time>2020-01-12T06:53:07Z</time>
      </trkpt>
      <trkpt lat="59.327275" lon="18.074064">
        <ele>4</ele>
        <time>2020-01-12T06:53:08Z</time>
      </trkpt>
      <trkpt lat="59.32733" lon="18.073998">
        <ele>4</ele>
        <time>2020-01-12T06:53:09Z</time>
      </trkpt>
      <trkpt lat="59.327386" lon="18.073932">
        <ele>4</ele>
        <time>2020-01-12T06:53:10Z</time>
      </trkpt>
      <trkpt lat="59.327442" lon="18.073863">
        <ele>4</ele>
        <time>2020-01-12T06:53:11Z</time>
      </trkpt>
      <trkpt lat="59.327497" lon="18.073796">
        <ele>4</ele>
        <time>2020-01-12T06:53:12Z</time>
      </trkpt>
      <trkpt lat="59.327552" lon="18.073729">
        <ele>4</ele>
        <time>2020-01-12T06:53:13Z</time>
      </trkpt>
      <trkpt lat="59.327605" lon="18.073665">
        <ele>4</ele>
        <time>2020-01-12T06:53:14Z</time>
      </trkpt>
      <trkpt lat="59.327658" lon="18.073602">
        <ele>4</ele>
        <time>2020-01-12T06:53:15Z</time>
      </trkpt>
      <trkpt lat="59.327711" lon="18.073541">
        <ele>4</ele>
        <time>2020-01-12T06:53:16Z</time>
      </trkpt>
      <trkpt lat="59.327763" lon="18.073479">
        <ele>4</ele>
        <time>2020-01-12T06:53:17Z</time>
      </trkpt>
      <trkpt lat="59.327815" lon="18.073418">
        <ele>4</ele>
        <time>2020-01-12T06:53:18Z</time>
      </trkpt>
      <trkpt lat="59.327867" lon="18.073358">
        <ele>4</ele>
        <time>2020-01-12T06:53:19Z</time>
      </trkpt>
      <trkpt lat="59.327919" lon="18.073302">
        <ele>4</ele>
        <time>2020-01-12T06:53:20Z</time>
      </trkpt>
      <trkpt lat="59.327973" lon="18.073248">
        <ele>4</ele>
        <time>2020-01-12T06:53:21Z</time>
      </trkpt>
      <trkpt lat="59.328028" lon="18.073201">
        <ele>4</ele>
        <time>2020-01-12T06:53:22Z</time>
      </trkpt>
      <trkpt lat="59.328086" lon="18.073162">
        <ele>4</ele>
        <time>2020-01-12T06:53:23Z</time>
      </trkpt>
      <trkpt lat="59.328144" lon="18.073128">
        <ele>4</ele>
        <time>2020-01-12T06:53:24Z</time>
      </trkpt>
      <trkpt lat="59.328203" lon="18.073102">
        <ele>4</ele>
        <time>2020-01-12T06:53:25Z</time>
      </trkpt>
      <trkpt lat="59.328264" lon="18.073091">
        <ele>4</ele>
        <time>2020-01-12T06:53:26Z</time>
      </trkpt>
      <trkpt lat="59.328323" lon="18.073093">
        <ele>4</ele>
        <time>2020-01-12T06:53:27Z</time>
      </trkpt>
      <trkpt lat="59.328382" lon="18.073105">
        <ele>4</ele>
        <time>2020-01-12T06:53:28Z</time>
      </trkpt>
      <trkpt lat="59.32844" lon="18.07312">
        <ele>4</ele>
        <time>2020-01-12T06:53:29Z</time>
      </trkpt>
      <trkpt lat="59.328499" lon="18.073136">
        <ele>4</ele>
        <time>2020-01-12T06:53:30Z</time>
      </trkpt>
      <trkpt lat="59.328559" lon="18.073151">
        <ele>3</ele>
        <time>2020-01-12T06:53:31Z</time>
      </trkpt>
      <trkpt lat="59.328618" lon="18.073167">
        <ele>3</ele>
        <time>2020-01-12T06:53:32Z</time>
      </trkpt>
      <trkpt lat="59.328679" lon="18.073183">
        <ele>3</ele>
        <time>2020-01-12T06:53:33Z</time>
      </trkpt>
      <trkpt lat="59.32874" lon="18.073198">
        <ele>3</ele>
        <time>2020-01-12T06:53:34Z</time>
      </trkpt>
      <trkpt lat="59.328801" lon="18.073212">
        <ele>3</ele>
        <time>2020-01-12T06:53:35Z</time>
      </trkpt>
      <trkpt lat="59.328864" lon="18.073226">
        <ele>3</ele>
        <time>2020-01-12T06:53:36Z</time>
      </trkpt>
      <trkpt lat="59.328927" lon="18.073242">
        <ele>3</ele>
        <time>2020-01-12T06:53:37Z</time>
      </trkpt>
      <trkpt lat="59.328991" lon="18.073258">
        <ele>3</ele>
        <time>2020-01-12T06:53:38Z</time>
      </trkpt>
      <trkpt lat="59.329056" lon="18.073273">
        <ele>3</ele>
        <time>2020-01-12T06:53:39Z</time>
      </trkpt>
      <trkpt lat="59.329121" lon="18.073289">
        <ele>3</ele>
        <time>2020-01-12T06:53:40Z</time>
      </trkpt>
      <trkpt lat="59.329186" lon="18.073305">
        <ele>2</ele>
        <time>2020-01-12T06:53:41Z</time>
      </trkpt>
      <trkpt lat="59.329252" lon="18.07332">
        <ele>2</ele>
        <time>2020-01-12T06:53:42Z</time>
      </trkpt>
      <trkpt lat="59.329318" lon="18.073335">
        <ele>2</ele>
        <time>2020-01-12T06:53:43Z</time>
      </trkpt>
      <trkpt lat="59.329383" lon="18.073349">
        <ele>2</ele>
        <time>2020-01-12T06:53:44Z</time>
      </trkpt>
      <trkpt lat="59.329448" lon="18.073368">
        <ele>2</ele>
        <time>2020-01-12T06:53:45Z</time>
      </trkpt>
      <trkpt lat="59.329508" lon="18.073409">
        <ele>2</ele>
        <time>2020-01-12T06:53:46Z</time>
      </trkpt>
      <trkpt lat="59.32956" lon="18.073479">
        <ele>2</ele>
        <time>2020-01-12T06:53:47Z</time>
      </trkpt>
      <trkpt lat="59.3296" lon="18.073576">
        <ele>2</ele>
        <time>2020-01-12T06:53:48Z</time>
      </trkpt>
      <trkpt lat="59.329632" lon="18.073684">
        <ele>2</ele>
        <time>2020-01-12T06:53:49Z</time>
      </trkpt>
      <trkpt lat="59.329659" lon="18.073797">
        <ele>2</ele>
        <time>2020-01-12T06:53:50Z</time>
      </trkpt>
      <trkpt lat="59.329682" lon="18.073915">
        <ele>3</ele>
        <time>2020-01-12T06:53:51Z</time>
      </trkpt>
      <trkpt lat="59.3297" lon="18.074038">
        <ele>3</ele>
        <time>2020-01-12T06:53:52Z</time>
      </trkpt>
      <trkpt lat="59.329713" lon="18.074163">
        <ele>3</ele>
        <time>2020-01-12T06:53:53Z</time>
      </trkpt>
      <trkpt lat="59.329725" lon="18.074291">
        <ele>3</ele>
        <time>2020-01-12T06:53:54Z</time>
      </trkpt>
      <trkpt lat="59.329737" lon="18.074419">
        <ele>3</ele>
        <time>2020-01-12T06:53:55Z</time>
      </trkpt>
      <trkpt lat="59.329752" lon="18.074543">
        <ele>3</ele>
        <time>2020-01-12T06:53:56Z</time>
      </trkpt>
      <trkpt lat="59.329779" lon="18.074657">
        <ele>3</ele>
        <time>2020-01-12T06:53:57Z</time>
      </trkpt>
      <trkpt lat="59.329817" lon="18.074756">
        <ele>3</ele>
        <time>2020-01-12T06:53:58Z</time>
      </trkpt>
      <trkpt lat="59.329859" lon="18.074841">
        <ele>3</ele>
        <time>2020-01-12T06:53:59Z</time>
      </trkpt>
      <trkpt lat="59.329904" lon="18.074914">
        <ele>4</ele>
        <time>2020-01-12T06:54:00Z</time>
      </trkpt>
      <trkpt lat="59.329947" lon="18.07498">
        <ele>4</ele>
        <time>2020-01-12T06:54:01Z</time>
      </trkpt>
      <trkpt lat="59.329991" lon="18.075044">
        <ele>4</ele>
        <time>2020-01-12T06:54:02Z</time>
      </trkpt>
      <trkpt lat="59.330034" lon="18.075105">
        <ele>5</ele>
        <time>2020-01-12T06:54:03Z</time>
      </trkpt>
      <trkpt lat="59.330074" lon="18.075166">
        <ele>5</ele>
        <time>2020-01-12T06:54:04Z</time>
      </trkpt>
      <trkpt lat="59.330113" lon="18.075224">
        <ele>5</ele>
        <time>2020-01-12T06:54:05Z</time>
      </trkpt>
      <trkpt lat="59.330153" lon="18.075285">
        <ele>6</ele>
        <time>2020-01-12T06:54:06Z</time>
      </trkpt>
      <trkpt lat="59.330193" lon="18.075349">
        <ele>6</ele>
        <time>2020-01-12T06:54:07Z</time>
      </trkpt>
      <trkpt lat="59.330234" lon="18.075413">
        <ele>6</ele>
        <time>2020-01-12T06:54:08Z</time>
      </trkpt>
      <trkpt lat="59.330273" lon="18.075476">
        <ele>7</ele>
        <time>2020-01-12T06:54:09Z</time>
      </trkpt>
      <trkpt lat="59.330314" lon="18.075535">
        <ele>7</ele>
        <time>2020-01-12T06:54:10Z</time>
      </trkpt>
      <trkpt lat="59.330352" lon="18.075589">
        <ele>8</ele>
        <time>2020-01-12T06:54:11Z</time>
      </trkpt>
      <trkpt lat="59.330388" lon="18.075629">
        <ele>8</ele>
        <time>2020-01-12T06:54:12Z</time>
      </trkpt>
      <trkpt lat="59.330422" lon="18.075687">
        <ele>8</ele>
        <time>2020-01-12T06:54:13Z</time>
      </trkpt>
      <trkpt lat="59.330458" lon="18.075734">
        <ele>9</ele>
        <time>2020-01-12T06:54:14Z</time>
      </trkpt>
      <trkpt lat="59.330499" lon="18.07578">
        <ele>9</ele>
        <time>2020-01-12T06:54:15Z</time>
      </trkpt>
      <trkpt lat="59.330538" lon="18.075837">
        <ele>9</ele>
        <time>2020-01-12T06:54:16Z</time>
      </trkpt>
      <trkpt lat="59.330579" lon="18.075906">
        <ele>9</ele>
        <time>2020-01-12T06:54:17Z</time>
      </trkpt>
      <trkpt lat="59.330621" lon="18.075986">
        <ele>9</ele>
        <time>2020-01-12T06:54:18Z</time>
      </trkpt>
      <trkpt lat="59.330669" lon="18.076067">
        <ele>9</ele>
        <time>2020-01-12T06:54:19Z</time>
      </trkpt>
      <trkpt lat="59.330719" lon="18.076143">
        <ele>9</ele>
        <time>2020-01-12T06:54:20Z</time>
      </trkpt>
      <trkpt lat="59.330774" lon="18.076226">
        <ele>9</ele>
        <time>2020-01-12T06:54:21Z</time>
      </trkpt>
      <trkpt lat="59.330833" lon="18.076307">
        <ele>9</ele>
        <time>2020-01-12T06:54:22Z</time>
      </trkpt>
      <trkpt lat="59.330892" lon="18.076385">
        <ele>9</ele>
        <time>2020-01-12T06:54:23Z</time>
      </trkpt>
      <trkpt lat="59.330954" lon="18.076467">
        <ele>9</ele>
        <time>2020-01-12T06:54:24Z</time>
      </trkpt>
      <trkpt lat="59.331024" lon="18.076544">
        <ele>9</ele>
        <time>2020-01-12T06:54:25Z</time>
      </trkpt>
      <trkpt lat="59.331095" lon="18.076599">
        <ele>9</ele>
        <time>2020-01-12T06:54:26Z</time>
      </trkpt>
      <trkpt lat="59.331163" lon="18.076632">
        <ele>9</ele>
        <time>2020-01-12T06:54:27Z</time>
      </trkpt>
      <trkpt lat="59.331234" lon="18.076613">
        <ele>8</ele>
        <time>2020-01-12T06:54:28Z</time>
      </trkpt>
      <trkpt lat="59.331299" lon="18.076554">
        <ele>9</ele>
        <time>2020-01-12T06:54:29Z</time>
      </trkpt>
      <trkpt lat="59.331353" lon="18.076465">
        <ele>9</ele>
        <time>2020-01-12T06:54:30Z</time>
      </trkpt>
      <trkpt lat="59.331404" lon="18.076376">
        <ele>9</ele>
        <time>2020-01-12T06:54:31Z</time>
      </trkpt>
      <trkpt lat="59.331458" lon="18.076294">
        <ele>9</ele>
        <time>2020-01-12T06:54:32Z</time>
      </trkpt>
      <trkpt lat="59.331517" lon="18.076226">
        <ele>8</ele>
        <time>2020-01-12T06:54:33Z</time>
      </trkpt>
      <trkpt lat="59.331578" lon="18.07617">
        <ele>8</ele>
        <time>2020-01-12T06:54:34Z</time>
      </trkpt>
      <trkpt lat="59.331639" lon="18.076132">
        <ele>8</ele>
        <time>2020-01-12T06:54:35Z</time>
      </trkpt>
      <trkpt lat="59.331704" lon="18.076112">
        <ele>8</ele>
        <time>2020-01-12T06:54:36Z</time>
      </trkpt>
      <trkpt lat="59.331772" lon="18.076113">
        <ele>8</ele>
        <time>2020-01-12T06:54:37Z</time>
      </trkpt>
      <trkpt lat="59.331838" lon="18.076125">
        <ele>8</ele>
        <time>2020-01-12T06:54:38Z</time>
      </trkpt>
      <trkpt lat="59.331904" lon="18.076139">
        <ele>8</ele>
        <time>2020-01-12T06:54:39Z</time>
      </trkpt>
      <trkpt lat="59.331968" lon="18.07616">
        <ele>8</ele>
        <time>2020-01-12T06:54:40Z</time>
      </trkpt>
      <trkpt lat="59.33203" lon="18.076192">
        <ele>8</ele>
        <time>2020-01-12T06:54:41Z</time>
      </trkpt>
      <trkpt lat="59.332089" lon="18.076244">
        <ele>7</ele>
        <time>2020-01-12T06:54:42Z</time>
      </trkpt>
      <trkpt lat="59.332146" lon="18.076309">
        <ele>7</ele>
        <time>2020-01-12T06:54:43Z</time>
      </trkpt>
      <trkpt lat="59.3322" lon="18.076383">
        <ele>7</ele>
        <time>2020-01-12T06:54:44Z</time>
      </trkpt>
      <trkpt lat="59.332251" lon="18.076465">
        <ele>7</ele>
        <time>2020-01-12T06:54:45Z</time>
      </trkpt>
      <trkpt lat="59.332298" lon="18.076555">
        <ele>7</ele>
        <time>2020-01-12T06:54:46Z</time>
      </trkpt>
      <trkpt lat="59.332341" lon="18.076652">
        <ele>7</ele>
        <time>2020-01-12T06:54:47Z</time>
      </trkpt>
      <trkpt lat="59.33238" lon="18.076754">
        <ele>7</ele>
        <time>2020-01-12T06:54:48Z</time>
      </trkpt>
      <trkpt lat="59.332415" lon="18.076856">
        <ele>7</ele>
        <time>2020-01-12T06:54:49Z</time>
      </trkpt>
      <trkpt lat="59.33245" lon="18.076955">
        <ele>7</ele>
        <time>2020-01-12T06:54:50Z</time>
      </trkpt>
      <trkpt lat="59.332488" lon="18.07705">
        <ele>7</ele>
        <time>2020-01-12T06:54:51Z</time>
      </trkpt>
      <trkpt lat="59.332532" lon="18.077132">
        <ele>7</ele>
        <time>2020-01-12T06:54:52Z</time>
      </trkpt>
      <trkpt lat="59.332585" lon="18.077194">
        <ele>7</ele>
        <time>2020-01-12T06:54:53Z</time>
      </trkpt>
      <trkpt lat="59.332642" lon="18.077241">
        <ele>7</ele>
        <time>2020-01-12T06:54:54Z</time>
      </trkpt>
      <trkpt lat="59.332697" lon="18.07728">
        <ele>7</ele>
        <time>2020-01-12T06:54:55Z</time>
      </trkpt>
      <trkpt lat="59.332751" lon="18.077314">
        <ele>7</ele>
        <time>2020-01-12T06:54:56Z</time>
      </trkpt>
      <trkpt lat="59.332809" lon="18.077348">
        <ele>7</ele>
        <time>2020-01-12T06:54:57Z</time>
      </trkpt>
      <trkpt lat="59.332866" lon="18.077383">
        <ele>7</ele>
        <time>2020-01-12T06:54:58Z</time>
      </trkpt>
      <trkpt lat="59.332921" lon="18.077414">
        <ele>7</ele>
        <time>2020-01-12T06:54:59Z</time>
      </trkpt>
      <trkpt lat="59.332977" lon="18.077449">
        <ele>7</ele>
        <time>2020-01-12T06:55:00Z</time>
      </trkpt>
      <trkpt lat="59.333031" lon="18.077487">
        <ele>7</ele>
        <time>2020-01-12T06:55:01Z</time>
      </trkpt>
      <trkpt lat="59.333087" lon="18.07752">
        <ele>8</ele>
        <time>2020-01-12T06:55:02Z</time>
      </trkpt>
      <trkpt lat="59.333143" lon="18.077557">
        <ele>8</ele>
        <time>2020-01-12T06:55:03Z</time>
      </trkpt>
      <trkpt lat="59.333201" lon="18.077593">
        <ele>8</ele>
        <time>2020-01-12T06:55:04Z</time>
      </trkpt>
      <trkpt lat="59.333254" lon="18.077636">
        <ele>8</ele>
        <time>2020-01-12T06:55:05Z</time>
      </trkpt>
      <trkpt lat="59.333306" lon="18.077677">
        <ele>9</ele>
        <time>2020-01-12T06:55:06Z</time>
      </trkpt>
      <trkpt lat="59.333361" lon="18.077718">
        <ele>9</ele>
        <time>2020-01-12T06:55:07Z</time>
      </trkpt>
      <trkpt lat="59.333413" lon="18.077754">
        <ele>9</ele>
        <time>2020-01-12T06:55:08Z</time>
      </trkpt>
      <trkpt lat="59.333457" lon="18.077802">
        <ele>9</ele>
        <time>2020-01-12T06:55:09Z</time>
      </trkpt>
      <trkpt lat="59.333504" lon="18.077846">
        <ele>9</ele>
        <time>2020-01-12T06:55:10Z</time>
      </trkpt>
      <trkpt lat="59.333551" lon="18.077886">
        <ele>9</ele>
        <time>2020-01-12T06:55:11Z</time>
      </trkpt>
      <trkpt lat="59.333597" lon="18.077921">
        <ele>9</ele>
        <time>2020-01-12T06:55:12Z</time>
      </trkpt>
      <trkpt lat="59.333643" lon="18.077964">
        <ele>9</ele>
        <time>2020-01-12T06:55:13Z</time>
      </trkpt>
      <trkpt lat="59.333689" lon="18.078002">
        <ele>9</ele>
        <time>2020-01-12T06:55:14Z</time>
      </trkpt>
      <trkpt lat="59.333737" lon="18.078036">
        <ele>10</ele>
        <time>2020-01-12T06:55:15Z</time>
      </trkpt>
      <trkpt lat="59.333782" lon="18.07807">
        <ele>10</ele>
        <time>2020-01-12T06:55:16Z</time>
      </trkpt>
      <trkpt lat="59.333831" lon="18.078097">
        <ele>10</ele>
        <time>2020-01-12T06:55:17Z</time>
      </trkpt>
      <trkpt lat="59.333878" lon="18.078128">
        <ele>10</ele>
        <time>2020-01-12T06:55:18Z</time>
      </trkpt>
      <trkpt lat="59.333926" lon="18.078155">
        <ele>10</ele>
        <time>2020-01-12T06:55:19Z</time>
      </trkpt>
      <trkpt lat="59.333973" lon="18.078185">
        <ele>11</ele>
        <time>2020-01-12T06:55:20Z</time>
      </trkpt>
      <trkpt lat="59.334022" lon="18.078207">
        <ele>11</ele>
        <time>2020-01-12T06:55:21Z</time>
      </trkpt>
      <trkpt lat="59.334072" lon="18.078225">
        <ele>11</ele>
        <time>2020-01-12T06:55:22Z</time>
      </trkpt>
      <trkpt lat="59.334117" lon="18.078255">
        <ele>11</ele>
        <time>2020-01-12T06:55:23Z</time>
      </trkpt>
      <trkpt lat="59.334156" lon="18.078297">
        <ele>11</ele>
        <time>2020-01-12T06:55:24Z</time>
      </trkpt>
      <trkpt lat="59.334195" lon="18.078331">
        <ele>11</ele>
        <time>2020-01-12T06:55:25Z</time>
      </trkpt>
      <trkpt lat="59.334224" lon="18.078369">
        <ele>12</ele>
        <time>2020-01-12T06:55:26Z</time>
      </trkpt>
      <trkpt lat="59.33426" lon="18.078401">
        <ele>12</ele>
        <time>2020-01-12T06:55:27Z</time>
      </trkpt>
      <trkpt lat="59.334297" lon="18.078432">
        <ele>12</ele>
        <time>2020-01-12T06:55:28Z</time>
      </trkpt>
      <trkpt lat="59.334341" lon="18.078457">
        <ele>12</ele>
        <time>2020-01-12T06:55:29Z</time>
      </trkpt>
      <trkpt lat="59.334388" lon="18.078483">
        <ele>13</ele>
        <time>2020-01-12T06:55:30Z</time>
      </trkpt>
      <trkpt lat="59.334432" lon="18.078511">
        <ele>13</ele>
        <time>2020-01-12T06:55:31Z</time>
      </trkpt>
      <trkpt lat="59.334476" lon="18.078534">
        <ele>13</ele>
        <time>2020-01-12T06:55:32Z</time>
      </trkpt>
      <trkpt lat="59.33452" lon="18.07856">
        <ele>13</ele>
        <time>2020-01-12T06:55:33Z</time>
      </trkpt>
      <trkpt lat="59.334566" lon="18.078579">
        <ele>13</ele>
        <time>2020-01-12T06:55:34Z</time>
      </trkpt>
      <trkpt lat="59.334611" lon="18.078602">
        <ele>13</ele>
        <time>2020-01-12T06:55:35Z</time>
      </trkpt>
      <trkpt lat="59.33474" lon="18.078665">
        <ele>14</ele>
        <time>2020-01-12T06:55:38Z</time>
      </trkpt>
      <trkpt lat="59.334833" lon="18.078693">
        <ele>14</ele>
        <time>2020-01-12T06:55:40Z</time>
      </trkpt>
      <trkpt lat="59.334921" lon="18.078749">
        <ele>14</ele>
        <time>2020-01-12T06:55:42Z</time>
      </trkpt>
      <trkpt lat="59.334963" lon="18.078785">
        <ele>15</ele>
        <time>2020-01-12T06:55:43Z</time>
      </trkpt>
      <trkpt lat="59.334999" lon="18.078829">
        <ele>15</ele>
        <time>2020-01-12T06:55:44Z</time>
      </trkpt>
      <trkpt lat="59.335032" lon="18.078873">
        <ele>15</ele>
        <time>2020-01-12T06:55:45Z</time>
      </trkpt>
      <trkpt lat="59.335063" lon="18.078923">
        <ele>15</ele>
        <time>2020-01-12T06:55:46Z</time>
      </trkpt>
      <trkpt lat="59.335099" lon="18.078967">
        <ele>15</ele>
        <time>2020-01-12T06:55:47Z</time>
      </trkpt>
      <trkpt lat="59.335134" lon="18.07901">
        <ele>15</ele>
        <time>2020-01-12T06:55:48Z</time>
      </trkpt>
      <trkpt lat="59.335168" lon="18.079053">
        <ele>15</ele>
        <time>2020-01-12T06:55:49Z</time>
      </trkpt>
      <trkpt lat="59.335203" lon="18.079091">
        <ele>16</ele>
        <time>2020-01-12T06:55:50Z</time>
      </trkpt>
      <trkpt lat="59.335241" lon="18.079117">
        <ele>16</ele>
        <time>2020-01-12T06:55:51Z</time>
      </trkpt>
      <trkpt lat="59.33528" lon="18.079142">
        <ele>16</ele>
        <time>2020-01-12T06:55:52Z</time>
      </trkpt>
      <trkpt lat="59.335317" lon="18.07918">
        <ele>16</ele>
        <time>2020-01-12T06:55:53Z</time>
      </trkpt>
      <trkpt lat="59.335355" lon="18.07922">
        <ele>16</ele>
        <time>2020-01-12T06:55:54Z</time>
      </trkpt>
      <trkpt lat="59.335391" lon="18.07926">
        <ele>16</ele>
        <time>2020-01-12T06:55:55Z</time>
      </trkpt>
      <trkpt lat="59.335423" lon="18.079285">
        <ele>16</ele>
        <time>2020-01-12T06:55:56Z</time>
      </trkpt>
      <trkpt lat="59.33545" lon="18.079305">
        <ele>17</ele>
        <time>2020-01-12T06:55:57Z</time>
      </trkpt>
      <trkpt lat="59.335487" lon="18.079329">
        <ele>17</ele>
        <time>2020-01-12T06:55:58Z</time>
      </trkpt>
      <trkpt lat="59.335523" lon="18.079367">
        <ele>17</ele>
        <time>2020-01-12T06:55:59Z</time>
      </trkpt>
      <trkpt lat="59.335559" lon="18.079407">
        <ele>17</ele>
        <time>2020-01-12T06:56:00Z</time>
      </trkpt>
      <trkpt lat="59.335589" lon="18.079462">
        <ele>17</ele>
        <time>2020-01-12T06:56:01Z</time>
      </trkpt>
      <trkpt lat="59.335622" lon="18.079509">
        <ele>18</ele>
        <time>2020-01-12T06:56:02Z</time>
      </trkpt>
      <trkpt lat="59.335658" lon="18.079563">
        <ele>18</ele>
        <time>2020-01-12T06:56:03Z</time>
      </trkpt>
      <trkpt lat="59.335693" lon="18.079609">
        <ele>18</ele>
        <time>2020-01-12T06:56:04Z</time>
      </trkpt>
      <trkpt lat="59.33573" lon="18.079648">
        <ele>18</ele>
        <time>2020-01-12T06:56:05Z</time>
      </trkpt>
      <trkpt lat="59.335767" lon="18.079684">
        <ele>18</ele>
        <time>2020-01-12T06:56:06Z</time>
      </trkpt>
      <trkpt lat="59.335807" lon="18.079716">
        <ele>18</ele>
        <time>2020-01-12T06:56:07Z</time>
      </trkpt>
      <trkpt lat="59.335844" lon="18.079745">
        <ele>18</ele>
        <time>2020-01-12T06:56:08Z</time>
      </trkpt>
      <trkpt lat="59.335882" lon="18.079772">
        <ele>18</ele>
        <time>2020-01-12T06:56:09Z</time>
      </trkpt>
      <trkpt lat="59.335927" lon="18.079798">
        <ele>18</ele>
        <time>2020-01-12T06:56:10Z</time>
      </trkpt>
      <trkpt lat="59.335975" lon="18.079821">
        <ele>18</ele>
        <time>2020-01-12T06:56:11Z</time>
      </trkpt>
      <trkpt lat="59.336023" lon="18.079841">
        <ele>18</ele>
        <time>2020-01-12T06:56:12Z</time>
      </trkpt>
      <trkpt lat="59.336068" lon="18.079879">
        <ele>18</ele>
        <time>2020-01-12T06:56:13Z</time>
      </trkpt>
      <trkpt lat="59.336114" lon="18.07992">
        <ele>19</ele>
        <time>2020-01-12T06:56:14Z</time>
      </trkpt>
      <trkpt lat="59.33616" lon="18.079959">
        <ele>19</ele>
        <time>2020-01-12T06:56:15Z</time>
      </trkpt>
      <trkpt lat="59.336206" lon="18.079999">
        <ele>19</ele>
        <time>2020-01-12T06:56:16Z</time>
      </trkpt>
      <trkpt lat="59.336257" lon="18.080029">
        <ele>19</ele>
        <time>2020-01-12T06:56:17Z</time>
      </trkpt>
      <trkpt lat="59.336308" lon="18.080059">
        <ele>20</ele>
        <time>2020-01-12T06:56:18Z</time>
      </trkpt>
      <trkpt lat="59.336359" lon="18.080091">
        <ele>20</ele>
        <time>2020-01-12T06:56:19Z</time>
      </trkpt>
      <trkpt lat="59.336411" lon="18.080129">
        <ele>20</ele>
        <time>2020-01-12T06:56:20Z</time>
      </trkpt>
      <trkpt lat="59.336461" lon="18.080168">
        <ele>20</ele>
        <time>2020-01-12T06:56:21Z</time>
      </trkpt>
      <trkpt lat="59.336513" lon="18.080207">
        <ele>20</ele>
        <time>2020-01-12T06:56:22Z</time>
      </trkpt>
      <trkpt lat="59.336573" lon="18.080238">
        <ele>20</ele>
        <time>2020-01-12T06:56:23Z</time>
      </trkpt>
      <trkpt lat="59.336633" lon="18.080269">
        <ele>20</ele>
        <time>2020-01-12T06:56:24Z</time>
      </trkpt>
      <trkpt lat="59.336693" lon="18.080295">
        <ele>19</ele>
        <time>2020-01-12T06:56:25Z</time>
      </trkpt>
      <trkpt lat="59.336752" lon="18.080322">
        <ele>19</ele>
        <time>2020-01-12T06:56:26Z</time>
      </trkpt>
      <trkpt lat="59.336811" lon="18.080345">
        <ele>19</ele>
        <time>2020-01-12T06:56:27Z</time>
      </trkpt>
      <trkpt lat="59.336868" lon="18.080368">
        <ele>19</ele>
        <time>2020-01-12T06:56:28Z</time>
      </trkpt>
      <trkpt lat="59.336925" lon="18.080392">
        <ele>19</ele>
        <time>2020-01-12T06:56:29Z</time>
      </trkpt>
      <trkpt lat="59.336982" lon="18.080415">
        <ele>19</ele>
        <time>2020-01-12T06:56:30Z</time>
      </trkpt>
      <trkpt lat="59.33704" lon="18.080451">
        <ele>19</ele>
        <time>2020-01-12T06:56:31Z</time>
      </trkpt>
      <trkpt lat="59.337098" lon="18.080482">
        <ele>19</ele>
        <time>2020-01-12T06:56:32Z</time>
      </trkpt>
      <trkpt lat="59.337143" lon="18.080568">
        <ele>20</ele>
        <time>2020-01-12T06:56:33Z</time>
      </trkpt>
      <trkpt lat="59.337185" lon="18.080665">
        <ele>20</ele>
        <time>2020-01-12T06:56:34Z</time>
      </trkpt>
      <trkpt lat="59.33723" lon="18.080755">
        <ele>19</ele>
        <time>2020-01-12T06:56:35Z</time>
      </trkpt>
      <trkpt lat="59.337281" lon="18.080818">
        <ele>19</ele>
        <time>2020-01-12T06:56:36Z</time>
      </trkpt>
      <trkpt lat="59.337335" lon="18.080872">
        <ele>20</ele>
        <time>2020-01-12T06:56:37Z</time>
      </trkpt>
      <trkpt lat="59.337391" lon="18.08091">
        <ele>20</ele>
        <time>2020-01-12T06:56:38Z</time>
      </trkpt>
      <trkpt lat="59.33745" lon="18.080947">
        <ele>20</ele>
        <time>2020-01-12T06:56:39Z</time>
      </trkpt>
      <trkpt lat="59.337513" lon="18.080984">
        <ele>20</ele>
        <time>2020-01-12T06:56:40Z</time>
      </trkpt>
      <trkpt lat="59.337577" lon="18.081019">
        <ele>20</ele>
        <time>2020-01-12T06:56:41Z</time>
      </trkpt>
      <trkpt lat="59.33764" lon="18.081058">
        <ele>20</ele>
        <time>2020-01-12T06:56:42Z</time>
      </trkpt>
      <trkpt lat="59.337703" lon="18.081097">
        <ele>20</ele>
        <time>2020-01-12T06:56:43Z</time>
      </trkpt>
      <trkpt lat="59.337765" lon="18.081141">
        <ele>20</ele>
        <time>2020-01-12T06:56:44Z</time>
      </trkpt>
      <trkpt lat="59.337829" lon="18.081182">
        <ele>20</ele>
        <time>2020-01-12T06:56:45Z</time>
      </trkpt>
      <trkpt lat="59.33789" lon="18.081232">
        <ele>20</ele>
        <time>2020-01-12T06:56:46Z</time>
      </trkpt>
      <trkpt lat="59.337951" lon="18.081282">
        <ele>20</ele>
        <time>2020-01-12T06:56:47Z</time>
      </trkpt>
      <trkpt lat="59.338013" lon="18.08133">
        <ele>20</ele>
        <time>2020-01-12T06:56:48Z</time>
      </trkpt>
      <trkpt lat="59.338074" lon="18.081386">
        <ele>20</ele>
        <time>2020-01-12T06:56:49Z</time>
      </trkpt>
      <trkpt lat="59.338137" lon="18.081441">
        <ele>20</ele>
        <time>2020-01-12T06:56:50Z</time>
      </trkpt>
      <trkpt lat="59.338198" lon="18.081488">
        <ele>21</ele>
        <time>2020-01-12T06:56:51Z</time>
      </trkpt>
      <trkpt lat="59.338254" lon="18.081553">
        <ele>21</ele>
        <time>2020-01-12T06:56:52Z</time>
      </trkpt>
      <trkpt lat="59.338305" lon="18.08163">
        <ele>21</ele>
        <time>2020-01-12T06:56:53Z</time>
      </trkpt>
      <trkpt lat="59.33835" lon="18.081701">
        <ele>21</ele>
        <time>2020-01-12T06:56:54Z</time>
      </trkpt>
      <trkpt lat="59.338396" lon="18.081766">
        <ele>21</ele>
        <time>2020-01-12T06:56:55Z</time>
      </trkpt>
      <trkpt lat="59.338444" lon="18.081802">
        <ele>21</ele>
        <time>2020-01-12T06:56:56Z</time>
      </trkpt>
      <trkpt lat="59.338489" lon="18.081844">
        <ele>21</ele>
        <time>2020-01-12T06:56:57Z</time>
      </trkpt>
      <trkpt lat="59.338538" lon="18.081868">
        <ele>21</ele>
        <time>2020-01-12T06:56:58Z</time>
      </trkpt>
      <trkpt lat="59.338596" lon="18.081897">
        <ele>22</ele>
        <time>2020-01-12T06:56:59Z</time>
      </trkpt>
      <trkpt lat="59.338653" lon="18.081939">
        <ele>22</ele>
        <time>2020-01-12T06:57:00Z</time>
      </trkpt>
      <trkpt lat="59.338712" lon="18.081973">
        <ele>22</ele>
        <time>2020-01-12T06:57:01Z</time>
      </trkpt>
      <trkpt lat="59.338772" lon="18.082009">
        <ele>22</ele>
        <time>2020-01-12T06:57:02Z</time>
      </trkpt>
      <trkpt lat="59.338831" lon="18.082035">
        <ele>23</ele>
        <time>2020-01-12T06:57:03Z</time>
      </trkpt>
      <trkpt lat="59.338887" lon="18.082063">
        <ele>23</ele>
        <time>2020-01-12T06:57:04Z</time>
      </trkpt>
      <trkpt lat="59.338939" lon="18.082098">
        <ele>23</ele>
        <time>2020-01-12T06:57:05Z</time>
      </trkpt>
      <trkpt lat="59.338992" lon="18.082131">
        <ele>23</ele>
        <time>2020-01-12T06:57:06Z</time>
      </trkpt>
      <trkpt lat="59.339043" lon="18.082155">
        <ele>24</ele>
        <time>2020-01-12T06:57:07Z</time>
      </trkpt>
      <trkpt lat="59.339094" lon="18.082191">
        <ele>24</ele>
        <time>2020-01-12T06:57:08Z</time>
      </trkpt>
      <trkpt lat="59.339139" lon="18.082268">
        <ele>24</ele>
        <time>2020-01-12T06:57:09Z</time>
      </trkpt>
      <trkpt lat="59.339184" lon="18.082345">
        <ele>24</ele>
        <time>2020-01-12T06:57:10Z</time>
      </trkpt>
      <trkpt lat="59.339234" lon="18.08241">
        <ele>24</ele>
        <time>2020-01-12T06:57:11Z</time>
      </trkpt>
      <trkpt lat="59.339282" lon="18.082471">
        <ele>24</ele>
        <time>2020-01-12T06:57:12Z</time>
      </trkpt>
      <trkpt lat="59.339326" lon="18.082533">
        <ele>24</ele>
        <time>2020-01-12T06:57:13Z</time>
      </trkpt>
      <trkpt lat="59.339367" lon="18.082599">
        <ele>23</ele>
        <time>2020-01-12T06:57:14Z</time>
      </trkpt>
      <trkpt lat="59.339419" lon="18.08266">
        <ele>23</ele>
        <time>2020-01-12T06:57:15Z</time>
      </trkpt>
      <trkpt lat="59.339466" lon="18.082707">
        <ele>23</ele>
        <time>2020-01-12T06:57:16Z</time>
      </trkpt>
      <trkpt lat="59.339522" lon="18.082751">
        <ele>23</ele>
        <time>2020-01-12T06:57:17Z</time>
      </trkpt>
      <trkpt lat="59.339577" lon="18.082793">
        <ele>23</ele>
        <time>2020-01-12T06:57:18Z</time>
      </trkpt>
      <trkpt lat="59.339625" lon="18.08284">
        <ele>23</ele>
        <time>2020-01-12T06:57:19Z</time>
      </trkpt>
      <trkpt lat="59.339673" lon="18.082878">
        <ele>23</ele>
        <time>2020-01-12T06:57:20Z</time>
      </trkpt>
      <trkpt lat="59.33972" lon="18.082912">
        <ele>24</ele>
        <time>2020-01-12T06:57:21Z</time>
      </trkpt>
      <trkpt lat="59.33977" lon="18.082943">
        <ele>24</ele>
        <time>2020-01-12T06:57:22Z</time>
      </trkpt>
      <trkpt lat="59.339817" lon="18.082982">
        <ele>24</ele>
        <time>2020-01-12T06:57:23Z</time>
      </trkpt>
      <trkpt lat="59.339868" lon="18.08302">
        <ele>25</ele>
        <time>2020-01-12T06:57:24Z</time>
      </trkpt>
      <trkpt lat="59.339921" lon="18.08305">
        <ele>25</ele>
        <time>2020-01-12T06:57:25Z</time>
      </trkpt>
      <trkpt lat="59.339968" lon="18.083105">
        <ele>24</ele>
        <time>2020-01-12T06:57:26Z</time>
      </trkpt>
      <trkpt lat="59.34002" lon="18.083163">
        <ele>25</ele>
        <time>2020-01-12T06:57:27Z</time>
      </trkpt>
      <trkpt lat="59.340068" lon="18.083194">
        <ele>25</ele>
        <time>2020-01-12T06:57:28Z</time>
      </trkpt>
      <trkpt lat="59.340112" lon="18.083232">
        <ele>25</ele>
        <time>2020-01-12T06:57:29Z</time>
      </trkpt>
      <trkpt lat="59.340161" lon="18.083274">
        <ele>25</ele>
        <time>2020-01-12T06:57:30Z</time>
      </trkpt>
      <trkpt lat="59.340218" lon="18.083318">
        <ele>24</ele>
        <time>2020-01-12T06:57:31Z</time>
      </trkpt>
      <trkpt lat="59.340275" lon="18.083346">
        <ele>25</ele>
        <time>2020-01-12T06:57:32Z</time>
      </trkpt>
      <trkpt lat="59.340328" lon="18.083375">
        <ele>25</ele>
        <time>2020-01-12T06:57:33Z</time>
      </trkpt>
      <trkpt lat="59.340381" lon="18.083407">
        <ele>25</ele>
        <time>2020-01-12T06:57:34Z</time>
      </trkpt>
      <trkpt lat="59.340432" lon="18.083439">
        <ele>25</ele>
        <time>2020-01-12T06:57:35Z</time>
      </trkpt>
      <trkpt lat="59.340478" lon="18.083477">
        <ele>26</ele>
        <time>2020-01-12T06:57:36Z</time>
      </trkpt>
      <trkpt lat="59.340527" lon="18.083506">
        <ele>26</ele>
        <time>2020-01-12T06:57:37Z</time>
      </trkpt>
      <trkpt lat="59.340577" lon="18.083553">
        <ele>25</ele>
        <time>2020-01-12T06:57:38Z</time>
      </trkpt>
      <trkpt lat="59.340614" lon="18.083626">
        <ele>26</ele>
        <time>2020-01-12T06:57:39Z</time>
      </trkpt>
      <trkpt lat="59.340626" lon="18.083728">
        <ele>26</ele>
        <time>2020-01-12T06:57:40Z</time>
      </trkpt>
      <trkpt lat="59.340622" lon="18.083839">
        <ele>26</ele>
        <time>2020-01-12T06:57:41Z</time>
      </trkpt>
      <trkpt lat="59.340611" lon="18.083931">
        <ele>27</ele>
        <time>2020-01-12T06:57:42Z</time>
      </trkpt>
      <trkpt lat="59.3406" lon="18.084026">
        <ele>27</ele>
        <time>2020-01-12T06:57:43Z</time>
      </trkpt>
      <trkpt lat="59.340587" lon="18.08412">
        <ele>27</ele>
        <time>2020-01-12T06:57:44Z</time>
      </trkpt>
      <trkpt lat="59.340569" lon="18.084214">
        <ele>28</ele>
        <time>2020-01-12T06:57:45Z</time>
      </trkpt>
      <trkpt lat="59.340556" lon="18.084308">
        <ele>28</ele>
        <time>2020-01-12T06:57:46Z</time>
      </trkpt>
      <trkpt lat="59.340547" lon="18.084406">
        <ele>28</ele>
        <time>2020-01-12T06:57:47Z</time>
      </trkpt>
      <trkpt lat="59.34054" lon="18.084511">
        <ele>28</ele>
        <time>2020-01-12T06:57:48Z</time>
      </trkpt>
      <trkpt lat="59.34053" lon="18.084608">
        <ele>28</ele>
        <time>2020-01-12T06:57:49Z</time>
      </trkpt>
      <trkpt lat="59.340514" lon="18.084699">
        <ele>28</ele>
        <time>2020-01-12T06:57:50Z</time>
      </trkpt>
      <trkpt lat="59.340493" lon="18.084778">
        <ele>28</ele>
        <time>2020-01-12T06:57:51Z</time>
      </trkpt>
      <trkpt lat="59.34048" lon="18.084856">
        <ele>28</ele>
        <time>2020-01-12T06:57:52Z</time>
      </trkpt>
      <trkpt lat="59.340479" lon="18.084926">
        <ele>28</ele>
        <time>2020-01-12T06:57:53Z</time>
      </trkpt>
      <trkpt lat="59.340478" lon="18.084991">
        <ele>29</ele>
        <time>2020-01-12T06:57:54Z</time>
      </trkpt>
      <trkpt lat="59.34047" lon="18.085044">
        <ele>29</ele>
        <time>2020-01-12T06:57:55Z</time>
      </trkpt>
      <trkpt lat="59.340457" lon="18.085077">
        <ele>29</ele>
        <time>2020-01-12T06:57:56Z</time>
      </trkpt>
      <trkpt lat="59.34044" lon="18.085104">
        <ele>29</ele>
        <time>2020-01-12T06:57:58Z</time>
      </trkpt>
    </trkseg>
  </trk>
</gpx>